<?xml version="1.0" encoding="UTF-8"?>
<gpx xmlns="http://www.topografix.com/GPX/1/1" xmlns:dkl="http://www.gpsware.de/DKL/1/1" xmlns:rtx="http://www.bike-gps.de/RTX/1/1" version="1.1" creator="KOMPASS Digital Map" xmlns:xsi="http://www.w3.org/2001/XMLSchema-instance" xsi:schemaLocation="http://www.topografix.com/GPX/1/1 http://www.topografix.com/GPX/1/1/gpx.xsd">
 <metadata>
 <name>KOMPASS Digital Map Track</name>
 <desc> </desc>
 <time>2010-08-26T14:25:11Z</time>
 <bounds minlat="47.122684" minlon="12.794589" maxlat="47.416084" maxlon="13.224802"/>
 </metadata>
 <trk>
 <name>2010_Bk_Käfertal</name>
 <cmt>Bk-Käfertal-Bo</cmt>
 <extensions>
 <dkl:dkl>
 <dkl:format_version>1.1</dkl:format_version>
 <dkl:format>
 <dkl:color>FF0000</dkl:color>
 <dkl:style>00000000</dkl:style>
 <dkl:strength>3</dkl:strength>
 <dkl:transparent>0</dkl:transparent>
 </dkl:format>
 </dkl:dkl>
 </extensions>
 <trkseg>
 <trkpt lat="47.284313" lon="12.828139">
 <ele>695.09</ele>
 <time>2010-08-26T06:42:36Z</time>
 </trkpt>
 <trkpt lat="47.284374" lon="12.828201">
 <ele>694.97</ele>
 <time>2010-08-26T06:42:45Z</time>
 </trkpt>
 <trkpt lat="47.284451" lon="12.828203">
 <ele>694.79</ele>
 <time>2010-08-26T06:42:53Z</time>
 </trkpt>
 <trkpt lat="47.284557" lon="12.828258">
 <ele>694.28</ele>
 <time>2010-08-26T06:43:01Z</time>
 </trkpt>
 <trkpt lat="47.284561" lon="12.828266">
 <ele>694.38</ele>
 <time>2010-08-26T06:43:02Z</time>
 </trkpt>
 <trkpt lat="47.284595" lon="12.828055">
 <ele>694.61</ele>
 <time>2010-08-26T06:43:14Z</time>
 </trkpt>
 <trkpt lat="47.284599" lon="12.827787">
 <ele>694.59</ele>
 <time>2010-08-26T06:43:20Z</time>
 </trkpt>
 <trkpt lat="47.284580" lon="12.827282">
 <ele>694.38</ele>
 <time>2010-08-26T06:43:29Z</time>
 </trkpt>
 <trkpt lat="47.284576" lon="12.826722">
 <ele>694.21</ele>
 <time>2010-08-26T06:43:38Z</time>
 </trkpt>
 <trkpt lat="47.284565" lon="12.826145">
 <ele>694.26</ele>
 <time>2010-08-26T06:43:47Z</time>
 </trkpt>
 <trkpt lat="47.284565" lon="12.825682">
 <ele>693.89</ele>
 <time>2010-08-26T06:43:54Z</time>
 </trkpt>
 <trkpt lat="47.284557" lon="12.825061">
 <ele>693.32</ele>
 <time>2010-08-26T06:44:03Z</time>
 </trkpt>
 <trkpt lat="47.284542" lon="12.824464">
 <ele>693.40</ele>
 <time>2010-08-26T06:44:12Z</time>
 </trkpt>
 <trkpt lat="47.284534" lon="12.823834">
 <ele>692.63</ele>
 <time>2010-08-26T06:44:21Z</time>
 </trkpt>
 <trkpt lat="47.284538" lon="12.823663">
 <ele>691.09</ele>
 <time>2010-08-26T06:44:25Z</time>
 </trkpt>
 <trkpt lat="47.284538" lon="12.823609">
 <ele>690.46</ele>
 <time>2010-08-26T06:44:29Z</time>
 </trkpt>
 <trkpt lat="47.284542" lon="12.823600">
 <ele>690.30</ele>
 <time>2010-08-26T06:44:30Z</time>
 </trkpt>
 <trkpt lat="47.284622" lon="12.823592">
 <ele>690.36</ele>
 <time>2010-08-26T06:44:36Z</time>
 </trkpt>
 <trkpt lat="47.284740" lon="12.823626">
 <ele>690.92</ele>
 <time>2010-08-26T06:44:40Z</time>
 </trkpt>
 <trkpt lat="47.284927" lon="12.823639">
 <ele>691.69</ele>
 <time>2010-08-26T06:44:46Z</time>
 </trkpt>
 <trkpt lat="47.285198" lon="12.823683">
 <ele>692.39</ele>
 <time>2010-08-26T06:44:54Z</time>
 </trkpt>
 <trkpt lat="47.285397" lon="12.823698">
 <ele>692.10</ele>
 <time>2010-08-26T06:44:59Z</time>
 </trkpt>
 <trkpt lat="47.285484" lon="12.823548">
 <ele>691.85</ele>
 <time>2010-08-26T06:45:03Z</time>
 </trkpt>
 <trkpt lat="47.285519" lon="12.823143">
 <ele>691.98</ele>
 <time>2010-08-26T06:45:10Z</time>
 </trkpt>
 <trkpt lat="47.285522" lon="12.822826">
 <ele>691.92</ele>
 <time>2010-08-26T06:45:15Z</time>
 </trkpt>
 <trkpt lat="47.285522" lon="12.822702">
 <ele>691.95</ele>
 <time>2010-08-26T06:45:17Z</time>
 </trkpt>
 <trkpt lat="47.285431" lon="12.822033">
 <ele>691.61</ele>
 <time>2010-08-26T06:45:27Z</time>
 </trkpt>
 <trkpt lat="47.285408" lon="12.821891">
 <ele>691.53</ele>
 <time>2010-08-26T06:45:29Z</time>
 </trkpt>
 <trkpt lat="47.285374" lon="12.821749">
 <ele>691.25</ele>
 <time>2010-08-26T06:45:31Z</time>
 </trkpt>
 <trkpt lat="47.285282" lon="12.821133">
 <ele>690.73</ele>
 <time>2010-08-26T06:45:39Z</time>
 </trkpt>
 <trkpt lat="47.285198" lon="12.820606">
 <ele>690.19</ele>
 <time>2010-08-26T06:45:46Z</time>
 </trkpt>
 <trkpt lat="47.285149" lon="12.820455">
 <ele>689.92</ele>
 <time>2010-08-26T06:45:49Z</time>
 </trkpt>
 <trkpt lat="47.285007" lon="12.820434">
 <ele>689.72</ele>
 <time>2010-08-26T06:45:53Z</time>
 </trkpt>
 <trkpt lat="47.284649" lon="12.820529">
 <ele>689.90</ele>
 <time>2010-08-26T06:46:02Z</time>
 </trkpt>
 <trkpt lat="47.284515" lon="12.820504">
 <ele>689.79</ele>
 <time>2010-08-26T06:46:07Z</time>
 </trkpt>
 <trkpt lat="47.284351" lon="12.820564">
 <ele>689.78</ele>
 <time>2010-08-26T06:46:12Z</time>
 </trkpt>
 <trkpt lat="47.284248" lon="12.820493">
 <ele>689.76</ele>
 <time>2010-08-26T06:46:16Z</time>
 </trkpt>
 <trkpt lat="47.284218" lon="12.820282">
 <ele>689.53</ele>
 <time>2010-08-26T06:46:20Z</time>
 </trkpt>
 <trkpt lat="47.284218" lon="12.819896">
 <ele>689.57</ele>
 <time>2010-08-26T06:46:25Z</time>
 </trkpt>
 <trkpt lat="47.284210" lon="12.819636">
 <ele>689.42</ele>
 <time>2010-08-26T06:46:28Z</time>
 </trkpt>
 <trkpt lat="47.284222" lon="12.819386">
 <ele>689.34</ele>
 <time>2010-08-26T06:46:31Z</time>
 </trkpt>
 <trkpt lat="47.284317" lon="12.819041">
 <ele>689.10</ele>
 <time>2010-08-26T06:46:36Z</time>
 </trkpt>
 <trkpt lat="47.284660" lon="12.818548">
 <ele>688.17</ele>
 <time>2010-08-26T06:46:44Z</time>
 </trkpt>
 <trkpt lat="47.284760" lon="12.818437">
 <ele>687.45</ele>
 <time>2010-08-26T06:46:47Z</time>
 </trkpt>
 <trkpt lat="47.284885" lon="12.818288">
 <ele>686.33</ele>
 <time>2010-08-26T06:46:52Z</time>
 </trkpt>
 <trkpt lat="47.284828" lon="12.818072">
 <ele>685.30</ele>
 <time>2010-08-26T06:46:56Z</time>
 </trkpt>
 <trkpt lat="47.284760" lon="12.817960">
 <ele>685.15</ele>
 <time>2010-08-26T06:46:58Z</time>
 </trkpt>
 <trkpt lat="47.284691" lon="12.817846">
 <ele>685.15</ele>
 <time>2010-08-26T06:47:00Z</time>
 </trkpt>
 <trkpt lat="47.284603" lon="12.817659">
 <ele>685.13</ele>
 <time>2010-08-26T06:47:03Z</time>
 </trkpt>
 <trkpt lat="47.284542" lon="12.817548">
 <ele>685.16</ele>
 <time>2010-08-26T06:47:05Z</time>
 </trkpt>
 <trkpt lat="47.284393" lon="12.817370">
 <ele>685.08</ele>
 <time>2010-08-26T06:47:10Z</time>
 </trkpt>
 <trkpt lat="47.284348" lon="12.817331">
 <ele>685.09</ele>
 <time>2010-08-26T06:47:12Z</time>
 </trkpt>
 <trkpt lat="47.284256" lon="12.817405">
 <ele>685.10</ele>
 <time>2010-08-26T06:47:16Z</time>
 </trkpt>
 <trkpt lat="47.284222" lon="12.817498">
 <ele>685.23</ele>
 <time>2010-08-26T06:47:18Z</time>
 </trkpt>
 <trkpt lat="47.284058" lon="12.817776">
 <ele>686.43</ele>
 <time>2010-08-26T06:47:25Z</time>
 </trkpt>
 <trkpt lat="47.283871" lon="12.818076">
 <ele>687.00</ele>
 <time>2010-08-26T06:47:33Z</time>
 </trkpt>
 <trkpt lat="47.283791" lon="12.818396">
 <ele>687.87</ele>
 <time>2010-08-26T06:47:39Z</time>
 </trkpt>
 <trkpt lat="47.283684" lon="12.818821">
 <ele>688.12</ele>
 <time>2010-08-26T06:47:47Z</time>
 </trkpt>
 <trkpt lat="47.283562" lon="12.819373">
 <ele>688.44</ele>
 <time>2010-08-26T06:47:57Z</time>
 </trkpt>
 <trkpt lat="47.283440" lon="12.819934">
 <ele>688.39</ele>
 <time>2010-08-26T06:48:07Z</time>
 </trkpt>
 <trkpt lat="47.283318" lon="12.820367">
 <ele>688.38</ele>
 <time>2010-08-26T06:48:15Z</time>
 </trkpt>
 <trkpt lat="47.283127" lon="12.820799">
 <ele>688.06</ele>
 <time>2010-08-26T06:48:25Z</time>
 </trkpt>
 <trkpt lat="47.282948" lon="12.821201">
 <ele>688.27</ele>
 <time>2010-08-26T06:48:33Z</time>
 </trkpt>
 <trkpt lat="47.282703" lon="12.821789">
 <ele>688.46</ele>
 <time>2010-08-26T06:48:44Z</time>
 </trkpt>
 <trkpt lat="47.282597" lon="12.822065">
 <ele>688.46</ele>
 <time>2010-08-26T06:48:49Z</time>
 </trkpt>
 <trkpt lat="47.282555" lon="12.822391">
 <ele>688.05</ele>
 <time>2010-08-26T06:48:54Z</time>
 </trkpt>
 <trkpt lat="47.282558" lon="12.823007">
 <ele>688.09</ele>
 <time>2010-08-26T06:49:03Z</time>
 </trkpt>
 <trkpt lat="47.282555" lon="12.823520">
 <ele>687.57</ele>
 <time>2010-08-26T06:49:11Z</time>
 </trkpt>
 <trkpt lat="47.282452" lon="12.823692">
 <ele>687.65</ele>
 <time>2010-08-26T06:49:15Z</time>
 </trkpt>
 <trkpt lat="47.282131" lon="12.823981">
 <ele>687.88</ele>
 <time>2010-08-26T06:49:22Z</time>
 </trkpt>
 <trkpt lat="47.281750" lon="12.824322">
 <ele>687.64</ele>
 <time>2010-08-26T06:49:31Z</time>
 </trkpt>
 <trkpt lat="47.281269" lon="12.824643">
 <ele>687.93</ele>
 <time>2010-08-26T06:49:42Z</time>
 </trkpt>
 <trkpt lat="47.280773" lon="12.824938">
 <ele>687.38</ele>
 <time>2010-08-26T06:49:53Z</time>
 </trkpt>
 <trkpt lat="47.280361" lon="12.825180">
 <ele>687.71</ele>
 <time>2010-08-26T06:50:03Z</time>
 </trkpt>
 <trkpt lat="47.280235" lon="12.825224">
 <ele>688.47</ele>
 <time>2010-08-26T06:50:06Z</time>
 </trkpt>
 <trkpt lat="47.279842" lon="12.825256">
 <ele>689.43</ele>
 <time>2010-08-26T06:50:15Z</time>
 </trkpt>
 <trkpt lat="47.279358" lon="12.825210">
 <ele>689.95</ele>
 <time>2010-08-26T06:50:26Z</time>
 </trkpt>
 <trkpt lat="47.279060" lon="12.825268">
 <ele>689.69</ele>
 <time>2010-08-26T06:50:32Z</time>
 </trkpt>
 <trkpt lat="47.278706" lon="12.825495">
 <ele>688.81</ele>
 <time>2010-08-26T06:50:39Z</time>
 </trkpt>
 <trkpt lat="47.278435" lon="12.825802">
 <ele>688.47</ele>
 <time>2010-08-26T06:50:45Z</time>
 </trkpt>
 <trkpt lat="47.278046" lon="12.826250">
 <ele>688.32</ele>
 <time>2010-08-26T06:50:54Z</time>
 </trkpt>
 <trkpt lat="47.277737" lon="12.826387">
 <ele>688.24</ele>
 <time>2010-08-26T06:51:00Z</time>
 </trkpt>
 <trkpt lat="47.277370" lon="12.826424">
 <ele>688.50</ele>
 <time>2010-08-26T06:51:07Z</time>
 </trkpt>
 <trkpt lat="47.276863" lon="12.826456">
 <ele>689.09</ele>
 <time>2010-08-26T06:51:17Z</time>
 </trkpt>
 <trkpt lat="47.276382" lon="12.826449">
 <ele>690.17</ele>
 <time>2010-08-26T06:51:28Z</time>
 </trkpt>
 <trkpt lat="47.275921" lon="12.826489">
 <ele>690.55</ele>
 <time>2010-08-26T06:51:39Z</time>
 </trkpt>
 <trkpt lat="47.275379" lon="12.826564">
 <ele>690.19</ele>
 <time>2010-08-26T06:51:51Z</time>
 </trkpt>
 <trkpt lat="47.274937" lon="12.826519">
 <ele>690.36</ele>
 <time>2010-08-26T06:52:00Z</time>
 </trkpt>
 <trkpt lat="47.274521" lon="12.826333">
 <ele>690.96</ele>
 <time>2010-08-26T06:52:09Z</time>
 </trkpt>
 <trkpt lat="47.274242" lon="12.826193">
 <ele>690.84</ele>
 <time>2010-08-26T06:52:15Z</time>
 </trkpt>
 <trkpt lat="47.274006" lon="12.826077">
 <ele>691.12</ele>
 <time>2010-08-26T06:52:20Z</time>
 </trkpt>
 <trkpt lat="47.273712" lon="12.825957">
 <ele>691.46</ele>
 <time>2010-08-26T06:52:26Z</time>
 </trkpt>
 <trkpt lat="47.273262" lon="12.825867">
 <ele>690.86</ele>
 <time>2010-08-26T06:52:35Z</time>
 </trkpt>
 <trkpt lat="47.272629" lon="12.825806">
 <ele>690.72</ele>
 <time>2010-08-26T06:52:47Z</time>
 </trkpt>
 <trkpt lat="47.272202" lon="12.825642">
 <ele>690.31</ele>
 <time>2010-08-26T06:52:55Z</time>
 </trkpt>
 <trkpt lat="47.271595" lon="12.825371">
 <ele>688.69</ele>
 <time>2010-08-26T06:53:05Z</time>
 </trkpt>
 <trkpt lat="47.270889" lon="12.825090">
 <ele>687.00</ele>
 <time>2010-08-26T06:53:16Z</time>
 </trkpt>
 <trkpt lat="47.270367" lon="12.824913">
 <ele>687.09</ele>
 <time>2010-08-26T06:53:25Z</time>
 </trkpt>
 <trkpt lat="47.269859" lon="12.824858">
 <ele>687.98</ele>
 <time>2010-08-26T06:53:34Z</time>
 </trkpt>
 <trkpt lat="47.269207" lon="12.824868">
 <ele>688.30</ele>
 <time>2010-08-26T06:53:46Z</time>
 </trkpt>
 <trkpt lat="47.268559" lon="12.824883">
 <ele>687.74</ele>
 <time>2010-08-26T06:53:57Z</time>
 </trkpt>
 <trkpt lat="47.267944" lon="12.824842">
 <ele>687.08</ele>
 <time>2010-08-26T06:54:07Z</time>
 </trkpt>
 <trkpt lat="47.267502" lon="12.824644">
 <ele>687.23</ele>
 <time>2010-08-26T06:54:15Z</time>
 </trkpt>
 <trkpt lat="47.267059" lon="12.824273">
 <ele>687.02</ele>
 <time>2010-08-26T06:54:24Z</time>
 </trkpt>
 <trkpt lat="47.266659" lon="12.823996">
 <ele>687.30</ele>
 <time>2010-08-26T06:54:32Z</time>
 </trkpt>
 <trkpt lat="47.266350" lon="12.823944">
 <ele>687.60</ele>
 <time>2010-08-26T06:54:38Z</time>
 </trkpt>
 <trkpt lat="47.266022" lon="12.824029">
 <ele>688.20</ele>
 <time>2010-08-26T06:54:45Z</time>
 </trkpt>
 <trkpt lat="47.265656" lon="12.824253">
 <ele>689.17</ele>
 <time>2010-08-26T06:54:54Z</time>
 </trkpt>
 <trkpt lat="47.265293" lon="12.824436">
 <ele>690.66</ele>
 <time>2010-08-26T06:55:04Z</time>
 </trkpt>
 <trkpt lat="47.265049" lon="12.824491">
 <ele>691.83</ele>
 <time>2010-08-26T06:55:11Z</time>
 </trkpt>
 <trkpt lat="47.264751" lon="12.824443">
 <ele>693.23</ele>
 <time>2010-08-26T06:55:20Z</time>
 </trkpt>
 <trkpt lat="47.264446" lon="12.824306">
 <ele>694.54</ele>
 <time>2010-08-26T06:55:29Z</time>
 </trkpt>
 <trkpt lat="47.264027" lon="12.824098">
 <ele>695.02</ele>
 <time>2010-08-26T06:55:41Z</time>
 </trkpt>
 <trkpt lat="47.263687" lon="12.824072">
 <ele>694.89</ele>
 <time>2010-08-26T06:55:50Z</time>
 </trkpt>
 <trkpt lat="47.263527" lon="12.824117">
 <ele>694.94</ele>
 <time>2010-08-26T06:55:54Z</time>
 </trkpt>
 <trkpt lat="47.263298" lon="12.824333">
 <ele>695.04</ele>
 <time>2010-08-26T06:56:00Z</time>
 </trkpt>
 <trkpt lat="47.263153" lon="12.824486">
 <ele>695.09</ele>
 <time>2010-08-26T06:56:04Z</time>
 </trkpt>
 <trkpt lat="47.262741" lon="12.824715">
 <ele>694.24</ele>
 <time>2010-08-26T06:56:13Z</time>
 </trkpt>
 <trkpt lat="47.262352" lon="12.824756">
 <ele>694.16</ele>
 <time>2010-08-26T06:56:21Z</time>
 </trkpt>
 <trkpt lat="47.261971" lon="12.824824">
 <ele>694.06</ele>
 <time>2010-08-26T06:56:29Z</time>
 </trkpt>
 <trkpt lat="47.261597" lon="12.825027">
 <ele>693.34</ele>
 <time>2010-08-26T06:56:37Z</time>
 </trkpt>
 <trkpt lat="47.261166" lon="12.825402">
 <ele>693.50</ele>
 <time>2010-08-26T06:56:47Z</time>
 </trkpt>
 <trkpt lat="47.260864" lon="12.825622">
 <ele>693.49</ele>
 <time>2010-08-26T06:56:54Z</time>
 </trkpt>
 <trkpt lat="47.260471" lon="12.825712">
 <ele>693.45</ele>
 <time>2010-08-26T06:57:02Z</time>
 </trkpt>
 <trkpt lat="47.260178" lon="12.825716">
 <ele>693.40</ele>
 <time>2010-08-26T06:57:08Z</time>
 </trkpt>
 <trkpt lat="47.259995" lon="12.825632">
 <ele>693.43</ele>
 <time>2010-08-26T06:57:12Z</time>
 </trkpt>
 <trkpt lat="47.259632" lon="12.825314">
 <ele>694.08</ele>
 <time>2010-08-26T06:57:21Z</time>
 </trkpt>
 <trkpt lat="47.259125" lon="12.824845">
 <ele>695.11</ele>
 <time>2010-08-26T06:57:34Z</time>
 </trkpt>
 <trkpt lat="47.258823" lon="12.824636">
 <ele>695.07</ele>
 <time>2010-08-26T06:57:41Z</time>
 </trkpt>
 <trkpt lat="47.258724" lon="12.824596">
 <ele>694.72</ele>
 <time>2010-08-26T06:57:43Z</time>
 </trkpt>
 <trkpt lat="47.258369" lon="12.824577">
 <ele>694.46</ele>
 <time>2010-08-26T06:57:50Z</time>
 </trkpt>
 <trkpt lat="47.257988" lon="12.824702">
 <ele>694.94</ele>
 <time>2010-08-26T06:57:58Z</time>
 </trkpt>
 <trkpt lat="47.257385" lon="12.824958">
 <ele>695.21</ele>
 <time>2010-08-26T06:58:11Z</time>
 </trkpt>
 <trkpt lat="47.256927" lon="12.825109">
 <ele>695.11</ele>
 <time>2010-08-26T06:58:20Z</time>
 </trkpt>
 <trkpt lat="47.256634" lon="12.825110">
 <ele>695.11</ele>
 <time>2010-08-26T06:58:26Z</time>
 </trkpt>
 <trkpt lat="47.256260" lon="12.825002">
 <ele>696.02</ele>
 <time>2010-08-26T06:58:34Z</time>
 </trkpt>
 <trkpt lat="47.255966" lon="12.824781">
 <ele>696.49</ele>
 <time>2010-08-26T06:58:41Z</time>
 </trkpt>
 <trkpt lat="47.255585" lon="12.824440">
 <ele>696.41</ele>
 <time>2010-08-26T06:58:50Z</time>
 </trkpt>
 <trkpt lat="47.255230" lon="12.824127">
 <ele>695.65</ele>
 <time>2010-08-26T06:58:57Z</time>
 </trkpt>
 <trkpt lat="47.254906" lon="12.823876">
 <ele>694.45</ele>
 <time>2010-08-26T06:59:03Z</time>
 </trkpt>
 <trkpt lat="47.254517" lon="12.823764">
 <ele>694.50</ele>
 <time>2010-08-26T06:59:10Z</time>
 </trkpt>
 <trkpt lat="47.254196" lon="12.823831">
 <ele>694.84</ele>
 <time>2010-08-26T06:59:16Z</time>
 </trkpt>
 <trkpt lat="47.253719" lon="12.824027">
 <ele>695.24</ele>
 <time>2010-08-26T06:59:26Z</time>
 </trkpt>
 <trkpt lat="47.253162" lon="12.824287">
 <ele>694.25</ele>
 <time>2010-08-26T06:59:37Z</time>
 </trkpt>
 <trkpt lat="47.252728" lon="12.824456">
 <ele>694.95</ele>
 <time>2010-08-26T06:59:46Z</time>
 </trkpt>
 <trkpt lat="47.252369" lon="12.824557">
 <ele>695.45</ele>
 <time>2010-08-26T06:59:54Z</time>
 </trkpt>
 <trkpt lat="47.252056" lon="12.824643">
 <ele>696.93</ele>
 <time>2010-08-26T07:00:02Z</time>
 </trkpt>
 <trkpt lat="47.251698" lon="12.824783">
 <ele>697.87</ele>
 <time>2010-08-26T07:00:12Z</time>
 </trkpt>
 <trkpt lat="47.251438" lon="12.825002">
 <ele>698.90</ele>
 <time>2010-08-26T07:00:20Z</time>
 </trkpt>
 <trkpt lat="47.251225" lon="12.825230">
 <ele>699.74</ele>
 <time>2010-08-26T07:00:27Z</time>
 </trkpt>
 <trkpt lat="47.250889" lon="12.825774">
 <ele>700.43</ele>
 <time>2010-08-26T07:00:39Z</time>
 </trkpt>
 <trkpt lat="47.250603" lon="12.826240">
 <ele>700.14</ele>
 <time>2010-08-26T07:00:49Z</time>
 </trkpt>
 <trkpt lat="47.250263" lon="12.826755">
 <ele>700.60</ele>
 <time>2010-08-26T07:01:00Z</time>
 </trkpt>
 <trkpt lat="47.250004" lon="12.827159">
 <ele>701.76</ele>
 <time>2010-08-26T07:01:09Z</time>
 </trkpt>
 <trkpt lat="47.249607" lon="12.827664">
 <ele>701.24</ele>
 <time>2010-08-26T07:01:20Z</time>
 </trkpt>
 <trkpt lat="47.249443" lon="12.827796">
 <ele>701.15</ele>
 <time>2010-08-26T07:01:24Z</time>
 </trkpt>
 <trkpt lat="47.249062" lon="12.827927">
 <ele>701.47</ele>
 <time>2010-08-26T07:01:33Z</time>
 </trkpt>
 <trkpt lat="47.248699" lon="12.827907">
 <ele>702.71</ele>
 <time>2010-08-26T07:01:42Z</time>
 </trkpt>
 <trkpt lat="47.248211" lon="12.827799">
 <ele>703.30</ele>
 <time>2010-08-26T07:01:54Z</time>
 </trkpt>
 <trkpt lat="47.247768" lon="12.827696">
 <ele>703.12</ele>
 <time>2010-08-26T07:02:04Z</time>
 </trkpt>
 <trkpt lat="47.247383" lon="12.827608">
 <ele>703.29</ele>
 <time>2010-08-26T07:02:13Z</time>
 </trkpt>
 <trkpt lat="47.246929" lon="12.827508">
 <ele>703.20</ele>
 <time>2010-08-26T07:02:23Z</time>
 </trkpt>
 <trkpt lat="47.246418" lon="12.827396">
 <ele>703.50</ele>
 <time>2010-08-26T07:02:34Z</time>
 </trkpt>
 <trkpt lat="47.245800" lon="12.827257">
 <ele>702.90</ele>
 <time>2010-08-26T07:02:47Z</time>
 </trkpt>
 <trkpt lat="47.245274" lon="12.827145">
 <ele>702.52</ele>
 <time>2010-08-26T07:02:58Z</time>
 </trkpt>
 <trkpt lat="47.244789" lon="12.827059">
 <ele>702.59</ele>
 <time>2010-08-26T07:03:08Z</time>
 </trkpt>
 <trkpt lat="47.244385" lon="12.826936">
 <ele>702.73</ele>
 <time>2010-08-26T07:03:17Z</time>
 </trkpt>
 <trkpt lat="47.244343" lon="12.826916">
 <ele>702.78</ele>
 <time>2010-08-26T07:03:18Z</time>
 </trkpt>
 <trkpt lat="47.244122" lon="12.826854">
 <ele>702.23</ele>
 <time>2010-08-26T07:03:23Z</time>
 </trkpt>
 <trkpt lat="47.243656" lon="12.826316">
 <ele>701.29</ele>
 <time>2010-08-26T07:03:34Z</time>
 </trkpt>
 <trkpt lat="47.243328" lon="12.825934">
 <ele>701.35</ele>
 <time>2010-08-26T07:03:42Z</time>
 </trkpt>
 <trkpt lat="47.242908" lon="12.825427">
 <ele>701.03</ele>
 <time>2010-08-26T07:03:52Z</time>
 </trkpt>
 <trkpt lat="47.242439" lon="12.824928">
 <ele>701.19</ele>
 <time>2010-08-26T07:04:03Z</time>
 </trkpt>
 <trkpt lat="47.242195" lon="12.824811">
 <ele>701.22</ele>
 <time>2010-08-26T07:04:08Z</time>
 </trkpt>
 <trkpt lat="47.241714" lon="12.824777">
 <ele>701.08</ele>
 <time>2010-08-26T07:04:17Z</time>
 </trkpt>
 <trkpt lat="47.241245" lon="12.824714">
 <ele>701.06</ele>
 <time>2010-08-26T07:04:26Z</time>
 </trkpt>
 <trkpt lat="47.240677" lon="12.824654">
 <ele>701.23</ele>
 <time>2010-08-26T07:04:37Z</time>
 </trkpt>
 <trkpt lat="47.240273" lon="12.824610">
 <ele>701.39</ele>
 <time>2010-08-26T07:04:45Z</time>
 </trkpt>
 <trkpt lat="47.239586" lon="12.824528">
 <ele>701.49</ele>
 <time>2010-08-26T07:04:58Z</time>
 </trkpt>
 <trkpt lat="47.239193" lon="12.824492">
 <ele>701.84</ele>
 <time>2010-08-26T07:05:06Z</time>
 </trkpt>
 <trkpt lat="47.238750" lon="12.824480">
 <ele>702.58</ele>
 <time>2010-08-26T07:05:15Z</time>
 </trkpt>
 <trkpt lat="47.238312" lon="12.824574">
 <ele>703.27</ele>
 <time>2010-08-26T07:05:24Z</time>
 </trkpt>
 <trkpt lat="47.237789" lon="12.824770">
 <ele>703.47</ele>
 <time>2010-08-26T07:05:35Z</time>
 </trkpt>
 <trkpt lat="47.237392" lon="12.825002">
 <ele>704.22</ele>
 <time>2010-08-26T07:05:44Z</time>
 </trkpt>
 <trkpt lat="47.236973" lon="12.825320">
 <ele>704.87</ele>
 <time>2010-08-26T07:05:54Z</time>
 </trkpt>
 <trkpt lat="47.236805" lon="12.825547">
 <ele>705.22</ele>
 <time>2010-08-26T07:05:59Z</time>
 </trkpt>
 <trkpt lat="47.236637" lon="12.825660">
 <ele>705.37</ele>
 <time>2010-08-26T07:06:03Z</time>
 </trkpt>
 <trkpt lat="47.236462" lon="12.825809">
 <ele>705.86</ele>
 <time>2010-08-26T07:06:09Z</time>
 </trkpt>
 <trkpt lat="47.236359" lon="12.825874">
 <ele>706.07</ele>
 <time>2010-08-26T07:06:15Z</time>
 </trkpt>
 <trkpt lat="47.236259" lon="12.825909">
 <ele>706.08</ele>
 <time>2010-08-26T07:06:18Z</time>
 </trkpt>
 <trkpt lat="47.236080" lon="12.826033">
 <ele>705.77</ele>
 <time>2010-08-26T07:06:22Z</time>
 </trkpt>
 <trkpt lat="47.235672" lon="12.826227">
 <ele>705.43</ele>
 <time>2010-08-26T07:06:30Z</time>
 </trkpt>
 <trkpt lat="47.235355" lon="12.826215">
 <ele>705.85</ele>
 <time>2010-08-26T07:06:36Z</time>
 </trkpt>
 <trkpt lat="47.234951" lon="12.826040">
 <ele>706.05</ele>
 <time>2010-08-26T07:06:44Z</time>
 </trkpt>
 <trkpt lat="47.234402" lon="12.825728">
 <ele>705.99</ele>
 <time>2010-08-26T07:06:55Z</time>
 </trkpt>
 <trkpt lat="47.233810" lon="12.825384">
 <ele>706.29</ele>
 <time>2010-08-26T07:07:07Z</time>
 </trkpt>
 <trkpt lat="47.233292" lon="12.825114">
 <ele>706.86</ele>
 <time>2010-08-26T07:07:18Z</time>
 </trkpt>
 <trkpt lat="47.232948" lon="12.825069">
 <ele>707.00</ele>
 <time>2010-08-26T07:07:25Z</time>
 </trkpt>
 <trkpt lat="47.232555" lon="12.825177">
 <ele>706.80</ele>
 <time>2010-08-26T07:07:33Z</time>
 </trkpt>
 <trkpt lat="47.232098" lon="12.825360">
 <ele>706.31</ele>
 <time>2010-08-26T07:07:42Z</time>
 </trkpt>
 <trkpt lat="47.231503" lon="12.825610">
 <ele>706.52</ele>
 <time>2010-08-26T07:07:54Z</time>
 </trkpt>
 <trkpt lat="47.231068" lon="12.825871">
 <ele>706.69</ele>
 <time>2010-08-26T07:08:03Z</time>
 </trkpt>
 <trkpt lat="47.230621" lon="12.826281">
 <ele>706.50</ele>
 <time>2010-08-26T07:08:13Z</time>
 </trkpt>
 <trkpt lat="47.230179" lon="12.826678">
 <ele>705.99</ele>
 <time>2010-08-26T07:08:23Z</time>
 </trkpt>
 <trkpt lat="47.230007" lon="12.826833">
 <ele>706.05</ele>
 <time>2010-08-26T07:08:27Z</time>
 </trkpt>
 <trkpt lat="47.229664" lon="12.826924">
 <ele>706.11</ele>
 <time>2010-08-26T07:08:34Z</time>
 </trkpt>
 <trkpt lat="47.229153" lon="12.826891">
 <ele>706.49</ele>
 <time>2010-08-26T07:08:44Z</time>
 </trkpt>
 <trkpt lat="47.228592" lon="12.826883">
 <ele>706.47</ele>
 <time>2010-08-26T07:08:55Z</time>
 </trkpt>
 <trkpt lat="47.227924" lon="12.826869">
 <ele>706.46</ele>
 <time>2010-08-26T07:09:08Z</time>
 </trkpt>
 <trkpt lat="47.227425" lon="12.826767">
 <ele>706.40</ele>
 <time>2010-08-26T07:09:18Z</time>
 </trkpt>
 <trkpt lat="47.227123" lon="12.826659">
 <ele>706.37</ele>
 <time>2010-08-26T07:09:24Z</time>
 </trkpt>
 <trkpt lat="47.226631" lon="12.826474">
 <ele>706.65</ele>
 <time>2010-08-26T07:09:34Z</time>
 </trkpt>
 <trkpt lat="47.226200" lon="12.826352">
 <ele>706.82</ele>
 <time>2010-08-26T07:09:43Z</time>
 </trkpt>
 <trkpt lat="47.225800" lon="12.826322">
 <ele>707.98</ele>
 <time>2010-08-26T07:09:52Z</time>
 </trkpt>
 <trkpt lat="47.225338" lon="12.826383">
 <ele>709.60</ele>
 <time>2010-08-26T07:10:03Z</time>
 </trkpt>
 <trkpt lat="47.224804" lon="12.826526">
 <ele>709.59</ele>
 <time>2010-08-26T07:10:15Z</time>
 </trkpt>
 <trkpt lat="47.224304" lon="12.826614">
 <ele>708.72</ele>
 <time>2010-08-26T07:10:24Z</time>
 </trkpt>
 <trkpt lat="47.223774" lon="12.826656">
 <ele>708.85</ele>
 <time>2010-08-26T07:10:34Z</time>
 </trkpt>
 <trkpt lat="47.223133" lon="12.826692">
 <ele>708.93</ele>
 <time>2010-08-26T07:10:47Z</time>
 </trkpt>
 <trkpt lat="47.222549" lon="12.826713">
 <ele>709.65</ele>
 <time>2010-08-26T07:10:59Z</time>
 </trkpt>
 <trkpt lat="47.221874" lon="12.826676">
 <ele>710.26</ele>
 <time>2010-08-26T07:11:13Z</time>
 </trkpt>
 <trkpt lat="47.221451" lon="12.826772">
 <ele>710.40</ele>
 <time>2010-08-26T07:11:22Z</time>
 </trkpt>
 <trkpt lat="47.220978" lon="12.826881">
 <ele>710.72</ele>
 <time>2010-08-26T07:11:32Z</time>
 </trkpt>
 <trkpt lat="47.220497" lon="12.826966">
 <ele>711.02</ele>
 <time>2010-08-26T07:11:42Z</time>
 </trkpt>
 <trkpt lat="47.219994" lon="12.827094">
 <ele>711.58</ele>
 <time>2010-08-26T07:11:53Z</time>
 </trkpt>
 <trkpt lat="47.219643" lon="12.827289">
 <ele>711.84</ele>
 <time>2010-08-26T07:12:01Z</time>
 </trkpt>
 <trkpt lat="47.219189" lon="12.827564">
 <ele>712.23</ele>
 <time>2010-08-26T07:12:11Z</time>
 </trkpt>
 <trkpt lat="47.218716" lon="12.827694">
 <ele>712.72</ele>
 <time>2010-08-26T07:12:21Z</time>
 </trkpt>
 <trkpt lat="47.218285" lon="12.827676">
 <ele>714.45</ele>
 <time>2010-08-26T07:12:31Z</time>
 </trkpt>
 <trkpt lat="47.217831" lon="12.827575">
 <ele>716.21</ele>
 <time>2010-08-26T07:12:42Z</time>
 </trkpt>
 <trkpt lat="47.217365" lon="12.827586">
 <ele>716.84</ele>
 <time>2010-08-26T07:12:52Z</time>
 </trkpt>
 <trkpt lat="47.216812" lon="12.827646">
 <ele>716.65</ele>
 <time>2010-08-26T07:13:04Z</time>
 </trkpt>
 <trkpt lat="47.216370" lon="12.827739">
 <ele>717.12</ele>
 <time>2010-08-26T07:13:14Z</time>
 </trkpt>
 <trkpt lat="47.215919" lon="12.827897">
 <ele>717.17</ele>
 <time>2010-08-26T07:13:24Z</time>
 </trkpt>
 <trkpt lat="47.215431" lon="12.828083">
 <ele>717.53</ele>
 <time>2010-08-26T07:13:35Z</time>
 </trkpt>
 <trkpt lat="47.214878" lon="12.828292">
 <ele>718.31</ele>
 <time>2010-08-26T07:13:48Z</time>
 </trkpt>
 <trkpt lat="47.214279" lon="12.828521">
 <ele>719.44</ele>
 <time>2010-08-26T07:14:02Z</time>
 </trkpt>
 <trkpt lat="47.213795" lon="12.828769">
 <ele>721.06</ele>
 <time>2010-08-26T07:14:14Z</time>
 </trkpt>
 <trkpt lat="47.213333" lon="12.829166">
 <ele>722.54</ele>
 <time>2010-08-26T07:14:27Z</time>
 </trkpt>
 <trkpt lat="47.212852" lon="12.829726">
 <ele>724.72</ele>
 <time>2010-08-26T07:14:42Z</time>
 </trkpt>
 <trkpt lat="47.212593" lon="12.830034">
 <ele>725.54</ele>
 <time>2010-08-26T07:14:50Z</time>
 </trkpt>
 <trkpt lat="47.212337" lon="12.830306">
 <ele>725.34</ele>
 <time>2010-08-26T07:14:57Z</time>
 </trkpt>
 <trkpt lat="47.211922" lon="12.830739">
 <ele>725.60</ele>
 <time>2010-08-26T07:15:08Z</time>
 </trkpt>
 <trkpt lat="47.211555" lon="12.831102">
 <ele>725.71</ele>
 <time>2010-08-26T07:15:18Z</time>
 </trkpt>
 <trkpt lat="47.211243" lon="12.831340">
 <ele>726.19</ele>
 <time>2010-08-26T07:15:26Z</time>
 </trkpt>
 <trkpt lat="47.210819" lon="12.831611">
 <ele>726.17</ele>
 <time>2010-08-26T07:15:36Z</time>
 </trkpt>
 <trkpt lat="47.210423" lon="12.831751">
 <ele>726.27</ele>
 <time>2010-08-26T07:15:45Z</time>
 </trkpt>
 <trkpt lat="47.210079" lon="12.831789">
 <ele>726.87</ele>
 <time>2010-08-26T07:15:53Z</time>
 </trkpt>
 <trkpt lat="47.209812" lon="12.831812">
 <ele>727.97</ele>
 <time>2010-08-26T07:16:00Z</time>
 </trkpt>
 <trkpt lat="47.209438" lon="12.831884">
 <ele>730.11</ele>
 <time>2010-08-26T07:16:10Z</time>
 </trkpt>
 <trkpt lat="47.208961" lon="12.832005">
 <ele>730.80</ele>
 <time>2010-08-26T07:16:22Z</time>
 </trkpt>
 <trkpt lat="47.208447" lon="12.832142">
 <ele>731.67</ele>
 <time>2010-08-26T07:16:35Z</time>
 </trkpt>
 <trkpt lat="47.207958" lon="12.832269">
 <ele>732.92</ele>
 <time>2010-08-26T07:16:48Z</time>
 </trkpt>
 <trkpt lat="47.207581" lon="12.832365">
 <ele>733.88</ele>
 <time>2010-08-26T07:16:58Z</time>
 </trkpt>
 <trkpt lat="47.207130" lon="12.832481">
 <ele>735.51</ele>
 <time>2010-08-26T07:17:10Z</time>
 </trkpt>
 <trkpt lat="47.206844" lon="12.832558">
 <ele>736.01</ele>
 <time>2010-08-26T07:17:18Z</time>
 </trkpt>
 <trkpt lat="47.206505" lon="12.832645">
 <ele>736.97</ele>
 <time>2010-08-26T07:17:27Z</time>
 </trkpt>
 <trkpt lat="47.206120" lon="12.832740">
 <ele>737.91</ele>
 <time>2010-08-26T07:17:37Z</time>
 </trkpt>
 <trkpt lat="47.205814" lon="12.832699">
 <ele>738.67</ele>
 <time>2010-08-26T07:17:45Z</time>
 </trkpt>
 <trkpt lat="47.205486" lon="12.832642">
 <ele>739.77</ele>
 <time>2010-08-26T07:17:55Z</time>
 </trkpt>
 <trkpt lat="47.205265" lon="12.832631">
 <ele>741.03</ele>
 <time>2010-08-26T07:18:02Z</time>
 </trkpt>
 <trkpt lat="47.204845" lon="12.832657">
 <ele>742.52</ele>
 <time>2010-08-26T07:18:15Z</time>
 </trkpt>
 <trkpt lat="47.204491" lon="12.832682">
 <ele>743.60</ele>
 <time>2010-08-26T07:18:26Z</time>
 </trkpt>
 <trkpt lat="47.204147" lon="12.832711">
 <ele>745.17</ele>
 <time>2010-08-26T07:18:37Z</time>
 </trkpt>
 <trkpt lat="47.203861" lon="12.832743">
 <ele>746.68</ele>
 <time>2010-08-26T07:18:47Z</time>
 </trkpt>
 <trkpt lat="47.203579" lon="12.832785">
 <ele>748.16</ele>
 <time>2010-08-26T07:18:57Z</time>
 </trkpt>
 <trkpt lat="47.203419" lon="12.832786">
 <ele>749.04</ele>
 <time>2010-08-26T07:19:03Z</time>
 </trkpt>
 <trkpt lat="47.203156" lon="12.832814">
 <ele>750.88</ele>
 <time>2010-08-26T07:19:13Z</time>
 </trkpt>
 <trkpt lat="47.202957" lon="12.832844">
 <ele>752.05</ele>
 <time>2010-08-26T07:19:22Z</time>
 </trkpt>
 <trkpt lat="47.202831" lon="12.832864">
 <ele>753.08</ele>
 <time>2010-08-26T07:19:28Z</time>
 </trkpt>
 <trkpt lat="47.202610" lon="12.832930">
 <ele>754.25</ele>
 <time>2010-08-26T07:19:36Z</time>
 </trkpt>
 <trkpt lat="47.202358" lon="12.833071">
 <ele>755.40</ele>
 <time>2010-08-26T07:19:46Z</time>
 </trkpt>
 <trkpt lat="47.202160" lon="12.833243">
 <ele>756.36</ele>
 <time>2010-08-26T07:19:55Z</time>
 </trkpt>
 <trkpt lat="47.201958" lon="12.833410">
 <ele>757.12</ele>
 <time>2010-08-26T07:20:04Z</time>
 </trkpt>
 <trkpt lat="47.201668" lon="12.833603">
 <ele>758.49</ele>
 <time>2010-08-26T07:20:17Z</time>
 </trkpt>
 <trkpt lat="47.201508" lon="12.833670">
 <ele>760.04</ele>
 <time>2010-08-26T07:20:26Z</time>
 </trkpt>
 <trkpt lat="47.201336" lon="12.833732">
 <ele>761.28</ele>
 <time>2010-08-26T07:20:36Z</time>
 </trkpt>
 <trkpt lat="47.201130" lon="12.833803">
 <ele>763.07</ele>
 <time>2010-08-26T07:20:48Z</time>
 </trkpt>
 <trkpt lat="47.200932" lon="12.833874">
 <ele>765.21</ele>
 <time>2010-08-26T07:21:00Z</time>
 </trkpt>
 <trkpt lat="47.200718" lon="12.833949">
 <ele>767.66</ele>
 <time>2010-08-26T07:21:13Z</time>
 </trkpt>
 <trkpt lat="47.200535" lon="12.834006">
 <ele>769.22</ele>
 <time>2010-08-26T07:21:24Z</time>
 </trkpt>
 <trkpt lat="47.200333" lon="12.834065">
 <ele>771.42</ele>
 <time>2010-08-26T07:21:36Z</time>
 </trkpt>
 <trkpt lat="47.200134" lon="12.834079">
 <ele>773.60</ele>
 <time>2010-08-26T07:21:48Z</time>
 </trkpt>
 <trkpt lat="47.199963" lon="12.834042">
 <ele>775.38</ele>
 <time>2010-08-26T07:21:59Z</time>
 </trkpt>
 <trkpt lat="47.199806" lon="12.834000">
 <ele>777.40</ele>
 <time>2010-08-26T07:22:09Z</time>
 </trkpt>
 <trkpt lat="47.199612" lon="12.833955">
 <ele>779.21</ele>
 <time>2010-08-26T07:22:21Z</time>
 </trkpt>
 <trkpt lat="47.199436" lon="12.833908">
 <ele>781.11</ele>
 <time>2010-08-26T07:22:32Z</time>
 </trkpt>
 <trkpt lat="47.199245" lon="12.833870">
 <ele>783.39</ele>
 <time>2010-08-26T07:22:44Z</time>
 </trkpt>
 <trkpt lat="47.199032" lon="12.833869">
 <ele>786.11</ele>
 <time>2010-08-26T07:22:57Z</time>
 </trkpt>
 <trkpt lat="47.198872" lon="12.833907">
 <ele>787.46</ele>
 <time>2010-08-26T07:23:07Z</time>
 </trkpt>
 <trkpt lat="47.198681" lon="12.833994">
 <ele>789.16</ele>
 <time>2010-08-26T07:23:19Z</time>
 </trkpt>
 <trkpt lat="47.198490" lon="12.834070">
 <ele>790.93</ele>
 <time>2010-08-26T07:23:31Z</time>
 </trkpt>
 <trkpt lat="47.198280" lon="12.834115">
 <ele>792.99</ele>
 <time>2010-08-26T07:23:44Z</time>
 </trkpt>
 <trkpt lat="47.198078" lon="12.834097">
 <ele>795.21</ele>
 <time>2010-08-26T07:23:56Z</time>
 </trkpt>
 <trkpt lat="47.197910" lon="12.834053">
 <ele>797.22</ele>
 <time>2010-08-26T07:24:07Z</time>
 </trkpt>
 <trkpt lat="47.197754" lon="12.833994">
 <ele>799.19</ele>
 <time>2010-08-26T07:24:17Z</time>
 </trkpt>
 <trkpt lat="47.197636" lon="12.833928">
 <ele>800.55</ele>
 <time>2010-08-26T07:24:25Z</time>
 </trkpt>
 <trkpt lat="47.197502" lon="12.833843">
 <ele>802.32</ele>
 <time>2010-08-26T07:24:34Z</time>
 </trkpt>
 <trkpt lat="47.197334" lon="12.833727">
 <ele>803.80</ele>
 <time>2010-08-26T07:24:45Z</time>
 </trkpt>
 <trkpt lat="47.197189" lon="12.833641">
 <ele>805.80</ele>
 <time>2010-08-26T07:24:55Z</time>
 </trkpt>
 <trkpt lat="47.196964" lon="12.833536">
 <ele>807.91</ele>
 <time>2010-08-26T07:25:10Z</time>
 </trkpt>
 <trkpt lat="47.196789" lon="12.833424">
 <ele>810.05</ele>
 <time>2010-08-26T07:25:22Z</time>
 </trkpt>
 <trkpt lat="47.196651" lon="12.833308">
 <ele>811.91</ele>
 <time>2010-08-26T07:25:32Z</time>
 </trkpt>
 <trkpt lat="47.196537" lon="12.833176">
 <ele>813.53</ele>
 <time>2010-08-26T07:25:41Z</time>
 </trkpt>
 <trkpt lat="47.196400" lon="12.832987">
 <ele>815.45</ele>
 <time>2010-08-26T07:25:52Z</time>
 </trkpt>
 <trkpt lat="47.196274" lon="12.832776">
 <ele>816.99</ele>
 <time>2010-08-26T07:26:03Z</time>
 </trkpt>
 <trkpt lat="47.196163" lon="12.832577">
 <ele>818.87</ele>
 <time>2010-08-26T07:26:13Z</time>
 </trkpt>
 <trkpt lat="47.196033" lon="12.832377">
 <ele>821.24</ele>
 <time>2010-08-26T07:26:24Z</time>
 </trkpt>
 <trkpt lat="47.195946" lon="12.832246">
 <ele>822.29</ele>
 <time>2010-08-26T07:26:32Z</time>
 </trkpt>
 <trkpt lat="47.195805" lon="12.832101">
 <ele>823.99</ele>
 <time>2010-08-26T07:26:42Z</time>
 </trkpt>
 <trkpt lat="47.195641" lon="12.831960">
 <ele>825.94</ele>
 <time>2010-08-26T07:26:53Z</time>
 </trkpt>
 <trkpt lat="47.195457" lon="12.831798">
 <ele>828.16</ele>
 <time>2010-08-26T07:27:06Z</time>
 </trkpt>
 <trkpt lat="47.195313" lon="12.831675">
 <ele>829.60</ele>
 <time>2010-08-26T07:27:16Z</time>
 </trkpt>
 <trkpt lat="47.195156" lon="12.831537">
 <ele>831.59</ele>
 <time>2010-08-26T07:27:27Z</time>
 </trkpt>
 <trkpt lat="47.194996" lon="12.831403">
 <ele>833.80</ele>
 <time>2010-08-26T07:27:38Z</time>
 </trkpt>
 <trkpt lat="47.194801" lon="12.831256">
 <ele>835.55</ele>
 <time>2010-08-26T07:27:51Z</time>
 </trkpt>
 <trkpt lat="47.194698" lon="12.831179">
 <ele>836.63</ele>
 <time>2010-08-26T07:27:58Z</time>
 </trkpt>
 <trkpt lat="47.194550" lon="12.831078">
 <ele>837.72</ele>
 <time>2010-08-26T07:28:08Z</time>
 </trkpt>
 <trkpt lat="47.194386" lon="12.830901">
 <ele>839.17</ele>
 <time>2010-08-26T07:28:20Z</time>
 </trkpt>
 <trkpt lat="47.194305" lon="12.830782">
 <ele>840.57</ele>
 <time>2010-08-26T07:28:27Z</time>
 </trkpt>
 <trkpt lat="47.194237" lon="12.830664">
 <ele>841.54</ele>
 <time>2010-08-26T07:28:34Z</time>
 </trkpt>
 <trkpt lat="47.194195" lon="12.830620">
 <ele>842.50</ele>
 <time>2010-08-26T07:28:39Z</time>
 </trkpt>
 <trkpt lat="47.194145" lon="12.830596">
 <ele>842.39</ele>
 <time>2010-08-26T07:28:49Z</time>
 </trkpt>
 <trkpt lat="47.194160" lon="12.830598">
 <ele>842.59</ele>
 <time>2010-08-26T07:28:52Z</time>
 </trkpt>
 <trkpt lat="47.194160" lon="12.830621">
 <ele>842.91</ele>
 <time>2010-08-26T07:28:56Z</time>
 </trkpt>
 <trkpt lat="47.194221" lon="12.830672">
 <ele>842.67</ele>
 <time>2010-08-26T07:29:06Z</time>
 </trkpt>
 <trkpt lat="47.194160" lon="12.830700">
 <ele>842.56</ele>
 <time>2010-08-26T07:29:10Z</time>
 </trkpt>
 <trkpt lat="47.194168" lon="12.830702">
 <ele>842.63</ele>
 <time>2010-08-26T07:29:11Z</time>
 </trkpt>
 <trkpt lat="47.194195" lon="12.830610">
 <ele>842.12</ele>
 <time>2010-08-26T07:31:39Z</time>
 </trkpt>
 <trkpt lat="47.194149" lon="12.830613">
 <ele>842.24</ele>
 <time>2010-08-26T07:31:47Z</time>
 </trkpt>
 <trkpt lat="47.194130" lon="12.830606">
 <ele>841.93</ele>
 <time>2010-08-26T07:32:11Z</time>
 </trkpt>
 <trkpt lat="47.194126" lon="12.830601">
 <ele>841.98</ele>
 <time>2010-08-26T07:32:12Z</time>
 </trkpt>
 <trkpt lat="47.194183" lon="12.830562">
 <ele>842.24</ele>
 <time>2010-08-26T07:32:25Z</time>
 </trkpt>
 <trkpt lat="47.194317" lon="12.830558">
 <ele>842.41</ele>
 <time>2010-08-26T07:32:59Z</time>
 </trkpt>
 <trkpt lat="47.194321" lon="12.830552">
 <ele>842.48</ele>
 <time>2010-08-26T07:33:00Z</time>
 </trkpt>
 <trkpt lat="47.194275" lon="12.830520">
 <ele>842.87</ele>
 <time>2010-08-26T07:33:04Z</time>
 </trkpt>
 <trkpt lat="47.194134" lon="12.830360">
 <ele>844.73</ele>
 <time>2010-08-26T07:33:14Z</time>
 </trkpt>
 <trkpt lat="47.194054" lon="12.830193">
 <ele>846.02</ele>
 <time>2010-08-26T07:33:23Z</time>
 </trkpt>
 <trkpt lat="47.193981" lon="12.830044">
 <ele>847.12</ele>
 <time>2010-08-26T07:33:31Z</time>
 </trkpt>
 <trkpt lat="47.193867" lon="12.829843">
 <ele>849.75</ele>
 <time>2010-08-26T07:33:43Z</time>
 </trkpt>
 <trkpt lat="47.193779" lon="12.829633">
 <ele>851.63</ele>
 <time>2010-08-26T07:33:54Z</time>
 </trkpt>
 <trkpt lat="47.193726" lon="12.829508">
 <ele>852.80</ele>
 <time>2010-08-26T07:34:01Z</time>
 </trkpt>
 <trkpt lat="47.193657" lon="12.829346">
 <ele>854.28</ele>
 <time>2010-08-26T07:34:09Z</time>
 </trkpt>
 <trkpt lat="47.193588" lon="12.829279">
 <ele>855.29</ele>
 <time>2010-08-26T07:34:13Z</time>
 </trkpt>
 <trkpt lat="47.193550" lon="12.829077">
 <ele>856.80</ele>
 <time>2010-08-26T07:34:23Z</time>
 </trkpt>
 <trkpt lat="47.193485" lon="12.828922">
 <ele>858.24</ele>
 <time>2010-08-26T07:34:31Z</time>
 </trkpt>
 <trkpt lat="47.193382" lon="12.828776">
 <ele>859.81</ele>
 <time>2010-08-26T07:34:41Z</time>
 </trkpt>
 <trkpt lat="47.193260" lon="12.828609">
 <ele>861.25</ele>
 <time>2010-08-26T07:34:52Z</time>
 </trkpt>
 <trkpt lat="47.193165" lon="12.828485">
 <ele>863.03</ele>
 <time>2010-08-26T07:35:01Z</time>
 </trkpt>
 <trkpt lat="47.193092" lon="12.828366">
 <ele>864.69</ele>
 <time>2010-08-26T07:35:10Z</time>
 </trkpt>
 <trkpt lat="47.193005" lon="12.828236">
 <ele>866.15</ele>
 <time>2010-08-26T07:35:19Z</time>
 </trkpt>
 <trkpt lat="47.192860" lon="12.828020">
 <ele>868.49</ele>
 <time>2010-08-26T07:35:32Z</time>
 </trkpt>
 <trkpt lat="47.192726" lon="12.827786">
 <ele>870.64</ele>
 <time>2010-08-26T07:35:45Z</time>
 </trkpt>
 <trkpt lat="47.192524" lon="12.827607">
 <ele>873.16</ele>
 <time>2010-08-26T07:35:56Z</time>
 </trkpt>
 <trkpt lat="47.192356" lon="12.827411">
 <ele>875.02</ele>
 <time>2010-08-26T07:36:07Z</time>
 </trkpt>
 <trkpt lat="47.192169" lon="12.827169">
 <ele>877.53</ele>
 <time>2010-08-26T07:36:21Z</time>
 </trkpt>
 <trkpt lat="47.192036" lon="12.827025">
 <ele>879.45</ele>
 <time>2010-08-26T07:36:30Z</time>
 </trkpt>
 <trkpt lat="47.191875" lon="12.826894">
 <ele>880.82</ele>
 <time>2010-08-26T07:36:41Z</time>
 </trkpt>
 <trkpt lat="47.191757" lon="12.826808">
 <ele>882.59</ele>
 <time>2010-08-26T07:36:50Z</time>
 </trkpt>
 <trkpt lat="47.191643" lon="12.826714">
 <ele>884.09</ele>
 <time>2010-08-26T07:36:59Z</time>
 </trkpt>
 <trkpt lat="47.191517" lon="12.826592">
 <ele>885.79</ele>
 <time>2010-08-26T07:37:08Z</time>
 </trkpt>
 <trkpt lat="47.191410" lon="12.826495">
 <ele>887.25</ele>
 <time>2010-08-26T07:37:16Z</time>
 </trkpt>
 <trkpt lat="47.191288" lon="12.826399">
 <ele>888.74</ele>
 <time>2010-08-26T07:37:25Z</time>
 </trkpt>
 <trkpt lat="47.191177" lon="12.826337">
 <ele>890.33</ele>
 <time>2010-08-26T07:37:33Z</time>
 </trkpt>
 <trkpt lat="47.190998" lon="12.826283">
 <ele>891.91</ele>
 <time>2010-08-26T07:37:44Z</time>
 </trkpt>
 <trkpt lat="47.190823" lon="12.826243">
 <ele>893.64</ele>
 <time>2010-08-26T07:37:55Z</time>
 </trkpt>
 <trkpt lat="47.190632" lon="12.826203">
 <ele>895.24</ele>
 <time>2010-08-26T07:38:07Z</time>
 </trkpt>
 <trkpt lat="47.190475" lon="12.826179">
 <ele>897.15</ele>
 <time>2010-08-26T07:38:17Z</time>
 </trkpt>
 <trkpt lat="47.190300" lon="12.826146">
 <ele>898.75</ele>
 <time>2010-08-26T07:38:28Z</time>
 </trkpt>
 <trkpt lat="47.190098" lon="12.826053">
 <ele>900.75</ele>
 <time>2010-08-26T07:38:40Z</time>
 </trkpt>
 <trkpt lat="47.189980" lon="12.825990">
 <ele>902.25</ele>
 <time>2010-08-26T07:38:48Z</time>
 </trkpt>
 <trkpt lat="47.189838" lon="12.825881">
 <ele>904.38</ele>
 <time>2010-08-26T07:38:58Z</time>
 </trkpt>
 <trkpt lat="47.189686" lon="12.825702">
 <ele>906.81</ele>
 <time>2010-08-26T07:39:10Z</time>
 </trkpt>
 <trkpt lat="47.189537" lon="12.825547">
 <ele>909.08</ele>
 <time>2010-08-26T07:39:21Z</time>
 </trkpt>
 <trkpt lat="47.189388" lon="12.825446">
 <ele>910.82</ele>
 <time>2010-08-26T07:39:31Z</time>
 </trkpt>
 <trkpt lat="47.189232" lon="12.825393">
 <ele>911.71</ele>
 <time>2010-08-26T07:39:40Z</time>
 </trkpt>
 <trkpt lat="47.189068" lon="12.825352">
 <ele>912.91</ele>
 <time>2010-08-26T07:39:49Z</time>
 </trkpt>
 <trkpt lat="47.188862" lon="12.825313">
 <ele>913.96</ele>
 <time>2010-08-26T07:39:59Z</time>
 </trkpt>
 <trkpt lat="47.188629" lon="12.825285">
 <ele>915.31</ele>
 <time>2010-08-26T07:40:10Z</time>
 </trkpt>
 <trkpt lat="47.188366" lon="12.825248">
 <ele>916.35</ele>
 <time>2010-08-26T07:40:23Z</time>
 </trkpt>
 <trkpt lat="47.188114" lon="12.825216">
 <ele>918.03</ele>
 <time>2010-08-26T07:40:35Z</time>
 </trkpt>
 <trkpt lat="47.187817" lon="12.825179">
 <ele>919.22</ele>
 <time>2010-08-26T07:40:48Z</time>
 </trkpt>
 <trkpt lat="47.187618" lon="12.825235">
 <ele>920.44</ele>
 <time>2010-08-26T07:40:58Z</time>
 </trkpt>
 <trkpt lat="47.187500" lon="12.825323">
 <ele>921.04</ele>
 <time>2010-08-26T07:41:05Z</time>
 </trkpt>
 <trkpt lat="47.187283" lon="12.825432">
 <ele>921.65</ele>
 <time>2010-08-26T07:41:16Z</time>
 </trkpt>
 <trkpt lat="47.187061" lon="12.825472">
 <ele>923.12</ele>
 <time>2010-08-26T07:41:27Z</time>
 </trkpt>
 <trkpt lat="47.186859" lon="12.825392">
 <ele>923.98</ele>
 <time>2010-08-26T07:41:37Z</time>
 </trkpt>
 <trkpt lat="47.186653" lon="12.825234">
 <ele>925.24</ele>
 <time>2010-08-26T07:41:49Z</time>
 </trkpt>
 <trkpt lat="47.186520" lon="12.825040">
 <ele>926.40</ele>
 <time>2010-08-26T07:41:59Z</time>
 </trkpt>
 <trkpt lat="47.186424" lon="12.824769">
 <ele>927.41</ele>
 <time>2010-08-26T07:42:09Z</time>
 </trkpt>
 <trkpt lat="47.186321" lon="12.824580">
 <ele>928.25</ele>
 <time>2010-08-26T07:42:16Z</time>
 </trkpt>
 <trkpt lat="47.186192" lon="12.824378">
 <ele>928.95</ele>
 <time>2010-08-26T07:42:24Z</time>
 </trkpt>
 <trkpt lat="47.186035" lon="12.824219">
 <ele>929.75</ele>
 <time>2010-08-26T07:42:32Z</time>
 </trkpt>
 <trkpt lat="47.185871" lon="12.824137">
 <ele>931.25</ele>
 <time>2010-08-26T07:42:40Z</time>
 </trkpt>
 <trkpt lat="47.185677" lon="12.824140">
 <ele>932.17</ele>
 <time>2010-08-26T07:42:49Z</time>
 </trkpt>
 <trkpt lat="47.185410" lon="12.824065">
 <ele>933.74</ele>
 <time>2010-08-26T07:43:02Z</time>
 </trkpt>
 <trkpt lat="47.185127" lon="12.823961">
 <ele>935.52</ele>
 <time>2010-08-26T07:43:16Z</time>
 </trkpt>
 <trkpt lat="47.184929" lon="12.823871">
 <ele>937.44</ele>
 <time>2010-08-26T07:43:26Z</time>
 </trkpt>
 <trkpt lat="47.184731" lon="12.823778">
 <ele>938.82</ele>
 <time>2010-08-26T07:43:37Z</time>
 </trkpt>
 <trkpt lat="47.184532" lon="12.823694">
 <ele>940.75</ele>
 <time>2010-08-26T07:43:48Z</time>
 </trkpt>
 <trkpt lat="47.184349" lon="12.823609">
 <ele>942.55</ele>
 <time>2010-08-26T07:43:58Z</time>
 </trkpt>
 <trkpt lat="47.184116" lon="12.823542">
 <ele>944.59</ele>
 <time>2010-08-26T07:44:10Z</time>
 </trkpt>
 <trkpt lat="47.183887" lon="12.823554">
 <ele>946.36</ele>
 <time>2010-08-26T07:44:22Z</time>
 </trkpt>
 <trkpt lat="47.183681" lon="12.823494">
 <ele>948.18</ele>
 <time>2010-08-26T07:44:33Z</time>
 </trkpt>
 <trkpt lat="47.183514" lon="12.823383">
 <ele>949.81</ele>
 <time>2010-08-26T07:44:43Z</time>
 </trkpt>
 <trkpt lat="47.183353" lon="12.823253">
 <ele>951.67</ele>
 <time>2010-08-26T07:44:53Z</time>
 </trkpt>
 <trkpt lat="47.183189" lon="12.823129">
 <ele>953.39</ele>
 <time>2010-08-26T07:45:03Z</time>
 </trkpt>
 <trkpt lat="47.182983" lon="12.823009">
 <ele>955.30</ele>
 <time>2010-08-26T07:45:15Z</time>
 </trkpt>
 <trkpt lat="47.182774" lon="12.822922">
 <ele>956.89</ele>
 <time>2010-08-26T07:45:27Z</time>
 </trkpt>
 <trkpt lat="47.182533" lon="12.822874">
 <ele>958.52</ele>
 <time>2010-08-26T07:45:40Z</time>
 </trkpt>
 <trkpt lat="47.182335" lon="12.822859">
 <ele>960.40</ele>
 <time>2010-08-26T07:45:50Z</time>
 </trkpt>
 <trkpt lat="47.182163" lon="12.822845">
 <ele>961.82</ele>
 <time>2010-08-26T07:45:59Z</time>
 </trkpt>
 <trkpt lat="47.181953" lon="12.822794">
 <ele>963.69</ele>
 <time>2010-08-26T07:46:11Z</time>
 </trkpt>
 <trkpt lat="47.181782" lon="12.822713">
 <ele>965.61</ele>
 <time>2010-08-26T07:46:21Z</time>
 </trkpt>
 <trkpt lat="47.181602" lon="12.822583">
 <ele>967.78</ele>
 <time>2010-08-26T07:46:33Z</time>
 </trkpt>
 <trkpt lat="47.181435" lon="12.822415">
 <ele>969.75</ele>
 <time>2010-08-26T07:46:45Z</time>
 </trkpt>
 <trkpt lat="47.181301" lon="12.822225">
 <ele>971.47</ele>
 <time>2010-08-26T07:46:56Z</time>
 </trkpt>
 <trkpt lat="47.181210" lon="12.822082">
 <ele>973.22</ele>
 <time>2010-08-26T07:47:04Z</time>
 </trkpt>
 <trkpt lat="47.181072" lon="12.821862">
 <ele>975.13</ele>
 <time>2010-08-26T07:47:16Z</time>
 </trkpt>
 <trkpt lat="47.180958" lon="12.821658">
 <ele>976.77</ele>
 <time>2010-08-26T07:47:27Z</time>
 </trkpt>
 <trkpt lat="47.180840" lon="12.821460">
 <ele>978.66</ele>
 <time>2010-08-26T07:47:38Z</time>
 </trkpt>
 <trkpt lat="47.180714" lon="12.821278">
 <ele>980.35</ele>
 <time>2010-08-26T07:47:49Z</time>
 </trkpt>
 <trkpt lat="47.180580" lon="12.821150">
 <ele>982.25</ele>
 <time>2010-08-26T07:47:59Z</time>
 </trkpt>
 <trkpt lat="47.180443" lon="12.821077">
 <ele>983.57</ele>
 <time>2010-08-26T07:48:08Z</time>
 </trkpt>
 <trkpt lat="47.180302" lon="12.821017">
 <ele>984.84</ele>
 <time>2010-08-26T07:48:17Z</time>
 </trkpt>
 <trkpt lat="47.180080" lon="12.821006">
 <ele>986.56</ele>
 <time>2010-08-26T07:48:30Z</time>
 </trkpt>
 <trkpt lat="47.179932" lon="12.821008">
 <ele>987.40</ele>
 <time>2010-08-26T07:48:38Z</time>
 </trkpt>
 <trkpt lat="47.179760" lon="12.821009">
 <ele>988.15</ele>
 <time>2010-08-26T07:48:46Z</time>
 </trkpt>
 <trkpt lat="47.179523" lon="12.821007">
 <ele>988.62</ele>
 <time>2010-08-26T07:48:55Z</time>
 </trkpt>
 <trkpt lat="47.179256" lon="12.820998">
 <ele>988.45</ele>
 <time>2010-08-26T07:49:04Z</time>
 </trkpt>
 <trkpt lat="47.178951" lon="12.820901">
 <ele>989.03</ele>
 <time>2010-08-26T07:49:14Z</time>
 </trkpt>
 <trkpt lat="47.178780" lon="12.820736">
 <ele>989.34</ele>
 <time>2010-08-26T07:49:21Z</time>
 </trkpt>
 <trkpt lat="47.178577" lon="12.820469">
 <ele>989.37</ele>
 <time>2010-08-26T07:49:29Z</time>
 </trkpt>
 <trkpt lat="47.178364" lon="12.820048">
 <ele>991.07</ele>
 <time>2010-08-26T07:49:41Z</time>
 </trkpt>
 <trkpt lat="47.178238" lon="12.819828">
 <ele>992.55</ele>
 <time>2010-08-26T07:49:49Z</time>
 </trkpt>
 <trkpt lat="47.178070" lon="12.819603">
 <ele>994.36</ele>
 <time>2010-08-26T07:49:59Z</time>
 </trkpt>
 <trkpt lat="47.177921" lon="12.819414">
 <ele>996.39</ele>
 <time>2010-08-26T07:50:07Z</time>
 </trkpt>
 <trkpt lat="47.177727" lon="12.819272">
 <ele>997.64</ele>
 <time>2010-08-26T07:50:16Z</time>
 </trkpt>
 <trkpt lat="47.177532" lon="12.819185">
 <ele>999.19</ele>
 <time>2010-08-26T07:50:25Z</time>
 </trkpt>
 <trkpt lat="47.177288" lon="12.819074">
 <ele>1001.51</ele>
 <time>2010-08-26T07:50:37Z</time>
 </trkpt>
 <trkpt lat="47.177097" lon="12.818949">
 <ele>1003.10</ele>
 <time>2010-08-26T07:50:47Z</time>
 </trkpt>
 <trkpt lat="47.176872" lon="12.818809">
 <ele>1004.92</ele>
 <time>2010-08-26T07:50:58Z</time>
 </trkpt>
 <trkpt lat="47.176666" lon="12.818679">
 <ele>1005.99</ele>
 <time>2010-08-26T07:51:08Z</time>
 </trkpt>
 <trkpt lat="47.176434" lon="12.818537">
 <ele>1006.90</ele>
 <time>2010-08-26T07:51:18Z</time>
 </trkpt>
 <trkpt lat="47.176193" lon="12.818491">
 <ele>1007.37</ele>
 <time>2010-08-26T07:51:27Z</time>
 </trkpt>
 <trkpt lat="47.175938" lon="12.818467">
 <ele>1008.10</ele>
 <time>2010-08-26T07:51:36Z</time>
 </trkpt>
 <trkpt lat="47.175724" lon="12.818344">
 <ele>1008.67</ele>
 <time>2010-08-26T07:51:44Z</time>
 </trkpt>
 <trkpt lat="47.175514" lon="12.818130">
 <ele>1009.46</ele>
 <time>2010-08-26T07:51:53Z</time>
 </trkpt>
 <trkpt lat="47.175274" lon="12.817877">
 <ele>1010.01</ele>
 <time>2010-08-26T07:52:02Z</time>
 </trkpt>
 <trkpt lat="47.175076" lon="12.817640">
 <ele>1010.11</ele>
 <time>2010-08-26T07:52:09Z</time>
 </trkpt>
 <trkpt lat="47.174870" lon="12.817298">
 <ele>1009.66</ele>
 <time>2010-08-26T07:52:17Z</time>
 </trkpt>
 <trkpt lat="47.174652" lon="12.817020">
 <ele>1009.70</ele>
 <time>2010-08-26T07:52:25Z</time>
 </trkpt>
 <trkpt lat="47.174438" lon="12.816885">
 <ele>1009.90</ele>
 <time>2010-08-26T07:52:31Z</time>
 </trkpt>
 <trkpt lat="47.174137" lon="12.816829">
 <ele>1009.51</ele>
 <time>2010-08-26T07:52:38Z</time>
 </trkpt>
 <trkpt lat="47.173725" lon="12.816829">
 <ele>1009.16</ele>
 <time>2010-08-26T07:52:47Z</time>
 </trkpt>
 <trkpt lat="47.173393" lon="12.816772">
 <ele>1009.13</ele>
 <time>2010-08-26T07:52:54Z</time>
 </trkpt>
 <trkpt lat="47.173008" lon="12.816675">
 <ele>1009.05</ele>
 <time>2010-08-26T07:53:02Z</time>
 </trkpt>
 <trkpt lat="47.172585" lon="12.816550">
 <ele>1009.32</ele>
 <time>2010-08-26T07:53:11Z</time>
 </trkpt>
 <trkpt lat="47.172302" lon="12.816319">
 <ele>1009.39</ele>
 <time>2010-08-26T07:53:18Z</time>
 </trkpt>
 <trkpt lat="47.171890" lon="12.815877">
 <ele>1010.48</ele>
 <time>2010-08-26T07:53:29Z</time>
 </trkpt>
 <trkpt lat="47.171425" lon="12.815448">
 <ele>1011.07</ele>
 <time>2010-08-26T07:53:41Z</time>
 </trkpt>
 <trkpt lat="47.170956" lon="12.815053">
 <ele>1012.16</ele>
 <time>2010-08-26T07:53:53Z</time>
 </trkpt>
 <trkpt lat="47.170563" lon="12.814658">
 <ele>1012.89</ele>
 <time>2010-08-26T07:54:04Z</time>
 </trkpt>
 <trkpt lat="47.170227" lon="12.814186">
 <ele>1013.65</ele>
 <time>2010-08-26T07:54:15Z</time>
 </trkpt>
 <trkpt lat="47.169991" lon="12.813927">
 <ele>1014.33</ele>
 <time>2010-08-26T07:54:23Z</time>
 </trkpt>
 <trkpt lat="47.169849" lon="12.813782">
 <ele>1015.27</ele>
 <time>2010-08-26T07:54:28Z</time>
 </trkpt>
 <trkpt lat="47.169594" lon="12.813547">
 <ele>1016.62</ele>
 <time>2010-08-26T07:54:37Z</time>
 </trkpt>
 <trkpt lat="47.169418" lon="12.813416">
 <ele>1017.17</ele>
 <time>2010-08-26T07:54:44Z</time>
 </trkpt>
 <trkpt lat="47.169319" lon="12.813164">
 <ele>1017.58</ele>
 <time>2010-08-26T07:54:50Z</time>
 </trkpt>
 <trkpt lat="47.169334" lon="12.812916">
 <ele>1017.25</ele>
 <time>2010-08-26T07:54:55Z</time>
 </trkpt>
 <trkpt lat="47.169476" lon="12.812481">
 <ele>1016.37</ele>
 <time>2010-08-26T07:55:03Z</time>
 </trkpt>
 <trkpt lat="47.169579" lon="12.812142">
 <ele>1016.50</ele>
 <time>2010-08-26T07:55:10Z</time>
 </trkpt>
 <trkpt lat="47.169666" lon="12.811787">
 <ele>1016.78</ele>
 <time>2010-08-26T07:55:17Z</time>
 </trkpt>
 <trkpt lat="47.169621" lon="12.811530">
 <ele>1016.61</ele>
 <time>2010-08-26T07:55:22Z</time>
 </trkpt>
 <trkpt lat="47.169476" lon="12.811331">
 <ele>1016.99</ele>
 <time>2010-08-26T07:55:27Z</time>
 </trkpt>
 <trkpt lat="47.169296" lon="12.811186">
 <ele>1017.28</ele>
 <time>2010-08-26T07:55:33Z</time>
 </trkpt>
 <trkpt lat="47.169247" lon="12.811198">
 <ele>1017.34</ele>
 <time>2010-08-26T07:55:36Z</time>
 </trkpt>
 <trkpt lat="47.169231" lon="12.811190">
 <ele>1017.50</ele>
 <time>2010-08-26T07:55:40Z</time>
 </trkpt>
 <trkpt lat="47.169216" lon="12.811095">
 <ele>1017.73</ele>
 <time>2010-08-26T07:56:26Z</time>
 </trkpt>
 <trkpt lat="47.169075" lon="12.811040">
 <ele>1018.11</ele>
 <time>2010-08-26T07:56:32Z</time>
 </trkpt>
 <trkpt lat="47.168865" lon="12.810958">
 <ele>1018.51</ele>
 <time>2010-08-26T07:56:39Z</time>
 </trkpt>
 <trkpt lat="47.168690" lon="12.810896">
 <ele>1019.22</ele>
 <time>2010-08-26T07:56:46Z</time>
 </trkpt>
 <trkpt lat="47.168690" lon="12.810897">
 <ele>1019.31</ele>
 <time>2010-08-26T07:56:48Z</time>
 </trkpt>
 <trkpt lat="47.168613" lon="12.810883">
 <ele>1019.50</ele>
 <time>2010-08-26T07:57:00Z</time>
 </trkpt>
 <trkpt lat="47.168510" lon="12.810839">
 <ele>1019.59</ele>
 <time>2010-08-26T07:57:04Z</time>
 </trkpt>
 <trkpt lat="47.168453" lon="12.810811">
 <ele>1019.72</ele>
 <time>2010-08-26T07:57:06Z</time>
 </trkpt>
 <trkpt lat="47.168194" lon="12.810696">
 <ele>1020.29</ele>
 <time>2010-08-26T07:57:15Z</time>
 </trkpt>
 <trkpt lat="47.168018" lon="12.810605">
 <ele>1020.46</ele>
 <time>2010-08-26T07:57:21Z</time>
 </trkpt>
 <trkpt lat="47.167683" lon="12.810548">
 <ele>1021.04</ele>
 <time>2010-08-26T07:57:31Z</time>
 </trkpt>
 <trkpt lat="47.167336" lon="12.810495">
 <ele>1022.06</ele>
 <time>2010-08-26T07:57:41Z</time>
 </trkpt>
 <trkpt lat="47.166969" lon="12.810435">
 <ele>1023.19</ele>
 <time>2010-08-26T07:57:52Z</time>
 </trkpt>
 <trkpt lat="47.166599" lon="12.810393">
 <ele>1024.22</ele>
 <time>2010-08-26T07:58:03Z</time>
 </trkpt>
 <trkpt lat="47.166241" lon="12.810367">
 <ele>1025.24</ele>
 <time>2010-08-26T07:58:14Z</time>
 </trkpt>
 <trkpt lat="47.165924" lon="12.810406">
 <ele>1026.63</ele>
 <time>2010-08-26T07:58:24Z</time>
 </trkpt>
 <trkpt lat="47.165726" lon="12.810428">
 <ele>1027.80</ele>
 <time>2010-08-26T07:58:32Z</time>
 </trkpt>
 <trkpt lat="47.165703" lon="12.810420">
 <ele>1028.25</ele>
 <time>2010-08-26T07:58:37Z</time>
 </trkpt>
 <trkpt lat="47.165581" lon="12.810472">
 <ele>1028.62</ele>
 <time>2010-08-26T07:58:47Z</time>
 </trkpt>
 <trkpt lat="47.165398" lon="12.810477">
 <ele>1029.67</ele>
 <time>2010-08-26T07:58:54Z</time>
 </trkpt>
 <trkpt lat="47.165192" lon="12.810357">
 <ele>1030.42</ele>
 <time>2010-08-26T07:59:02Z</time>
 </trkpt>
 <trkpt lat="47.165016" lon="12.810169">
 <ele>1031.57</ele>
 <time>2010-08-26T07:59:10Z</time>
 </trkpt>
 <trkpt lat="47.164757" lon="12.809919">
 <ele>1032.73</ele>
 <time>2010-08-26T07:59:21Z</time>
 </trkpt>
 <trkpt lat="47.164566" lon="12.809711">
 <ele>1033.45</ele>
 <time>2010-08-26T07:59:29Z</time>
 </trkpt>
 <trkpt lat="47.164406" lon="12.809523">
 <ele>1033.51</ele>
 <time>2010-08-26T07:59:35Z</time>
 </trkpt>
 <trkpt lat="47.164223" lon="12.809417">
 <ele>1033.74</ele>
 <time>2010-08-26T07:59:41Z</time>
 </trkpt>
 <trkpt lat="47.164066" lon="12.809382">
 <ele>1034.06</ele>
 <time>2010-08-26T07:59:46Z</time>
 </trkpt>
 <trkpt lat="47.163879" lon="12.809473">
 <ele>1034.53</ele>
 <time>2010-08-26T07:59:52Z</time>
 </trkpt>
 <trkpt lat="47.163689" lon="12.809616">
 <ele>1035.07</ele>
 <time>2010-08-26T07:59:59Z</time>
 </trkpt>
 <trkpt lat="47.163483" lon="12.809690">
 <ele>1036.43</ele>
 <time>2010-08-26T08:00:06Z</time>
 </trkpt>
 <trkpt lat="47.163204" lon="12.809702">
 <ele>1037.92</ele>
 <time>2010-08-26T08:00:16Z</time>
 </trkpt>
 <trkpt lat="47.162933" lon="12.809671">
 <ele>1038.44</ele>
 <time>2010-08-26T08:00:26Z</time>
 </trkpt>
 <trkpt lat="47.162651" lon="12.809641">
 <ele>1040.47</ele>
 <time>2010-08-26T08:00:37Z</time>
 </trkpt>
 <trkpt lat="47.162418" lon="12.809629">
 <ele>1041.21</ele>
 <time>2010-08-26T08:00:46Z</time>
 </trkpt>
 <trkpt lat="47.162189" lon="12.809587">
 <ele>1042.65</ele>
 <time>2010-08-26T08:00:55Z</time>
 </trkpt>
 <trkpt lat="47.162018" lon="12.809486">
 <ele>1043.27</ele>
 <time>2010-08-26T08:01:02Z</time>
 </trkpt>
 <trkpt lat="47.162010" lon="12.809462">
 <ele>1043.48</ele>
 <time>2010-08-26T08:01:05Z</time>
 </trkpt>
 <trkpt lat="47.161972" lon="12.809441">
 <ele>1043.33</ele>
 <time>2010-08-26T08:01:08Z</time>
 </trkpt>
 <trkpt lat="47.161854" lon="12.809322">
 <ele>1043.59</ele>
 <time>2010-08-26T08:01:14Z</time>
 </trkpt>
 <trkpt lat="47.161690" lon="12.809116">
 <ele>1043.79</ele>
 <time>2010-08-26T08:01:21Z</time>
 </trkpt>
 <trkpt lat="47.161484" lon="12.808868">
 <ele>1044.17</ele>
 <time>2010-08-26T08:01:30Z</time>
 </trkpt>
 <trkpt lat="47.161236" lon="12.808650">
 <ele>1044.87</ele>
 <time>2010-08-26T08:01:40Z</time>
 </trkpt>
 <trkpt lat="47.161007" lon="12.808526">
 <ele>1046.29</ele>
 <time>2010-08-26T08:01:49Z</time>
 </trkpt>
 <trkpt lat="47.160793" lon="12.808408">
 <ele>1047.69</ele>
 <time>2010-08-26T08:01:58Z</time>
 </trkpt>
 <trkpt lat="47.160568" lon="12.808261">
 <ele>1049.62</ele>
 <time>2010-08-26T08:02:08Z</time>
 </trkpt>
 <trkpt lat="47.160305" lon="12.808094">
 <ele>1051.81</ele>
 <time>2010-08-26T08:02:20Z</time>
 </trkpt>
 <trkpt lat="47.160088" lon="12.807965">
 <ele>1053.30</ele>
 <time>2010-08-26T08:02:30Z</time>
 </trkpt>
 <trkpt lat="47.159878" lon="12.807846">
 <ele>1055.16</ele>
 <time>2010-08-26T08:02:40Z</time>
 </trkpt>
 <trkpt lat="47.159702" lon="12.807742">
 <ele>1056.83</ele>
 <time>2010-08-26T08:02:48Z</time>
 </trkpt>
 <trkpt lat="47.159584" lon="12.807647">
 <ele>1057.10</ele>
 <time>2010-08-26T08:02:54Z</time>
 </trkpt>
 <trkpt lat="47.159367" lon="12.807484">
 <ele>1058.45</ele>
 <time>2010-08-26T08:03:05Z</time>
 </trkpt>
 <trkpt lat="47.159161" lon="12.807318">
 <ele>1059.92</ele>
 <time>2010-08-26T08:03:16Z</time>
 </trkpt>
 <trkpt lat="47.159027" lon="12.807175">
 <ele>1061.36</ele>
 <time>2010-08-26T08:03:24Z</time>
 </trkpt>
 <trkpt lat="47.158901" lon="12.807048">
 <ele>1062.84</ele>
 <time>2010-08-26T08:03:32Z</time>
 </trkpt>
 <trkpt lat="47.158756" lon="12.806866">
 <ele>1064.38</ele>
 <time>2010-08-26T08:03:42Z</time>
 </trkpt>
 <trkpt lat="47.158627" lon="12.806702">
 <ele>1064.75</ele>
 <time>2010-08-26T08:03:50Z</time>
 </trkpt>
 <trkpt lat="47.158501" lon="12.806527">
 <ele>1066.16</ele>
 <time>2010-08-26T08:03:59Z</time>
 </trkpt>
 <trkpt lat="47.158394" lon="12.806400">
 <ele>1067.10</ele>
 <time>2010-08-26T08:04:06Z</time>
 </trkpt>
 <trkpt lat="47.158253" lon="12.806236">
 <ele>1068.31</ele>
 <time>2010-08-26T08:04:15Z</time>
 </trkpt>
 <trkpt lat="47.158054" lon="12.806018">
 <ele>1069.70</ele>
 <time>2010-08-26T08:04:27Z</time>
 </trkpt>
 <trkpt lat="47.157921" lon="12.805843">
 <ele>1070.10</ele>
 <time>2010-08-26T08:04:35Z</time>
 </trkpt>
 <trkpt lat="47.157772" lon="12.805611">
 <ele>1071.20</ele>
 <time>2010-08-26T08:04:44Z</time>
 </trkpt>
 <trkpt lat="47.157688" lon="12.805335">
 <ele>1072.27</ele>
 <time>2010-08-26T08:04:53Z</time>
 </trkpt>
 <trkpt lat="47.157608" lon="12.805027">
 <ele>1072.87</ele>
 <time>2010-08-26T08:05:02Z</time>
 </trkpt>
 <trkpt lat="47.157478" lon="12.804776">
 <ele>1073.38</ele>
 <time>2010-08-26T08:05:11Z</time>
 </trkpt>
 <trkpt lat="47.157310" lon="12.804604">
 <ele>1074.12</ele>
 <time>2010-08-26T08:05:19Z</time>
 </trkpt>
 <trkpt lat="47.157158" lon="12.804487">
 <ele>1074.79</ele>
 <time>2010-08-26T08:05:26Z</time>
 </trkpt>
 <trkpt lat="47.156975" lon="12.804277">
 <ele>1075.84</ele>
 <time>2010-08-26T08:05:36Z</time>
 </trkpt>
 <trkpt lat="47.156834" lon="12.804062">
 <ele>1075.45</ele>
 <time>2010-08-26T08:05:42Z</time>
 </trkpt>
 <trkpt lat="47.156624" lon="12.803864">
 <ele>1075.68</ele>
 <time>2010-08-26T08:05:50Z</time>
 </trkpt>
 <trkpt lat="47.156433" lon="12.803788">
 <ele>1076.90</ele>
 <time>2010-08-26T08:05:58Z</time>
 </trkpt>
 <trkpt lat="47.156254" lon="12.803760">
 <ele>1078.66</ele>
 <time>2010-08-26T08:06:08Z</time>
 </trkpt>
 <trkpt lat="47.156166" lon="12.803716">
 <ele>1079.15</ele>
 <time>2010-08-26T08:06:16Z</time>
 </trkpt>
 <trkpt lat="47.156059" lon="12.803668">
 <ele>1079.69</ele>
 <time>2010-08-26T08:06:25Z</time>
 </trkpt>
 <trkpt lat="47.155880" lon="12.803516">
 <ele>1080.12</ele>
 <time>2010-08-26T08:06:34Z</time>
 </trkpt>
 <trkpt lat="47.155674" lon="12.803400">
 <ele>1080.59</ele>
 <time>2010-08-26T08:06:42Z</time>
 </trkpt>
 <trkpt lat="47.155495" lon="12.803441">
 <ele>1080.42</ele>
 <time>2010-08-26T08:06:48Z</time>
 </trkpt>
 <trkpt lat="47.155266" lon="12.803553">
 <ele>1080.82</ele>
 <time>2010-08-26T08:06:56Z</time>
 </trkpt>
 <trkpt lat="47.154987" lon="12.803650">
 <ele>1081.28</ele>
 <time>2010-08-26T08:07:05Z</time>
 </trkpt>
 <trkpt lat="47.154739" lon="12.803656">
 <ele>1081.85</ele>
 <time>2010-08-26T08:07:13Z</time>
 </trkpt>
 <trkpt lat="47.154434" lon="12.803634">
 <ele>1082.30</ele>
 <time>2010-08-26T08:07:22Z</time>
 </trkpt>
 <trkpt lat="47.154121" lon="12.803617">
 <ele>1082.94</ele>
 <time>2010-08-26T08:07:32Z</time>
 </trkpt>
 <trkpt lat="47.153824" lon="12.803602">
 <ele>1084.93</ele>
 <time>2010-08-26T08:07:43Z</time>
 </trkpt>
 <trkpt lat="47.153538" lon="12.803590">
 <ele>1086.96</ele>
 <time>2010-08-26T08:07:54Z</time>
 </trkpt>
 <trkpt lat="47.153343" lon="12.803575">
 <ele>1088.39</ele>
 <time>2010-08-26T08:08:02Z</time>
 </trkpt>
 <trkpt lat="47.153168" lon="12.803561">
 <ele>1089.71</ele>
 <time>2010-08-26T08:08:10Z</time>
 </trkpt>
 <trkpt lat="47.152958" lon="12.803576">
 <ele>1091.36</ele>
 <time>2010-08-26T08:08:20Z</time>
 </trkpt>
 <trkpt lat="47.152733" lon="12.803618">
 <ele>1092.86</ele>
 <time>2010-08-26T08:08:31Z</time>
 </trkpt>
 <trkpt lat="47.152519" lon="12.803647">
 <ele>1094.68</ele>
 <time>2010-08-26T08:08:42Z</time>
 </trkpt>
 <trkpt lat="47.152348" lon="12.803649">
 <ele>1096.17</ele>
 <time>2010-08-26T08:08:51Z</time>
 </trkpt>
 <trkpt lat="47.152172" lon="12.803641">
 <ele>1097.35</ele>
 <time>2010-08-26T08:09:00Z</time>
 </trkpt>
 <trkpt lat="47.151939" lon="12.803632">
 <ele>1099.13</ele>
 <time>2010-08-26T08:09:12Z</time>
 </trkpt>
 <trkpt lat="47.151730" lon="12.803642">
 <ele>1100.80</ele>
 <time>2010-08-26T08:09:23Z</time>
 </trkpt>
 <trkpt lat="47.151569" lon="12.803636">
 <ele>1101.45</ele>
 <time>2010-08-26T08:09:31Z</time>
 </trkpt>
 <trkpt lat="47.151375" lon="12.803626">
 <ele>1102.25</ele>
 <time>2010-08-26T08:09:41Z</time>
 </trkpt>
 <trkpt lat="47.151165" lon="12.803603">
 <ele>1103.43</ele>
 <time>2010-08-26T08:09:51Z</time>
 </trkpt>
 <trkpt lat="47.150978" lon="12.803580">
 <ele>1104.17</ele>
 <time>2010-08-26T08:10:00Z</time>
 </trkpt>
 <trkpt lat="47.150810" lon="12.803559">
 <ele>1105.03</ele>
 <time>2010-08-26T08:10:08Z</time>
 </trkpt>
 <trkpt lat="47.150604" lon="12.803538">
 <ele>1106.37</ele>
 <time>2010-08-26T08:10:18Z</time>
 </trkpt>
 <trkpt lat="47.150372" lon="12.803519">
 <ele>1108.06</ele>
 <time>2010-08-26T08:10:30Z</time>
 </trkpt>
 <trkpt lat="47.150196" lon="12.803501">
 <ele>1109.26</ele>
 <time>2010-08-26T08:10:39Z</time>
 </trkpt>
 <trkpt lat="47.150066" lon="12.803492">
 <ele>1110.50</ele>
 <time>2010-08-26T08:10:46Z</time>
 </trkpt>
 <trkpt lat="47.149906" lon="12.803471">
 <ele>1111.81</ele>
 <time>2010-08-26T08:10:54Z</time>
 </trkpt>
 <trkpt lat="47.149673" lon="12.803450">
 <ele>1113.70</ele>
 <time>2010-08-26T08:11:06Z</time>
 </trkpt>
 <trkpt lat="47.149479" lon="12.803437">
 <ele>1114.89</ele>
 <time>2010-08-26T08:11:16Z</time>
 </trkpt>
 <trkpt lat="47.149300" lon="12.803418">
 <ele>1116.44</ele>
 <time>2010-08-26T08:11:25Z</time>
 </trkpt>
 <trkpt lat="47.149200" lon="12.803391">
 <ele>1117.40</ele>
 <time>2010-08-26T08:11:32Z</time>
 </trkpt>
 <trkpt lat="47.149113" lon="12.803339">
 <ele>1117.39</ele>
 <time>2010-08-26T08:11:45Z</time>
 </trkpt>
 <trkpt lat="47.148987" lon="12.803325">
 <ele>1117.73</ele>
 <time>2010-08-26T08:11:52Z</time>
 </trkpt>
 <trkpt lat="47.148857" lon="12.803326">
 <ele>1118.12</ele>
 <time>2010-08-26T08:11:59Z</time>
 </trkpt>
 <trkpt lat="47.148720" lon="12.803323">
 <ele>1118.78</ele>
 <time>2010-08-26T08:12:06Z</time>
 </trkpt>
 <trkpt lat="47.148590" lon="12.803328">
 <ele>1120.03</ele>
 <time>2010-08-26T08:12:13Z</time>
 </trkpt>
 <trkpt lat="47.148415" lon="12.803302">
 <ele>1121.29</ele>
 <time>2010-08-26T08:12:22Z</time>
 </trkpt>
 <trkpt lat="47.148247" lon="12.803288">
 <ele>1122.25</ele>
 <time>2010-08-26T08:12:30Z</time>
 </trkpt>
 <trkpt lat="47.148029" lon="12.803269">
 <ele>1123.02</ele>
 <time>2010-08-26T08:12:40Z</time>
 </trkpt>
 <trkpt lat="47.147816" lon="12.803248">
 <ele>1123.99</ele>
 <time>2010-08-26T08:12:49Z</time>
 </trkpt>
 <trkpt lat="47.147614" lon="12.803227">
 <ele>1124.37</ele>
 <time>2010-08-26T08:12:57Z</time>
 </trkpt>
 <trkpt lat="47.147423" lon="12.803209">
 <ele>1125.21</ele>
 <time>2010-08-26T08:13:05Z</time>
 </trkpt>
 <trkpt lat="47.147194" lon="12.803122">
 <ele>1126.93</ele>
 <time>2010-08-26T08:13:15Z</time>
 </trkpt>
 <trkpt lat="47.147015" lon="12.802968">
 <ele>1127.44</ele>
 <time>2010-08-26T08:13:23Z</time>
 </trkpt>
 <trkpt lat="47.146767" lon="12.802821">
 <ele>1127.70</ele>
 <time>2010-08-26T08:13:32Z</time>
 </trkpt>
 <trkpt lat="47.146526" lon="12.802828">
 <ele>1127.47</ele>
 <time>2010-08-26T08:13:39Z</time>
 </trkpt>
 <trkpt lat="47.146206" lon="12.802848">
 <ele>1127.43</ele>
 <time>2010-08-26T08:13:47Z</time>
 </trkpt>
 <trkpt lat="47.145866" lon="12.802845">
 <ele>1127.14</ele>
 <time>2010-08-26T08:13:55Z</time>
 </trkpt>
 <trkpt lat="47.145466" lon="12.802748">
 <ele>1127.31</ele>
 <time>2010-08-26T08:14:04Z</time>
 </trkpt>
 <trkpt lat="47.145252" lon="12.802604">
 <ele>1127.79</ele>
 <time>2010-08-26T08:14:10Z</time>
 </trkpt>
 <trkpt lat="47.145012" lon="12.802380">
 <ele>1129.28</ele>
 <time>2010-08-26T08:14:18Z</time>
 </trkpt>
 <trkpt lat="47.144730" lon="12.802108">
 <ele>1131.48</ele>
 <time>2010-08-26T08:14:28Z</time>
 </trkpt>
 <trkpt lat="47.144482" lon="12.801790">
 <ele>1132.77</ele>
 <time>2010-08-26T08:14:39Z</time>
 </trkpt>
 <trkpt lat="47.144234" lon="12.801439">
 <ele>1132.73</ele>
 <time>2010-08-26T08:14:49Z</time>
 </trkpt>
 <trkpt lat="47.143963" lon="12.801081">
 <ele>1133.00</ele>
 <time>2010-08-26T08:14:59Z</time>
 </trkpt>
 <trkpt lat="47.143726" lon="12.800794">
 <ele>1133.35</ele>
 <time>2010-08-26T08:15:07Z</time>
 </trkpt>
 <trkpt lat="47.143520" lon="12.800467">
 <ele>1133.75</ele>
 <time>2010-08-26T08:15:15Z</time>
 </trkpt>
 <trkpt lat="47.143414" lon="12.800188">
 <ele>1134.23</ele>
 <time>2010-08-26T08:15:21Z</time>
 </trkpt>
 <trkpt lat="47.143265" lon="12.799758">
 <ele>1134.78</ele>
 <time>2010-08-26T08:15:30Z</time>
 </trkpt>
 <trkpt lat="47.143135" lon="12.799394">
 <ele>1135.82</ele>
 <time>2010-08-26T08:15:38Z</time>
 </trkpt>
 <trkpt lat="47.143017" lon="12.798967">
 <ele>1136.47</ele>
 <time>2010-08-26T08:15:47Z</time>
 </trkpt>
 <trkpt lat="47.142860" lon="12.798539">
 <ele>1136.33</ele>
 <time>2010-08-26T08:15:56Z</time>
 </trkpt>
 <trkpt lat="47.142628" lon="12.798219">
 <ele>1135.80</ele>
 <time>2010-08-26T08:16:03Z</time>
 </trkpt>
 <trkpt lat="47.142467" lon="12.798047">
 <ele>1134.90</ele>
 <time>2010-08-26T08:16:07Z</time>
 </trkpt>
 <trkpt lat="47.142097" lon="12.797762">
 <ele>1134.08</ele>
 <time>2010-08-26T08:16:15Z</time>
 </trkpt>
 <trkpt lat="47.141811" lon="12.797655">
 <ele>1133.58</ele>
 <time>2010-08-26T08:16:21Z</time>
 </trkpt>
 <trkpt lat="47.141491" lon="12.797614">
 <ele>1133.43</ele>
 <time>2010-08-26T08:16:28Z</time>
 </trkpt>
 <trkpt lat="47.141407" lon="12.797623">
 <ele>1133.43</ele>
 <time>2010-08-26T08:16:30Z</time>
 </trkpt>
 <trkpt lat="47.141220" lon="12.797587">
 <ele>1133.44</ele>
 <time>2010-08-26T08:16:35Z</time>
 </trkpt>
 <trkpt lat="47.141060" lon="12.797507">
 <ele>1133.36</ele>
 <time>2010-08-26T08:16:39Z</time>
 </trkpt>
 <trkpt lat="47.140751" lon="12.797448">
 <ele>1132.98</ele>
 <time>2010-08-26T08:16:46Z</time>
 </trkpt>
 <trkpt lat="47.140511" lon="12.797327">
 <ele>1133.23</ele>
 <time>2010-08-26T08:16:52Z</time>
 </trkpt>
 <trkpt lat="47.140240" lon="12.797230">
 <ele>1133.12</ele>
 <time>2010-08-26T08:16:58Z</time>
 </trkpt>
 <trkpt lat="47.139957" lon="12.797039">
 <ele>1133.81</ele>
 <time>2010-08-26T08:17:05Z</time>
 </trkpt>
 <trkpt lat="47.139553" lon="12.796837">
 <ele>1134.28</ele>
 <time>2010-08-26T08:17:15Z</time>
 </trkpt>
 <trkpt lat="47.139202" lon="12.796613">
 <ele>1135.54</ele>
 <time>2010-08-26T08:17:24Z</time>
 </trkpt>
 <trkpt lat="47.138851" lon="12.796468">
 <ele>1135.86</ele>
 <time>2010-08-26T08:17:33Z</time>
 </trkpt>
 <trkpt lat="47.138561" lon="12.796468">
 <ele>1136.20</ele>
 <time>2010-08-26T08:17:40Z</time>
 </trkpt>
 <trkpt lat="47.138138" lon="12.796528">
 <ele>1136.23</ele>
 <time>2010-08-26T08:17:50Z</time>
 </trkpt>
 <trkpt lat="47.138008" lon="12.796520">
 <ele>1136.28</ele>
 <time>2010-08-26T08:17:53Z</time>
 </trkpt>
 <trkpt lat="47.137672" lon="12.796453">
 <ele>1137.19</ele>
 <time>2010-08-26T08:18:01Z</time>
 </trkpt>
 <trkpt lat="47.137371" lon="12.796542">
 <ele>1136.96</ele>
 <time>2010-08-26T08:18:08Z</time>
 </trkpt>
 <trkpt lat="47.137157" lon="12.796540">
 <ele>1136.98</ele>
 <time>2010-08-26T08:18:13Z</time>
 </trkpt>
 <trkpt lat="47.136765" lon="12.796393">
 <ele>1137.33</ele>
 <time>2010-08-26T08:18:23Z</time>
 </trkpt>
 <trkpt lat="47.136429" lon="12.796259">
 <ele>1137.46</ele>
 <time>2010-08-26T08:18:32Z</time>
 </trkpt>
 <trkpt lat="47.136276" lon="12.796125">
 <ele>1137.97</ele>
 <time>2010-08-26T08:18:38Z</time>
 </trkpt>
 <trkpt lat="47.136215" lon="12.796088">
 <ele>1138.02</ele>
 <time>2010-08-26T08:18:43Z</time>
 </trkpt>
 <trkpt lat="47.136211" lon="12.796096">
 <ele>1138.51</ele>
 <time>2010-08-26T08:18:47Z</time>
 </trkpt>
 <trkpt lat="47.136189" lon="12.796077">
 <ele>1138.19</ele>
 <time>2010-08-26T08:19:23Z</time>
 </trkpt>
 <trkpt lat="47.136189" lon="12.796079">
 <ele>1138.18</ele>
 <time>2010-08-26T08:19:24Z</time>
 </trkpt>
 <trkpt lat="47.136173" lon="12.796089">
 <ele>1138.06</ele>
 <time>2010-08-26T08:19:28Z</time>
 </trkpt>
 <trkpt lat="47.136158" lon="12.796112">
 <ele>1137.99</ele>
 <time>2010-08-26T08:19:44Z</time>
 </trkpt>
 <trkpt lat="47.136097" lon="12.796137">
 <ele>1137.68</ele>
 <time>2010-08-26T08:19:54Z</time>
 </trkpt>
 <trkpt lat="47.135986" lon="12.796096">
 <ele>1137.36</ele>
 <time>2010-08-26T08:21:00Z</time>
 </trkpt>
 <trkpt lat="47.135853" lon="12.795910">
 <ele>1137.24</ele>
 <time>2010-08-26T08:21:08Z</time>
 </trkpt>
 <trkpt lat="47.135696" lon="12.795710">
 <ele>1137.46</ele>
 <time>2010-08-26T08:21:15Z</time>
 </trkpt>
 <trkpt lat="47.135548" lon="12.795625">
 <ele>1137.63</ele>
 <time>2010-08-26T08:21:21Z</time>
 </trkpt>
 <trkpt lat="47.135406" lon="12.795686">
 <ele>1138.38</ele>
 <time>2010-08-26T08:21:27Z</time>
 </trkpt>
 <trkpt lat="47.135284" lon="12.795770">
 <ele>1138.94</ele>
 <time>2010-08-26T08:21:32Z</time>
 </trkpt>
 <trkpt lat="47.135059" lon="12.795800">
 <ele>1138.97</ele>
 <time>2010-08-26T08:21:40Z</time>
 </trkpt>
 <trkpt lat="47.134838" lon="12.795781">
 <ele>1139.29</ele>
 <time>2010-08-26T08:21:48Z</time>
 </trkpt>
 <trkpt lat="47.134659" lon="12.795775">
 <ele>1140.93</ele>
 <time>2010-08-26T08:21:56Z</time>
 </trkpt>
 <trkpt lat="47.134472" lon="12.795681">
 <ele>1141.92</ele>
 <time>2010-08-26T08:22:05Z</time>
 </trkpt>
 <trkpt lat="47.134323" lon="12.795557">
 <ele>1143.14</ele>
 <time>2010-08-26T08:22:14Z</time>
 </trkpt>
 <trkpt lat="47.134209" lon="12.795480">
 <ele>1143.40</ele>
 <time>2010-08-26T08:22:20Z</time>
 </trkpt>
 <trkpt lat="47.134087" lon="12.795442">
 <ele>1143.94</ele>
 <time>2010-08-26T08:22:27Z</time>
 </trkpt>
 <trkpt lat="47.134052" lon="12.795406">
 <ele>1144.55</ele>
 <time>2010-08-26T08:22:30Z</time>
 </trkpt>
 <trkpt lat="47.133980" lon="12.795424">
 <ele>1145.95</ele>
 <time>2010-08-26T08:22:36Z</time>
 </trkpt>
 <trkpt lat="47.133999" lon="12.795536">
 <ele>1145.91</ele>
 <time>2010-08-26T08:22:41Z</time>
 </trkpt>
 <trkpt lat="47.134041" lon="12.795602">
 <ele>1146.25</ele>
 <time>2010-08-26T08:22:45Z</time>
 </trkpt>
 <trkpt lat="47.134075" lon="12.795676">
 <ele>1146.95</ele>
 <time>2010-08-26T08:22:49Z</time>
 </trkpt>
 <trkpt lat="47.134087" lon="12.795856">
 <ele>1148.25</ele>
 <time>2010-08-26T08:22:58Z</time>
 </trkpt>
 <trkpt lat="47.134090" lon="12.796029">
 <ele>1150.19</ele>
 <time>2010-08-26T08:23:07Z</time>
 </trkpt>
 <trkpt lat="47.134106" lon="12.796175">
 <ele>1152.48</ele>
 <time>2010-08-26T08:23:15Z</time>
 </trkpt>
 <trkpt lat="47.134113" lon="12.796307">
 <ele>1153.69</ele>
 <time>2010-08-26T08:23:22Z</time>
 </trkpt>
 <trkpt lat="47.134109" lon="12.796324">
 <ele>1153.90</ele>
 <time>2010-08-26T08:23:23Z</time>
 </trkpt>
 <trkpt lat="47.134048" lon="12.796333">
 <ele>1154.52</ele>
 <time>2010-08-26T08:23:29Z</time>
 </trkpt>
 <trkpt lat="47.134026" lon="12.796307">
 <ele>1154.57</ele>
 <time>2010-08-26T08:23:31Z</time>
 </trkpt>
 <trkpt lat="47.133968" lon="12.796237">
 <ele>1155.49</ele>
 <time>2010-08-26T08:23:37Z</time>
 </trkpt>
 <trkpt lat="47.133865" lon="12.796110">
 <ele>1156.95</ele>
 <time>2010-08-26T08:23:47Z</time>
 </trkpt>
 <trkpt lat="47.133770" lon="12.796025">
 <ele>1158.47</ele>
 <time>2010-08-26T08:23:56Z</time>
 </trkpt>
 <trkpt lat="47.133663" lon="12.795995">
 <ele>1160.11</ele>
 <time>2010-08-26T08:24:05Z</time>
 </trkpt>
 <trkpt lat="47.133541" lon="12.795957">
 <ele>1161.27</ele>
 <time>2010-08-26T08:24:14Z</time>
 </trkpt>
 <trkpt lat="47.133484" lon="12.795940">
 <ele>1161.75</ele>
 <time>2010-08-26T08:24:19Z</time>
 </trkpt>
 <trkpt lat="47.133373" lon="12.795894">
 <ele>1162.35</ele>
 <time>2010-08-26T08:24:27Z</time>
 </trkpt>
 <trkpt lat="47.133282" lon="12.795791">
 <ele>1163.66</ele>
 <time>2010-08-26T08:24:36Z</time>
 </trkpt>
 <trkpt lat="47.133198" lon="12.795723">
 <ele>1165.20</ele>
 <time>2010-08-26T08:24:43Z</time>
 </trkpt>
 <trkpt lat="47.133125" lon="12.795673">
 <ele>1165.75</ele>
 <time>2010-08-26T08:24:49Z</time>
 </trkpt>
 <trkpt lat="47.133018" lon="12.795579">
 <ele>1167.09</ele>
 <time>2010-08-26T08:24:59Z</time>
 </trkpt>
 <trkpt lat="47.132946" lon="12.795534">
 <ele>1168.03</ele>
 <time>2010-08-26T08:25:06Z</time>
 </trkpt>
 <trkpt lat="47.132839" lon="12.795465">
 <ele>1170.12</ele>
 <time>2010-08-26T08:25:15Z</time>
 </trkpt>
 <trkpt lat="47.132774" lon="12.795422">
 <ele>1171.17</ele>
 <time>2010-08-26T08:25:21Z</time>
 </trkpt>
 <trkpt lat="47.132683" lon="12.795327">
 <ele>1172.37</ele>
 <time>2010-08-26T08:25:30Z</time>
 </trkpt>
 <trkpt lat="47.132587" lon="12.795269">
 <ele>1172.21</ele>
 <time>2010-08-26T08:25:36Z</time>
 </trkpt>
 <trkpt lat="47.132462" lon="12.795194">
 <ele>1172.62</ele>
 <time>2010-08-26T08:25:43Z</time>
 </trkpt>
 <trkpt lat="47.132389" lon="12.795193">
 <ele>1174.04</ele>
 <time>2010-08-26T08:25:50Z</time>
 </trkpt>
 <trkpt lat="47.132301" lon="12.795192">
 <ele>1176.09</ele>
 <time>2010-08-26T08:25:58Z</time>
 </trkpt>
 <trkpt lat="47.132252" lon="12.795189">
 <ele>1176.98</ele>
 <time>2010-08-26T08:26:02Z</time>
 </trkpt>
 <trkpt lat="47.132168" lon="12.795197">
 <ele>1178.52</ele>
 <time>2010-08-26T08:26:10Z</time>
 </trkpt>
 <trkpt lat="47.132061" lon="12.795202">
 <ele>1180.29</ele>
 <time>2010-08-26T08:26:19Z</time>
 </trkpt>
 <trkpt lat="47.131931" lon="12.795228">
 <ele>1182.35</ele>
 <time>2010-08-26T08:26:30Z</time>
 </trkpt>
 <trkpt lat="47.131847" lon="12.795244">
 <ele>1183.89</ele>
 <time>2010-08-26T08:26:37Z</time>
 </trkpt>
 <trkpt lat="47.131725" lon="12.795243">
 <ele>1185.74</ele>
 <time>2010-08-26T08:26:46Z</time>
 </trkpt>
 <trkpt lat="47.131645" lon="12.795235">
 <ele>1187.16</ele>
 <time>2010-08-26T08:26:52Z</time>
 </trkpt>
 <trkpt lat="47.131577" lon="12.795215">
 <ele>1187.89</ele>
 <time>2010-08-26T08:26:57Z</time>
 </trkpt>
 <trkpt lat="47.131485" lon="12.795187">
 <ele>1189.04</ele>
 <time>2010-08-26T08:27:03Z</time>
 </trkpt>
 <trkpt lat="47.131367" lon="12.795192">
 <ele>1189.89</ele>
 <time>2010-08-26T08:27:12Z</time>
 </trkpt>
 <trkpt lat="47.131264" lon="12.795206">
 <ele>1191.19</ele>
 <time>2010-08-26T08:27:19Z</time>
 </trkpt>
 <trkpt lat="47.131191" lon="12.795211">
 <ele>1191.84</ele>
 <time>2010-08-26T08:27:26Z</time>
 </trkpt>
 <trkpt lat="47.131130" lon="12.795205">
 <ele>1193.03</ele>
 <time>2010-08-26T08:27:35Z</time>
 </trkpt>
 <trkpt lat="47.131027" lon="12.795163">
 <ele>1193.79</ele>
 <time>2010-08-26T08:27:43Z</time>
 </trkpt>
 <trkpt lat="47.130943" lon="12.795143">
 <ele>1194.76</ele>
 <time>2010-08-26T08:27:49Z</time>
 </trkpt>
 <trkpt lat="47.130932" lon="12.795144">
 <ele>1194.94</ele>
 <time>2010-08-26T08:27:50Z</time>
 </trkpt>
 <trkpt lat="47.130825" lon="12.795130">
 <ele>1195.06</ele>
 <time>2010-08-26T08:27:57Z</time>
 </trkpt>
 <trkpt lat="47.130756" lon="12.795144">
 <ele>1196.90</ele>
 <time>2010-08-26T08:28:04Z</time>
 </trkpt>
 <trkpt lat="47.130653" lon="12.795169">
 <ele>1197.94</ele>
 <time>2010-08-26T08:28:12Z</time>
 </trkpt>
 <trkpt lat="47.130539" lon="12.795189">
 <ele>1198.52</ele>
 <time>2010-08-26T08:28:20Z</time>
 </trkpt>
 <trkpt lat="47.130417" lon="12.795219">
 <ele>1200.01</ele>
 <time>2010-08-26T08:28:29Z</time>
 </trkpt>
 <trkpt lat="47.130322" lon="12.795236">
 <ele>1201.47</ele>
 <time>2010-08-26T08:28:36Z</time>
 </trkpt>
 <trkpt lat="47.130196" lon="12.795240">
 <ele>1203.16</ele>
 <time>2010-08-26T08:28:46Z</time>
 </trkpt>
 <trkpt lat="47.130066" lon="12.795273">
 <ele>1204.76</ele>
 <time>2010-08-26T08:28:56Z</time>
 </trkpt>
 <trkpt lat="47.130024" lon="12.795301">
 <ele>1205.64</ele>
 <time>2010-08-26T08:29:00Z</time>
 </trkpt>
 <trkpt lat="47.129967" lon="12.795282">
 <ele>1206.54</ele>
 <time>2010-08-26T08:29:05Z</time>
 </trkpt>
 <trkpt lat="47.129913" lon="12.795245">
 <ele>1208.20</ele>
 <time>2010-08-26T08:29:14Z</time>
 </trkpt>
 <trkpt lat="47.129848" lon="12.795217">
 <ele>1209.94</ele>
 <time>2010-08-26T08:29:22Z</time>
 </trkpt>
 <trkpt lat="47.129749" lon="12.795158">
 <ele>1211.67</ele>
 <time>2010-08-26T08:29:31Z</time>
 </trkpt>
 <trkpt lat="47.129665" lon="12.795095">
 <ele>1212.66</ele>
 <time>2010-08-26T08:29:38Z</time>
 </trkpt>
 <trkpt lat="47.129551" lon="12.795000">
 <ele>1213.99</ele>
 <time>2010-08-26T08:29:47Z</time>
 </trkpt>
 <trkpt lat="47.129436" lon="12.794900">
 <ele>1216.26</ele>
 <time>2010-08-26T08:29:58Z</time>
 </trkpt>
 <trkpt lat="47.129356" lon="12.794830">
 <ele>1218.15</ele>
 <time>2010-08-26T08:30:06Z</time>
 </trkpt>
 <trkpt lat="47.129288" lon="12.794779">
 <ele>1219.48</ele>
 <time>2010-08-26T08:30:12Z</time>
 </trkpt>
 <trkpt lat="47.129196" lon="12.794734">
 <ele>1220.79</ele>
 <time>2010-08-26T08:30:19Z</time>
 </trkpt>
 <trkpt lat="47.129101" lon="12.794714">
 <ele>1222.03</ele>
 <time>2010-08-26T08:30:27Z</time>
 </trkpt>
 <trkpt lat="47.128971" lon="12.794685">
 <ele>1224.29</ele>
 <time>2010-08-26T08:30:37Z</time>
 </trkpt>
 <trkpt lat="47.128899" lon="12.794681">
 <ele>1225.90</ele>
 <time>2010-08-26T08:30:43Z</time>
 </trkpt>
 <trkpt lat="47.128796" lon="12.794666">
 <ele>1228.00</ele>
 <time>2010-08-26T08:30:52Z</time>
 </trkpt>
 <trkpt lat="47.128708" lon="12.794650">
 <ele>1229.06</ele>
 <time>2010-08-26T08:31:00Z</time>
 </trkpt>
 <trkpt lat="47.128624" lon="12.794666">
 <ele>1229.85</ele>
 <time>2010-08-26T08:31:08Z</time>
 </trkpt>
 <trkpt lat="47.128613" lon="12.794674">
 <ele>1230.00</ele>
 <time>2010-08-26T08:31:09Z</time>
 </trkpt>
 <trkpt lat="47.128582" lon="12.794743">
 <ele>1230.73</ele>
 <time>2010-08-26T08:31:15Z</time>
 </trkpt>
 <trkpt lat="47.128670" lon="12.794798">
 <ele>1231.54</ele>
 <time>2010-08-26T08:31:23Z</time>
 </trkpt>
 <trkpt lat="47.128704" lon="12.794754">
 <ele>1232.50</ele>
 <time>2010-08-26T08:31:29Z</time>
 </trkpt>
 <trkpt lat="47.128784" lon="12.794794">
 <ele>1233.49</ele>
 <time>2010-08-26T08:31:35Z</time>
 </trkpt>
 <trkpt lat="47.128918" lon="12.794897">
 <ele>1234.66</ele>
 <time>2010-08-26T08:31:44Z</time>
 </trkpt>
 <trkpt lat="47.129070" lon="12.795046">
 <ele>1237.09</ele>
 <time>2010-08-26T08:31:56Z</time>
 </trkpt>
 <trkpt lat="47.129166" lon="12.795157">
 <ele>1238.87</ele>
 <time>2010-08-26T08:32:06Z</time>
 </trkpt>
 <trkpt lat="47.129238" lon="12.795295">
 <ele>1240.30</ele>
 <time>2010-08-26T08:32:16Z</time>
 </trkpt>
 <trkpt lat="47.129299" lon="12.795443">
 <ele>1242.40</ele>
 <time>2010-08-26T08:32:26Z</time>
 </trkpt>
 <trkpt lat="47.129383" lon="12.795629">
 <ele>1244.32</ele>
 <time>2010-08-26T08:32:39Z</time>
 </trkpt>
 <trkpt lat="47.129467" lon="12.795767">
 <ele>1245.77</ele>
 <time>2010-08-26T08:32:50Z</time>
 </trkpt>
 <trkpt lat="47.129539" lon="12.795878">
 <ele>1247.15</ele>
 <time>2010-08-26T08:32:58Z</time>
 </trkpt>
 <trkpt lat="47.129539" lon="12.795931">
 <ele>1247.18</ele>
 <time>2010-08-26T08:33:01Z</time>
 </trkpt>
 <trkpt lat="47.129528" lon="12.795960">
 <ele>1247.45</ele>
 <time>2010-08-26T08:33:03Z</time>
 </trkpt>
 <trkpt lat="47.129463" lon="12.795935">
 <ele>1248.29</ele>
 <time>2010-08-26T08:33:09Z</time>
 </trkpt>
 <trkpt lat="47.129456" lon="12.795928">
 <ele>1248.58</ele>
 <time>2010-08-26T08:33:10Z</time>
 </trkpt>
 <trkpt lat="47.129364" lon="12.795773">
 <ele>1249.37</ele>
 <time>2010-08-26T08:33:20Z</time>
 </trkpt>
 <trkpt lat="47.129295" lon="12.795681">
 <ele>1250.54</ele>
 <time>2010-08-26T08:33:28Z</time>
 </trkpt>
 <trkpt lat="47.129219" lon="12.795606">
 <ele>1252.06</ele>
 <time>2010-08-26T08:33:36Z</time>
 </trkpt>
 <trkpt lat="47.129124" lon="12.795521">
 <ele>1254.36</ele>
 <time>2010-08-26T08:33:45Z</time>
 </trkpt>
 <trkpt lat="47.129028" lon="12.795459">
 <ele>1256.33</ele>
 <time>2010-08-26T08:33:54Z</time>
 </trkpt>
 <trkpt lat="47.128918" lon="12.795414">
 <ele>1258.48</ele>
 <time>2010-08-26T08:34:04Z</time>
 </trkpt>
 <trkpt lat="47.128811" lon="12.795394">
 <ele>1260.22</ele>
 <time>2010-08-26T08:34:13Z</time>
 </trkpt>
 <trkpt lat="47.128738" lon="12.795382">
 <ele>1261.60</ele>
 <time>2010-08-26T08:34:19Z</time>
 </trkpt>
 <trkpt lat="47.128624" lon="12.795380">
 <ele>1263.60</ele>
 <time>2010-08-26T08:34:29Z</time>
 </trkpt>
 <trkpt lat="47.128475" lon="12.795357">
 <ele>1264.85</ele>
 <time>2010-08-26T08:34:39Z</time>
 </trkpt>
 <trkpt lat="47.128384" lon="12.795356">
 <ele>1265.92</ele>
 <time>2010-08-26T08:34:46Z</time>
 </trkpt>
 <trkpt lat="47.128288" lon="12.795356">
 <ele>1267.34</ele>
 <time>2010-08-26T08:34:55Z</time>
 </trkpt>
 <trkpt lat="47.128197" lon="12.795316">
 <ele>1268.65</ele>
 <time>2010-08-26T08:35:02Z</time>
 </trkpt>
 <trkpt lat="47.128124" lon="12.795309">
 <ele>1269.31</ele>
 <time>2010-08-26T08:35:07Z</time>
 </trkpt>
 <trkpt lat="47.127998" lon="12.795354">
 <ele>1270.50</ele>
 <time>2010-08-26T08:35:19Z</time>
 </trkpt>
 <trkpt lat="47.127918" lon="12.795362">
 <ele>1271.47</ele>
 <time>2010-08-26T08:35:26Z</time>
 </trkpt>
 <trkpt lat="47.127823" lon="12.795351">
 <ele>1272.32</ele>
 <time>2010-08-26T08:35:34Z</time>
 </trkpt>
 <trkpt lat="47.127720" lon="12.795321">
 <ele>1273.36</ele>
 <time>2010-08-26T08:35:41Z</time>
 </trkpt>
 <trkpt lat="47.127602" lon="12.795325">
 <ele>1275.33</ele>
 <time>2010-08-26T08:35:50Z</time>
 </trkpt>
 <trkpt lat="47.127483" lon="12.795330">
 <ele>1277.38</ele>
 <time>2010-08-26T08:35:59Z</time>
 </trkpt>
 <trkpt lat="47.127377" lon="12.795363">
 <ele>1279.08</ele>
 <time>2010-08-26T08:36:08Z</time>
 </trkpt>
 <trkpt lat="47.127285" lon="12.795410">
 <ele>1281.28</ele>
 <time>2010-08-26T08:36:16Z</time>
 </trkpt>
 <trkpt lat="47.127239" lon="12.795459">
 <ele>1281.96</ele>
 <time>2010-08-26T08:36:21Z</time>
 </trkpt>
 <trkpt lat="47.127247" lon="12.795529">
 <ele>1282.65</ele>
 <time>2010-08-26T08:36:25Z</time>
 </trkpt>
 <trkpt lat="47.127266" lon="12.795556">
 <ele>1282.72</ele>
 <time>2010-08-26T08:36:27Z</time>
 </trkpt>
 <trkpt lat="47.127331" lon="12.795547">
 <ele>1283.34</ele>
 <time>2010-08-26T08:36:32Z</time>
 </trkpt>
 <trkpt lat="47.127365" lon="12.795529">
 <ele>1283.47</ele>
 <time>2010-08-26T08:36:35Z</time>
 </trkpt>
 <trkpt lat="47.127472" lon="12.795515">
 <ele>1284.26</ele>
 <time>2010-08-26T08:36:43Z</time>
 </trkpt>
 <trkpt lat="47.127598" lon="12.795553">
 <ele>1285.58</ele>
 <time>2010-08-26T08:36:53Z</time>
 </trkpt>
 <trkpt lat="47.127666" lon="12.795586">
 <ele>1286.53</ele>
 <time>2010-08-26T08:37:00Z</time>
 </trkpt>
 <trkpt lat="47.127743" lon="12.795653">
 <ele>1287.89</ele>
 <time>2010-08-26T08:37:09Z</time>
 </trkpt>
 <trkpt lat="47.127831" lon="12.795722">
 <ele>1289.59</ele>
 <time>2010-08-26T08:37:17Z</time>
 </trkpt>
 <trkpt lat="47.127853" lon="12.795719">
 <ele>1289.82</ele>
 <time>2010-08-26T08:37:19Z</time>
 </trkpt>
 <trkpt lat="47.127926" lon="12.795750">
 <ele>1290.86</ele>
 <time>2010-08-26T08:37:26Z</time>
 </trkpt>
 <trkpt lat="47.128040" lon="12.795815">
 <ele>1291.60</ele>
 <time>2010-08-26T08:37:35Z</time>
 </trkpt>
 <trkpt lat="47.128124" lon="12.795887">
 <ele>1292.42</ele>
 <time>2010-08-26T08:37:43Z</time>
 </trkpt>
 <trkpt lat="47.128208" lon="12.795989">
 <ele>1294.11</ele>
 <time>2010-08-26T08:37:51Z</time>
 </trkpt>
 <trkpt lat="47.128304" lon="12.796079">
 <ele>1295.54</ele>
 <time>2010-08-26T08:37:59Z</time>
 </trkpt>
 <trkpt lat="47.128426" lon="12.796160">
 <ele>1298.02</ele>
 <time>2010-08-26T08:38:09Z</time>
 </trkpt>
 <trkpt lat="47.128521" lon="12.796217">
 <ele>1299.73</ele>
 <time>2010-08-26T08:38:17Z</time>
 </trkpt>
 <trkpt lat="47.128525" lon="12.796320">
 <ele>1300.68</ele>
 <time>2010-08-26T08:38:23Z</time>
 </trkpt>
 <trkpt lat="47.128468" lon="12.796346">
 <ele>1300.95</ele>
 <time>2010-08-26T08:38:28Z</time>
 </trkpt>
 <trkpt lat="47.128365" lon="12.796273">
 <ele>1302.02</ele>
 <time>2010-08-26T08:38:37Z</time>
 </trkpt>
 <trkpt lat="47.128277" lon="12.796233">
 <ele>1302.92</ele>
 <time>2010-08-26T08:38:44Z</time>
 </trkpt>
 <trkpt lat="47.128204" lon="12.796207">
 <ele>1303.80</ele>
 <time>2010-08-26T08:38:50Z</time>
 </trkpt>
 <trkpt lat="47.128094" lon="12.796202">
 <ele>1305.25</ele>
 <time>2010-08-26T08:38:59Z</time>
 </trkpt>
 <trkpt lat="47.127987" lon="12.796191">
 <ele>1307.29</ele>
 <time>2010-08-26T08:39:08Z</time>
 </trkpt>
 <trkpt lat="47.127895" lon="12.796220">
 <ele>1309.05</ele>
 <time>2010-08-26T08:39:16Z</time>
 </trkpt>
 <trkpt lat="47.127800" lon="12.796258">
 <ele>1310.12</ele>
 <time>2010-08-26T08:39:24Z</time>
 </trkpt>
 <trkpt lat="47.127705" lon="12.796305">
 <ele>1311.97</ele>
 <time>2010-08-26T08:39:32Z</time>
 </trkpt>
 <trkpt lat="47.127575" lon="12.796365">
 <ele>1313.79</ele>
 <time>2010-08-26T08:39:43Z</time>
 </trkpt>
 <trkpt lat="47.127476" lon="12.796404">
 <ele>1314.61</ele>
 <time>2010-08-26T08:39:51Z</time>
 </trkpt>
 <trkpt lat="47.127369" lon="12.796406">
 <ele>1315.52</ele>
 <time>2010-08-26T08:39:58Z</time>
 </trkpt>
 <trkpt lat="47.127235" lon="12.796417">
 <ele>1316.48</ele>
 <time>2010-08-26T08:40:07Z</time>
 </trkpt>
 <trkpt lat="47.127106" lon="12.796403">
 <ele>1318.12</ele>
 <time>2010-08-26T08:40:16Z</time>
 </trkpt>
 <trkpt lat="47.127018" lon="12.796416">
 <ele>1319.91</ele>
 <time>2010-08-26T08:40:24Z</time>
 </trkpt>
 <trkpt lat="47.126961" lon="12.796423">
 <ele>1320.96</ele>
 <time>2010-08-26T08:40:30Z</time>
 </trkpt>
 <trkpt lat="47.126892" lon="12.796431">
 <ele>1322.46</ele>
 <time>2010-08-26T08:40:37Z</time>
 </trkpt>
 <trkpt lat="47.126778" lon="12.796414">
 <ele>1324.39</ele>
 <time>2010-08-26T08:40:47Z</time>
 </trkpt>
 <trkpt lat="47.126633" lon="12.796428">
 <ele>1326.26</ele>
 <time>2010-08-26T08:40:59Z</time>
 </trkpt>
 <trkpt lat="47.126514" lon="12.796435">
 <ele>1327.46</ele>
 <time>2010-08-26T08:41:08Z</time>
 </trkpt>
 <trkpt lat="47.126472" lon="12.796430">
 <ele>1327.75</ele>
 <time>2010-08-26T08:41:11Z</time>
 </trkpt>
 <trkpt lat="47.126389" lon="12.796432">
 <ele>1327.68</ele>
 <time>2010-08-26T08:41:18Z</time>
 </trkpt>
 <trkpt lat="47.126282" lon="12.796413">
 <ele>1328.95</ele>
 <time>2010-08-26T08:41:26Z</time>
 </trkpt>
 <trkpt lat="47.126179" lon="12.796436">
 <ele>1329.43</ele>
 <time>2010-08-26T08:41:33Z</time>
 </trkpt>
 <trkpt lat="47.126076" lon="12.796417">
 <ele>1330.92</ele>
 <time>2010-08-26T08:41:40Z</time>
 </trkpt>
 <trkpt lat="47.126026" lon="12.796374">
 <ele>1331.21</ele>
 <time>2010-08-26T08:41:43Z</time>
 </trkpt>
 <trkpt lat="47.125942" lon="12.796270">
 <ele>1331.88</ele>
 <time>2010-08-26T08:41:50Z</time>
 </trkpt>
 <trkpt lat="47.125881" lon="12.796198">
 <ele>1332.99</ele>
 <time>2010-08-26T08:41:59Z</time>
 </trkpt>
 <trkpt lat="47.125820" lon="12.796138">
 <ele>1334.16</ele>
 <time>2010-08-26T08:42:06Z</time>
 </trkpt>
 <trkpt lat="47.125725" lon="12.796103">
 <ele>1335.02</ele>
 <time>2010-08-26T08:42:14Z</time>
 </trkpt>
 <trkpt lat="47.125618" lon="12.796085">
 <ele>1336.10</ele>
 <time>2010-08-26T08:42:21Z</time>
 </trkpt>
 <trkpt lat="47.125515" lon="12.796033">
 <ele>1336.69</ele>
 <time>2010-08-26T08:42:28Z</time>
 </trkpt>
 <trkpt lat="47.125397" lon="12.795984">
 <ele>1337.28</ele>
 <time>2010-08-26T08:42:35Z</time>
 </trkpt>
 <trkpt lat="47.125317" lon="12.795964">
 <ele>1337.84</ele>
 <time>2010-08-26T08:42:41Z</time>
 </trkpt>
 <trkpt lat="47.125225" lon="12.795979">
 <ele>1339.50</ele>
 <time>2010-08-26T08:42:48Z</time>
 </trkpt>
 <trkpt lat="47.125130" lon="12.795975">
 <ele>1340.10</ele>
 <time>2010-08-26T08:42:55Z</time>
 </trkpt>
 <trkpt lat="47.124985" lon="12.796004">
 <ele>1340.78</ele>
 <time>2010-08-26T08:43:05Z</time>
 </trkpt>
 <trkpt lat="47.124886" lon="12.796030">
 <ele>1340.92</ele>
 <time>2010-08-26T08:43:11Z</time>
 </trkpt>
 <trkpt lat="47.124722" lon="12.796078">
 <ele>1341.84</ele>
 <time>2010-08-26T08:43:21Z</time>
 </trkpt>
 <trkpt lat="47.124607" lon="12.796137">
 <ele>1342.58</ele>
 <time>2010-08-26T08:43:29Z</time>
 </trkpt>
 <trkpt lat="47.124504" lon="12.796234">
 <ele>1342.92</ele>
 <time>2010-08-26T08:43:36Z</time>
 </trkpt>
 <trkpt lat="47.124401" lon="12.796304">
 <ele>1342.79</ele>
 <time>2010-08-26T08:43:43Z</time>
 </trkpt>
 <trkpt lat="47.124298" lon="12.796306">
 <ele>1343.83</ele>
 <time>2010-08-26T08:43:50Z</time>
 </trkpt>
 <trkpt lat="47.124207" lon="12.796330">
 <ele>1345.54</ele>
 <time>2010-08-26T08:43:57Z</time>
 </trkpt>
 <trkpt lat="47.124195" lon="12.796409">
 <ele>1346.53</ele>
 <time>2010-08-26T08:44:02Z</time>
 </trkpt>
 <trkpt lat="47.124249" lon="12.796454">
 <ele>1346.79</ele>
 <time>2010-08-26T08:44:06Z</time>
 </trkpt>
 <trkpt lat="47.124378" lon="12.796439">
 <ele>1347.43</ele>
 <time>2010-08-26T08:44:15Z</time>
 </trkpt>
 <trkpt lat="47.124496" lon="12.796435">
 <ele>1348.52</ele>
 <time>2010-08-26T08:44:23Z</time>
 </trkpt>
 <trkpt lat="47.124619" lon="12.796385">
 <ele>1349.80</ele>
 <time>2010-08-26T08:44:32Z</time>
 </trkpt>
 <trkpt lat="47.124744" lon="12.796359">
 <ele>1351.20</ele>
 <time>2010-08-26T08:44:41Z</time>
 </trkpt>
 <trkpt lat="47.124859" lon="12.796331">
 <ele>1352.64</ele>
 <time>2010-08-26T08:44:50Z</time>
 </trkpt>
 <trkpt lat="47.124962" lon="12.796316">
 <ele>1354.22</ele>
 <time>2010-08-26T08:44:58Z</time>
 </trkpt>
 <trkpt lat="47.125092" lon="12.796348">
 <ele>1355.23</ele>
 <time>2010-08-26T08:45:07Z</time>
 </trkpt>
 <trkpt lat="47.125221" lon="12.796425">
 <ele>1357.01</ele>
 <time>2010-08-26T08:45:17Z</time>
 </trkpt>
 <trkpt lat="47.125347" lon="12.796512">
 <ele>1359.58</ele>
 <time>2010-08-26T08:45:28Z</time>
 </trkpt>
 <trkpt lat="47.125458" lon="12.796587">
 <ele>1361.35</ele>
 <time>2010-08-26T08:45:38Z</time>
 </trkpt>
 <trkpt lat="47.125465" lon="12.796595">
 <ele>1361.55</ele>
 <time>2010-08-26T08:45:39Z</time>
 </trkpt>
 <trkpt lat="47.125465" lon="12.796654">
 <ele>1362.22</ele>
 <time>2010-08-26T08:45:43Z</time>
 </trkpt>
 <trkpt lat="47.125366" lon="12.796654">
 <ele>1363.17</ele>
 <time>2010-08-26T08:45:51Z</time>
 </trkpt>
 <trkpt lat="47.125263" lon="12.796599">
 <ele>1364.00</ele>
 <time>2010-08-26T08:46:00Z</time>
 </trkpt>
 <trkpt lat="47.125164" lon="12.796571">
 <ele>1365.64</ele>
 <time>2010-08-26T08:46:08Z</time>
 </trkpt>
 <trkpt lat="47.125053" lon="12.796583">
 <ele>1366.87</ele>
 <time>2010-08-26T08:46:16Z</time>
 </trkpt>
 <trkpt lat="47.124947" lon="12.796574">
 <ele>1367.79</ele>
 <time>2010-08-26T08:46:24Z</time>
 </trkpt>
 <trkpt lat="47.124874" lon="12.796604">
 <ele>1369.28</ele>
 <time>2010-08-26T08:46:30Z</time>
 </trkpt>
 <trkpt lat="47.124767" lon="12.796676">
 <ele>1370.89</ele>
 <time>2010-08-26T08:46:39Z</time>
 </trkpt>
 <trkpt lat="47.124672" lon="12.796742">
 <ele>1372.18</ele>
 <time>2010-08-26T08:46:47Z</time>
 </trkpt>
 <trkpt lat="47.124607" lon="12.796815">
 <ele>1372.44</ele>
 <time>2010-08-26T08:46:53Z</time>
 </trkpt>
 <trkpt lat="47.124508" lon="12.796934">
 <ele>1374.66</ele>
 <time>2010-08-26T08:47:03Z</time>
 </trkpt>
 <trkpt lat="47.124413" lon="12.797023">
 <ele>1376.06</ele>
 <time>2010-08-26T08:47:12Z</time>
 </trkpt>
 <trkpt lat="47.124294" lon="12.797094">
 <ele>1377.46</ele>
 <time>2010-08-26T08:47:21Z</time>
 </trkpt>
 <trkpt lat="47.124199" lon="12.797156">
 <ele>1378.14</ele>
 <time>2010-08-26T08:47:28Z</time>
 </trkpt>
 <trkpt lat="47.124104" lon="12.797252">
 <ele>1379.32</ele>
 <time>2010-08-26T08:47:37Z</time>
 </trkpt>
 <trkpt lat="47.124001" lon="12.797348">
 <ele>1380.56</ele>
 <time>2010-08-26T08:47:46Z</time>
 </trkpt>
 <trkpt lat="47.123898" lon="12.797356">
 <ele>1381.70</ele>
 <time>2010-08-26T08:47:54Z</time>
 </trkpt>
 <trkpt lat="47.123779" lon="12.797306">
 <ele>1383.15</ele>
 <time>2010-08-26T08:48:03Z</time>
 </trkpt>
 <trkpt lat="47.123672" lon="12.797264">
 <ele>1384.82</ele>
 <time>2010-08-26T08:48:11Z</time>
 </trkpt>
 <trkpt lat="47.123562" lon="12.797303">
 <ele>1385.99</ele>
 <time>2010-08-26T08:48:19Z</time>
 </trkpt>
 <trkpt lat="47.123459" lon="12.797364">
 <ele>1386.78</ele>
 <time>2010-08-26T08:48:27Z</time>
 </trkpt>
 <trkpt lat="47.123367" lon="12.797377">
 <ele>1387.92</ele>
 <time>2010-08-26T08:48:34Z</time>
 </trkpt>
 <trkpt lat="47.123352" lon="12.797367">
 <ele>1387.96</ele>
 <time>2010-08-26T08:48:35Z</time>
 </trkpt>
 <trkpt lat="47.123306" lon="12.797232">
 <ele>1387.75</ele>
 <time>2010-08-26T08:48:41Z</time>
 </trkpt>
 <trkpt lat="47.123302" lon="12.797226">
 <ele>1387.97</ele>
 <time>2010-08-26T08:48:42Z</time>
 </trkpt>
 <trkpt lat="47.123356" lon="12.797103">
 <ele>1387.67</ele>
 <time>2010-08-26T08:48:52Z</time>
 </trkpt>
 <trkpt lat="47.123344" lon="12.796907">
 <ele>1386.08</ele>
 <time>2010-08-26T08:49:00Z</time>
 </trkpt>
 <trkpt lat="47.123295" lon="12.796803">
 <ele>1385.91</ele>
 <time>2010-08-26T08:49:06Z</time>
 </trkpt>
 <trkpt lat="47.123184" lon="12.796725">
 <ele>1385.11</ele>
 <time>2010-08-26T08:49:12Z</time>
 </trkpt>
 <trkpt lat="47.123116" lon="12.796665">
 <ele>1385.35</ele>
 <time>2010-08-26T08:49:17Z</time>
 </trkpt>
 <trkpt lat="47.123089" lon="12.796656">
 <ele>1385.50</ele>
 <time>2010-08-26T08:49:19Z</time>
 </trkpt>
 <trkpt lat="47.122963" lon="12.796665">
 <ele>1385.34</ele>
 <time>2010-08-26T08:49:26Z</time>
 </trkpt>
 <trkpt lat="47.122849" lon="12.796699">
 <ele>1384.74</ele>
 <time>2010-08-26T08:49:33Z</time>
 </trkpt>
 <trkpt lat="47.122761" lon="12.796710">
 <ele>1383.66</ele>
 <time>2010-08-26T08:49:40Z</time>
 </trkpt>
 <trkpt lat="47.122742" lon="12.796714">
 <ele>1383.09</ele>
 <time>2010-08-26T08:49:43Z</time>
 </trkpt>
 <trkpt lat="47.122738" lon="12.796682">
 <ele>1382.53</ele>
 <time>2010-08-26T08:49:50Z</time>
 </trkpt>
 <trkpt lat="47.122738" lon="12.796628">
 <ele>1381.81</ele>
 <time>2010-08-26T08:49:56Z</time>
 </trkpt>
 <trkpt lat="47.122742" lon="12.796611">
 <ele>1381.63</ele>
 <time>2010-08-26T08:49:59Z</time>
 </trkpt>
 <trkpt lat="47.122711" lon="12.796540">
 <ele>1381.34</ele>
 <time>2010-08-26T08:50:08Z</time>
 </trkpt>
 <trkpt lat="47.122707" lon="12.796537">
 <ele>1381.63</ele>
 <time>2010-08-26T08:50:10Z</time>
 </trkpt>
 <trkpt lat="47.122799" lon="12.796505">
 <ele>1381.41</ele>
 <time>2010-08-26T08:50:32Z</time>
 </trkpt>
 <trkpt lat="47.122791" lon="12.796457">
 <ele>1380.56</ele>
 <time>2010-08-26T08:50:38Z</time>
 </trkpt>
 <trkpt lat="47.122746" lon="12.796535">
 <ele>1381.33</ele>
 <time>2010-08-26T08:51:39Z</time>
 </trkpt>
 <trkpt lat="47.122761" lon="12.796550">
 <ele>1381.52</ele>
 <time>2010-08-26T08:51:41Z</time>
 </trkpt>
 <trkpt lat="47.122776" lon="12.796566">
 <ele>1381.73</ele>
 <time>2010-08-26T08:51:44Z</time>
 </trkpt>
 <trkpt lat="47.122784" lon="12.796559">
 <ele>1382.25</ele>
 <time>2010-08-26T08:51:50Z</time>
 </trkpt>
 <trkpt lat="47.122803" lon="12.796553">
 <ele>1382.18</ele>
 <time>2010-08-26T08:51:51Z</time>
 </trkpt>
 <trkpt lat="47.122818" lon="12.796636">
 <ele>1382.96</ele>
 <time>2010-08-26T08:53:30Z</time>
 </trkpt>
 <trkpt lat="47.122799" lon="12.796622">
 <ele>1382.83</ele>
 <time>2010-08-26T08:53:32Z</time>
 </trkpt>
 <trkpt lat="47.122826" lon="12.796577">
 <ele>1383.02</ele>
 <time>2010-08-26T08:53:47Z</time>
 </trkpt>
 <trkpt lat="47.122849" lon="12.796541">
 <ele>1383.10</ele>
 <time>2010-08-26T08:53:57Z</time>
 </trkpt>
 <trkpt lat="47.122803" lon="12.796464">
 <ele>1382.80</ele>
 <time>2010-08-26T08:54:09Z</time>
 </trkpt>
 <trkpt lat="47.122833" lon="12.796445">
 <ele>1382.12</ele>
 <time>2010-08-26T08:54:13Z</time>
 </trkpt>
 <trkpt lat="47.122772" lon="12.796433">
 <ele>1382.22</ele>
 <time>2010-08-26T08:54:36Z</time>
 </trkpt>
 <trkpt lat="47.122711" lon="12.796505">
 <ele>1382.91</ele>
 <time>2010-08-26T08:56:08Z</time>
 </trkpt>
 <trkpt lat="47.122734" lon="12.796457">
 <ele>1382.75</ele>
 <time>2010-08-26T08:56:18Z</time>
 </trkpt>
 <trkpt lat="47.122742" lon="12.796435">
 <ele>1382.28</ele>
 <time>2010-08-26T08:56:21Z</time>
 </trkpt>
 <trkpt lat="47.122757" lon="12.796481">
 <ele>1382.50</ele>
 <time>2010-08-26T08:57:56Z</time>
 </trkpt>
 <trkpt lat="47.122776" lon="12.796475">
 <ele>1384.20</ele>
 <time>2010-08-26T08:59:59Z</time>
 </trkpt>
 <trkpt lat="47.122776" lon="12.796475">
 <ele>1384.14</ele>
 <time>2010-08-26T09:00:00Z</time>
 </trkpt>
 <trkpt lat="47.122772" lon="12.796483">
 <ele>1383.92</ele>
 <time>2010-08-26T09:00:03Z</time>
 </trkpt>
 <trkpt lat="47.122807" lon="12.796475">
 <ele>1385.97</ele>
 <time>2010-08-26T09:03:51Z</time>
 </trkpt>
 <trkpt lat="47.122814" lon="12.796462">
 <ele>1385.79</ele>
 <time>2010-08-26T09:03:52Z</time>
 </trkpt>
 <trkpt lat="47.122765" lon="12.796457">
 <ele>1385.51</ele>
 <time>2010-08-26T09:04:16Z</time>
 </trkpt>
 <trkpt lat="47.122749" lon="12.796466">
 <ele>1384.93</ele>
 <time>2010-08-26T09:05:37Z</time>
 </trkpt>
 <trkpt lat="47.122772" lon="12.796444">
 <ele>1384.95</ele>
 <time>2010-08-26T09:06:00Z</time>
 </trkpt>
 <trkpt lat="47.122772" lon="12.796444">
 <ele>1385.01</ele>
 <time>2010-08-26T09:06:01Z</time>
 </trkpt>
 <trkpt lat="47.122753" lon="12.796370">
 <ele>1384.90</ele>
 <time>2010-08-26T09:08:25Z</time>
 </trkpt>
 <trkpt lat="47.122749" lon="12.796378">
 <ele>1384.92</ele>
 <time>2010-08-26T09:08:26Z</time>
 </trkpt>
 <trkpt lat="47.122765" lon="12.796389">
 <ele>1384.87</ele>
 <time>2010-08-26T09:08:28Z</time>
 </trkpt>
 <trkpt lat="47.122715" lon="12.796461">
 <ele>1385.29</ele>
 <time>2010-08-26T09:08:54Z</time>
 </trkpt>
 <trkpt lat="47.122719" lon="12.796557">
 <ele>1385.62</ele>
 <time>2010-08-26T09:09:01Z</time>
 </trkpt>
 <trkpt lat="47.122684" lon="12.796564">
 <ele>1385.63</ele>
 <time>2010-08-26T09:09:24Z</time>
 </trkpt>
 <trkpt lat="47.122723" lon="12.796525">
 <ele>1385.95</ele>
 <time>2010-08-26T09:09:57Z</time>
 </trkpt>
 <trkpt lat="47.122753" lon="12.796483">
 <ele>1386.64</ele>
 <time>2010-08-26T09:13:31Z</time>
 </trkpt>
 <trkpt lat="47.122757" lon="12.796497">
 <ele>1386.71</ele>
 <time>2010-08-26T09:13:32Z</time>
 </trkpt>
 <trkpt lat="47.122761" lon="12.796506">
 <ele>1386.74</ele>
 <time>2010-08-26T09:13:34Z</time>
 </trkpt>
 <trkpt lat="47.122772" lon="12.796563">
 <ele>1387.29</ele>
 <time>2010-08-26T09:13:45Z</time>
 </trkpt>
 <trkpt lat="47.122772" lon="12.796573">
 <ele>1387.46</ele>
 <time>2010-08-26T09:13:46Z</time>
 </trkpt>
 <trkpt lat="47.122761" lon="12.796703">
 <ele>1388.19</ele>
 <time>2010-08-26T09:13:55Z</time>
 </trkpt>
 <trkpt lat="47.122818" lon="12.796741">
 <ele>1389.62</ele>
 <time>2010-08-26T09:14:02Z</time>
 </trkpt>
 <trkpt lat="47.122856" lon="12.796736">
 <ele>1390.56</ele>
 <time>2010-08-26T09:14:08Z</time>
 </trkpt>
 <trkpt lat="47.122887" lon="12.796720">
 <ele>1390.24</ele>
 <time>2010-08-26T09:14:12Z</time>
 </trkpt>
 <trkpt lat="47.123001" lon="12.796694">
 <ele>1390.77</ele>
 <time>2010-08-26T09:14:19Z</time>
 </trkpt>
 <trkpt lat="47.123131" lon="12.796682">
 <ele>1391.28</ele>
 <time>2010-08-26T09:14:27Z</time>
 </trkpt>
 <trkpt lat="47.123150" lon="12.796686">
 <ele>1391.30</ele>
 <time>2010-08-26T09:14:30Z</time>
 </trkpt>
 <trkpt lat="47.123199" lon="12.796721">
 <ele>1391.14</ele>
 <time>2010-08-26T09:15:49Z</time>
 </trkpt>
 <trkpt lat="47.123302" lon="12.796811">
 <ele>1390.65</ele>
 <time>2010-08-26T09:15:55Z</time>
 </trkpt>
 <trkpt lat="47.123363" lon="12.796973">
 <ele>1391.73</ele>
 <time>2010-08-26T09:16:03Z</time>
 </trkpt>
 <trkpt lat="47.123360" lon="12.797153">
 <ele>1392.82</ele>
 <time>2010-08-26T09:16:10Z</time>
 </trkpt>
 <trkpt lat="47.123325" lon="12.797330">
 <ele>1393.38</ele>
 <time>2010-08-26T09:16:17Z</time>
 </trkpt>
 <trkpt lat="47.123417" lon="12.797424">
 <ele>1393.91</ele>
 <time>2010-08-26T09:16:23Z</time>
 </trkpt>
 <trkpt lat="47.123451" lon="12.797414">
 <ele>1393.86</ele>
 <time>2010-08-26T09:16:25Z</time>
 </trkpt>
 <trkpt lat="47.123589" lon="12.797337">
 <ele>1392.64</ele>
 <time>2010-08-26T09:16:32Z</time>
 </trkpt>
 <trkpt lat="47.123646" lon="12.797284">
 <ele>1391.96</ele>
 <time>2010-08-26T09:16:37Z</time>
 </trkpt>
 <trkpt lat="47.123650" lon="12.797279">
 <ele>1391.66</ele>
 <time>2010-08-26T09:16:39Z</time>
 </trkpt>
 <trkpt lat="47.123764" lon="12.797335">
 <ele>1390.37</ele>
 <time>2010-08-26T09:16:50Z</time>
 </trkpt>
 <trkpt lat="47.123951" lon="12.797424">
 <ele>1387.62</ele>
 <time>2010-08-26T09:16:57Z</time>
 </trkpt>
 <trkpt lat="47.124096" lon="12.797384">
 <ele>1386.27</ele>
 <time>2010-08-26T09:17:02Z</time>
 </trkpt>
 <trkpt lat="47.124161" lon="12.797333">
 <ele>1385.70</ele>
 <time>2010-08-26T09:17:06Z</time>
 </trkpt>
 <trkpt lat="47.124199" lon="12.797294">
 <ele>1385.08</ele>
 <time>2010-08-26T09:17:10Z</time>
 </trkpt>
 <trkpt lat="47.124325" lon="12.797201">
 <ele>1384.21</ele>
 <time>2010-08-26T09:17:15Z</time>
 </trkpt>
 <trkpt lat="47.124348" lon="12.797183">
 <ele>1383.85</ele>
 <time>2010-08-26T09:17:18Z</time>
 </trkpt>
 <trkpt lat="47.124359" lon="12.797138">
 <ele>1383.71</ele>
 <time>2010-08-26T09:18:10Z</time>
 </trkpt>
 <trkpt lat="47.124378" lon="12.797125">
 <ele>1383.54</ele>
 <time>2010-08-26T09:18:11Z</time>
 </trkpt>
 <trkpt lat="47.124523" lon="12.797049">
 <ele>1382.20</ele>
 <time>2010-08-26T09:18:18Z</time>
 </trkpt>
 <trkpt lat="47.124634" lon="12.796930">
 <ele>1380.48</ele>
 <time>2010-08-26T09:18:23Z</time>
 </trkpt>
 <trkpt lat="47.124832" lon="12.796738">
 <ele>1377.30</ele>
 <time>2010-08-26T09:18:31Z</time>
 </trkpt>
 <trkpt lat="47.125000" lon="12.796640">
 <ele>1374.94</ele>
 <time>2010-08-26T09:18:38Z</time>
 </trkpt>
 <trkpt lat="47.125202" lon="12.796595">
 <ele>1372.49</ele>
 <time>2010-08-26T09:18:46Z</time>
 </trkpt>
 <trkpt lat="47.125381" lon="12.796698">
 <ele>1369.90</ele>
 <time>2010-08-26T09:18:52Z</time>
 </trkpt>
 <trkpt lat="47.125477" lon="12.796678">
 <ele>1369.57</ele>
 <time>2010-08-26T09:18:57Z</time>
 </trkpt>
 <trkpt lat="47.125492" lon="12.796682">
 <ele>1369.35</ele>
 <time>2010-08-26T09:19:00Z</time>
 </trkpt>
 <trkpt lat="47.125420" lon="12.796560">
 <ele>1368.02</ele>
 <time>2010-08-26T09:19:11Z</time>
 </trkpt>
 <trkpt lat="47.125278" lon="12.796461">
 <ele>1365.52</ele>
 <time>2010-08-26T09:19:18Z</time>
 </trkpt>
 <trkpt lat="47.125107" lon="12.796343">
 <ele>1362.77</ele>
 <time>2010-08-26T09:19:24Z</time>
 </trkpt>
 <trkpt lat="47.124928" lon="12.796322">
 <ele>1360.75</ele>
 <time>2010-08-26T09:19:30Z</time>
 </trkpt>
 <trkpt lat="47.124722" lon="12.796361">
 <ele>1359.04</ele>
 <time>2010-08-26T09:19:36Z</time>
 </trkpt>
 <trkpt lat="47.124504" lon="12.796427">
 <ele>1356.24</ele>
 <time>2010-08-26T09:19:42Z</time>
 </trkpt>
 <trkpt lat="47.124310" lon="12.796478">
 <ele>1354.27</ele>
 <time>2010-08-26T09:19:48Z</time>
 </trkpt>
 <trkpt lat="47.124214" lon="12.796459">
 <ele>1353.50</ele>
 <time>2010-08-26T09:19:52Z</time>
 </trkpt>
 <trkpt lat="47.124195" lon="12.796424">
 <ele>1353.37</ele>
 <time>2010-08-26T09:19:54Z</time>
 </trkpt>
 <trkpt lat="47.124252" lon="12.796372">
 <ele>1352.80</ele>
 <time>2010-08-26T09:19:59Z</time>
 </trkpt>
 <trkpt lat="47.124439" lon="12.796357">
 <ele>1350.50</ele>
 <time>2010-08-26T09:20:05Z</time>
 </trkpt>
 <trkpt lat="47.124599" lon="12.796224">
 <ele>1349.38</ele>
 <time>2010-08-26T09:20:10Z</time>
 </trkpt>
 <trkpt lat="47.124813" lon="12.796105">
 <ele>1348.39</ele>
 <time>2010-08-26T09:20:17Z</time>
 </trkpt>
 <trkpt lat="47.124992" lon="12.796046">
 <ele>1348.26</ele>
 <time>2010-08-26T09:20:24Z</time>
 </trkpt>
 <trkpt lat="47.125217" lon="12.796026">
 <ele>1347.08</ele>
 <time>2010-08-26T09:20:31Z</time>
 </trkpt>
 <trkpt lat="47.125404" lon="12.796060">
 <ele>1345.34</ele>
 <time>2010-08-26T09:20:37Z</time>
 </trkpt>
 <trkpt lat="47.125576" lon="12.796109">
 <ele>1343.54</ele>
 <time>2010-08-26T09:20:42Z</time>
 </trkpt>
 <trkpt lat="47.125774" lon="12.796180">
 <ele>1342.31</ele>
 <time>2010-08-26T09:20:48Z</time>
 </trkpt>
 <trkpt lat="47.125832" lon="12.796233">
 <ele>1341.74</ele>
 <time>2010-08-26T09:20:50Z</time>
 </trkpt>
 <trkpt lat="47.125935" lon="12.796373">
 <ele>1340.41</ele>
 <time>2010-08-26T09:20:54Z</time>
 </trkpt>
 <trkpt lat="47.126068" lon="12.796452">
 <ele>1339.02</ele>
 <time>2010-08-26T09:21:00Z</time>
 </trkpt>
 <trkpt lat="47.126244" lon="12.796401">
 <ele>1337.29</ele>
 <time>2010-08-26T09:21:06Z</time>
 </trkpt>
 <trkpt lat="47.126457" lon="12.796432">
 <ele>1336.05</ele>
 <time>2010-08-26T09:21:12Z</time>
 </trkpt>
 <trkpt lat="47.126675" lon="12.796446">
 <ele>1334.13</ele>
 <time>2010-08-26T09:21:19Z</time>
 </trkpt>
 <trkpt lat="47.126900" lon="12.796483">
 <ele>1331.19</ele>
 <time>2010-08-26T09:21:27Z</time>
 </trkpt>
 <trkpt lat="47.127132" lon="12.796538">
 <ele>1327.29</ele>
 <time>2010-08-26T09:21:35Z</time>
 </trkpt>
 <trkpt lat="47.127365" lon="12.796472">
 <ele>1324.58</ele>
 <time>2010-08-26T09:21:42Z</time>
 </trkpt>
 <trkpt lat="47.127514" lon="12.796391">
 <ele>1322.96</ele>
 <time>2010-08-26T09:21:47Z</time>
 </trkpt>
 <trkpt lat="47.127758" lon="12.796297">
 <ele>1319.84</ele>
 <time>2010-08-26T09:21:55Z</time>
 </trkpt>
 <trkpt lat="47.127975" lon="12.796226">
 <ele>1317.17</ele>
 <time>2010-08-26T09:22:04Z</time>
 </trkpt>
 <trkpt lat="47.128197" lon="12.796223">
 <ele>1313.57</ele>
 <time>2010-08-26T09:22:12Z</time>
 </trkpt>
 <trkpt lat="47.128384" lon="12.796304">
 <ele>1310.41</ele>
 <time>2010-08-26T09:22:19Z</time>
 </trkpt>
 <trkpt lat="47.128498" lon="12.796366">
 <ele>1309.27</ele>
 <time>2010-08-26T09:22:24Z</time>
 </trkpt>
 <trkpt lat="47.128521" lon="12.796250">
 <ele>1309.13</ele>
 <time>2010-08-26T09:22:29Z</time>
 </trkpt>
 <trkpt lat="47.128479" lon="12.796196">
 <ele>1308.46</ele>
 <time>2010-08-26T09:22:32Z</time>
 </trkpt>
 <trkpt lat="47.128304" lon="12.796081">
 <ele>1304.74</ele>
 <time>2010-08-26T09:22:41Z</time>
 </trkpt>
 <trkpt lat="47.128128" lon="12.795899">
 <ele>1301.34</ele>
 <time>2010-08-26T09:22:49Z</time>
 </trkpt>
 <trkpt lat="47.128098" lon="12.795876">
 <ele>1300.80</ele>
 <time>2010-08-26T09:22:50Z</time>
 </trkpt>
 <trkpt lat="47.128025" lon="12.795831">
 <ele>1300.00</ele>
 <time>2010-08-26T09:22:52Z</time>
 </trkpt>
 <trkpt lat="47.127876" lon="12.795762">
 <ele>1299.01</ele>
 <time>2010-08-26T09:22:57Z</time>
 </trkpt>
 <trkpt lat="47.127720" lon="12.795632">
 <ele>1297.06</ele>
 <time>2010-08-26T09:23:03Z</time>
 </trkpt>
 <trkpt lat="47.127518" lon="12.795517">
 <ele>1293.89</ele>
 <time>2010-08-26T09:23:10Z</time>
 </trkpt>
 <trkpt lat="47.127346" lon="12.795548">
 <ele>1292.24</ele>
 <time>2010-08-26T09:23:16Z</time>
 </trkpt>
 <trkpt lat="47.127270" lon="12.795559">
 <ele>1291.63</ele>
 <time>2010-08-26T09:23:20Z</time>
 </trkpt>
 <trkpt lat="47.127277" lon="12.795468">
 <ele>1290.99</ele>
 <time>2010-08-26T09:23:25Z</time>
 </trkpt>
 <trkpt lat="47.127369" lon="12.795421">
 <ele>1289.56</ele>
 <time>2010-08-26T09:23:30Z</time>
 </trkpt>
 <trkpt lat="47.127563" lon="12.795400">
 <ele>1285.67</ele>
 <time>2010-08-26T09:23:39Z</time>
 </trkpt>
 <trkpt lat="47.127728" lon="12.795387">
 <ele>1283.17</ele>
 <time>2010-08-26T09:23:45Z</time>
 </trkpt>
 <trkpt lat="47.127914" lon="12.795407">
 <ele>1280.90</ele>
 <time>2010-08-26T09:23:51Z</time>
 </trkpt>
 <trkpt lat="47.128124" lon="12.795405">
 <ele>1278.55</ele>
 <time>2010-08-26T09:23:57Z</time>
 </trkpt>
 <trkpt lat="47.128326" lon="12.795418">
 <ele>1276.48</ele>
 <time>2010-08-26T09:24:04Z</time>
 </trkpt>
 <trkpt lat="47.128513" lon="12.795376">
 <ele>1274.26</ele>
 <time>2010-08-26T09:24:11Z</time>
 </trkpt>
 <trkpt lat="47.128750" lon="12.795404">
 <ele>1270.73</ele>
 <time>2010-08-26T09:24:19Z</time>
 </trkpt>
 <trkpt lat="47.128929" lon="12.795433">
 <ele>1267.55</ele>
 <time>2010-08-26T09:24:26Z</time>
 </trkpt>
 <trkpt lat="47.129074" lon="12.795537">
 <ele>1264.10</ele>
 <time>2010-08-26T09:24:32Z</time>
 </trkpt>
 <trkpt lat="47.129246" lon="12.795707">
 <ele>1261.21</ele>
 <time>2010-08-26T09:24:38Z</time>
 </trkpt>
 <trkpt lat="47.129395" lon="12.795920">
 <ele>1257.80</ele>
 <time>2010-08-26T09:24:44Z</time>
 </trkpt>
 <trkpt lat="47.129459" lon="12.796019">
 <ele>1256.60</ele>
 <time>2010-08-26T09:24:48Z</time>
 </trkpt>
 <trkpt lat="47.129543" lon="12.795963">
 <ele>1256.16</ele>
 <time>2010-08-26T09:24:54Z</time>
 </trkpt>
 <trkpt lat="47.129505" lon="12.795853">
 <ele>1255.10</ele>
 <time>2010-08-26T09:24:58Z</time>
 </trkpt>
 <trkpt lat="47.129486" lon="12.795827">
 <ele>1255.10</ele>
 <time>2010-08-26T09:24:59Z</time>
 </trkpt>
 <trkpt lat="47.129333" lon="12.795579">
 <ele>1252.96</ele>
 <time>2010-08-26T09:25:07Z</time>
 </trkpt>
 <trkpt lat="47.129181" lon="12.795231">
 <ele>1248.97</ele>
 <time>2010-08-26T09:25:15Z</time>
 </trkpt>
 <trkpt lat="47.129021" lon="12.794983">
 <ele>1245.83</ele>
 <time>2010-08-26T09:25:22Z</time>
 </trkpt>
 <trkpt lat="47.128796" lon="12.794768">
 <ele>1242.82</ele>
 <time>2010-08-26T09:25:30Z</time>
 </trkpt>
 <trkpt lat="47.128643" lon="12.794741">
 <ele>1241.27</ele>
 <time>2010-08-26T09:25:35Z</time>
 </trkpt>
 <trkpt lat="47.128597" lon="12.794723">
 <ele>1240.79</ele>
 <time>2010-08-26T09:25:37Z</time>
 </trkpt>
 <trkpt lat="47.128601" lon="12.794589">
 <ele>1239.88</ele>
 <time>2010-08-26T09:25:42Z</time>
 </trkpt>
 <trkpt lat="47.128643" lon="12.794591">
 <ele>1239.24</ele>
 <time>2010-08-26T09:25:44Z</time>
 </trkpt>
 <trkpt lat="47.128853" lon="12.794685">
 <ele>1236.87</ele>
 <time>2010-08-26T09:25:52Z</time>
 </trkpt>
 <trkpt lat="47.128975" lon="12.794723">
 <ele>1234.95</ele>
 <time>2010-08-26T09:25:57Z</time>
 </trkpt>
 <trkpt lat="47.129173" lon="12.794774">
 <ele>1231.22</ele>
 <time>2010-08-26T09:26:05Z</time>
 </trkpt>
 <trkpt lat="47.129337" lon="12.794878">
 <ele>1228.33</ele>
 <time>2010-08-26T09:26:12Z</time>
 </trkpt>
 <trkpt lat="47.129509" lon="12.795037">
 <ele>1225.13</ele>
 <time>2010-08-26T09:26:19Z</time>
 </trkpt>
 <trkpt lat="47.129650" lon="12.795141">
 <ele>1222.79</ele>
 <time>2010-08-26T09:26:25Z</time>
 </trkpt>
 <trkpt lat="47.129822" lon="12.795242">
 <ele>1220.42</ele>
 <time>2010-08-26T09:26:31Z</time>
 </trkpt>
 <trkpt lat="47.129929" lon="12.795337">
 <ele>1218.45</ele>
 <time>2010-08-26T09:26:35Z</time>
 </trkpt>
 <trkpt lat="47.130035" lon="12.795401">
 <ele>1216.74</ele>
 <time>2010-08-26T09:26:40Z</time>
 </trkpt>
 <trkpt lat="47.130192" lon="12.795320">
 <ele>1214.24</ele>
 <time>2010-08-26T09:26:46Z</time>
 </trkpt>
 <trkpt lat="47.130402" lon="12.795267">
 <ele>1210.83</ele>
 <time>2010-08-26T09:26:53Z</time>
 </trkpt>
 <trkpt lat="47.130646" lon="12.795176">
 <ele>1207.97</ele>
 <time>2010-08-26T09:27:01Z</time>
 </trkpt>
 <trkpt lat="47.130859" lon="12.795145">
 <ele>1205.90</ele>
 <time>2010-08-26T09:27:08Z</time>
 </trkpt>
 <trkpt lat="47.131073" lon="12.795164">
 <ele>1203.37</ele>
 <time>2010-08-26T09:27:15Z</time>
 </trkpt>
 <trkpt lat="47.131283" lon="12.795310">
 <ele>1201.13</ele>
 <time>2010-08-26T09:27:21Z</time>
 </trkpt>
 <trkpt lat="47.131405" lon="12.795230">
 <ele>1200.19</ele>
 <time>2010-08-26T09:27:25Z</time>
 </trkpt>
 <trkpt lat="47.131538" lon="12.795231">
 <ele>1198.49</ele>
 <time>2010-08-26T09:27:29Z</time>
 </trkpt>
 <trkpt lat="47.131638" lon="12.795242">
 <ele>1197.37</ele>
 <time>2010-08-26T09:27:33Z</time>
 </trkpt>
 <trkpt lat="47.131859" lon="12.795194">
 <ele>1193.19</ele>
 <time>2010-08-26T09:27:41Z</time>
 </trkpt>
 <trkpt lat="47.132099" lon="12.795202">
 <ele>1189.33</ele>
 <time>2010-08-26T09:27:49Z</time>
 </trkpt>
 <trkpt lat="47.132332" lon="12.795208">
 <ele>1185.42</ele>
 <time>2010-08-26T09:27:57Z</time>
 </trkpt>
 <trkpt lat="47.132504" lon="12.795260">
 <ele>1182.05</ele>
 <time>2010-08-26T09:28:02Z</time>
 </trkpt>
 <trkpt lat="47.132713" lon="12.795386">
 <ele>1179.99</ele>
 <time>2010-08-26T09:28:08Z</time>
 </trkpt>
 <trkpt lat="47.132874" lon="12.795540">
 <ele>1177.72</ele>
 <time>2010-08-26T09:28:14Z</time>
 </trkpt>
 <trkpt lat="47.133064" lon="12.795677">
 <ele>1174.81</ele>
 <time>2010-08-26T09:28:19Z</time>
 </trkpt>
 <trkpt lat="47.133217" lon="12.795807">
 <ele>1173.02</ele>
 <time>2010-08-26T09:28:24Z</time>
 </trkpt>
 <trkpt lat="47.133354" lon="12.795934">
 <ele>1171.38</ele>
 <time>2010-08-26T09:28:29Z</time>
 </trkpt>
 <trkpt lat="47.133575" lon="12.796038">
 <ele>1169.49</ele>
 <time>2010-08-26T09:28:36Z</time>
 </trkpt>
 <trkpt lat="47.133766" lon="12.796099">
 <ele>1167.58</ele>
 <time>2010-08-26T09:28:43Z</time>
 </trkpt>
 <trkpt lat="47.133854" lon="12.796195">
 <ele>1165.99</ele>
 <time>2010-08-26T09:28:47Z</time>
 </trkpt>
 <trkpt lat="47.133976" lon="12.796386">
 <ele>1163.24</ele>
 <time>2010-08-26T09:28:54Z</time>
 </trkpt>
 <trkpt lat="47.134033" lon="12.796430">
 <ele>1162.77</ele>
 <time>2010-08-26T09:28:59Z</time>
 </trkpt>
 <trkpt lat="47.134037" lon="12.796426">
 <ele>1162.85</ele>
 <time>2010-08-26T09:29:00Z</time>
 </trkpt>
 <trkpt lat="47.134060" lon="12.796456">
 <ele>1162.04</ele>
 <time>2010-08-26T09:29:10Z</time>
 </trkpt>
 <trkpt lat="47.134113" lon="12.796421">
 <ele>1162.27</ele>
 <time>2010-08-26T09:30:08Z</time>
 </trkpt>
 <trkpt lat="47.134125" lon="12.796294">
 <ele>1161.75</ele>
 <time>2010-08-26T09:30:14Z</time>
 </trkpt>
 <trkpt lat="47.134098" lon="12.795989">
 <ele>1158.73</ele>
 <time>2010-08-26T09:30:21Z</time>
 </trkpt>
 <trkpt lat="47.134083" lon="12.795718">
 <ele>1155.99</ele>
 <time>2010-08-26T09:30:27Z</time>
 </trkpt>
 <trkpt lat="47.134033" lon="12.795605">
 <ele>1154.79</ele>
 <time>2010-08-26T09:30:30Z</time>
 </trkpt>
 <trkpt lat="47.134033" lon="12.795470">
 <ele>1153.91</ele>
 <time>2010-08-26T09:30:35Z</time>
 </trkpt>
 <trkpt lat="47.134106" lon="12.795487">
 <ele>1153.02</ele>
 <time>2010-08-26T09:30:39Z</time>
 </trkpt>
 <trkpt lat="47.134315" lon="12.795611">
 <ele>1150.31</ele>
 <time>2010-08-26T09:30:45Z</time>
 </trkpt>
 <trkpt lat="47.134438" lon="12.795718">
 <ele>1150.84</ele>
 <time>2010-08-26T09:30:51Z</time>
 </trkpt>
 <trkpt lat="47.134590" lon="12.795883">
 <ele>1149.37</ele>
 <time>2010-08-26T09:30:57Z</time>
 </trkpt>
 <trkpt lat="47.134720" lon="12.795927">
 <ele>1148.24</ele>
 <time>2010-08-26T09:31:02Z</time>
 </trkpt>
 <trkpt lat="47.134861" lon="12.795921">
 <ele>1147.56</ele>
 <time>2010-08-26T09:31:07Z</time>
 </trkpt>
 <trkpt lat="47.135155" lon="12.795932">
 <ele>1145.94</ele>
 <time>2010-08-26T09:31:14Z</time>
 </trkpt>
 <trkpt lat="47.135429" lon="12.795814">
 <ele>1145.49</ele>
 <time>2010-08-26T09:31:21Z</time>
 </trkpt>
 <trkpt lat="47.135582" lon="12.795741">
 <ele>1145.37</ele>
 <time>2010-08-26T09:31:26Z</time>
 </trkpt>
 <trkpt lat="47.135719" lon="12.795813">
 <ele>1144.36</ele>
 <time>2010-08-26T09:31:30Z</time>
 </trkpt>
 <trkpt lat="47.135880" lon="12.796007">
 <ele>1144.35</ele>
 <time>2010-08-26T09:31:36Z</time>
 </trkpt>
 <trkpt lat="47.136024" lon="12.796201">
 <ele>1143.94</ele>
 <time>2010-08-26T09:31:42Z</time>
 </trkpt>
 <trkpt lat="47.136101" lon="12.796214">
 <ele>1144.51</ele>
 <time>2010-08-26T09:31:48Z</time>
 </trkpt>
 <trkpt lat="47.136112" lon="12.796210">
 <ele>1144.78</ele>
 <time>2010-08-26T09:31:51Z</time>
 </trkpt>
 <trkpt lat="47.136189" lon="12.796145">
 <ele>1144.67</ele>
 <time>2010-08-26T09:32:21Z</time>
 </trkpt>
 <trkpt lat="47.136341" lon="12.796179">
 <ele>1144.19</ele>
 <time>2010-08-26T09:33:46Z</time>
 </trkpt>
 <trkpt lat="47.136448" lon="12.796306">
 <ele>1143.87</ele>
 <time>2010-08-26T09:33:51Z</time>
 </trkpt>
 <trkpt lat="47.136673" lon="12.796409">
 <ele>1143.35</ele>
 <time>2010-08-26T09:33:57Z</time>
 </trkpt>
 <trkpt lat="47.136997" lon="12.796521">
 <ele>1142.69</ele>
 <time>2010-08-26T09:34:04Z</time>
 </trkpt>
 <trkpt lat="47.137100" lon="12.796565">
 <ele>1142.35</ele>
 <time>2010-08-26T09:34:06Z</time>
 </trkpt>
 <trkpt lat="47.137257" lon="12.796602">
 <ele>1142.21</ele>
 <time>2010-08-26T09:34:09Z</time>
 </trkpt>
 <trkpt lat="47.137474" lon="12.796564">
 <ele>1142.38</ele>
 <time>2010-08-26T09:34:13Z</time>
 </trkpt>
 <trkpt lat="47.137638" lon="12.796519">
 <ele>1142.50</ele>
 <time>2010-08-26T09:34:16Z</time>
 </trkpt>
 <trkpt lat="47.138016" lon="12.796579">
 <ele>1141.74</ele>
 <time>2010-08-26T09:34:23Z</time>
 </trkpt>
 <trkpt lat="47.138500" lon="12.796546">
 <ele>1140.45</ele>
 <time>2010-08-26T09:34:32Z</time>
 </trkpt>
 <trkpt lat="47.138863" lon="12.796537">
 <ele>1140.15</ele>
 <time>2010-08-26T09:34:39Z</time>
 </trkpt>
 <trkpt lat="47.139172" lon="12.796657">
 <ele>1139.56</ele>
 <time>2010-08-26T09:34:45Z</time>
 </trkpt>
 <trkpt lat="47.139687" lon="12.796979">
 <ele>1138.80</ele>
 <time>2010-08-26T09:34:55Z</time>
 </trkpt>
 <trkpt lat="47.140003" lon="12.797123">
 <ele>1138.01</ele>
 <time>2010-08-26T09:35:01Z</time>
 </trkpt>
 <trkpt lat="47.140263" lon="12.797297">
 <ele>1137.64</ele>
 <time>2010-08-26T09:35:06Z</time>
 </trkpt>
 <trkpt lat="47.140602" lon="12.797440">
 <ele>1137.89</ele>
 <time>2010-08-26T09:35:13Z</time>
 </trkpt>
 <trkpt lat="47.140877" lon="12.797537">
 <ele>1138.05</ele>
 <time>2010-08-26T09:35:20Z</time>
 </trkpt>
 <trkpt lat="47.141132" lon="12.797615">
 <ele>1137.77</ele>
 <time>2010-08-26T09:35:26Z</time>
 </trkpt>
 <trkpt lat="47.141369" lon="12.797695">
 <ele>1138.30</ele>
 <time>2010-08-26T09:35:32Z</time>
 </trkpt>
 <trkpt lat="47.141758" lon="12.797727">
 <ele>1138.49</ele>
 <time>2010-08-26T09:35:41Z</time>
 </trkpt>
 <trkpt lat="47.142097" lon="12.797845">
 <ele>1138.75</ele>
 <time>2010-08-26T09:35:49Z</time>
 </trkpt>
 <trkpt lat="47.142414" lon="12.798072">
 <ele>1139.14</ele>
 <time>2010-08-26T09:35:57Z</time>
 </trkpt>
 <trkpt lat="47.142769" lon="12.798457">
 <ele>1140.59</ele>
 <time>2010-08-26T09:36:07Z</time>
 </trkpt>
 <trkpt lat="47.142891" lon="12.798653">
 <ele>1140.98</ele>
 <time>2010-08-26T09:36:11Z</time>
 </trkpt>
 <trkpt lat="47.143070" lon="12.799250">
 <ele>1140.83</ele>
 <time>2010-08-26T09:36:20Z</time>
 </trkpt>
 <trkpt lat="47.143284" lon="12.799976">
 <ele>1139.07</ele>
 <time>2010-08-26T09:36:30Z</time>
 </trkpt>
 <trkpt lat="47.143337" lon="12.800161">
 <ele>1139.39</ele>
 <time>2010-08-26T09:36:34Z</time>
 </trkpt>
 <trkpt lat="47.143402" lon="12.800328">
 <ele>1139.46</ele>
 <time>2010-08-26T09:36:40Z</time>
 </trkpt>
 <trkpt lat="47.143497" lon="12.800550">
 <ele>1138.70</ele>
 <time>2010-08-26T09:36:45Z</time>
 </trkpt>
 <trkpt lat="47.143532" lon="12.800641">
 <ele>1138.50</ele>
 <time>2010-08-26T09:36:47Z</time>
 </trkpt>
 <trkpt lat="47.143749" lon="12.800943">
 <ele>1137.86</ele>
 <time>2010-08-26T09:36:54Z</time>
 </trkpt>
 <trkpt lat="47.143986" lon="12.801212">
 <ele>1136.88</ele>
 <time>2010-08-26T09:37:00Z</time>
 </trkpt>
 <trkpt lat="47.144268" lon="12.801569">
 <ele>1137.08</ele>
 <time>2010-08-26T09:37:08Z</time>
 </trkpt>
 <trkpt lat="47.144650" lon="12.802095">
 <ele>1136.38</ele>
 <time>2010-08-26T09:37:18Z</time>
 </trkpt>
 <trkpt lat="47.144939" lon="12.802424">
 <ele>1134.49</ele>
 <time>2010-08-26T09:37:24Z</time>
 </trkpt>
 <trkpt lat="47.145298" lon="12.802756">
 <ele>1131.31</ele>
 <time>2010-08-26T09:37:30Z</time>
 </trkpt>
 <trkpt lat="47.145603" lon="12.802886">
 <ele>1131.77</ele>
 <time>2010-08-26T09:37:36Z</time>
 </trkpt>
 <trkpt lat="47.146027" lon="12.802957">
 <ele>1131.01</ele>
 <time>2010-08-26T09:37:44Z</time>
 </trkpt>
 <trkpt lat="47.146461" lon="12.802918">
 <ele>1131.57</ele>
 <time>2010-08-26T09:37:53Z</time>
 </trkpt>
 <trkpt lat="47.146732" lon="12.802907">
 <ele>1132.41</ele>
 <time>2010-08-26T09:38:00Z</time>
 </trkpt>
 <trkpt lat="47.146858" lon="12.802942">
 <ele>1132.28</ele>
 <time>2010-08-26T09:38:03Z</time>
 </trkpt>
 <trkpt lat="47.147133" lon="12.803169">
 <ele>1131.72</ele>
 <time>2010-08-26T09:38:11Z</time>
 </trkpt>
 <trkpt lat="47.147247" lon="12.803242">
 <ele>1131.40</ele>
 <time>2010-08-26T09:38:14Z</time>
 </trkpt>
 <trkpt lat="47.147579" lon="12.803305">
 <ele>1129.05</ele>
 <time>2010-08-26T09:38:20Z</time>
 </trkpt>
 <trkpt lat="47.147861" lon="12.803332">
 <ele>1127.97</ele>
 <time>2010-08-26T09:38:25Z</time>
 </trkpt>
 <trkpt lat="47.148205" lon="12.803363">
 <ele>1126.81</ele>
 <time>2010-08-26T09:38:32Z</time>
 </trkpt>
 <trkpt lat="47.148403" lon="12.803382">
 <ele>1126.76</ele>
 <time>2010-08-26T09:38:38Z</time>
 </trkpt>
 <trkpt lat="47.148640" lon="12.803411">
 <ele>1124.49</ele>
 <time>2010-08-26T09:38:43Z</time>
 </trkpt>
 <trkpt lat="47.148865" lon="12.803432">
 <ele>1122.36</ele>
 <time>2010-08-26T09:38:47Z</time>
 </trkpt>
 <trkpt lat="47.149040" lon="12.803441">
 <ele>1122.39</ele>
 <time>2010-08-26T09:38:52Z</time>
 </trkpt>
 <trkpt lat="47.149330" lon="12.803482">
 <ele>1120.05</ele>
 <time>2010-08-26T09:38:58Z</time>
 </trkpt>
 <trkpt lat="47.149731" lon="12.803508">
 <ele>1117.14</ele>
 <time>2010-08-26T09:39:04Z</time>
 </trkpt>
 <trkpt lat="47.150234" lon="12.803551">
 <ele>1112.72</ele>
 <time>2010-08-26T09:39:11Z</time>
 </trkpt>
 <trkpt lat="47.150761" lon="12.803599">
 <ele>1109.12</ele>
 <time>2010-08-26T09:39:18Z</time>
 </trkpt>
 <trkpt lat="47.150829" lon="12.803605">
 <ele>1108.84</ele>
 <time>2010-08-26T09:39:19Z</time>
 </trkpt>
 <trkpt lat="47.151253" lon="12.803646">
 <ele>1106.98</ele>
 <time>2010-08-26T09:39:26Z</time>
 </trkpt>
 <trkpt lat="47.151669" lon="12.803678">
 <ele>1105.22</ele>
 <time>2010-08-26T09:39:34Z</time>
 </trkpt>
 <trkpt lat="47.151978" lon="12.803683">
 <ele>1103.31</ele>
 <time>2010-08-26T09:39:42Z</time>
 </trkpt>
 <trkpt lat="47.152256" lon="12.803694">
 <ele>1100.80</ele>
 <time>2010-08-26T09:39:48Z</time>
 </trkpt>
 <trkpt lat="47.152397" lon="12.803703">
 <ele>1099.91</ele>
 <time>2010-08-26T09:39:53Z</time>
 </trkpt>
 <trkpt lat="47.152439" lon="12.803704">
 <ele>1099.65</ele>
 <time>2010-08-26T09:39:57Z</time>
 </trkpt>
 <trkpt lat="47.152477" lon="12.803618">
 <ele>1098.97</ele>
 <time>2010-08-26T09:40:45Z</time>
 </trkpt>
 <trkpt lat="47.152573" lon="12.803607">
 <ele>1098.03</ele>
 <time>2010-08-26T09:40:48Z</time>
 </trkpt>
 <trkpt lat="47.152836" lon="12.803581">
 <ele>1094.86</ele>
 <time>2010-08-26T09:40:53Z</time>
 </trkpt>
 <trkpt lat="47.152901" lon="12.803572">
 <ele>1094.85</ele>
 <time>2010-08-26T09:40:54Z</time>
 </trkpt>
 <trkpt lat="47.153309" lon="12.803552">
 <ele>1091.20</ele>
 <time>2010-08-26T09:41:00Z</time>
 </trkpt>
 <trkpt lat="47.153870" lon="12.803581">
 <ele>1087.43</ele>
 <time>2010-08-26T09:41:08Z</time>
 </trkpt>
 <trkpt lat="47.154430" lon="12.803616">
 <ele>1083.44</ele>
 <time>2010-08-26T09:41:15Z</time>
 </trkpt>
 <trkpt lat="47.154957" lon="12.803634">
 <ele>1083.33</ele>
 <time>2010-08-26T09:41:22Z</time>
 </trkpt>
 <trkpt lat="47.155273" lon="12.803542">
 <ele>1082.91</ele>
 <time>2010-08-26T09:41:27Z</time>
 </trkpt>
 <trkpt lat="47.155571" lon="12.803410">
 <ele>1082.91</ele>
 <time>2010-08-26T09:41:32Z</time>
 </trkpt>
 <trkpt lat="47.155846" lon="12.803450">
 <ele>1082.37</ele>
 <time>2010-08-26T09:41:37Z</time>
 </trkpt>
 <trkpt lat="47.156082" lon="12.803670">
 <ele>1081.50</ele>
 <time>2010-08-26T09:41:42Z</time>
 </trkpt>
 <trkpt lat="47.156300" lon="12.803779">
 <ele>1080.91</ele>
 <time>2010-08-26T09:41:46Z</time>
 </trkpt>
 <trkpt lat="47.156567" lon="12.803862">
 <ele>1079.21</ele>
 <time>2010-08-26T09:41:50Z</time>
 </trkpt>
 <trkpt lat="47.156883" lon="12.804151">
 <ele>1076.54</ele>
 <time>2010-08-26T09:41:55Z</time>
 </trkpt>
 <trkpt lat="47.157055" lon="12.804426">
 <ele>1077.07</ele>
 <time>2010-08-26T09:41:59Z</time>
 </trkpt>
 <trkpt lat="47.157372" lon="12.804713">
 <ele>1076.03</ele>
 <time>2010-08-26T09:42:05Z</time>
 </trkpt>
 <trkpt lat="47.157425" lon="12.804770">
 <ele>1075.65</ele>
 <time>2010-08-26T09:42:06Z</time>
 </trkpt>
 <trkpt lat="47.157619" lon="12.805167">
 <ele>1074.77</ele>
 <time>2010-08-26T09:42:11Z</time>
 </trkpt>
 <trkpt lat="47.157700" lon="12.805546">
 <ele>1073.87</ele>
 <time>2010-08-26T09:42:15Z</time>
 </trkpt>
 <trkpt lat="47.157879" lon="12.805909">
 <ele>1073.24</ele>
 <time>2010-08-26T09:42:20Z</time>
 </trkpt>
 <trkpt lat="47.158222" lon="12.806333">
 <ele>1071.24</ele>
 <time>2010-08-26T09:42:27Z</time>
 </trkpt>
 <trkpt lat="47.158588" lon="12.806782">
 <ele>1068.67</ele>
 <time>2010-08-26T09:42:34Z</time>
 </trkpt>
 <trkpt lat="47.158630" lon="12.806843">
 <ele>1068.14</ele>
 <time>2010-08-26T09:42:35Z</time>
 </trkpt>
 <trkpt lat="47.158943" lon="12.807209">
 <ele>1065.85</ele>
 <time>2010-08-26T09:42:42Z</time>
 </trkpt>
 <trkpt lat="47.159290" lon="12.807540">
 <ele>1062.03</ele>
 <time>2010-08-26T09:42:48Z</time>
 </trkpt>
 <trkpt lat="47.159641" lon="12.807772">
 <ele>1060.60</ele>
 <time>2010-08-26T09:42:54Z</time>
 </trkpt>
 <trkpt lat="47.159855" lon="12.807912">
 <ele>1059.55</ele>
 <time>2010-08-26T09:42:59Z</time>
 </trkpt>
 <trkpt lat="47.160110" lon="12.808070">
 <ele>1057.47</ele>
 <time>2010-08-26T09:43:05Z</time>
 </trkpt>
 <trkpt lat="47.160480" lon="12.808291">
 <ele>1054.35</ele>
 <time>2010-08-26T09:43:12Z</time>
 </trkpt>
 <trkpt lat="47.160786" lon="12.808495">
 <ele>1051.34</ele>
 <time>2010-08-26T09:43:18Z</time>
 </trkpt>
 <trkpt lat="47.161175" lon="12.808720">
 <ele>1047.59</ele>
 <time>2010-08-26T09:43:24Z</time>
 </trkpt>
 <trkpt lat="47.161507" lon="12.808981">
 <ele>1046.56</ele>
 <time>2010-08-26T09:43:29Z</time>
 </trkpt>
 <trkpt lat="47.161697" lon="12.809241">
 <ele>1046.58</ele>
 <time>2010-08-26T09:43:33Z</time>
 </trkpt>
 <trkpt lat="47.161732" lon="12.809297">
 <ele>1046.72</ele>
 <time>2010-08-26T09:43:34Z</time>
 </trkpt>
 <trkpt lat="47.162037" lon="12.809605">
 <ele>1046.41</ele>
 <time>2010-08-26T09:43:42Z</time>
 </trkpt>
 <trkpt lat="47.162182" lon="12.809678">
 <ele>1045.33</ele>
 <time>2010-08-26T09:43:45Z</time>
 </trkpt>
 <trkpt lat="47.162582" lon="12.809724">
 <ele>1044.05</ele>
 <time>2010-08-26T09:43:53Z</time>
 </trkpt>
 <trkpt lat="47.162926" lon="12.809762">
 <ele>1041.83</ele>
 <time>2010-08-26T09:43:59Z</time>
 </trkpt>
 <trkpt lat="47.163425" lon="12.809796">
 <ele>1039.95</ele>
 <time>2010-08-26T09:44:07Z</time>
 </trkpt>
 <trkpt lat="47.163731" lon="12.809676">
 <ele>1039.12</ele>
 <time>2010-08-26T09:44:13Z</time>
 </trkpt>
 <trkpt lat="47.163960" lon="12.809478">
 <ele>1037.71</ele>
 <time>2010-08-26T09:44:18Z</time>
 </trkpt>
 <trkpt lat="47.164097" lon="12.809445">
 <ele>1037.80</ele>
 <time>2010-08-26T09:44:23Z</time>
 </trkpt>
 <trkpt lat="47.164345" lon="12.809563">
 <ele>1036.87</ele>
 <time>2010-08-26T09:44:29Z</time>
 </trkpt>
 <trkpt lat="47.164494" lon="12.809709">
 <ele>1036.36</ele>
 <time>2010-08-26T09:44:33Z</time>
 </trkpt>
 <trkpt lat="47.164780" lon="12.810055">
 <ele>1034.82</ele>
 <time>2010-08-26T09:44:41Z</time>
 </trkpt>
 <trkpt lat="47.165089" lon="12.810401">
 <ele>1033.27</ele>
 <time>2010-08-26T09:44:48Z</time>
 </trkpt>
 <trkpt lat="47.165184" lon="12.810506">
 <ele>1032.47</ele>
 <time>2010-08-26T09:44:50Z</time>
 </trkpt>
 <trkpt lat="47.165421" lon="12.810595">
 <ele>1031.80</ele>
 <time>2010-08-26T09:44:55Z</time>
 </trkpt>
 <trkpt lat="47.165459" lon="12.810589">
 <ele>1031.83</ele>
 <time>2010-08-26T09:44:56Z</time>
 </trkpt>
 <trkpt lat="47.165657" lon="12.810523">
 <ele>1031.10</ele>
 <time>2010-08-26T09:45:02Z</time>
 </trkpt>
 <trkpt lat="47.165691" lon="12.810514">
 <ele>1031.21</ele>
 <time>2010-08-26T09:45:06Z</time>
 </trkpt>
 <trkpt lat="47.165764" lon="12.810522">
 <ele>1030.31</ele>
 <time>2010-08-26T09:45:12Z</time>
 </trkpt>
 <trkpt lat="47.165939" lon="12.810507">
 <ele>1029.59</ele>
 <time>2010-08-26T09:45:18Z</time>
 </trkpt>
 <trkpt lat="47.166138" lon="12.810471">
 <ele>1028.25</ele>
 <time>2010-08-26T09:45:23Z</time>
 </trkpt>
 <trkpt lat="47.166462" lon="12.810463">
 <ele>1027.01</ele>
 <time>2010-08-26T09:45:30Z</time>
 </trkpt>
 <trkpt lat="47.166889" lon="12.810489">
 <ele>1025.37</ele>
 <time>2010-08-26T09:45:38Z</time>
 </trkpt>
 <trkpt lat="47.167450" lon="12.810558">
 <ele>1023.74</ele>
 <time>2010-08-26T09:45:48Z</time>
 </trkpt>
 <trkpt lat="47.167763" lon="12.810594">
 <ele>1023.33</ele>
 <time>2010-08-26T09:45:54Z</time>
 </trkpt>
 <trkpt lat="47.167950" lon="12.810611">
 <ele>1023.01</ele>
 <time>2010-08-26T09:45:58Z</time>
 </trkpt>
 <trkpt lat="47.168304" lon="12.810727">
 <ele>1022.34</ele>
 <time>2010-08-26T09:46:06Z</time>
 </trkpt>
 <trkpt lat="47.168697" lon="12.810897">
 <ele>1020.61</ele>
 <time>2010-08-26T09:46:16Z</time>
 </trkpt>
 <trkpt lat="47.168736" lon="12.810927">
 <ele>1021.07</ele>
 <time>2010-08-26T09:46:19Z</time>
 </trkpt>
 <trkpt lat="47.168732" lon="12.810928">
 <ele>1021.30</ele>
 <time>2010-08-26T09:46:20Z</time>
 </trkpt>
 <trkpt lat="47.168800" lon="12.810949">
 <ele>1020.73</ele>
 <time>2010-08-26T09:47:26Z</time>
 </trkpt>
 <trkpt lat="47.169010" lon="12.811049">
 <ele>1019.75</ele>
 <time>2010-08-26T09:47:33Z</time>
 </trkpt>
 <trkpt lat="47.169201" lon="12.811142">
 <ele>1019.14</ele>
 <time>2010-08-26T09:47:38Z</time>
 </trkpt>
 <trkpt lat="47.169479" lon="12.811385">
 <ele>1018.10</ele>
 <time>2010-08-26T09:47:46Z</time>
 </trkpt>
 <trkpt lat="47.169662" lon="12.811733">
 <ele>1017.82</ele>
 <time>2010-08-26T09:47:54Z</time>
 </trkpt>
 <trkpt lat="47.169647" lon="12.811988">
 <ele>1018.07</ele>
 <time>2010-08-26T09:47:59Z</time>
 </trkpt>
 <trkpt lat="47.169586" lon="12.812195">
 <ele>1018.39</ele>
 <time>2010-08-26T09:48:04Z</time>
 </trkpt>
 <trkpt lat="47.169525" lon="12.812368">
 <ele>1018.79</ele>
 <time>2010-08-26T09:48:10Z</time>
 </trkpt>
 <trkpt lat="47.169437" lon="12.812622">
 <ele>1018.60</ele>
 <time>2010-08-26T09:48:17Z</time>
 </trkpt>
 <trkpt lat="47.169353" lon="12.812828">
 <ele>1018.93</ele>
 <time>2010-08-26T09:48:23Z</time>
 </trkpt>
 <trkpt lat="47.169193" lon="12.812962">
 <ele>1019.26</ele>
 <time>2010-08-26T09:48:30Z</time>
 </trkpt>
 <trkpt lat="47.169079" lon="12.813031">
 <ele>1020.10</ele>
 <time>2010-08-26T09:48:36Z</time>
 </trkpt>
 <trkpt lat="47.169041" lon="12.813067">
 <ele>1020.26</ele>
 <time>2010-08-26T09:48:38Z</time>
 </trkpt>
 <trkpt lat="47.169006" lon="12.813272">
 <ele>1020.03</ele>
 <time>2010-08-26T09:48:44Z</time>
 </trkpt>
 <trkpt lat="47.168930" lon="12.813350">
 <ele>1020.90</ele>
 <time>2010-08-26T09:48:50Z</time>
 </trkpt>
 <trkpt lat="47.168808" lon="12.813325">
 <ele>1021.37</ele>
 <time>2010-08-26T09:48:55Z</time>
 </trkpt>
 <trkpt lat="47.168659" lon="12.813325">
 <ele>1021.41</ele>
 <time>2010-08-26T09:49:01Z</time>
 </trkpt>
 <trkpt lat="47.168453" lon="12.813319">
 <ele>1022.05</ele>
 <time>2010-08-26T09:49:10Z</time>
 </trkpt>
 <trkpt lat="47.168350" lon="12.813328">
 <ele>1022.10</ele>
 <time>2010-08-26T09:49:15Z</time>
 </trkpt>
 <trkpt lat="47.168289" lon="12.813448">
 <ele>1022.17</ele>
 <time>2010-08-26T09:49:21Z</time>
 </trkpt>
 <trkpt lat="47.168293" lon="12.813479">
 <ele>1022.15</ele>
 <time>2010-08-26T09:49:22Z</time>
 </trkpt>
 <trkpt lat="47.168289" lon="12.813575">
 <ele>1022.31</ele>
 <time>2010-08-26T09:49:28Z</time>
 </trkpt>
 <trkpt lat="47.168270" lon="12.813610">
 <ele>1022.89</ele>
 <time>2010-08-26T09:49:34Z</time>
 </trkpt>
 <trkpt lat="47.168430" lon="12.813573">
 <ele>1022.51</ele>
 <time>2010-08-26T09:49:56Z</time>
 </trkpt>
 <trkpt lat="47.168530" lon="12.813567">
 <ele>1021.94</ele>
 <time>2010-08-26T09:50:02Z</time>
 </trkpt>
 <trkpt lat="47.168659" lon="12.813597">
 <ele>1021.61</ele>
 <time>2010-08-26T09:50:07Z</time>
 </trkpt>
 <trkpt lat="47.168762" lon="12.813664">
 <ele>1021.11</ele>
 <time>2010-08-26T09:50:10Z</time>
 </trkpt>
 <trkpt lat="47.169098" lon="12.813722">
 <ele>1018.69</ele>
 <time>2010-08-26T09:50:17Z</time>
 </trkpt>
 <trkpt lat="47.169445" lon="12.813818">
 <ele>1016.31</ele>
 <time>2010-08-26T09:50:23Z</time>
 </trkpt>
 <trkpt lat="47.169781" lon="12.814074">
 <ele>1015.48</ele>
 <time>2010-08-26T09:50:29Z</time>
 </trkpt>
 <trkpt lat="47.170223" lon="12.814564">
 <ele>1013.82</ele>
 <time>2010-08-26T09:50:38Z</time>
 </trkpt>
 <trkpt lat="47.170334" lon="12.814663">
 <ele>1013.68</ele>
 <time>2010-08-26T09:50:40Z</time>
 </trkpt>
 <trkpt lat="47.170444" lon="12.814761">
 <ele>1013.35</ele>
 <time>2010-08-26T09:50:42Z</time>
 </trkpt>
 <trkpt lat="47.170502" lon="12.814810">
 <ele>1013.33</ele>
 <time>2010-08-26T09:50:43Z</time>
 </trkpt>
 <trkpt lat="47.170723" lon="12.815004">
 <ele>1012.63</ele>
 <time>2010-08-26T09:50:47Z</time>
 </trkpt>
 <trkpt lat="47.170834" lon="12.815099">
 <ele>1012.24</ele>
 <time>2010-08-26T09:50:49Z</time>
 </trkpt>
 <trkpt lat="47.170944" lon="12.815196">
 <ele>1012.08</ele>
 <time>2010-08-26T09:50:51Z</time>
 </trkpt>
 <trkpt lat="47.171055" lon="12.815296">
 <ele>1011.79</ele>
 <time>2010-08-26T09:50:53Z</time>
 </trkpt>
 <trkpt lat="47.171108" lon="12.815345">
 <ele>1011.60</ele>
 <time>2010-08-26T09:50:54Z</time>
 </trkpt>
 <trkpt lat="47.171280" lon="12.815486">
 <ele>1011.34</ele>
 <time>2010-08-26T09:50:57Z</time>
 </trkpt>
 <trkpt lat="47.171394" lon="12.815580">
 <ele>1011.44</ele>
 <time>2010-08-26T09:50:59Z</time>
 </trkpt>
 <trkpt lat="47.171841" lon="12.815987">
 <ele>1010.77</ele>
 <time>2010-08-26T09:51:07Z</time>
 </trkpt>
 <trkpt lat="47.171955" lon="12.816097">
 <ele>1010.35</ele>
 <time>2010-08-26T09:51:09Z</time>
 </trkpt>
 <trkpt lat="47.172062" lon="12.816208">
 <ele>1010.11</ele>
 <time>2010-08-26T09:51:11Z</time>
 </trkpt>
 <trkpt lat="47.172115" lon="12.816266">
 <ele>1010.00</ele>
 <time>2010-08-26T09:51:12Z</time>
 </trkpt>
 <trkpt lat="47.172375" lon="12.816527">
 <ele>1009.33</ele>
 <time>2010-08-26T09:51:17Z</time>
 </trkpt>
 <trkpt lat="47.172607" lon="12.816651">
 <ele>1009.82</ele>
 <time>2010-08-26T09:51:21Z</time>
 </trkpt>
 <trkpt lat="47.173317" lon="12.816819">
 <ele>1009.58</ele>
 <time>2010-08-26T09:51:31Z</time>
 </trkpt>
 <trkpt lat="47.173828" lon="12.816941">
 <ele>1009.32</ele>
 <time>2010-08-26T09:51:39Z</time>
 </trkpt>
 <trkpt lat="47.174271" lon="12.816952">
 <ele>1008.86</ele>
 <time>2010-08-26T09:51:46Z</time>
 </trkpt>
 <trkpt lat="47.174458" lon="12.817026">
 <ele>1008.83</ele>
 <time>2010-08-26T09:51:49Z</time>
 </trkpt>
 <trkpt lat="47.174728" lon="12.817288">
 <ele>1008.55</ele>
 <time>2010-08-26T09:51:54Z</time>
 </trkpt>
 <trkpt lat="47.175003" lon="12.817778">
 <ele>1008.51</ele>
 <time>2010-08-26T09:52:01Z</time>
 </trkpt>
 <trkpt lat="47.175301" lon="12.818091">
 <ele>1009.18</ele>
 <time>2010-08-26T09:52:08Z</time>
 </trkpt>
 <trkpt lat="47.175613" lon="12.818381">
 <ele>1008.05</ele>
 <time>2010-08-26T09:52:13Z</time>
 </trkpt>
 <trkpt lat="47.175682" lon="12.818442">
 <ele>1007.60</ele>
 <time>2010-08-26T09:52:14Z</time>
 </trkpt>
 <trkpt lat="47.176041" lon="12.818592">
 <ele>1005.39</ele>
 <time>2010-08-26T09:52:19Z</time>
 </trkpt>
 <trkpt lat="47.176266" lon="12.818600">
 <ele>1004.84</ele>
 <time>2010-08-26T09:52:22Z</time>
 </trkpt>
 <trkpt lat="47.176567" lon="12.818734">
 <ele>1003.24</ele>
 <time>2010-08-26T09:52:26Z</time>
 </trkpt>
 <trkpt lat="47.177277" lon="12.819098">
 <ele>998.89</ele>
 <time>2010-08-26T09:52:35Z</time>
 </trkpt>
 <trkpt lat="47.177441" lon="12.819172">
 <ele>997.96</ele>
 <time>2010-08-26T09:52:37Z</time>
 </trkpt>
 <trkpt lat="47.177525" lon="12.819212">
 <ele>996.83</ele>
 <time>2010-08-26T09:52:38Z</time>
 </trkpt>
 <trkpt lat="47.177898" lon="12.819577">
 <ele>992.55</ele>
 <time>2010-08-26T09:52:42Z</time>
 </trkpt>
 <trkpt lat="47.178474" lon="12.820460">
 <ele>986.06</ele>
 <time>2010-08-26T09:52:49Z</time>
 </trkpt>
 <trkpt lat="47.178654" lon="12.820676">
 <ele>985.54</ele>
 <time>2010-08-26T09:52:51Z</time>
 </trkpt>
 <trkpt lat="47.179108" lon="12.821022">
 <ele>986.13</ele>
 <time>2010-08-26T09:52:56Z</time>
 </trkpt>
 <trkpt lat="47.179482" lon="12.821118">
 <ele>985.92</ele>
 <time>2010-08-26T09:53:00Z</time>
 </trkpt>
 <trkpt lat="47.180191" lon="12.821111">
 <ele>984.31</ele>
 <time>2010-08-26T09:53:08Z</time>
 </trkpt>
 <trkpt lat="47.180290" lon="12.821126">
 <ele>983.78</ele>
 <time>2010-08-26T09:53:09Z</time>
 </trkpt>
 <trkpt lat="47.180691" lon="12.821337">
 <ele>979.23</ele>
 <time>2010-08-26T09:53:13Z</time>
 </trkpt>
 <trkpt lat="47.180943" lon="12.821679">
 <ele>974.62</ele>
 <time>2010-08-26T09:53:16Z</time>
 </trkpt>
 <trkpt lat="47.181332" lon="12.822397">
 <ele>966.12</ele>
 <time>2010-08-26T09:53:21Z</time>
 </trkpt>
 <trkpt lat="47.181740" lon="12.822806">
 <ele>959.86</ele>
 <time>2010-08-26T09:53:25Z</time>
 </trkpt>
 <trkpt lat="47.182114" lon="12.822965">
 <ele>957.49</ele>
 <time>2010-08-26T09:53:28Z</time>
 </trkpt>
 <trkpt lat="47.182388" lon="12.823003">
 <ele>955.30</ele>
 <time>2010-08-26T09:53:30Z</time>
 </trkpt>
 <trkpt lat="47.183029" lon="12.823144">
 <ele>949.97</ele>
 <time>2010-08-26T09:53:35Z</time>
 </trkpt>
 <trkpt lat="47.183472" lon="12.823455">
 <ele>946.58</ele>
 <time>2010-08-26T09:53:39Z</time>
 </trkpt>
 <trkpt lat="47.183578" lon="12.823538">
 <ele>945.54</ele>
 <time>2010-08-26T09:53:40Z</time>
 </trkpt>
 <trkpt lat="47.184071" lon="12.823666">
 <ele>940.38</ele>
 <time>2010-08-26T09:53:44Z</time>
 </trkpt>
 <trkpt lat="47.184307" lon="12.823695">
 <ele>938.38</ele>
 <time>2010-08-26T09:53:46Z</time>
 </trkpt>
 <trkpt lat="47.185059" lon="12.823990">
 <ele>932.67</ele>
 <time>2010-08-26T09:53:52Z</time>
 </trkpt>
 <trkpt lat="47.185604" lon="12.824216">
 <ele>927.28</ele>
 <time>2010-08-26T09:53:57Z</time>
 </trkpt>
 <trkpt lat="47.186020" lon="12.824340">
 <ele>927.27</ele>
 <time>2010-08-26T09:54:02Z</time>
 </trkpt>
 <trkpt lat="47.186211" lon="12.824619">
 <ele>925.69</ele>
 <time>2010-08-26T09:54:05Z</time>
 </trkpt>
 <trkpt lat="47.186417" lon="12.825075">
 <ele>922.42</ele>
 <time>2010-08-26T09:54:09Z</time>
 </trkpt>
 <trkpt lat="47.186691" lon="12.825409">
 <ele>919.67</ele>
 <time>2010-08-26T09:54:13Z</time>
 </trkpt>
 <trkpt lat="47.186871" lon="12.825518">
 <ele>918.91</ele>
 <time>2010-08-26T09:54:15Z</time>
 </trkpt>
 <trkpt lat="47.187260" lon="12.825534">
 <ele>917.45</ele>
 <time>2010-08-26T09:54:19Z</time>
 </trkpt>
 <trkpt lat="47.187355" lon="12.825496">
 <ele>916.91</ele>
 <time>2010-08-26T09:54:20Z</time>
 </trkpt>
 <trkpt lat="47.187740" lon="12.825325">
 <ele>914.80</ele>
 <time>2010-08-26T09:54:24Z</time>
 </trkpt>
 <trkpt lat="47.188267" lon="12.825329">
 <ele>911.66</ele>
 <time>2010-08-26T09:54:29Z</time>
 </trkpt>
 <trkpt lat="47.189049" lon="12.825428">
 <ele>906.88</ele>
 <time>2010-08-26T09:54:36Z</time>
 </trkpt>
 <trkpt lat="47.189285" lon="12.825486">
 <ele>905.11</ele>
 <time>2010-08-26T09:54:38Z</time>
 </trkpt>
 <trkpt lat="47.189705" lon="12.825792">
 <ele>900.95</ele>
 <time>2010-08-26T09:54:42Z</time>
 </trkpt>
 <trkpt lat="47.190208" lon="12.826156">
 <ele>895.42</ele>
 <time>2010-08-26T09:54:47Z</time>
 </trkpt>
 <trkpt lat="47.190708" lon="12.826291">
 <ele>889.12</ele>
 <time>2010-08-26T09:54:51Z</time>
 </trkpt>
 <trkpt lat="47.191017" lon="12.826369">
 <ele>885.63</ele>
 <time>2010-08-26T09:54:54Z</time>
 </trkpt>
 <trkpt lat="47.191402" lon="12.826588">
 <ele>882.55</ele>
 <time>2010-08-26T09:54:58Z</time>
 </trkpt>
 <trkpt lat="47.191502" lon="12.826678">
 <ele>881.17</ele>
 <time>2010-08-26T09:54:59Z</time>
 </trkpt>
 <trkpt lat="47.191883" lon="12.826988">
 <ele>875.86</ele>
 <time>2010-08-26T09:55:03Z</time>
 </trkpt>
 <trkpt lat="47.192245" lon="12.827394">
 <ele>871.18</ele>
 <time>2010-08-26T09:55:07Z</time>
 </trkpt>
 <trkpt lat="47.192776" lon="12.828185">
 <ele>863.53</ele>
 <time>2010-08-26T09:55:13Z</time>
 </trkpt>
 <trkpt lat="47.193195" lon="12.828738">
 <ele>857.59</ele>
 <time>2010-08-26T09:55:18Z</time>
 </trkpt>
 <trkpt lat="47.193363" lon="12.828951">
 <ele>855.12</ele>
 <time>2010-08-26T09:55:20Z</time>
 </trkpt>
 <trkpt lat="47.193653" lon="12.829482">
 <ele>849.61</ele>
 <time>2010-08-26T09:55:24Z</time>
 </trkpt>
 <trkpt lat="47.193947" lon="12.830324">
 <ele>840.54</ele>
 <time>2010-08-26T09:55:29Z</time>
 </trkpt>
 <trkpt lat="47.194176" lon="12.830775">
 <ele>835.48</ele>
 <time>2010-08-26T09:55:32Z</time>
 </trkpt>
 <trkpt lat="47.194592" lon="12.831240">
 <ele>831.45</ele>
 <time>2010-08-26T09:55:36Z</time>
 </trkpt>
 <trkpt lat="47.195503" lon="12.831983">
 <ele>821.94</ele>
 <time>2010-08-26T09:55:44Z</time>
 </trkpt>
 <trkpt lat="47.196072" lon="12.832596">
 <ele>814.52</ele>
 <time>2010-08-26T09:55:50Z</time>
 </trkpt>
 <trkpt lat="47.196449" lon="12.833261">
 <ele>807.57</ele>
 <time>2010-08-26T09:55:55Z</time>
 </trkpt>
 <trkpt lat="47.196613" lon="12.833476">
 <ele>805.34</ele>
 <time>2010-08-26T09:55:57Z</time>
 </trkpt>
 <trkpt lat="47.197052" lon="12.833758">
 <ele>801.57</ele>
 <time>2010-08-26T09:56:01Z</time>
 </trkpt>
 <trkpt lat="47.197483" lon="12.833999">
 <ele>796.12</ele>
 <time>2010-08-26T09:56:05Z</time>
 </trkpt>
 <trkpt lat="47.198006" lon="12.834246">
 <ele>791.28</ele>
 <time>2010-08-26T09:56:10Z</time>
 </trkpt>
 <trkpt lat="47.198112" lon="12.834270">
 <ele>790.16</ele>
 <time>2010-08-26T09:56:11Z</time>
 </trkpt>
 <trkpt lat="47.198532" lon="12.834236">
 <ele>785.65</ele>
 <time>2010-08-26T09:56:15Z</time>
 </trkpt>
 <trkpt lat="47.199062" lon="12.834035">
 <ele>779.36</ele>
 <time>2010-08-26T09:56:20Z</time>
 </trkpt>
 <trkpt lat="47.199425" lon="12.834046">
 <ele>775.77</ele>
 <time>2010-08-26T09:56:23Z</time>
 </trkpt>
 <trkpt lat="47.200195" lon="12.834198">
 <ele>765.11</ele>
 <time>2010-08-26T09:56:29Z</time>
 </trkpt>
 <trkpt lat="47.200802" lon="12.834074">
 <ele>759.21</ele>
 <time>2010-08-26T09:56:34Z</time>
 </trkpt>
 <trkpt lat="47.201584" lon="12.833798">
 <ele>749.05</ele>
 <time>2010-08-26T09:56:40Z</time>
 </trkpt>
 <trkpt lat="47.202080" lon="12.833508">
 <ele>745.28</ele>
 <time>2010-08-26T09:56:44Z</time>
 </trkpt>
 <trkpt lat="47.202637" lon="12.833092">
 <ele>743.46</ele>
 <time>2010-08-26T09:56:49Z</time>
 </trkpt>
 <trkpt lat="47.203201" lon="12.832948">
 <ele>740.13</ele>
 <time>2010-08-26T09:56:54Z</time>
 </trkpt>
 <trkpt lat="47.204220" lon="12.832864">
 <ele>734.26</ele>
 <time>2010-08-26T09:57:03Z</time>
 </trkpt>
 <trkpt lat="47.205421" lon="12.832788">
 <ele>730.29</ele>
 <time>2010-08-26T09:57:14Z</time>
 </trkpt>
 <trkpt lat="47.206093" lon="12.832840">
 <ele>728.22</ele>
 <time>2010-08-26T09:57:20Z</time>
 </trkpt>
 <trkpt lat="47.206699" lon="12.832727">
 <ele>725.77</ele>
 <time>2010-08-26T09:57:26Z</time>
 </trkpt>
 <trkpt lat="47.207397" lon="12.832551">
 <ele>723.50</ele>
 <time>2010-08-26T09:57:33Z</time>
 </trkpt>
 <trkpt lat="47.208340" lon="12.832311">
 <ele>720.73</ele>
 <time>2010-08-26T09:57:43Z</time>
 </trkpt>
 <trkpt lat="47.209309" lon="12.832058">
 <ele>718.43</ele>
 <time>2010-08-26T09:57:54Z</time>
 </trkpt>
 <trkpt lat="47.210026" lon="12.831916">
 <ele>716.43</ele>
 <time>2010-08-26T09:58:02Z</time>
 </trkpt>
 <trkpt lat="47.210682" lon="12.831818">
 <ele>712.92</ele>
 <time>2010-08-26T09:58:09Z</time>
 </trkpt>
 <trkpt lat="47.211163" lon="12.831577">
 <ele>714.18</ele>
 <time>2010-08-26T09:58:15Z</time>
 </trkpt>
 <trkpt lat="47.211662" lon="12.831195">
 <ele>713.91</ele>
 <time>2010-08-26T09:58:22Z</time>
 </trkpt>
 <trkpt lat="47.212219" lon="12.830623">
 <ele>712.50</ele>
 <time>2010-08-26T09:58:31Z</time>
 </trkpt>
 <trkpt lat="47.212715" lon="12.830104">
 <ele>712.67</ele>
 <time>2010-08-26T09:58:40Z</time>
 </trkpt>
 <trkpt lat="47.213215" lon="12.829524">
 <ele>711.73</ele>
 <time>2010-08-26T09:58:49Z</time>
 </trkpt>
 <trkpt lat="47.213631" lon="12.829091">
 <ele>709.54</ele>
 <time>2010-08-26T09:58:55Z</time>
 </trkpt>
 <trkpt lat="47.214127" lon="12.828758">
 <ele>705.74</ele>
 <time>2010-08-26T09:59:01Z</time>
 </trkpt>
 <trkpt lat="47.214817" lon="12.828482">
 <ele>704.82</ele>
 <time>2010-08-26T09:59:09Z</time>
 </trkpt>
 <trkpt lat="47.215637" lon="12.828171">
 <ele>703.58</ele>
 <time>2010-08-26T09:59:19Z</time>
 </trkpt>
 <trkpt lat="47.216511" lon="12.827856">
 <ele>702.64</ele>
 <time>2010-08-26T09:59:30Z</time>
 </trkpt>
 <trkpt lat="47.217121" lon="12.827758">
 <ele>701.74</ele>
 <time>2010-08-26T09:59:38Z</time>
 </trkpt>
 <trkpt lat="47.217770" lon="12.827705">
 <ele>700.61</ele>
 <time>2010-08-26T09:59:47Z</time>
 </trkpt>
 <trkpt lat="47.218212" lon="12.827771">
 <ele>701.21</ele>
 <time>2010-08-26T09:59:53Z</time>
 </trkpt>
 <trkpt lat="47.218781" lon="12.827824">
 <ele>698.64</ele>
 <time>2010-08-26T10:00:00Z</time>
 </trkpt>
 <trkpt lat="47.219280" lon="12.827693">
 <ele>696.74</ele>
 <time>2010-08-26T10:00:06Z</time>
 </trkpt>
 <trkpt lat="47.219734" lon="12.827431">
 <ele>696.11</ele>
 <time>2010-08-26T10:00:12Z</time>
 </trkpt>
 <trkpt lat="47.220261" lon="12.827163">
 <ele>695.94</ele>
 <time>2010-08-26T10:00:19Z</time>
 </trkpt>
 <trkpt lat="47.220879" lon="12.827054">
 <ele>695.63</ele>
 <time>2010-08-26T10:00:27Z</time>
 </trkpt>
 <trkpt lat="47.221394" lon="12.826946">
 <ele>694.07</ele>
 <time>2010-08-26T10:00:34Z</time>
 </trkpt>
 <trkpt lat="47.221958" lon="12.826797">
 <ele>694.08</ele>
 <time>2010-08-26T10:00:42Z</time>
 </trkpt>
 <trkpt lat="47.222454" lon="12.826822">
 <ele>693.91</ele>
 <time>2010-08-26T10:00:49Z</time>
 </trkpt>
 <trkpt lat="47.223087" lon="12.826832">
 <ele>693.13</ele>
 <time>2010-08-26T10:00:58Z</time>
 </trkpt>
 <trkpt lat="47.224068" lon="12.826777">
 <ele>691.44</ele>
 <time>2010-08-26T10:01:12Z</time>
 </trkpt>
 <trkpt lat="47.224678" lon="12.826687">
 <ele>691.73</ele>
 <time>2010-08-26T10:01:21Z</time>
 </trkpt>
 <trkpt lat="47.225086" lon="12.826591">
 <ele>692.60</ele>
 <time>2010-08-26T10:01:28Z</time>
 </trkpt>
 <trkpt lat="47.225494" lon="12.826486">
 <ele>692.34</ele>
 <time>2010-08-26T10:01:35Z</time>
 </trkpt>
 <trkpt lat="47.225979" lon="12.826449">
 <ele>690.14</ele>
 <time>2010-08-26T10:01:42Z</time>
 </trkpt>
 <trkpt lat="47.226494" lon="12.826513">
 <ele>688.84</ele>
 <time>2010-08-26T10:01:49Z</time>
 </trkpt>
 <trkpt lat="47.226936" lon="12.826651">
 <ele>688.16</ele>
 <time>2010-08-26T10:01:56Z</time>
 </trkpt>
 <trkpt lat="47.227421" lon="12.826837">
 <ele>687.36</ele>
 <time>2010-08-26T10:02:04Z</time>
 </trkpt>
 <trkpt lat="47.227772" lon="12.826872">
 <ele>687.41</ele>
 <time>2010-08-26T10:02:09Z</time>
 </trkpt>
 <trkpt lat="47.228130" lon="12.826972">
 <ele>687.86</ele>
 <time>2010-08-26T10:02:16Z</time>
 </trkpt>
 <trkpt lat="47.228535" lon="12.826992">
 <ele>687.78</ele>
 <time>2010-08-26T10:02:23Z</time>
 </trkpt>
 <trkpt lat="47.229195" lon="12.827004">
 <ele>687.29</ele>
 <time>2010-08-26T10:02:34Z</time>
 </trkpt>
 <trkpt lat="47.229828" lon="12.827017">
 <ele>687.78</ele>
 <time>2010-08-26T10:02:44Z</time>
 </trkpt>
 <trkpt lat="47.230183" lon="12.826858">
 <ele>687.81</ele>
 <time>2010-08-26T10:02:50Z</time>
 </trkpt>
 <trkpt lat="47.230797" lon="12.826299">
 <ele>686.44</ele>
 <time>2010-08-26T10:03:01Z</time>
 </trkpt>
 <trkpt lat="47.231384" lon="12.825830">
 <ele>686.31</ele>
 <time>2010-08-26T10:03:11Z</time>
 </trkpt>
 <trkpt lat="47.231892" lon="12.825589">
 <ele>685.73</ele>
 <time>2010-08-26T10:03:19Z</time>
 </trkpt>
 <trkpt lat="47.232582" lon="12.825331">
 <ele>685.41</ele>
 <time>2010-08-26T10:03:30Z</time>
 </trkpt>
 <trkpt lat="47.233101" lon="12.825193">
 <ele>685.47</ele>
 <time>2010-08-26T10:03:38Z</time>
 </trkpt>
 <trkpt lat="47.233425" lon="12.825277">
 <ele>684.61</ele>
 <time>2010-08-26T10:03:43Z</time>
 </trkpt>
 <trkpt lat="47.234043" lon="12.825625">
 <ele>684.15</ele>
 <time>2010-08-26T10:03:53Z</time>
 </trkpt>
 <trkpt lat="47.234901" lon="12.826126">
 <ele>683.73</ele>
 <time>2010-08-26T10:04:07Z</time>
 </trkpt>
 <trkpt lat="47.235378" lon="12.826361">
 <ele>683.47</ele>
 <time>2010-08-26T10:04:15Z</time>
 </trkpt>
 <trkpt lat="47.235500" lon="12.826391">
 <ele>683.72</ele>
 <time>2010-08-26T10:04:17Z</time>
 </trkpt>
 <trkpt lat="47.235909" lon="12.826324">
 <ele>683.31</ele>
 <time>2010-08-26T10:04:23Z</time>
 </trkpt>
 <trkpt lat="47.236275" lon="12.826071">
 <ele>683.27</ele>
 <time>2010-08-26T10:04:29Z</time>
 </trkpt>
 <trkpt lat="47.236645" lon="12.825743">
 <ele>683.41</ele>
 <time>2010-08-26T10:04:36Z</time>
 </trkpt>
 <trkpt lat="47.236759" lon="12.825676">
 <ele>683.03</ele>
 <time>2010-08-26T10:04:38Z</time>
 </trkpt>
 <trkpt lat="47.237007" lon="12.825406">
 <ele>682.25</ele>
 <time>2010-08-26T10:04:43Z</time>
 </trkpt>
 <trkpt lat="47.237411" lon="12.825071">
 <ele>681.22</ele>
 <time>2010-08-26T10:04:50Z</time>
 </trkpt>
 <trkpt lat="47.237946" lon="12.824785">
 <ele>679.51</ele>
 <time>2010-08-26T10:04:58Z</time>
 </trkpt>
 <trkpt lat="47.238476" lon="12.824592">
 <ele>678.80</ele>
 <time>2010-08-26T10:05:06Z</time>
 </trkpt>
 <trkpt lat="47.238991" lon="12.824540">
 <ele>678.08</ele>
 <time>2010-08-26T10:05:14Z</time>
 </trkpt>
 <trkpt lat="47.239460" lon="12.824559">
 <ele>677.43</ele>
 <time>2010-08-26T10:05:21Z</time>
 </trkpt>
 <trkpt lat="47.239994" lon="12.824615">
 <ele>676.40</ele>
 <time>2010-08-26T10:05:29Z</time>
 </trkpt>
 <trkpt lat="47.240173" lon="12.824637">
 <ele>677.50</ele>
 <time>2010-08-26T10:05:33Z</time>
 </trkpt>
 <trkpt lat="47.240246" lon="12.824659">
 <ele>678.19</ele>
 <time>2010-08-26T10:05:37Z</time>
 </trkpt>
 <trkpt lat="47.240242" lon="12.824660">
 <ele>678.33</ele>
 <time>2010-08-26T10:05:38Z</time>
 </trkpt>
 <trkpt lat="47.240200" lon="12.824613">
 <ele>678.04</ele>
 <time>2010-08-26T10:06:24Z</time>
 </trkpt>
 <trkpt lat="47.240196" lon="12.824640">
 <ele>677.92</ele>
 <time>2010-08-26T10:06:48Z</time>
 </trkpt>
 <trkpt lat="47.240238" lon="12.824647">
 <ele>678.09</ele>
 <time>2010-08-26T10:06:53Z</time>
 </trkpt>
 <trkpt lat="47.240395" lon="12.824663">
 <ele>678.08</ele>
 <time>2010-08-26T10:06:59Z</time>
 </trkpt>
 <trkpt lat="47.240631" lon="12.824683">
 <ele>677.38</ele>
 <time>2010-08-26T10:07:04Z</time>
 </trkpt>
 <trkpt lat="47.240944" lon="12.824716">
 <ele>676.93</ele>
 <time>2010-08-26T10:07:10Z</time>
 </trkpt>
 <trkpt lat="47.241444" lon="12.824777">
 <ele>675.59</ele>
 <time>2010-08-26T10:07:19Z</time>
 </trkpt>
 <trkpt lat="47.242016" lon="12.824840">
 <ele>675.54</ele>
 <time>2010-08-26T10:07:29Z</time>
 </trkpt>
 <trkpt lat="47.242245" lon="12.824862">
 <ele>675.83</ele>
 <time>2010-08-26T10:07:33Z</time>
 </trkpt>
 <trkpt lat="47.242569" lon="12.825036">
 <ele>676.20</ele>
 <time>2010-08-26T10:07:39Z</time>
 </trkpt>
 <trkpt lat="47.243130" lon="12.825687">
 <ele>675.46</ele>
 <time>2010-08-26T10:07:51Z</time>
 </trkpt>
 <trkpt lat="47.243584" lon="12.826247">
 <ele>675.56</ele>
 <time>2010-08-26T10:08:01Z</time>
 </trkpt>
 <trkpt lat="47.244038" lon="12.826791">
 <ele>675.06</ele>
 <time>2010-08-26T10:08:11Z</time>
 </trkpt>
 <trkpt lat="47.244122" lon="12.826882">
 <ele>675.07</ele>
 <time>2010-08-26T10:08:13Z</time>
 </trkpt>
 <trkpt lat="47.244278" lon="12.826955">
 <ele>676.07</ele>
 <time>2010-08-26T10:08:17Z</time>
 </trkpt>
 <trkpt lat="47.244316" lon="12.826959">
 <ele>676.36</ele>
 <time>2010-08-26T10:08:18Z</time>
 </trkpt>
 <trkpt lat="47.244450" lon="12.827018">
 <ele>676.86</ele>
 <time>2010-08-26T10:08:21Z</time>
 </trkpt>
 <trkpt lat="47.244896" lon="12.827125">
 <ele>675.98</ele>
 <time>2010-08-26T10:08:29Z</time>
 </trkpt>
 <trkpt lat="47.245426" lon="12.827226">
 <ele>675.81</ele>
 <time>2010-08-26T10:08:38Z</time>
 </trkpt>
 <trkpt lat="47.245956" lon="12.827340">
 <ele>676.03</ele>
 <time>2010-08-26T10:08:47Z</time>
 </trkpt>
 <trkpt lat="47.246490" lon="12.827453">
 <ele>675.68</ele>
 <time>2010-08-26T10:08:56Z</time>
 </trkpt>
 <trkpt lat="47.246964" lon="12.827563">
 <ele>674.93</ele>
 <time>2010-08-26T10:09:04Z</time>
 </trkpt>
 <trkpt lat="47.247452" lon="12.827675">
 <ele>674.89</ele>
 <time>2010-08-26T10:09:12Z</time>
 </trkpt>
 <trkpt lat="47.247948" lon="12.827776">
 <ele>674.34</ele>
 <time>2010-08-26T10:09:20Z</time>
 </trkpt>
 <trkpt lat="47.248489" lon="12.827895">
 <ele>674.32</ele>
 <time>2010-08-26T10:09:29Z</time>
 </trkpt>
 <trkpt lat="47.249008" lon="12.827973">
 <ele>673.34</ele>
 <time>2010-08-26T10:09:37Z</time>
 </trkpt>
 <trkpt lat="47.249279" lon="12.827933">
 <ele>673.31</ele>
 <time>2010-08-26T10:09:41Z</time>
 </trkpt>
 <trkpt lat="47.249538" lon="12.827819">
 <ele>672.06</ele>
 <time>2010-08-26T10:09:45Z</time>
 </trkpt>
 <trkpt lat="47.249763" lon="12.827620">
 <ele>671.08</ele>
 <time>2010-08-26T10:09:49Z</time>
 </trkpt>
 <trkpt lat="47.250111" lon="12.827139">
 <ele>670.46</ele>
 <time>2010-08-26T10:09:57Z</time>
 </trkpt>
 <trkpt lat="47.250397" lon="12.826686">
 <ele>671.12</ele>
 <time>2010-08-26T10:10:04Z</time>
 </trkpt>
 <trkpt lat="47.250584" lon="12.826392">
 <ele>669.49</ele>
 <time>2010-08-26T10:10:08Z</time>
 </trkpt>
 <trkpt lat="47.250938" lon="12.825810">
 <ele>668.63</ele>
 <time>2010-08-26T10:10:16Z</time>
 </trkpt>
 <trkpt lat="47.251362" lon="12.825167">
 <ele>667.82</ele>
 <time>2010-08-26T10:10:25Z</time>
 </trkpt>
 <trkpt lat="47.251751" lon="12.824825">
 <ele>665.72</ele>
 <time>2010-08-26T10:10:31Z</time>
 </trkpt>
 <trkpt lat="47.252151" lon="12.824670">
 <ele>663.45</ele>
 <time>2010-08-26T10:10:36Z</time>
 </trkpt>
 <trkpt lat="47.252899" lon="12.824463">
 <ele>661.20</ele>
 <time>2010-08-26T10:10:45Z</time>
 </trkpt>
 <trkpt lat="47.253445" lon="12.824241">
 <ele>660.68</ele>
 <time>2010-08-26T10:10:52Z</time>
 </trkpt>
 <trkpt lat="47.253922" lon="12.824016">
 <ele>660.82</ele>
 <time>2010-08-26T10:10:59Z</time>
 </trkpt>
 <trkpt lat="47.254475" lon="12.823841">
 <ele>660.00</ele>
 <time>2010-08-26T10:11:07Z</time>
 </trkpt>
 <trkpt lat="47.254913" lon="12.823888">
 <ele>659.45</ele>
 <time>2010-08-26T10:11:13Z</time>
 </trkpt>
 <trkpt lat="47.255283" lon="12.824142">
 <ele>659.54</ele>
 <time>2010-08-26T10:11:19Z</time>
 </trkpt>
 <trkpt lat="47.255634" lon="12.824470">
 <ele>660.76</ele>
 <time>2010-08-26T10:11:26Z</time>
 </trkpt>
 <trkpt lat="47.255756" lon="12.824597">
 <ele>661.87</ele>
 <time>2010-08-26T10:11:30Z</time>
 </trkpt>
 <trkpt lat="47.255760" lon="12.824610">
 <ele>662.87</ele>
 <time>2010-08-26T10:11:33Z</time>
 </trkpt>
 <trkpt lat="47.255764" lon="12.824628">
 <ele>663.01</ele>
 <time>2010-08-26T10:12:25Z</time>
 </trkpt>
 <trkpt lat="47.255848" lon="12.824711">
 <ele>662.45</ele>
 <time>2010-08-26T10:12:29Z</time>
 </trkpt>
 <trkpt lat="47.256042" lon="12.824871">
 <ele>661.61</ele>
 <time>2010-08-26T10:12:35Z</time>
 </trkpt>
 <trkpt lat="47.256371" lon="12.825063">
 <ele>660.96</ele>
 <time>2010-08-26T10:12:42Z</time>
 </trkpt>
 <trkpt lat="47.256760" lon="12.825134">
 <ele>660.36</ele>
 <time>2010-08-26T10:12:49Z</time>
 </trkpt>
 <trkpt lat="47.257179" lon="12.825069">
 <ele>659.42</ele>
 <time>2010-08-26T10:12:56Z</time>
 </trkpt>
 <trkpt lat="47.257614" lon="12.824906">
 <ele>659.69</ele>
 <time>2010-08-26T10:13:04Z</time>
 </trkpt>
 <trkpt lat="47.257942" lon="12.824759">
 <ele>659.19</ele>
 <time>2010-08-26T10:13:10Z</time>
 </trkpt>
 <trkpt lat="47.258381" lon="12.824607">
 <ele>657.56</ele>
 <time>2010-08-26T10:13:17Z</time>
 </trkpt>
 <trkpt lat="47.258575" lon="12.824586">
 <ele>657.14</ele>
 <time>2010-08-26T10:13:20Z</time>
 </trkpt>
 <trkpt lat="47.258942" lon="12.824693">
 <ele>656.69</ele>
 <time>2010-08-26T10:13:26Z</time>
 </trkpt>
 <trkpt lat="47.259315" lon="12.824985">
 <ele>656.48</ele>
 <time>2010-08-26T10:13:33Z</time>
 </trkpt>
 <trkpt lat="47.259731" lon="12.825383">
 <ele>655.86</ele>
 <time>2010-08-26T10:13:41Z</time>
 </trkpt>
 <trkpt lat="47.260002" lon="12.825631">
 <ele>654.68</ele>
 <time>2010-08-26T10:13:46Z</time>
 </trkpt>
 <trkpt lat="47.260250" lon="12.825736">
 <ele>654.49</ele>
 <time>2010-08-26T10:13:50Z</time>
 </trkpt>
 <trkpt lat="47.260719" lon="12.825709">
 <ele>654.16</ele>
 <time>2010-08-26T10:13:57Z</time>
 </trkpt>
 <trkpt lat="47.260998" lon="12.825613">
 <ele>654.18</ele>
 <time>2010-08-26T10:14:02Z</time>
 </trkpt>
 <trkpt lat="47.261372" lon="12.825290">
 <ele>653.63</ele>
 <time>2010-08-26T10:14:09Z</time>
 </trkpt>
 <trkpt lat="47.261818" lon="12.824938">
 <ele>653.27</ele>
 <time>2010-08-26T10:14:17Z</time>
 </trkpt>
 <trkpt lat="47.262115" lon="12.824815">
 <ele>653.51</ele>
 <time>2010-08-26T10:14:22Z</time>
 </trkpt>
 <trkpt lat="47.262550" lon="12.824760">
 <ele>653.02</ele>
 <time>2010-08-26T10:14:29Z</time>
 </trkpt>
 <trkpt lat="47.262840" lon="12.824716">
 <ele>653.49</ele>
 <time>2010-08-26T10:14:34Z</time>
 </trkpt>
 <trkpt lat="47.263206" lon="12.824492">
 <ele>654.25</ele>
 <time>2010-08-26T10:14:41Z</time>
 </trkpt>
 <trkpt lat="47.263344" lon="12.824365">
 <ele>654.15</ele>
 <time>2010-08-26T10:14:44Z</time>
 </trkpt>
 <trkpt lat="47.263676" lon="12.824235">
 <ele>653.25</ele>
 <time>2010-08-26T10:14:50Z</time>
 </trkpt>
 <trkpt lat="47.263985" lon="12.824217">
 <ele>652.46</ele>
 <time>2010-08-26T10:14:55Z</time>
 </trkpt>
 <trkpt lat="47.264320" lon="12.824357">
 <ele>652.25</ele>
 <time>2010-08-26T10:15:01Z</time>
 </trkpt>
 <trkpt lat="47.264427" lon="12.824415">
 <ele>652.19</ele>
 <time>2010-08-26T10:15:03Z</time>
 </trkpt>
 <trkpt lat="47.264568" lon="12.824631">
 <ele>651.99</ele>
 <time>2010-08-26T10:15:07Z</time>
 </trkpt>
 <trkpt lat="47.264748" lon="12.824716">
 <ele>651.68</ele>
 <time>2010-08-26T10:15:11Z</time>
 </trkpt>
 <trkpt lat="47.265160" lon="12.824658">
 <ele>649.79</ele>
 <time>2010-08-26T10:15:18Z</time>
 </trkpt>
 <trkpt lat="47.265289" lon="12.824634">
 <ele>648.82</ele>
 <time>2010-08-26T10:15:20Z</time>
 </trkpt>
 <trkpt lat="47.265648" lon="12.824430">
 <ele>646.29</ele>
 <time>2010-08-26T10:15:26Z</time>
 </trkpt>
 <trkpt lat="47.266163" lon="12.824147">
 <ele>643.43</ele>
 <time>2010-08-26T10:15:33Z</time>
 </trkpt>
 <trkpt lat="47.266315" lon="12.824104">
 <ele>642.41</ele>
 <time>2010-08-26T10:15:35Z</time>
 </trkpt>
 <trkpt lat="47.266659" lon="12.824133">
 <ele>642.06</ele>
 <time>2010-08-26T10:15:40Z</time>
 </trkpt>
 <trkpt lat="47.266842" lon="12.824220">
 <ele>641.86</ele>
 <time>2010-08-26T10:15:43Z</time>
 </trkpt>
 <trkpt lat="47.267151" lon="12.824509">
 <ele>642.10</ele>
 <time>2010-08-26T10:15:50Z</time>
 </trkpt>
 <trkpt lat="47.267517" lon="12.824811">
 <ele>642.09</ele>
 <time>2010-08-26T10:15:58Z</time>
 </trkpt>
 <trkpt lat="47.267654" lon="12.824985">
 <ele>641.91</ele>
 <time>2010-08-26T10:16:02Z</time>
 </trkpt>
 <trkpt lat="47.267761" lon="12.825022">
 <ele>641.73</ele>
 <time>2010-08-26T10:16:04Z</time>
 </trkpt>
 <trkpt lat="47.268166" lon="12.825028">
 <ele>641.36</ele>
 <time>2010-08-26T10:16:11Z</time>
 </trkpt>
 <trkpt lat="47.268589" lon="12.825010">
 <ele>641.17</ele>
 <time>2010-08-26T10:16:19Z</time>
 </trkpt>
 <trkpt lat="47.268906" lon="12.824998">
 <ele>641.37</ele>
 <time>2010-08-26T10:16:25Z</time>
 </trkpt>
 <trkpt lat="47.269283" lon="12.824993">
 <ele>641.60</ele>
 <time>2010-08-26T10:16:33Z</time>
 </trkpt>
 <trkpt lat="47.269623" lon="12.824971">
 <ele>642.19</ele>
 <time>2010-08-26T10:16:40Z</time>
 </trkpt>
 <trkpt lat="47.269951" lon="12.824975">
 <ele>641.59</ele>
 <time>2010-08-26T10:16:47Z</time>
 </trkpt>
 <trkpt lat="47.270378" lon="12.824998">
 <ele>640.29</ele>
 <time>2010-08-26T10:16:55Z</time>
 </trkpt>
 <trkpt lat="47.270760" lon="12.825100">
 <ele>639.15</ele>
 <time>2010-08-26T10:17:02Z</time>
 </trkpt>
 <trkpt lat="47.271309" lon="12.825303">
 <ele>639.22</ele>
 <time>2010-08-26T10:17:12Z</time>
 </trkpt>
 <trkpt lat="47.271622" lon="12.825443">
 <ele>639.86</ele>
 <time>2010-08-26T10:17:19Z</time>
 </trkpt>
 <trkpt lat="47.271904" lon="12.825576">
 <ele>640.17</ele>
 <time>2010-08-26T10:17:26Z</time>
 </trkpt>
 <trkpt lat="47.272160" lon="12.825691">
 <ele>640.41</ele>
 <time>2010-08-26T10:17:32Z</time>
 </trkpt>
 <trkpt lat="47.272339" lon="12.825778">
 <ele>640.88</ele>
 <time>2010-08-26T10:17:36Z</time>
 </trkpt>
 <trkpt lat="47.272545" lon="12.825899">
 <ele>641.59</ele>
 <time>2010-08-26T10:17:41Z</time>
 </trkpt>
 <trkpt lat="47.272591" lon="12.825924">
 <ele>641.62</ele>
 <time>2010-08-26T10:17:42Z</time>
 </trkpt>
 <trkpt lat="47.272873" lon="12.825971">
 <ele>641.85</ele>
 <time>2010-08-26T10:17:48Z</time>
 </trkpt>
 <trkpt lat="47.273254" lon="12.825976">
 <ele>641.48</ele>
 <time>2010-08-26T10:17:55Z</time>
 </trkpt>
 <trkpt lat="47.273762" lon="12.826047">
 <ele>640.77</ele>
 <time>2010-08-26T10:18:04Z</time>
 </trkpt>
 <trkpt lat="47.274094" lon="12.826167">
 <ele>639.23</ele>
 <time>2010-08-26T10:18:09Z</time>
 </trkpt>
 <trkpt lat="47.274609" lon="12.826386">
 <ele>636.45</ele>
 <time>2010-08-26T10:18:16Z</time>
 </trkpt>
 <trkpt lat="47.275036" lon="12.826560">
 <ele>637.14</ele>
 <time>2010-08-26T10:18:23Z</time>
 </trkpt>
 <trkpt lat="47.275150" lon="12.826597">
 <ele>637.03</ele>
 <time>2010-08-26T10:18:25Z</time>
 </trkpt>
 <trkpt lat="47.275539" lon="12.826594">
 <ele>638.39</ele>
 <time>2010-08-26T10:18:33Z</time>
 </trkpt>
 <trkpt lat="47.275970" lon="12.826494">
 <ele>637.95</ele>
 <time>2010-08-26T10:18:41Z</time>
 </trkpt>
 <trkpt lat="47.276402" lon="12.826379">
 <ele>637.64</ele>
 <time>2010-08-26T10:18:49Z</time>
 </trkpt>
 <trkpt lat="47.276882" lon="12.826291">
 <ele>637.44</ele>
 <time>2010-08-26T10:18:58Z</time>
 </trkpt>
 <trkpt lat="47.277344" lon="12.826261">
 <ele>636.98</ele>
 <time>2010-08-26T10:19:06Z</time>
 </trkpt>
 <trkpt lat="47.277561" lon="12.826260">
 <ele>636.69</ele>
 <time>2010-08-26T10:19:10Z</time>
 </trkpt>
 <trkpt lat="47.277824" lon="12.826259">
 <ele>637.16</ele>
 <time>2010-08-26T10:19:16Z</time>
 </trkpt>
 <trkpt lat="47.277962" lon="12.826258">
 <ele>637.38</ele>
 <time>2010-08-26T10:19:20Z</time>
 </trkpt>
 <trkpt lat="47.277985" lon="12.826267">
 <ele>637.51</ele>
 <time>2010-08-26T10:19:25Z</time>
 </trkpt>
 <trkpt lat="47.278023" lon="12.826286">
 <ele>636.97</ele>
 <time>2010-08-26T10:19:32Z</time>
 </trkpt>
 <trkpt lat="47.278023" lon="12.826362">
 <ele>637.07</ele>
 <time>2010-08-26T10:19:36Z</time>
 </trkpt>
 <trkpt lat="47.278015" lon="12.826593">
 <ele>636.88</ele>
 <time>2010-08-26T10:19:42Z</time>
 </trkpt>
 <trkpt lat="47.277988" lon="12.826918">
 <ele>636.45</ele>
 <time>2010-08-26T10:19:48Z</time>
 </trkpt>
 <trkpt lat="47.277969" lon="12.827241">
 <ele>636.38</ele>
 <time>2010-08-26T10:19:54Z</time>
 </trkpt>
 <trkpt lat="47.277946" lon="12.827587">
 <ele>636.60</ele>
 <time>2010-08-26T10:20:00Z</time>
 </trkpt>
 <trkpt lat="47.277966" lon="12.827798">
 <ele>636.16</ele>
 <time>2010-08-26T10:20:04Z</time>
 </trkpt>
 <trkpt lat="47.277988" lon="12.827843">
 <ele>635.92</ele>
 <time>2010-08-26T10:20:05Z</time>
 </trkpt>
 <trkpt lat="47.278236" lon="12.828061">
 <ele>634.27</ele>
 <time>2010-08-26T10:20:11Z</time>
 </trkpt>
 <trkpt lat="47.278419" lon="12.828165">
 <ele>633.20</ele>
 <time>2010-08-26T10:20:15Z</time>
 </trkpt>
 <trkpt lat="47.278530" lon="12.828336">
 <ele>632.22</ele>
 <time>2010-08-26T10:20:19Z</time>
 </trkpt>
 <trkpt lat="47.278522" lon="12.828454">
 <ele>631.88</ele>
 <time>2010-08-26T10:20:21Z</time>
 </trkpt>
 <trkpt lat="47.278461" lon="12.828736">
 <ele>631.52</ele>
 <time>2010-08-26T10:20:27Z</time>
 </trkpt>
 <trkpt lat="47.278503" lon="12.828875">
 <ele>631.13</ele>
 <time>2010-08-26T10:20:32Z</time>
 </trkpt>
 <trkpt lat="47.278530" lon="12.828970">
 <ele>630.68</ele>
 <time>2010-08-26T10:20:34Z</time>
 </trkpt>
 <trkpt lat="47.278572" lon="12.829079">
 <ele>630.40</ele>
 <time>2010-08-26T10:20:36Z</time>
 </trkpt>
 <trkpt lat="47.278736" lon="12.829345">
 <ele>629.54</ele>
 <time>2010-08-26T10:20:41Z</time>
 </trkpt>
 <trkpt lat="47.279022" lon="12.829697">
 <ele>628.92</ele>
 <time>2010-08-26T10:20:48Z</time>
 </trkpt>
 <trkpt lat="47.279285" lon="12.830221">
 <ele>628.73</ele>
 <time>2010-08-26T10:20:56Z</time>
 </trkpt>
 <trkpt lat="47.279472" lon="12.830615">
 <ele>628.91</ele>
 <time>2010-08-26T10:21:02Z</time>
 </trkpt>
 <trkpt lat="47.279503" lon="12.830681">
 <ele>628.81</ele>
 <time>2010-08-26T10:21:03Z</time>
 </trkpt>
 <trkpt lat="47.279655" lon="12.830910">
 <ele>628.53</ele>
 <time>2010-08-26T10:21:07Z</time>
 </trkpt>
 <trkpt lat="47.279961" lon="12.831080">
 <ele>628.48</ele>
 <time>2010-08-26T10:21:13Z</time>
 </trkpt>
 <trkpt lat="47.280075" lon="12.831210">
 <ele>628.41</ele>
 <time>2010-08-26T10:21:16Z</time>
 </trkpt>
 <trkpt lat="47.280125" lon="12.831421">
 <ele>627.90</ele>
 <time>2010-08-26T10:21:19Z</time>
 </trkpt>
 <trkpt lat="47.280151" lon="12.832143">
 <ele>628.17</ele>
 <time>2010-08-26T10:21:28Z</time>
 </trkpt>
 <trkpt lat="47.280170" lon="12.832802">
 <ele>626.95</ele>
 <time>2010-08-26T10:21:36Z</time>
 </trkpt>
 <trkpt lat="47.280170" lon="12.833603">
 <ele>626.96</ele>
 <time>2010-08-26T10:21:46Z</time>
 </trkpt>
 <trkpt lat="47.280144" lon="12.834339">
 <ele>627.04</ele>
 <time>2010-08-26T10:21:55Z</time>
 </trkpt>
 <trkpt lat="47.280151" lon="12.834785">
 <ele>626.96</ele>
 <time>2010-08-26T10:22:01Z</time>
 </trkpt>
 <trkpt lat="47.280106" lon="12.835191">
 <ele>629.96</ele>
 <time>2010-08-26T10:22:08Z</time>
 </trkpt>
 <trkpt lat="47.280083" lon="12.835430">
 <ele>630.89</ele>
 <time>2010-08-26T10:22:12Z</time>
 </trkpt>
 <trkpt lat="47.280064" lon="12.835639">
 <ele>631.00</ele>
 <time>2010-08-26T10:22:15Z</time>
 </trkpt>
 <trkpt lat="47.279999" lon="12.836402">
 <ele>630.74</ele>
 <time>2010-08-26T10:22:25Z</time>
 </trkpt>
 <trkpt lat="47.279930" lon="12.837269">
 <ele>628.80</ele>
 <time>2010-08-26T10:22:35Z</time>
 </trkpt>
 <trkpt lat="47.279888" lon="12.837920">
 <ele>625.41</ele>
 <time>2010-08-26T10:22:41Z</time>
 </trkpt>
 <trkpt lat="47.279873" lon="12.838309">
 <ele>623.89</ele>
 <time>2010-08-26T10:22:44Z</time>
 </trkpt>
 <trkpt lat="47.279881" lon="12.839163">
 <ele>622.55</ele>
 <time>2010-08-26T10:22:51Z</time>
 </trkpt>
 <trkpt lat="47.279961" lon="12.839895">
 <ele>622.87</ele>
 <time>2010-08-26T10:22:58Z</time>
 </trkpt>
 <trkpt lat="47.280052" lon="12.840457">
 <ele>623.13</ele>
 <time>2010-08-26T10:23:04Z</time>
 </trkpt>
 <trkpt lat="47.280239" lon="12.841249">
 <ele>623.23</ele>
 <time>2010-08-26T10:23:13Z</time>
 </trkpt>
 <trkpt lat="47.280579" lon="12.842225">
 <ele>623.11</ele>
 <time>2010-08-26T10:23:25Z</time>
 </trkpt>
 <trkpt lat="47.280636" lon="12.842391">
 <ele>622.96</ele>
 <time>2010-08-26T10:23:27Z</time>
 </trkpt>
 <trkpt lat="47.280674" lon="12.842856">
 <ele>622.69</ele>
 <time>2010-08-26T10:23:32Z</time>
 </trkpt>
 <trkpt lat="47.280556" lon="12.843353">
 <ele>622.65</ele>
 <time>2010-08-26T10:23:38Z</time>
 </trkpt>
 <trkpt lat="47.280468" lon="12.843567">
 <ele>622.80</ele>
 <time>2010-08-26T10:23:41Z</time>
 </trkpt>
 <trkpt lat="47.280411" lon="12.843949">
 <ele>623.16</ele>
 <time>2010-08-26T10:23:46Z</time>
 </trkpt>
 <trkpt lat="47.280418" lon="12.844025">
 <ele>623.28</ele>
 <time>2010-08-26T10:23:47Z</time>
 </trkpt>
 <trkpt lat="47.280445" lon="12.844176">
 <ele>623.50</ele>
 <time>2010-08-26T10:23:49Z</time>
 </trkpt>
 <trkpt lat="47.280689" lon="12.844941">
 <ele>622.66</ele>
 <time>2010-08-26T10:23:59Z</time>
 </trkpt>
 <trkpt lat="47.280781" lon="12.845153">
 <ele>622.61</ele>
 <time>2010-08-26T10:24:02Z</time>
 </trkpt>
 <trkpt lat="47.281078" lon="12.845631">
 <ele>623.13</ele>
 <time>2010-08-26T10:24:10Z</time>
 </trkpt>
 <trkpt lat="47.281250" lon="12.846035">
 <ele>623.28</ele>
 <time>2010-08-26T10:24:16Z</time>
 </trkpt>
 <trkpt lat="47.281364" lon="12.846545">
 <ele>623.65</ele>
 <time>2010-08-26T10:24:23Z</time>
 </trkpt>
 <trkpt lat="47.281422" lon="12.847243">
 <ele>623.62</ele>
 <time>2010-08-26T10:24:32Z</time>
 </trkpt>
 <trkpt lat="47.281502" lon="12.847888">
 <ele>623.20</ele>
 <time>2010-08-26T10:24:40Z</time>
 </trkpt>
 <trkpt lat="47.281624" lon="12.848571">
 <ele>623.92</ele>
 <time>2010-08-26T10:24:49Z</time>
 </trkpt>
 <trkpt lat="47.281761" lon="12.848982">
 <ele>625.12</ele>
 <time>2010-08-26T10:24:56Z</time>
 </trkpt>
 <trkpt lat="47.281879" lon="12.849275">
 <ele>626.93</ele>
 <time>2010-08-26T10:25:03Z</time>
 </trkpt>
 <trkpt lat="47.281956" lon="12.849544">
 <ele>628.56</ele>
 <time>2010-08-26T10:25:11Z</time>
 </trkpt>
 <trkpt lat="47.281925" lon="12.849735">
 <ele>629.68</ele>
 <time>2010-08-26T10:25:17Z</time>
 </trkpt>
 <trkpt lat="47.281811" lon="12.850043">
 <ele>632.13</ele>
 <time>2010-08-26T10:25:28Z</time>
 </trkpt>
 <trkpt lat="47.281807" lon="12.850256">
 <ele>633.72</ele>
 <time>2010-08-26T10:25:35Z</time>
 </trkpt>
 <trkpt lat="47.281803" lon="12.850496">
 <ele>635.22</ele>
 <time>2010-08-26T10:25:43Z</time>
 </trkpt>
 <trkpt lat="47.281811" lon="12.850692">
 <ele>636.37</ele>
 <time>2010-08-26T10:25:49Z</time>
 </trkpt>
 <trkpt lat="47.281818" lon="12.851002">
 <ele>638.06</ele>
 <time>2010-08-26T10:25:59Z</time>
 </trkpt>
 <trkpt lat="47.281834" lon="12.851235">
 <ele>638.94</ele>
 <time>2010-08-26T10:26:06Z</time>
 </trkpt>
 <trkpt lat="47.281879" lon="12.851573">
 <ele>639.70</ele>
 <time>2010-08-26T10:26:15Z</time>
 </trkpt>
 <trkpt lat="47.281918" lon="12.851866">
 <ele>640.50</ele>
 <time>2010-08-26T10:26:22Z</time>
 </trkpt>
 <trkpt lat="47.281963" lon="12.852356">
 <ele>641.06</ele>
 <time>2010-08-26T10:26:32Z</time>
 </trkpt>
 <trkpt lat="47.281979" lon="12.852809">
 <ele>640.80</ele>
 <time>2010-08-26T10:26:40Z</time>
 </trkpt>
 <trkpt lat="47.281979" lon="12.853329">
 <ele>640.69</ele>
 <time>2010-08-26T10:26:48Z</time>
 </trkpt>
 <trkpt lat="47.281986" lon="12.853913">
 <ele>640.13</ele>
 <time>2010-08-26T10:26:56Z</time>
 </trkpt>
 <trkpt lat="47.281998" lon="12.854547">
 <ele>638.14</ele>
 <time>2010-08-26T10:27:03Z</time>
 </trkpt>
 <trkpt lat="47.282005" lon="12.855107">
 <ele>636.83</ele>
 <time>2010-08-26T10:27:09Z</time>
 </trkpt>
 <trkpt lat="47.282005" lon="12.855201">
 <ele>636.68</ele>
 <time>2010-08-26T10:27:10Z</time>
 </trkpt>
 <trkpt lat="47.281891" lon="12.855756">
 <ele>635.64</ele>
 <time>2010-08-26T10:27:16Z</time>
 </trkpt>
 <trkpt lat="47.281662" lon="12.856367">
 <ele>634.47</ele>
 <time>2010-08-26T10:27:23Z</time>
 </trkpt>
 <trkpt lat="47.281445" lon="12.856983">
 <ele>631.71</ele>
 <time>2010-08-26T10:27:29Z</time>
 </trkpt>
 <trkpt lat="47.281399" lon="12.857444">
 <ele>633.55</ele>
 <time>2010-08-26T10:27:34Z</time>
 </trkpt>
 <trkpt lat="47.281406" lon="12.857887">
 <ele>633.92</ele>
 <time>2010-08-26T10:27:39Z</time>
 </trkpt>
 <trkpt lat="47.281475" lon="12.858500">
 <ele>634.40</ele>
 <time>2010-08-26T10:27:46Z</time>
 </trkpt>
 <trkpt lat="47.281502" lon="12.858808">
 <ele>635.17</ele>
 <time>2010-08-26T10:27:50Z</time>
 </trkpt>
 <trkpt lat="47.281467" lon="12.859056">
 <ele>637.09</ele>
 <time>2010-08-26T10:27:54Z</time>
 </trkpt>
 <trkpt lat="47.281384" lon="12.859427">
 <ele>639.59</ele>
 <time>2010-08-26T10:28:01Z</time>
 </trkpt>
 <trkpt lat="47.281345" lon="12.859723">
 <ele>640.92</ele>
 <time>2010-08-26T10:28:06Z</time>
 </trkpt>
 <trkpt lat="47.281246" lon="12.860038">
 <ele>642.40</ele>
 <time>2010-08-26T10:28:12Z</time>
 </trkpt>
 <trkpt lat="47.281109" lon="12.860413">
 <ele>643.51</ele>
 <time>2010-08-26T10:28:19Z</time>
 </trkpt>
 <trkpt lat="47.281006" lon="12.860905">
 <ele>644.03</ele>
 <time>2010-08-26T10:28:27Z</time>
 </trkpt>
 <trkpt lat="47.281006" lon="12.861106">
 <ele>643.96</ele>
 <time>2010-08-26T10:28:30Z</time>
 </trkpt>
 <trkpt lat="47.281090" lon="12.861514">
 <ele>642.08</ele>
 <time>2010-08-26T10:28:35Z</time>
 </trkpt>
 <trkpt lat="47.281265" lon="12.861876">
 <ele>639.85</ele>
 <time>2010-08-26T10:28:39Z</time>
 </trkpt>
 <trkpt lat="47.281429" lon="12.861985">
 <ele>637.74</ele>
 <time>2010-08-26T10:28:41Z</time>
 </trkpt>
 <trkpt lat="47.281898" lon="12.862226">
 <ele>631.76</ele>
 <time>2010-08-26T10:28:46Z</time>
 </trkpt>
 <trkpt lat="47.282036" lon="12.862344">
 <ele>630.42</ele>
 <time>2010-08-26T10:28:48Z</time>
 </trkpt>
 <trkpt lat="47.282444" lon="12.862486">
 <ele>626.14</ele>
 <time>2010-08-26T10:28:53Z</time>
 </trkpt>
 <trkpt lat="47.282558" lon="12.862517">
 <ele>625.39</ele>
 <time>2010-08-26T10:28:55Z</time>
 </trkpt>
 <trkpt lat="47.282597" lon="12.862539">
 <ele>625.41</ele>
 <time>2010-08-26T10:28:56Z</time>
 </trkpt>
 <trkpt lat="47.282597" lon="12.862748">
 <ele>625.12</ele>
 <time>2010-08-26T10:29:00Z</time>
 </trkpt>
 <trkpt lat="47.282482" lon="12.863050">
 <ele>625.22</ele>
 <time>2010-08-26T10:29:05Z</time>
 </trkpt>
 <trkpt lat="47.282310" lon="12.863573">
 <ele>624.21</ele>
 <time>2010-08-26T10:29:12Z</time>
 </trkpt>
 <trkpt lat="47.282284" lon="12.863653">
 <ele>624.02</ele>
 <time>2010-08-26T10:29:13Z</time>
 </trkpt>
 <trkpt lat="47.281998" lon="12.864104">
 <ele>624.30</ele>
 <time>2010-08-26T10:29:20Z</time>
 </trkpt>
 <trkpt lat="47.281677" lon="12.864545">
 <ele>624.66</ele>
 <time>2010-08-26T10:29:28Z</time>
 </trkpt>
 <trkpt lat="47.281578" lon="12.864704">
 <ele>625.55</ele>
 <time>2010-08-26T10:29:31Z</time>
 </trkpt>
 <trkpt lat="47.281498" lon="12.865053">
 <ele>627.31</ele>
 <time>2010-08-26T10:29:37Z</time>
 </trkpt>
 <trkpt lat="47.281528" lon="12.865446">
 <ele>629.61</ele>
 <time>2010-08-26T10:29:44Z</time>
 </trkpt>
 <trkpt lat="47.281574" lon="12.866142">
 <ele>632.97</ele>
 <time>2010-08-26T10:29:58Z</time>
 </trkpt>
 <trkpt lat="47.281612" lon="12.866553">
 <ele>634.98</ele>
 <time>2010-08-26T10:30:07Z</time>
 </trkpt>
 <trkpt lat="47.281681" lon="12.866938">
 <ele>636.54</ele>
 <time>2010-08-26T10:30:16Z</time>
 </trkpt>
 <trkpt lat="47.281780" lon="12.867349">
 <ele>638.90</ele>
 <time>2010-08-26T10:30:26Z</time>
 </trkpt>
 <trkpt lat="47.281845" lon="12.867797">
 <ele>641.75</ele>
 <time>2010-08-26T10:30:37Z</time>
 </trkpt>
 <trkpt lat="47.281883" lon="12.868143">
 <ele>643.52</ele>
 <time>2010-08-26T10:30:46Z</time>
 </trkpt>
 <trkpt lat="47.281937" lon="12.868546">
 <ele>645.26</ele>
 <time>2010-08-26T10:30:56Z</time>
 </trkpt>
 <trkpt lat="47.281986" lon="12.868904">
 <ele>645.88</ele>
 <time>2010-08-26T10:31:05Z</time>
 </trkpt>
 <trkpt lat="47.282055" lon="12.869252">
 <ele>645.96</ele>
 <time>2010-08-26T10:31:12Z</time>
 </trkpt>
 <trkpt lat="47.282066" lon="12.869317">
 <ele>645.66</ele>
 <time>2010-08-26T10:31:13Z</time>
 </trkpt>
 <trkpt lat="47.282059" lon="12.869692">
 <ele>645.54</ele>
 <time>2010-08-26T10:31:19Z</time>
 </trkpt>
 <trkpt lat="47.282055" lon="12.869810">
 <ele>645.67</ele>
 <time>2010-08-26T10:31:21Z</time>
 </trkpt>
 <trkpt lat="47.282085" lon="12.870100">
 <ele>644.52</ele>
 <time>2010-08-26T10:31:25Z</time>
 </trkpt>
 <trkpt lat="47.282166" lon="12.870485">
 <ele>642.52</ele>
 <time>2010-08-26T10:31:29Z</time>
 </trkpt>
 <trkpt lat="47.282207" lon="12.870707">
 <ele>640.91</ele>
 <time>2010-08-26T10:31:31Z</time>
 </trkpt>
 <trkpt lat="47.282307" lon="12.871210">
 <ele>637.80</ele>
 <time>2010-08-26T10:31:35Z</time>
 </trkpt>
 <trkpt lat="47.282314" lon="12.871925">
 <ele>633.33</ele>
 <time>2010-08-26T10:31:40Z</time>
 </trkpt>
 <trkpt lat="47.282368" lon="12.872354">
 <ele>632.08</ele>
 <time>2010-08-26T10:31:43Z</time>
 </trkpt>
 <trkpt lat="47.282452" lon="12.872837">
 <ele>632.72</ele>
 <time>2010-08-26T10:31:47Z</time>
 </trkpt>
 <trkpt lat="47.282703" lon="12.873613">
 <ele>633.65</ele>
 <time>2010-08-26T10:31:55Z</time>
 </trkpt>
 <trkpt lat="47.282768" lon="12.873807">
 <ele>633.12</ele>
 <time>2010-08-26T10:31:57Z</time>
 </trkpt>
 <trkpt lat="47.282829" lon="12.874108">
 <ele>632.68</ele>
 <time>2010-08-26T10:32:00Z</time>
 </trkpt>
 <trkpt lat="47.282833" lon="12.874210">
 <ele>632.56</ele>
 <time>2010-08-26T10:32:01Z</time>
 </trkpt>
 <trkpt lat="47.282860" lon="12.874487">
 <ele>632.17</ele>
 <time>2010-08-26T10:32:05Z</time>
 </trkpt>
 <trkpt lat="47.282864" lon="12.874534">
 <ele>632.98</ele>
 <time>2010-08-26T10:32:09Z</time>
 </trkpt>
 <trkpt lat="47.283043" lon="12.874652">
 <ele>631.60</ele>
 <time>2010-08-26T10:33:02Z</time>
 </trkpt>
 <trkpt lat="47.283230" lon="12.874744">
 <ele>630.38</ele>
 <time>2010-08-26T10:33:06Z</time>
 </trkpt>
 <trkpt lat="47.283283" lon="12.874775">
 <ele>630.00</ele>
 <time>2010-08-26T10:33:07Z</time>
 </trkpt>
 <trkpt lat="47.283619" lon="12.875177">
 <ele>628.10</ele>
 <time>2010-08-26T10:33:14Z</time>
 </trkpt>
 <trkpt lat="47.283669" lon="12.875260">
 <ele>627.55</ele>
 <time>2010-08-26T10:33:15Z</time>
 </trkpt>
 <trkpt lat="47.283966" lon="12.875524">
 <ele>622.87</ele>
 <time>2010-08-26T10:33:19Z</time>
 </trkpt>
 <trkpt lat="47.284145" lon="12.875652">
 <ele>619.66</ele>
 <time>2010-08-26T10:33:21Z</time>
 </trkpt>
 <trkpt lat="47.284428" lon="12.876025">
 <ele>615.54</ele>
 <time>2010-08-26T10:33:25Z</time>
 </trkpt>
 <trkpt lat="47.284653" lon="12.876713">
 <ele>615.53</ele>
 <time>2010-08-26T10:33:31Z</time>
 </trkpt>
 <trkpt lat="47.284817" lon="12.877355">
 <ele>615.71</ele>
 <time>2010-08-26T10:33:37Z</time>
 </trkpt>
 <trkpt lat="47.284927" lon="12.877859">
 <ele>615.35</ele>
 <time>2010-08-26T10:33:42Z</time>
 </trkpt>
 <trkpt lat="47.284966" lon="12.878635">
 <ele>615.43</ele>
 <time>2010-08-26T10:33:50Z</time>
 </trkpt>
 <trkpt lat="47.285103" lon="12.879256">
 <ele>615.92</ele>
 <time>2010-08-26T10:33:57Z</time>
 </trkpt>
 <trkpt lat="47.285362" lon="12.880011">
 <ele>616.11</ele>
 <time>2010-08-26T10:34:06Z</time>
 </trkpt>
 <trkpt lat="47.285645" lon="12.880850">
 <ele>615.70</ele>
 <time>2010-08-26T10:34:16Z</time>
 </trkpt>
 <trkpt lat="47.285789" lon="12.881441">
 <ele>615.39</ele>
 <time>2010-08-26T10:34:23Z</time>
 </trkpt>
 <trkpt lat="47.285954" lon="12.882405">
 <ele>615.60</ele>
 <time>2010-08-26T10:34:34Z</time>
 </trkpt>
 <trkpt lat="47.286064" lon="12.882832">
 <ele>615.61</ele>
 <time>2010-08-26T10:34:39Z</time>
 </trkpt>
 <trkpt lat="47.286205" lon="12.883123">
 <ele>615.75</ele>
 <time>2010-08-26T10:34:43Z</time>
 </trkpt>
 <trkpt lat="47.286301" lon="12.883245">
 <ele>615.74</ele>
 <time>2010-08-26T10:34:45Z</time>
 </trkpt>
 <trkpt lat="47.286667" lon="12.883581">
 <ele>615.54</ele>
 <time>2010-08-26T10:34:52Z</time>
 </trkpt>
 <trkpt lat="47.286907" lon="12.883991">
 <ele>615.21</ele>
 <time>2010-08-26T10:34:58Z</time>
 </trkpt>
 <trkpt lat="47.287170" lon="12.884603">
 <ele>615.22</ele>
 <time>2010-08-26T10:35:06Z</time>
 </trkpt>
 <trkpt lat="47.287418" lon="12.885423">
 <ele>614.84</ele>
 <time>2010-08-26T10:35:16Z</time>
 </trkpt>
 <trkpt lat="47.287510" lon="12.886212">
 <ele>614.86</ele>
 <time>2010-08-26T10:35:25Z</time>
 </trkpt>
 <trkpt lat="47.287560" lon="12.886930">
 <ele>614.89</ele>
 <time>2010-08-26T10:35:33Z</time>
 </trkpt>
 <trkpt lat="47.287502" lon="12.887280">
 <ele>614.81</ele>
 <time>2010-08-26T10:35:37Z</time>
 </trkpt>
 <trkpt lat="47.287491" lon="12.887369">
 <ele>614.80</ele>
 <time>2010-08-26T10:35:38Z</time>
 </trkpt>
 <trkpt lat="47.287460" lon="12.888259">
 <ele>614.57</ele>
 <time>2010-08-26T10:35:48Z</time>
 </trkpt>
 <trkpt lat="47.287472" lon="12.889039">
 <ele>614.90</ele>
 <time>2010-08-26T10:35:57Z</time>
 </trkpt>
 <trkpt lat="47.287464" lon="12.889400">
 <ele>614.55</ele>
 <time>2010-08-26T10:36:01Z</time>
 </trkpt>
 <trkpt lat="47.287460" lon="12.889908">
 <ele>614.72</ele>
 <time>2010-08-26T10:36:07Z</time>
 </trkpt>
 <trkpt lat="47.287453" lon="12.890437">
 <ele>615.22</ele>
 <time>2010-08-26T10:36:14Z</time>
 </trkpt>
 <trkpt lat="47.287468" lon="12.890588">
 <ele>616.57</ele>
 <time>2010-08-26T10:36:18Z</time>
 </trkpt>
 <trkpt lat="47.287506" lon="12.890811">
 <ele>616.29</ele>
 <time>2010-08-26T10:36:22Z</time>
 </trkpt>
 <trkpt lat="47.287628" lon="12.891262">
 <ele>616.41</ele>
 <time>2010-08-26T10:36:29Z</time>
 </trkpt>
 <trkpt lat="47.287701" lon="12.891711">
 <ele>617.59</ele>
 <time>2010-08-26T10:36:36Z</time>
 </trkpt>
 <trkpt lat="47.287685" lon="12.892086">
 <ele>619.40</ele>
 <time>2010-08-26T10:36:43Z</time>
 </trkpt>
 <trkpt lat="47.287712" lon="12.892378">
 <ele>620.89</ele>
 <time>2010-08-26T10:36:49Z</time>
 </trkpt>
 <trkpt lat="47.287647" lon="12.892693">
 <ele>622.34</ele>
 <time>2010-08-26T10:36:56Z</time>
 </trkpt>
 <trkpt lat="47.287640" lon="12.892815">
 <ele>623.15</ele>
 <time>2010-08-26T10:36:59Z</time>
 </trkpt>
 <trkpt lat="47.287750" lon="12.892982">
 <ele>622.81</ele>
 <time>2010-08-26T10:37:04Z</time>
 </trkpt>
 <trkpt lat="47.287922" lon="12.893067">
 <ele>620.87</ele>
 <time>2010-08-26T10:37:09Z</time>
 </trkpt>
 <trkpt lat="47.288151" lon="12.893189">
 <ele>618.16</ele>
 <time>2010-08-26T10:37:14Z</time>
 </trkpt>
 <trkpt lat="47.288326" lon="12.893427">
 <ele>615.47</ele>
 <time>2010-08-26T10:37:19Z</time>
 </trkpt>
 <trkpt lat="47.288403" lon="12.893704">
 <ele>613.96</ele>
 <time>2010-08-26T10:37:22Z</time>
 </trkpt>
 <trkpt lat="47.288471" lon="12.894406">
 <ele>611.38</ele>
 <time>2010-08-26T10:37:29Z</time>
 </trkpt>
 <trkpt lat="47.288513" lon="12.894985">
 <ele>610.93</ele>
 <time>2010-08-26T10:37:35Z</time>
 </trkpt>
 <trkpt lat="47.288433" lon="12.895762">
 <ele>609.81</ele>
 <time>2010-08-26T10:37:43Z</time>
 </trkpt>
 <trkpt lat="47.288330" lon="12.896389">
 <ele>609.66</ele>
 <time>2010-08-26T10:37:50Z</time>
 </trkpt>
 <trkpt lat="47.288200" lon="12.896984">
 <ele>609.13</ele>
 <time>2010-08-26T10:37:57Z</time>
 </trkpt>
 <trkpt lat="47.287994" lon="12.897804">
 <ele>609.15</ele>
 <time>2010-08-26T10:38:07Z</time>
 </trkpt>
 <trkpt lat="47.287834" lon="12.898562">
 <ele>608.85</ele>
 <time>2010-08-26T10:38:16Z</time>
 </trkpt>
 <trkpt lat="47.287689" lon="12.899423">
 <ele>608.38</ele>
 <time>2010-08-26T10:38:26Z</time>
 </trkpt>
 <trkpt lat="47.287632" lon="12.899942">
 <ele>608.16</ele>
 <time>2010-08-26T10:38:32Z</time>
 </trkpt>
 <trkpt lat="47.287609" lon="12.900175">
 <ele>608.31</ele>
 <time>2010-08-26T10:38:35Z</time>
 </trkpt>
 <trkpt lat="47.287579" lon="12.900862">
 <ele>608.49</ele>
 <time>2010-08-26T10:38:44Z</time>
 </trkpt>
 <trkpt lat="47.287563" lon="12.901153">
 <ele>609.25</ele>
 <time>2010-08-26T10:38:49Z</time>
 </trkpt>
 <trkpt lat="47.287540" lon="12.901256">
 <ele>609.52</ele>
 <time>2010-08-26T10:38:51Z</time>
 </trkpt>
 <trkpt lat="47.287403" lon="12.901494">
 <ele>610.02</ele>
 <time>2010-08-26T10:38:56Z</time>
 </trkpt>
 <trkpt lat="47.287434" lon="12.901651">
 <ele>610.24</ele>
 <time>2010-08-26T10:38:59Z</time>
 </trkpt>
 <trkpt lat="47.287464" lon="12.901708">
 <ele>610.15</ele>
 <time>2010-08-26T10:39:00Z</time>
 </trkpt>
 <trkpt lat="47.287567" lon="12.901919">
 <ele>609.65</ele>
 <time>2010-08-26T10:39:03Z</time>
 </trkpt>
 <trkpt lat="47.287624" lon="12.902372">
 <ele>608.91</ele>
 <time>2010-08-26T10:39:09Z</time>
 </trkpt>
 <trkpt lat="47.287640" lon="12.903045">
 <ele>608.67</ele>
 <time>2010-08-26T10:39:18Z</time>
 </trkpt>
 <trkpt lat="47.287636" lon="12.903635">
 <ele>608.28</ele>
 <time>2010-08-26T10:39:26Z</time>
 </trkpt>
 <trkpt lat="47.287724" lon="12.904168">
 <ele>608.24</ele>
 <time>2010-08-26T10:39:33Z</time>
 </trkpt>
 <trkpt lat="47.287781" lon="12.904777">
 <ele>608.31</ele>
 <time>2010-08-26T10:39:41Z</time>
 </trkpt>
 <trkpt lat="47.287842" lon="12.905403">
 <ele>608.11</ele>
 <time>2010-08-26T10:39:49Z</time>
 </trkpt>
 <trkpt lat="47.287907" lon="12.906190">
 <ele>608.27</ele>
 <time>2010-08-26T10:39:59Z</time>
 </trkpt>
 <trkpt lat="47.287945" lon="12.906753">
 <ele>608.09</ele>
 <time>2010-08-26T10:40:07Z</time>
 </trkpt>
 <trkpt lat="47.287952" lon="12.906932">
 <ele>608.54</ele>
 <time>2010-08-26T10:40:11Z</time>
 </trkpt>
 <trkpt lat="47.287968" lon="12.907122">
 <ele>608.76</ele>
 <time>2010-08-26T10:40:15Z</time>
 </trkpt>
 <trkpt lat="47.287987" lon="12.907442">
 <ele>608.82</ele>
 <time>2010-08-26T10:40:21Z</time>
 </trkpt>
 <trkpt lat="47.288017" lon="12.907821">
 <ele>608.51</ele>
 <time>2010-08-26T10:40:27Z</time>
 </trkpt>
 <trkpt lat="47.288021" lon="12.908023">
 <ele>608.17</ele>
 <time>2010-08-26T10:40:30Z</time>
 </trkpt>
 <trkpt lat="47.288006" lon="12.908304">
 <ele>608.04</ele>
 <time>2010-08-26T10:40:34Z</time>
 </trkpt>
 <trkpt lat="47.287952" lon="12.908914">
 <ele>607.42</ele>
 <time>2010-08-26T10:40:43Z</time>
 </trkpt>
 <trkpt lat="47.287868" lon="12.909525">
 <ele>607.66</ele>
 <time>2010-08-26T10:40:52Z</time>
 </trkpt>
 <trkpt lat="47.287762" lon="12.910199">
 <ele>608.13</ele>
 <time>2010-08-26T10:41:02Z</time>
 </trkpt>
 <trkpt lat="47.287663" lon="12.910819">
 <ele>608.49</ele>
 <time>2010-08-26T10:41:11Z</time>
 </trkpt>
 <trkpt lat="47.287594" lon="12.911452">
 <ele>608.53</ele>
 <time>2010-08-26T10:41:20Z</time>
 </trkpt>
 <trkpt lat="47.287537" lon="12.912084">
 <ele>608.78</ele>
 <time>2010-08-26T10:41:29Z</time>
 </trkpt>
 <trkpt lat="47.287525" lon="12.912558">
 <ele>608.89</ele>
 <time>2010-08-26T10:41:36Z</time>
 </trkpt>
 <trkpt lat="47.287579" lon="12.913163">
 <ele>608.22</ele>
 <time>2010-08-26T10:41:44Z</time>
 </trkpt>
 <trkpt lat="47.287628" lon="12.913997">
 <ele>608.28</ele>
 <time>2010-08-26T10:41:55Z</time>
 </trkpt>
 <trkpt lat="47.287594" lon="12.914839">
 <ele>608.47</ele>
 <time>2010-08-26T10:42:06Z</time>
 </trkpt>
 <trkpt lat="47.287582" lon="12.915068">
 <ele>608.69</ele>
 <time>2010-08-26T10:42:09Z</time>
 </trkpt>
 <trkpt lat="47.287445" lon="12.915659">
 <ele>608.21</ele>
 <time>2010-08-26T10:42:17Z</time>
 </trkpt>
 <trkpt lat="47.287395" lon="12.915871">
 <ele>610.00</ele>
 <time>2010-08-26T10:42:21Z</time>
 </trkpt>
 <trkpt lat="47.287308" lon="12.916225">
 <ele>611.41</ele>
 <time>2010-08-26T10:42:28Z</time>
 </trkpt>
 <trkpt lat="47.287228" lon="12.916529">
 <ele>611.68</ele>
 <time>2010-08-26T10:42:34Z</time>
 </trkpt>
 <trkpt lat="47.287189" lon="12.916792">
 <ele>609.93</ele>
 <time>2010-08-26T10:42:37Z</time>
 </trkpt>
 <trkpt lat="47.287125" lon="12.917576">
 <ele>607.55</ele>
 <time>2010-08-26T10:42:45Z</time>
 </trkpt>
 <trkpt lat="47.287079" lon="12.918039">
 <ele>608.22</ele>
 <time>2010-08-26T10:42:51Z</time>
 </trkpt>
 <trkpt lat="47.287094" lon="12.918615">
 <ele>608.43</ele>
 <time>2010-08-26T10:42:59Z</time>
 </trkpt>
 <trkpt lat="47.287102" lon="12.919142">
 <ele>608.19</ele>
 <time>2010-08-26T10:43:06Z</time>
 </trkpt>
 <trkpt lat="47.287060" lon="12.919747">
 <ele>607.98</ele>
 <time>2010-08-26T10:43:14Z</time>
 </trkpt>
 <trkpt lat="47.287041" lon="12.920200">
 <ele>607.97</ele>
 <time>2010-08-26T10:43:20Z</time>
 </trkpt>
 <trkpt lat="47.287010" lon="12.920562">
 <ele>608.09</ele>
 <time>2010-08-26T10:43:25Z</time>
 </trkpt>
 <trkpt lat="47.287003" lon="12.920792">
 <ele>608.41</ele>
 <time>2010-08-26T10:43:29Z</time>
 </trkpt>
 <trkpt lat="47.287083" lon="12.920978">
 <ele>608.42</ele>
 <time>2010-08-26T10:43:33Z</time>
 </trkpt>
 <trkpt lat="47.287151" lon="12.921157">
 <ele>607.25</ele>
 <time>2010-08-26T10:43:36Z</time>
 </trkpt>
 <trkpt lat="47.287182" lon="12.921563">
 <ele>604.85</ele>
 <time>2010-08-26T10:43:41Z</time>
 </trkpt>
 <trkpt lat="47.287170" lon="12.921730">
 <ele>604.11</ele>
 <time>2010-08-26T10:43:43Z</time>
 </trkpt>
 <trkpt lat="47.287083" lon="12.922333">
 <ele>604.22</ele>
 <time>2010-08-26T10:43:51Z</time>
 </trkpt>
 <trkpt lat="47.287060" lon="12.922691">
 <ele>605.06</ele>
 <time>2010-08-26T10:43:57Z</time>
 </trkpt>
 <trkpt lat="47.287041" lon="12.922988">
 <ele>605.76</ele>
 <time>2010-08-26T10:44:03Z</time>
 </trkpt>
 <trkpt lat="47.286968" lon="12.923170">
 <ele>607.16</ele>
 <time>2010-08-26T10:44:09Z</time>
 </trkpt>
 <trkpt lat="47.286873" lon="12.923324">
 <ele>608.70</ele>
 <time>2010-08-26T10:44:17Z</time>
 </trkpt>
 <trkpt lat="47.286777" lon="12.923470">
 <ele>610.50</ele>
 <time>2010-08-26T10:44:25Z</time>
 </trkpt>
 <trkpt lat="47.286724" lon="12.923595">
 <ele>611.55</ele>
 <time>2010-08-26T10:44:31Z</time>
 </trkpt>
 <trkpt lat="47.286694" lon="12.923798">
 <ele>614.09</ele>
 <time>2010-08-26T10:44:40Z</time>
 </trkpt>
 <trkpt lat="47.286678" lon="12.923914">
 <ele>615.22</ele>
 <time>2010-08-26T10:44:45Z</time>
 </trkpt>
 <trkpt lat="47.286720" lon="12.924088">
 <ele>616.42</ele>
 <time>2010-08-26T10:44:52Z</time>
 </trkpt>
 <trkpt lat="47.286736" lon="12.924277">
 <ele>618.25</ele>
 <time>2010-08-26T10:45:01Z</time>
 </trkpt>
 <trkpt lat="47.286762" lon="12.924415">
 <ele>619.11</ele>
 <time>2010-08-26T10:45:07Z</time>
 </trkpt>
 <trkpt lat="47.286766" lon="12.924649">
 <ele>620.72</ele>
 <time>2010-08-26T10:45:17Z</time>
 </trkpt>
 <trkpt lat="47.286781" lon="12.924803">
 <ele>622.17</ele>
 <time>2010-08-26T10:45:24Z</time>
 </trkpt>
 <trkpt lat="47.286819" lon="12.925002">
 <ele>623.46</ele>
 <time>2010-08-26T10:45:33Z</time>
 </trkpt>
 <trkpt lat="47.286819" lon="12.925151">
 <ele>624.70</ele>
 <time>2010-08-26T10:45:40Z</time>
 </trkpt>
 <trkpt lat="47.286777" lon="12.925341">
 <ele>625.21</ele>
 <time>2010-08-26T10:45:48Z</time>
 </trkpt>
 <trkpt lat="47.286758" lon="12.925585">
 <ele>625.89</ele>
 <time>2010-08-26T10:45:57Z</time>
 </trkpt>
 <trkpt lat="47.286751" lon="12.925890">
 <ele>626.68</ele>
 <time>2010-08-26T10:46:08Z</time>
 </trkpt>
 <trkpt lat="47.286705" lon="12.926124">
 <ele>628.27</ele>
 <time>2010-08-26T10:46:18Z</time>
 </trkpt>
 <trkpt lat="47.286674" lon="12.926299">
 <ele>628.76</ele>
 <time>2010-08-26T10:46:25Z</time>
 </trkpt>
 <trkpt lat="47.286640" lon="12.926589">
 <ele>630.28</ele>
 <time>2010-08-26T10:46:36Z</time>
 </trkpt>
 <trkpt lat="47.286617" lon="12.926862">
 <ele>630.88</ele>
 <time>2010-08-26T10:46:45Z</time>
 </trkpt>
 <trkpt lat="47.286579" lon="12.927213">
 <ele>631.57</ele>
 <time>2010-08-26T10:46:56Z</time>
 </trkpt>
 <trkpt lat="47.286564" lon="12.927572">
 <ele>632.42</ele>
 <time>2010-08-26T10:47:07Z</time>
 </trkpt>
 <trkpt lat="47.286549" lon="12.927853">
 <ele>633.54</ele>
 <time>2010-08-26T10:47:16Z</time>
 </trkpt>
 <trkpt lat="47.286530" lon="12.928165">
 <ele>635.07</ele>
 <time>2010-08-26T10:47:26Z</time>
 </trkpt>
 <trkpt lat="47.286507" lon="12.928551">
 <ele>635.83</ele>
 <time>2010-08-26T10:47:37Z</time>
 </trkpt>
 <trkpt lat="47.286484" lon="12.928943">
 <ele>636.99</ele>
 <time>2010-08-26T10:47:48Z</time>
 </trkpt>
 <trkpt lat="47.286495" lon="12.929232">
 <ele>637.20</ele>
 <time>2010-08-26T10:47:56Z</time>
 </trkpt>
 <trkpt lat="47.286480" lon="12.929379">
 <ele>636.18</ele>
 <time>2010-08-26T10:48:01Z</time>
 </trkpt>
 <trkpt lat="47.286350" lon="12.929475">
 <ele>634.69</ele>
 <time>2010-08-26T10:48:05Z</time>
 </trkpt>
 <trkpt lat="47.286201" lon="12.929593">
 <ele>632.60</ele>
 <time>2010-08-26T10:48:10Z</time>
 </trkpt>
 <trkpt lat="47.286057" lon="12.929698">
 <ele>630.91</ele>
 <time>2010-08-26T10:48:14Z</time>
 </trkpt>
 <trkpt lat="47.285881" lon="12.929977">
 <ele>629.04</ele>
 <time>2010-08-26T10:48:20Z</time>
 </trkpt>
 <trkpt lat="47.285847" lon="12.930061">
 <ele>628.88</ele>
 <time>2010-08-26T10:48:22Z</time>
 </trkpt>
 <trkpt lat="47.285931" lon="12.930232">
 <ele>628.20</ele>
 <time>2010-08-26T10:48:27Z</time>
 </trkpt>
 <trkpt lat="47.286011" lon="12.930160">
 <ele>627.74</ele>
 <time>2010-08-26T10:48:30Z</time>
 </trkpt>
 <trkpt lat="47.286102" lon="12.930116">
 <ele>626.58</ele>
 <time>2010-08-26T10:48:32Z</time>
 </trkpt>
 <trkpt lat="47.286503" lon="12.930065">
 <ele>621.82</ele>
 <time>2010-08-26T10:48:38Z</time>
 </trkpt>
 <trkpt lat="47.286564" lon="12.930082">
 <ele>621.11</ele>
 <time>2010-08-26T10:48:39Z</time>
 </trkpt>
 <trkpt lat="47.286880" lon="12.930310">
 <ele>619.30</ele>
 <time>2010-08-26T10:48:44Z</time>
 </trkpt>
 <trkpt lat="47.287189" lon="12.930575">
 <ele>616.30</ele>
 <time>2010-08-26T10:48:49Z</time>
 </trkpt>
 <trkpt lat="47.287243" lon="12.930613">
 <ele>615.85</ele>
 <time>2010-08-26T10:48:50Z</time>
 </trkpt>
 <trkpt lat="47.287460" lon="12.930845">
 <ele>612.50</ele>
 <time>2010-08-26T10:48:54Z</time>
 </trkpt>
 <trkpt lat="47.287655" lon="12.931244">
 <ele>607.70</ele>
 <time>2010-08-26T10:48:58Z</time>
 </trkpt>
 <trkpt lat="47.287888" lon="12.931654">
 <ele>604.71</ele>
 <time>2010-08-26T10:49:03Z</time>
 </trkpt>
 <trkpt lat="47.287945" lon="12.931999">
 <ele>603.56</ele>
 <time>2010-08-26T10:49:08Z</time>
 </trkpt>
 <trkpt lat="47.287861" lon="12.932603">
 <ele>599.64</ele>
 <time>2010-08-26T10:49:14Z</time>
 </trkpt>
 <trkpt lat="47.287762" lon="12.933175">
 <ele>597.27</ele>
 <time>2010-08-26T10:49:19Z</time>
 </trkpt>
 <trkpt lat="47.287788" lon="12.933618">
 <ele>596.12</ele>
 <time>2010-08-26T10:49:23Z</time>
 </trkpt>
 <trkpt lat="47.287819" lon="12.933729">
 <ele>595.83</ele>
 <time>2010-08-26T10:49:24Z</time>
 </trkpt>
 <trkpt lat="47.287994" lon="12.934277">
 <ele>593.99</ele>
 <time>2010-08-26T10:49:29Z</time>
 </trkpt>
 <trkpt lat="47.288277" lon="12.934693">
 <ele>592.25</ele>
 <time>2010-08-26T10:49:34Z</time>
 </trkpt>
 <trkpt lat="47.288464" lon="12.934901">
 <ele>591.72</ele>
 <time>2010-08-26T10:49:37Z</time>
 </trkpt>
 <trkpt lat="47.288776" lon="12.935376">
 <ele>590.86</ele>
 <time>2010-08-26T10:49:43Z</time>
 </trkpt>
 <trkpt lat="47.289093" lon="12.935731">
 <ele>591.20</ele>
 <time>2010-08-26T10:49:49Z</time>
 </trkpt>
 <trkpt lat="47.289516" lon="12.936138">
 <ele>591.34</ele>
 <time>2010-08-26T10:49:57Z</time>
 </trkpt>
 <trkpt lat="47.289818" lon="12.936306">
 <ele>591.27</ele>
 <time>2010-08-26T10:50:02Z</time>
 </trkpt>
 <trkpt lat="47.289982" lon="12.936364">
 <ele>590.92</ele>
 <time>2010-08-26T10:50:05Z</time>
 </trkpt>
 <trkpt lat="47.290241" lon="12.936594">
 <ele>590.66</ele>
 <time>2010-08-26T10:50:10Z</time>
 </trkpt>
 <trkpt lat="47.290321" lon="12.936742">
 <ele>590.49</ele>
 <time>2010-08-26T10:50:12Z</time>
 </trkpt>
 <trkpt lat="47.290573" lon="12.937306">
 <ele>589.40</ele>
 <time>2010-08-26T10:50:19Z</time>
 </trkpt>
 <trkpt lat="47.290779" lon="12.937969">
 <ele>588.22</ele>
 <time>2010-08-26T10:50:26Z</time>
 </trkpt>
 <trkpt lat="47.290977" lon="12.938556">
 <ele>587.26</ele>
 <time>2010-08-26T10:50:32Z</time>
 </trkpt>
 <trkpt lat="47.291210" lon="12.939123">
 <ele>586.30</ele>
 <time>2010-08-26T10:50:38Z</time>
 </trkpt>
 <trkpt lat="47.291512" lon="12.940063">
 <ele>584.58</ele>
 <time>2010-08-26T10:50:48Z</time>
 </trkpt>
 <trkpt lat="47.291592" lon="12.940674">
 <ele>584.71</ele>
 <time>2010-08-26T10:50:54Z</time>
 </trkpt>
 <trkpt lat="47.291599" lon="12.941365">
 <ele>584.38</ele>
 <time>2010-08-26T10:51:01Z</time>
 </trkpt>
 <trkpt lat="47.291595" lon="12.941877">
 <ele>583.37</ele>
 <time>2010-08-26T10:51:06Z</time>
 </trkpt>
 <trkpt lat="47.291512" lon="12.942413">
 <ele>583.35</ele>
 <time>2010-08-26T10:51:12Z</time>
 </trkpt>
 <trkpt lat="47.291561" lon="12.943084">
 <ele>584.50</ele>
 <time>2010-08-26T10:51:20Z</time>
 </trkpt>
 <trkpt lat="47.291573" lon="12.943224">
 <ele>584.92</ele>
 <time>2010-08-26T10:51:22Z</time>
 </trkpt>
 <trkpt lat="47.291473" lon="12.943528">
 <ele>585.74</ele>
 <time>2010-08-26T10:51:28Z</time>
 </trkpt>
 <trkpt lat="47.291283" lon="12.943945">
 <ele>586.77</ele>
 <time>2010-08-26T10:51:37Z</time>
 </trkpt>
 <trkpt lat="47.291203" lon="12.944299">
 <ele>587.61</ele>
 <time>2010-08-26T10:51:44Z</time>
 </trkpt>
 <trkpt lat="47.291164" lon="12.944746">
 <ele>588.19</ele>
 <time>2010-08-26T10:51:53Z</time>
 </trkpt>
 <trkpt lat="47.291183" lon="12.944975">
 <ele>588.60</ele>
 <time>2010-08-26T10:51:58Z</time>
 </trkpt>
 <trkpt lat="47.291218" lon="12.945216">
 <ele>589.34</ele>
 <time>2010-08-26T10:52:03Z</time>
 </trkpt>
 <trkpt lat="47.291183" lon="12.945478">
 <ele>590.62</ele>
 <time>2010-08-26T10:52:10Z</time>
 </trkpt>
 <trkpt lat="47.291161" lon="12.945672">
 <ele>592.15</ele>
 <time>2010-08-26T10:52:17Z</time>
 </trkpt>
 <trkpt lat="47.291248" lon="12.945910">
 <ele>592.81</ele>
 <time>2010-08-26T10:52:24Z</time>
 </trkpt>
 <trkpt lat="47.291302" lon="12.946177">
 <ele>594.77</ele>
 <time>2010-08-26T10:52:33Z</time>
 </trkpt>
 <trkpt lat="47.291294" lon="12.946365">
 <ele>596.28</ele>
 <time>2010-08-26T10:52:40Z</time>
 </trkpt>
 <trkpt lat="47.291290" lon="12.946602">
 <ele>598.14</ele>
 <time>2010-08-26T10:52:49Z</time>
 </trkpt>
 <trkpt lat="47.291275" lon="12.946853">
 <ele>600.09</ele>
 <time>2010-08-26T10:52:59Z</time>
 </trkpt>
 <trkpt lat="47.291248" lon="12.947023">
 <ele>601.35</ele>
 <time>2010-08-26T10:53:06Z</time>
 </trkpt>
 <trkpt lat="47.291172" lon="12.947185">
 <ele>602.85</ele>
 <time>2010-08-26T10:53:14Z</time>
 </trkpt>
 <trkpt lat="47.291050" lon="12.947338">
 <ele>604.59</ele>
 <time>2010-08-26T10:53:24Z</time>
 </trkpt>
 <trkpt lat="47.290913" lon="12.947463">
 <ele>606.58</ele>
 <time>2010-08-26T10:53:34Z</time>
 </trkpt>
 <trkpt lat="47.290783" lon="12.947621">
 <ele>608.71</ele>
 <time>2010-08-26T10:53:44Z</time>
 </trkpt>
 <trkpt lat="47.290691" lon="12.947801">
 <ele>610.49</ele>
 <time>2010-08-26T10:53:53Z</time>
 </trkpt>
 <trkpt lat="47.290592" lon="12.947997">
 <ele>612.52</ele>
 <time>2010-08-26T10:54:03Z</time>
 </trkpt>
 <trkpt lat="47.290501" lon="12.948184">
 <ele>614.40</ele>
 <time>2010-08-26T10:54:12Z</time>
 </trkpt>
 <trkpt lat="47.290436" lon="12.948334">
 <ele>615.39</ele>
 <time>2010-08-26T10:54:19Z</time>
 </trkpt>
 <trkpt lat="47.290451" lon="12.948497">
 <ele>616.20</ele>
 <time>2010-08-26T10:54:25Z</time>
 </trkpt>
 <trkpt lat="47.290504" lon="12.948763">
 <ele>615.87</ele>
 <time>2010-08-26T10:54:33Z</time>
 </trkpt>
 <trkpt lat="47.290558" lon="12.949073">
 <ele>616.39</ele>
 <time>2010-08-26T10:54:42Z</time>
 </trkpt>
 <trkpt lat="47.290630" lon="12.949411">
 <ele>617.19</ele>
 <time>2010-08-26T10:54:52Z</time>
 </trkpt>
 <trkpt lat="47.290680" lon="12.949697">
 <ele>617.94</ele>
 <time>2010-08-26T10:55:00Z</time>
 </trkpt>
 <trkpt lat="47.290710" lon="12.949989">
 <ele>618.46</ele>
 <time>2010-08-26T10:55:08Z</time>
 </trkpt>
 <trkpt lat="47.290752" lon="12.950248">
 <ele>618.67</ele>
 <time>2010-08-26T10:55:15Z</time>
 </trkpt>
 <trkpt lat="47.290791" lon="12.950514">
 <ele>618.83</ele>
 <time>2010-08-26T10:55:22Z</time>
 </trkpt>
 <trkpt lat="47.290836" lon="12.950851">
 <ele>618.94</ele>
 <time>2010-08-26T10:55:30Z</time>
 </trkpt>
 <trkpt lat="47.290871" lon="12.951147">
 <ele>618.58</ele>
 <time>2010-08-26T10:55:36Z</time>
 </trkpt>
 <trkpt lat="47.290878" lon="12.951400">
 <ele>617.80</ele>
 <time>2010-08-26T10:55:40Z</time>
 </trkpt>
 <trkpt lat="47.290802" lon="12.951692">
 <ele>618.56</ele>
 <time>2010-08-26T10:55:46Z</time>
 </trkpt>
 <trkpt lat="47.290634" lon="12.951939">
 <ele>619.90</ele>
 <time>2010-08-26T10:55:54Z</time>
 </trkpt>
 <trkpt lat="47.290474" lon="12.952183">
 <ele>621.41</ele>
 <time>2010-08-26T10:56:02Z</time>
 </trkpt>
 <trkpt lat="47.290337" lon="12.952403">
 <ele>622.42</ele>
 <time>2010-08-26T10:56:10Z</time>
 </trkpt>
 <trkpt lat="47.290310" lon="12.952475">
 <ele>623.35</ele>
 <time>2010-08-26T10:56:16Z</time>
 </trkpt>
 <trkpt lat="47.290291" lon="12.952529">
 <ele>623.36</ele>
 <time>2010-08-26T10:56:18Z</time>
 </trkpt>
 <trkpt lat="47.290340" lon="12.952796">
 <ele>622.11</ele>
 <time>2010-08-26T10:56:23Z</time>
 </trkpt>
 <trkpt lat="47.290443" lon="12.953220">
 <ele>619.86</ele>
 <time>2010-08-26T10:56:28Z</time>
 </trkpt>
 <trkpt lat="47.290630" lon="12.953741">
 <ele>616.28</ele>
 <time>2010-08-26T10:56:33Z</time>
 </trkpt>
 <trkpt lat="47.290741" lon="12.953943">
 <ele>615.36</ele>
 <time>2010-08-26T10:56:35Z</time>
 </trkpt>
 <trkpt lat="47.291031" lon="12.954293">
 <ele>612.40</ele>
 <time>2010-08-26T10:56:39Z</time>
 </trkpt>
 <trkpt lat="47.291492" lon="12.954601">
 <ele>608.97</ele>
 <time>2010-08-26T10:56:44Z</time>
 </trkpt>
 <trkpt lat="47.291950" lon="12.954814">
 <ele>607.36</ele>
 <time>2010-08-26T10:56:49Z</time>
 </trkpt>
 <trkpt lat="47.292183" lon="12.954930">
 <ele>608.57</ele>
 <time>2010-08-26T10:56:52Z</time>
 </trkpt>
 <trkpt lat="47.292389" lon="12.955128">
 <ele>610.74</ele>
 <time>2010-08-26T10:56:56Z</time>
 </trkpt>
 <trkpt lat="47.292431" lon="12.955182">
 <ele>611.04</ele>
 <time>2010-08-26T10:56:57Z</time>
 </trkpt>
 <trkpt lat="47.292572" lon="12.955442">
 <ele>611.28</ele>
 <time>2010-08-26T10:57:01Z</time>
 </trkpt>
 <trkpt lat="47.292709" lon="12.955955">
 <ele>610.63</ele>
 <time>2010-08-26T10:57:07Z</time>
 </trkpt>
 <trkpt lat="47.292736" lon="12.956301">
 <ele>612.36</ele>
 <time>2010-08-26T10:57:12Z</time>
 </trkpt>
 <trkpt lat="47.292713" lon="12.956780">
 <ele>614.02</ele>
 <time>2010-08-26T10:57:20Z</time>
 </trkpt>
 <trkpt lat="47.292633" lon="12.957104">
 <ele>614.73</ele>
 <time>2010-08-26T10:57:26Z</time>
 </trkpt>
 <trkpt lat="47.292503" lon="12.957497">
 <ele>616.69</ele>
 <time>2010-08-26T10:57:34Z</time>
 </trkpt>
 <trkpt lat="47.292347" lon="12.957958">
 <ele>617.73</ele>
 <time>2010-08-26T10:57:43Z</time>
 </trkpt>
 <trkpt lat="47.292175" lon="12.958474">
 <ele>618.63</ele>
 <time>2010-08-26T10:57:53Z</time>
 </trkpt>
 <trkpt lat="47.292023" lon="12.958971">
 <ele>618.95</ele>
 <time>2010-08-26T10:58:02Z</time>
 </trkpt>
 <trkpt lat="47.291893" lon="12.959467">
 <ele>619.12</ele>
 <time>2010-08-26T10:58:10Z</time>
 </trkpt>
 <trkpt lat="47.291737" lon="12.960215">
 <ele>618.57</ele>
 <time>2010-08-26T10:58:21Z</time>
 </trkpt>
 <trkpt lat="47.291630" lon="12.960861">
 <ele>619.37</ele>
 <time>2010-08-26T10:58:31Z</time>
 </trkpt>
 <trkpt lat="47.291569" lon="12.961367">
 <ele>619.88</ele>
 <time>2010-08-26T10:58:39Z</time>
 </trkpt>
 <trkpt lat="47.291557" lon="12.961874">
 <ele>620.51</ele>
 <time>2010-08-26T10:58:47Z</time>
 </trkpt>
 <trkpt lat="47.291561" lon="12.962686">
 <ele>621.57</ele>
 <time>2010-08-26T10:59:00Z</time>
 </trkpt>
 <trkpt lat="47.291580" lon="12.963321">
 <ele>622.20</ele>
 <time>2010-08-26T10:59:10Z</time>
 </trkpt>
 <trkpt lat="47.291630" lon="12.963883">
 <ele>622.47</ele>
 <time>2010-08-26T10:59:19Z</time>
 </trkpt>
 <trkpt lat="47.291710" lon="12.964458">
 <ele>623.68</ele>
 <time>2010-08-26T10:59:28Z</time>
 </trkpt>
 <trkpt lat="47.291836" lon="12.965142">
 <ele>624.03</ele>
 <time>2010-08-26T10:59:39Z</time>
 </trkpt>
 <trkpt lat="47.291950" lon="12.965637">
 <ele>624.97</ele>
 <time>2010-08-26T10:59:47Z</time>
 </trkpt>
 <trkpt lat="47.292122" lon="12.966360">
 <ele>625.63</ele>
 <time>2010-08-26T10:59:59Z</time>
 </trkpt>
 <trkpt lat="47.292290" lon="12.966885">
 <ele>626.22</ele>
 <time>2010-08-26T11:00:08Z</time>
 </trkpt>
 <trkpt lat="47.292507" lon="12.967388">
 <ele>626.71</ele>
 <time>2010-08-26T11:00:17Z</time>
 </trkpt>
 <trkpt lat="47.292812" lon="12.968065">
 <ele>627.75</ele>
 <time>2010-08-26T11:00:29Z</time>
 </trkpt>
 <trkpt lat="47.293156" lon="12.968841">
 <ele>626.92</ele>
 <time>2010-08-26T11:00:42Z</time>
 </trkpt>
 <trkpt lat="47.293430" lon="12.969447">
 <ele>626.63</ele>
 <time>2010-08-26T11:00:51Z</time>
 </trkpt>
 <trkpt lat="47.293705" lon="12.970081">
 <ele>624.90</ele>
 <time>2010-08-26T11:00:59Z</time>
 </trkpt>
 <trkpt lat="47.293915" lon="12.970679">
 <ele>622.75</ele>
 <time>2010-08-26T11:01:05Z</time>
 </trkpt>
 <trkpt lat="47.294071" lon="12.971366">
 <ele>620.93</ele>
 <time>2010-08-26T11:01:11Z</time>
 </trkpt>
 <trkpt lat="47.294224" lon="12.972442">
 <ele>618.35</ele>
 <time>2010-08-26T11:01:19Z</time>
 </trkpt>
 <trkpt lat="47.294258" lon="12.973571">
 <ele>614.87</ele>
 <time>2010-08-26T11:01:27Z</time>
 </trkpt>
 <trkpt lat="47.294231" lon="12.974595">
 <ele>612.40</ele>
 <time>2010-08-26T11:01:34Z</time>
 </trkpt>
 <trkpt lat="47.294235" lon="12.975077">
 <ele>611.97</ele>
 <time>2010-08-26T11:01:38Z</time>
 </trkpt>
 <trkpt lat="47.294247" lon="12.975293">
 <ele>611.49</ele>
 <time>2010-08-26T11:01:40Z</time>
 </trkpt>
 <trkpt lat="47.294342" lon="12.975727">
 <ele>609.37</ele>
 <time>2010-08-26T11:01:44Z</time>
 </trkpt>
 <trkpt lat="47.294685" lon="12.976789">
 <ele>606.27</ele>
 <time>2010-08-26T11:01:53Z</time>
 </trkpt>
 <trkpt lat="47.294868" lon="12.977550">
 <ele>602.53</ele>
 <time>2010-08-26T11:01:59Z</time>
 </trkpt>
 <trkpt lat="47.294891" lon="12.977683">
 <ele>602.31</ele>
 <time>2010-08-26T11:02:00Z</time>
 </trkpt>
 <trkpt lat="47.294952" lon="12.978375">
 <ele>601.02</ele>
 <time>2010-08-26T11:02:05Z</time>
 </trkpt>
 <trkpt lat="47.294971" lon="12.979812">
 <ele>597.82</ele>
 <time>2010-08-26T11:02:16Z</time>
 </trkpt>
 <trkpt lat="47.295052" lon="12.980526">
 <ele>596.43</ele>
 <time>2010-08-26T11:02:22Z</time>
 </trkpt>
 <trkpt lat="47.295055" lon="12.980636">
 <ele>596.05</ele>
 <time>2010-08-26T11:02:23Z</time>
 </trkpt>
 <trkpt lat="47.295116" lon="12.980980">
 <ele>595.83</ele>
 <time>2010-08-26T11:02:26Z</time>
 </trkpt>
 <trkpt lat="47.295341" lon="12.981488">
 <ele>594.96</ele>
 <time>2010-08-26T11:02:31Z</time>
 </trkpt>
 <trkpt lat="47.295692" lon="12.982278">
 <ele>592.72</ele>
 <time>2010-08-26T11:02:39Z</time>
 </trkpt>
 <trkpt lat="47.295891" lon="12.983014">
 <ele>592.03</ele>
 <time>2010-08-26T11:02:46Z</time>
 </trkpt>
 <trkpt lat="47.296120" lon="12.984255">
 <ele>590.40</ele>
 <time>2010-08-26T11:02:58Z</time>
 </trkpt>
 <trkpt lat="47.296150" lon="12.984440">
 <ele>590.35</ele>
 <time>2010-08-26T11:03:00Z</time>
 </trkpt>
 <trkpt lat="47.296089" lon="12.984785">
 <ele>590.31</ele>
 <time>2010-08-26T11:03:04Z</time>
 </trkpt>
 <trkpt lat="47.296051" lon="12.984861">
 <ele>590.29</ele>
 <time>2010-08-26T11:03:05Z</time>
 </trkpt>
 <trkpt lat="47.295990" lon="12.985023">
 <ele>590.43</ele>
 <time>2010-08-26T11:03:07Z</time>
 </trkpt>
 <trkpt lat="47.295975" lon="12.985409">
 <ele>590.03</ele>
 <time>2010-08-26T11:03:11Z</time>
 </trkpt>
 <trkpt lat="47.295986" lon="12.985797">
 <ele>589.75</ele>
 <time>2010-08-26T11:03:15Z</time>
 </trkpt>
 <trkpt lat="47.296089" lon="12.986238">
 <ele>589.73</ele>
 <time>2010-08-26T11:03:20Z</time>
 </trkpt>
 <trkpt lat="47.296223" lon="12.986548">
 <ele>589.40</ele>
 <time>2010-08-26T11:03:24Z</time>
 </trkpt>
 <trkpt lat="47.296303" lon="12.986933">
 <ele>589.24</ele>
 <time>2010-08-26T11:03:28Z</time>
 </trkpt>
 <trkpt lat="47.296265" lon="12.987313">
 <ele>588.82</ele>
 <time>2010-08-26T11:03:32Z</time>
 </trkpt>
 <trkpt lat="47.296307" lon="12.987687">
 <ele>588.65</ele>
 <time>2010-08-26T11:03:36Z</time>
 </trkpt>
 <trkpt lat="47.296345" lon="12.987764">
 <ele>588.45</ele>
 <time>2010-08-26T11:03:37Z</time>
 </trkpt>
 <trkpt lat="47.296429" lon="12.987908">
 <ele>587.92</ele>
 <time>2010-08-26T11:03:39Z</time>
 </trkpt>
 <trkpt lat="47.296589" lon="12.988363">
 <ele>587.55</ele>
 <time>2010-08-26T11:03:44Z</time>
 </trkpt>
 <trkpt lat="47.296814" lon="12.988653">
 <ele>586.70</ele>
 <time>2010-08-26T11:03:48Z</time>
 </trkpt>
 <trkpt lat="47.296955" lon="12.988661">
 <ele>586.40</ele>
 <time>2010-08-26T11:03:50Z</time>
 </trkpt>
 <trkpt lat="47.297314" lon="12.988729">
 <ele>585.09</ele>
 <time>2010-08-26T11:03:55Z</time>
 </trkpt>
 <trkpt lat="47.297401" lon="12.988887">
 <ele>584.65</ele>
 <time>2010-08-26T11:03:57Z</time>
 </trkpt>
 <trkpt lat="47.297470" lon="12.989072">
 <ele>584.32</ele>
 <time>2010-08-26T11:03:59Z</time>
 </trkpt>
 <trkpt lat="47.297661" lon="12.989401">
 <ele>582.98</ele>
 <time>2010-08-26T11:04:03Z</time>
 </trkpt>
 <trkpt lat="47.298111" lon="12.990047">
 <ele>579.98</ele>
 <time>2010-08-26T11:04:11Z</time>
 </trkpt>
 <trkpt lat="47.298355" lon="12.990549">
 <ele>577.63</ele>
 <time>2010-08-26T11:04:16Z</time>
 </trkpt>
 <trkpt lat="47.298473" lon="12.990630">
 <ele>577.66</ele>
 <time>2010-08-26T11:04:20Z</time>
 </trkpt>
 <trkpt lat="47.298626" lon="12.990637">
 <ele>577.51</ele>
 <time>2010-08-26T11:04:24Z</time>
 </trkpt>
 <trkpt lat="47.298729" lon="12.990842">
 <ele>578.31</ele>
 <time>2010-08-26T11:04:29Z</time>
 </trkpt>
 <trkpt lat="47.298794" lon="12.990987">
 <ele>578.49</ele>
 <time>2010-08-26T11:04:32Z</time>
 </trkpt>
 <trkpt lat="47.298878" lon="12.991164">
 <ele>578.28</ele>
 <time>2010-08-26T11:04:35Z</time>
 </trkpt>
 <trkpt lat="47.298962" lon="12.991363">
 <ele>577.37</ele>
 <time>2010-08-26T11:04:38Z</time>
 </trkpt>
 <trkpt lat="47.299255" lon="12.992010">
 <ele>575.49</ele>
 <time>2010-08-26T11:04:47Z</time>
 </trkpt>
 <trkpt lat="47.299618" lon="12.992743">
 <ele>573.64</ele>
 <time>2010-08-26T11:04:56Z</time>
 </trkpt>
 <trkpt lat="47.299847" lon="12.993135">
 <ele>572.50</ele>
 <time>2010-08-26T11:05:01Z</time>
 </trkpt>
 <trkpt lat="47.300076" lon="12.993381">
 <ele>571.67</ele>
 <time>2010-08-26T11:05:05Z</time>
 </trkpt>
 <trkpt lat="47.300442" lon="12.993840">
 <ele>569.29</ele>
 <time>2010-08-26T11:05:11Z</time>
 </trkpt>
 <trkpt lat="47.300694" lon="12.994193">
 <ele>567.18</ele>
 <time>2010-08-26T11:05:15Z</time>
 </trkpt>
 <trkpt lat="47.301022" lon="12.994787">
 <ele>565.25</ele>
 <time>2010-08-26T11:05:21Z</time>
 </trkpt>
 <trkpt lat="47.301323" lon="12.995344">
 <ele>564.68</ele>
 <time>2010-08-26T11:05:27Z</time>
 </trkpt>
 <trkpt lat="47.301571" lon="12.995779">
 <ele>564.51</ele>
 <time>2010-08-26T11:05:32Z</time>
 </trkpt>
 <trkpt lat="47.301651" lon="12.996168">
 <ele>564.37</ele>
 <time>2010-08-26T11:05:36Z</time>
 </trkpt>
 <trkpt lat="47.301666" lon="12.996381">
 <ele>564.46</ele>
 <time>2010-08-26T11:05:38Z</time>
 </trkpt>
 <trkpt lat="47.301525" lon="12.996689">
 <ele>564.77</ele>
 <time>2010-08-26T11:05:42Z</time>
 </trkpt>
 <trkpt lat="47.301414" lon="12.997019">
 <ele>564.51</ele>
 <time>2010-08-26T11:05:46Z</time>
 </trkpt>
 <trkpt lat="47.301388" lon="12.997664">
 <ele>561.70</ele>
 <time>2010-08-26T11:05:51Z</time>
 </trkpt>
 <trkpt lat="47.301388" lon="12.997957">
 <ele>558.20</ele>
 <time>2010-08-26T11:05:53Z</time>
 </trkpt>
 <trkpt lat="47.301365" lon="12.998113">
 <ele>556.48</ele>
 <time>2010-08-26T11:05:54Z</time>
 </trkpt>
 <trkpt lat="47.301308" lon="12.998310">
 <ele>555.29</ele>
 <time>2010-08-26T11:05:55Z</time>
 </trkpt>
 <trkpt lat="47.301373" lon="12.998684">
 <ele>556.06</ele>
 <time>2010-08-26T11:05:59Z</time>
 </trkpt>
 <trkpt lat="47.301476" lon="12.998964">
 <ele>559.66</ele>
 <time>2010-08-26T11:06:03Z</time>
 </trkpt>
 <trkpt lat="47.301563" lon="12.999098">
 <ele>562.19</ele>
 <time>2010-08-26T11:06:06Z</time>
 </trkpt>
 <trkpt lat="47.301632" lon="12.999166">
 <ele>562.96</ele>
 <time>2010-08-26T11:06:08Z</time>
 </trkpt>
 <trkpt lat="47.301674" lon="12.999205">
 <ele>563.08</ele>
 <time>2010-08-26T11:06:09Z</time>
 </trkpt>
 <trkpt lat="47.301804" lon="12.999343">
 <ele>562.98</ele>
 <time>2010-08-26T11:06:12Z</time>
 </trkpt>
 <trkpt lat="47.302067" lon="12.999651">
 <ele>562.15</ele>
 <time>2010-08-26T11:06:18Z</time>
 </trkpt>
 <trkpt lat="47.302387" lon="13.000010">
 <ele>561.36</ele>
 <time>2010-08-26T11:06:24Z</time>
 </trkpt>
 <trkpt lat="47.302776" lon="13.000563">
 <ele>560.38</ele>
 <time>2010-08-26T11:06:31Z</time>
 </trkpt>
 <trkpt lat="47.303059" lon="13.001168">
 <ele>559.73</ele>
 <time>2010-08-26T11:06:38Z</time>
 </trkpt>
 <trkpt lat="47.303238" lon="13.001806">
 <ele>558.75</ele>
 <time>2010-08-26T11:06:44Z</time>
 </trkpt>
 <trkpt lat="47.303490" lon="13.002874">
 <ele>558.21</ele>
 <time>2010-08-26T11:06:54Z</time>
 </trkpt>
 <trkpt lat="47.303707" lon="13.003439">
 <ele>557.76</ele>
 <time>2010-08-26T11:07:00Z</time>
 </trkpt>
 <trkpt lat="47.304066" lon="13.004015">
 <ele>557.01</ele>
 <time>2010-08-26T11:07:07Z</time>
 </trkpt>
 <trkpt lat="47.304508" lon="13.004477">
 <ele>556.10</ele>
 <time>2010-08-26T11:07:14Z</time>
 </trkpt>
 <trkpt lat="47.305019" lon="13.004922">
 <ele>554.84</ele>
 <time>2010-08-26T11:07:22Z</time>
 </trkpt>
 <trkpt lat="47.305454" lon="13.005405">
 <ele>554.56</ele>
 <time>2010-08-26T11:07:29Z</time>
 </trkpt>
 <trkpt lat="47.305706" lon="13.005849">
 <ele>554.21</ele>
 <time>2010-08-26T11:07:34Z</time>
 </trkpt>
 <trkpt lat="47.305927" lon="13.006456">
 <ele>551.44</ele>
 <time>2010-08-26T11:07:40Z</time>
 </trkpt>
 <trkpt lat="47.306152" lon="13.006995">
 <ele>548.43</ele>
 <time>2010-08-26T11:07:45Z</time>
 </trkpt>
 <trkpt lat="47.306496" lon="13.007665">
 <ele>544.47</ele>
 <time>2010-08-26T11:07:51Z</time>
 </trkpt>
 <trkpt lat="47.306808" lon="13.008208">
 <ele>542.39</ele>
 <time>2010-08-26T11:07:56Z</time>
 </trkpt>
 <trkpt lat="47.306946" lon="13.008629">
 <ele>544.63</ele>
 <time>2010-08-26T11:08:00Z</time>
 </trkpt>
 <trkpt lat="47.307079" lon="13.009263">
 <ele>547.43</ele>
 <time>2010-08-26T11:08:07Z</time>
 </trkpt>
 <trkpt lat="47.307129" lon="13.009656">
 <ele>551.73</ele>
 <time>2010-08-26T11:08:13Z</time>
 </trkpt>
 <trkpt lat="47.307137" lon="13.009828">
 <ele>552.96</ele>
 <time>2010-08-26T11:08:16Z</time>
 </trkpt>
 <trkpt lat="47.307137" lon="13.010235">
 <ele>552.20</ele>
 <time>2010-08-26T11:08:21Z</time>
 </trkpt>
 <trkpt lat="47.307079" lon="13.010711">
 <ele>547.53</ele>
 <time>2010-08-26T11:08:25Z</time>
 </trkpt>
 <trkpt lat="47.306843" lon="13.011430">
 <ele>539.26</ele>
 <time>2010-08-26T11:08:30Z</time>
 </trkpt>
 <trkpt lat="47.306664" lon="13.012040">
 <ele>536.30</ele>
 <time>2010-08-26T11:08:34Z</time>
 </trkpt>
 <trkpt lat="47.306477" lon="13.012569">
 <ele>536.57</ele>
 <time>2010-08-26T11:08:38Z</time>
 </trkpt>
 <trkpt lat="47.306450" lon="13.013124">
 <ele>536.30</ele>
 <time>2010-08-26T11:08:42Z</time>
 </trkpt>
 <trkpt lat="47.306484" lon="13.014205">
 <ele>534.49</ele>
 <time>2010-08-26T11:08:50Z</time>
 </trkpt>
 <trkpt lat="47.306465" lon="13.015017">
 <ele>534.12</ele>
 <time>2010-08-26T11:08:57Z</time>
 </trkpt>
 <trkpt lat="47.306450" lon="13.015238">
 <ele>534.38</ele>
 <time>2010-08-26T11:08:59Z</time>
 </trkpt>
 <trkpt lat="47.306313" lon="13.015605">
 <ele>534.62</ele>
 <time>2010-08-26T11:09:03Z</time>
 </trkpt>
 <trkpt lat="47.306053" lon="13.016043">
 <ele>534.86</ele>
 <time>2010-08-26T11:09:09Z</time>
 </trkpt>
 <trkpt lat="47.306019" lon="13.016115">
 <ele>534.91</ele>
 <time>2010-08-26T11:09:10Z</time>
 </trkpt>
 <trkpt lat="47.305950" lon="13.016459">
 <ele>534.97</ele>
 <time>2010-08-26T11:09:14Z</time>
 </trkpt>
 <trkpt lat="47.305965" lon="13.016646">
 <ele>534.92</ele>
 <time>2010-08-26T11:09:16Z</time>
 </trkpt>
 <trkpt lat="47.306107" lon="13.017438">
 <ele>533.34</ele>
 <time>2010-08-26T11:09:24Z</time>
 </trkpt>
 <trkpt lat="47.306351" lon="13.018582">
 <ele>531.53</ele>
 <time>2010-08-26T11:09:35Z</time>
 </trkpt>
 <trkpt lat="47.306557" lon="13.019260">
 <ele>530.82</ele>
 <time>2010-08-26T11:09:42Z</time>
 </trkpt>
 <trkpt lat="47.306702" lon="13.019597">
 <ele>530.13</ele>
 <time>2010-08-26T11:09:46Z</time>
 </trkpt>
 <trkpt lat="47.306911" lon="13.019985">
 <ele>529.93</ele>
 <time>2010-08-26T11:09:51Z</time>
 </trkpt>
 <trkpt lat="47.307056" lon="13.020281">
 <ele>529.98</ele>
 <time>2010-08-26T11:09:56Z</time>
 </trkpt>
 <trkpt lat="47.307144" lon="13.020431">
 <ele>530.82</ele>
 <time>2010-08-26T11:10:00Z</time>
 </trkpt>
 <trkpt lat="47.307178" lon="13.020483">
 <ele>531.63</ele>
 <time>2010-08-26T11:10:04Z</time>
 </trkpt>
 <trkpt lat="47.307186" lon="13.020483">
 <ele>530.85</ele>
 <time>2010-08-26T11:10:37Z</time>
 </trkpt>
 <trkpt lat="47.307205" lon="13.020511">
 <ele>530.84</ele>
 <time>2010-08-26T11:10:38Z</time>
 </trkpt>
 <trkpt lat="47.307316" lon="13.020755">
 <ele>531.10</ele>
 <time>2010-08-26T11:10:44Z</time>
 </trkpt>
 <trkpt lat="47.307358" lon="13.021112">
 <ele>530.44</ele>
 <time>2010-08-26T11:10:50Z</time>
 </trkpt>
 <trkpt lat="47.307369" lon="13.021184">
 <ele>530.21</ele>
 <time>2010-08-26T11:10:51Z</time>
 </trkpt>
 <trkpt lat="47.307476" lon="13.021766">
 <ele>528.57</ele>
 <time>2010-08-26T11:10:58Z</time>
 </trkpt>
 <trkpt lat="47.307587" lon="13.022425">
 <ele>527.54</ele>
 <time>2010-08-26T11:11:05Z</time>
 </trkpt>
 <trkpt lat="47.307636" lon="13.022987">
 <ele>527.17</ele>
 <time>2010-08-26T11:11:11Z</time>
 </trkpt>
 <trkpt lat="47.307533" lon="13.023617">
 <ele>526.82</ele>
 <time>2010-08-26T11:11:18Z</time>
 </trkpt>
 <trkpt lat="47.307339" lon="13.024400">
 <ele>526.57</ele>
 <time>2010-08-26T11:11:27Z</time>
 </trkpt>
 <trkpt lat="47.307182" lon="13.025231">
 <ele>525.95</ele>
 <time>2010-08-26T11:11:36Z</time>
 </trkpt>
 <trkpt lat="47.307159" lon="13.025988">
 <ele>525.42</ele>
 <time>2010-08-26T11:11:43Z</time>
 </trkpt>
 <trkpt lat="47.307030" lon="13.026923">
 <ele>524.84</ele>
 <time>2010-08-26T11:11:53Z</time>
 </trkpt>
 <trkpt lat="47.306862" lon="13.027939">
 <ele>524.47</ele>
 <time>2010-08-26T11:12:04Z</time>
 </trkpt>
 <trkpt lat="47.306786" lon="13.028715">
 <ele>523.85</ele>
 <time>2010-08-26T11:12:12Z</time>
 </trkpt>
 <trkpt lat="47.306641" lon="13.029368">
 <ele>523.18</ele>
 <time>2010-08-26T11:12:19Z</time>
 </trkpt>
 <trkpt lat="47.306591" lon="13.029674">
 <ele>522.91</ele>
 <time>2010-08-26T11:12:22Z</time>
 </trkpt>
 <trkpt lat="47.306522" lon="13.029841">
 <ele>522.52</ele>
 <time>2010-08-26T11:12:24Z</time>
 </trkpt>
 <trkpt lat="47.306538" lon="13.030216">
 <ele>522.26</ele>
 <time>2010-08-26T11:12:27Z</time>
 </trkpt>
 <trkpt lat="47.306339" lon="13.030572">
 <ele>522.49</ele>
 <time>2010-08-26T11:12:32Z</time>
 </trkpt>
 <trkpt lat="47.305809" lon="13.030896">
 <ele>522.72</ele>
 <time>2010-08-26T11:12:40Z</time>
 </trkpt>
 <trkpt lat="47.305431" lon="13.031147">
 <ele>522.40</ele>
 <time>2010-08-26T11:12:46Z</time>
 </trkpt>
 <trkpt lat="47.305073" lon="13.031766">
 <ele>522.04</ele>
 <time>2010-08-26T11:12:55Z</time>
 </trkpt>
 <trkpt lat="47.304951" lon="13.032034">
 <ele>524.32</ele>
 <time>2010-08-26T11:13:00Z</time>
 </trkpt>
 <trkpt lat="47.304859" lon="13.032247">
 <ele>527.22</ele>
 <time>2010-08-26T11:13:06Z</time>
 </trkpt>
 <trkpt lat="47.304771" lon="13.032450">
 <ele>529.10</ele>
 <time>2010-08-26T11:13:12Z</time>
 </trkpt>
 <trkpt lat="47.304665" lon="13.032652">
 <ele>530.55</ele>
 <time>2010-08-26T11:13:18Z</time>
 </trkpt>
 <trkpt lat="47.304565" lon="13.032867">
 <ele>532.47</ele>
 <time>2010-08-26T11:13:24Z</time>
 </trkpt>
 <trkpt lat="47.304459" lon="13.033087">
 <ele>532.86</ele>
 <time>2010-08-26T11:13:30Z</time>
 </trkpt>
 <trkpt lat="47.304337" lon="13.033400">
 <ele>532.36</ele>
 <time>2010-08-26T11:13:36Z</time>
 </trkpt>
 <trkpt lat="47.304214" lon="13.033799">
 <ele>530.60</ele>
 <time>2010-08-26T11:13:42Z</time>
 </trkpt>
 <trkpt lat="47.304165" lon="13.034110">
 <ele>529.29</ele>
 <time>2010-08-26T11:13:45Z</time>
 </trkpt>
 <trkpt lat="47.304096" lon="13.034492">
 <ele>526.25</ele>
 <time>2010-08-26T11:13:48Z</time>
 </trkpt>
 <trkpt lat="47.304001" lon="13.034731">
 <ele>524.27</ele>
 <time>2010-08-26T11:13:50Z</time>
 </trkpt>
 <trkpt lat="47.303986" lon="13.035076">
 <ele>522.23</ele>
 <time>2010-08-26T11:13:52Z</time>
 </trkpt>
 <trkpt lat="47.303993" lon="13.035987">
 <ele>518.43</ele>
 <time>2010-08-26T11:13:57Z</time>
 </trkpt>
 <trkpt lat="47.303738" lon="13.036212">
 <ele>517.90</ele>
 <time>2010-08-26T11:14:01Z</time>
 </trkpt>
 <trkpt lat="47.303562" lon="13.036293">
 <ele>517.96</ele>
 <time>2010-08-26T11:14:04Z</time>
 </trkpt>
 <trkpt lat="47.302834" lon="13.036105">
 <ele>518.68</ele>
 <time>2010-08-26T11:14:10Z</time>
 </trkpt>
 <trkpt lat="47.302155" lon="13.036029">
 <ele>519.09</ele>
 <time>2010-08-26T11:14:16Z</time>
 </trkpt>
 <trkpt lat="47.301743" lon="13.036269">
 <ele>519.07</ele>
 <time>2010-08-26T11:14:22Z</time>
 </trkpt>
 <trkpt lat="47.301437" lon="13.036644">
 <ele>518.88</ele>
 <time>2010-08-26T11:14:28Z</time>
 </trkpt>
 <trkpt lat="47.301247" lon="13.036992">
 <ele>518.89</ele>
 <time>2010-08-26T11:14:33Z</time>
 </trkpt>
 <trkpt lat="47.301144" lon="13.037501">
 <ele>518.70</ele>
 <time>2010-08-26T11:14:39Z</time>
 </trkpt>
 <trkpt lat="47.301159" lon="13.038260">
 <ele>517.70</ele>
 <time>2010-08-26T11:14:47Z</time>
 </trkpt>
 <trkpt lat="47.301121" lon="13.039112">
 <ele>517.15</ele>
 <time>2010-08-26T11:14:56Z</time>
 </trkpt>
 <trkpt lat="47.300999" lon="13.039914">
 <ele>516.97</ele>
 <time>2010-08-26T11:15:05Z</time>
 </trkpt>
 <trkpt lat="47.300915" lon="13.040523">
 <ele>516.74</ele>
 <time>2010-08-26T11:15:12Z</time>
 </trkpt>
 <trkpt lat="47.300732" lon="13.041280">
 <ele>515.78</ele>
 <time>2010-08-26T11:15:21Z</time>
 </trkpt>
 <trkpt lat="47.300648" lon="13.041521">
 <ele>515.61</ele>
 <time>2010-08-26T11:15:24Z</time>
 </trkpt>
 <trkpt lat="47.300411" lon="13.042018">
 <ele>515.22</ele>
 <time>2010-08-26T11:15:31Z</time>
 </trkpt>
 <trkpt lat="47.300255" lon="13.042260">
 <ele>514.89</ele>
 <time>2010-08-26T11:15:35Z</time>
 </trkpt>
 <trkpt lat="47.299995" lon="13.042613">
 <ele>515.75</ele>
 <time>2010-08-26T11:15:42Z</time>
 </trkpt>
 <trkpt lat="47.299850" lon="13.042766">
 <ele>517.68</ele>
 <time>2010-08-26T11:15:47Z</time>
 </trkpt>
 <trkpt lat="47.299782" lon="13.042944">
 <ele>519.28</ele>
 <time>2010-08-26T11:15:53Z</time>
 </trkpt>
 <trkpt lat="47.299736" lon="13.043135">
 <ele>520.90</ele>
 <time>2010-08-26T11:16:00Z</time>
 </trkpt>
 <trkpt lat="47.299667" lon="13.043269">
 <ele>522.59</ele>
 <time>2010-08-26T11:16:06Z</time>
 </trkpt>
 <trkpt lat="47.299583" lon="13.043418">
 <ele>524.98</ele>
 <time>2010-08-26T11:16:13Z</time>
 </trkpt>
 <trkpt lat="47.299572" lon="13.043433">
 <ele>524.97</ele>
 <time>2010-08-26T11:16:14Z</time>
 </trkpt>
 <trkpt lat="47.299458" lon="13.043463">
 <ele>526.34</ele>
 <time>2010-08-26T11:16:21Z</time>
 </trkpt>
 <trkpt lat="47.299339" lon="13.043519">
 <ele>528.53</ele>
 <time>2010-08-26T11:16:29Z</time>
 </trkpt>
 <trkpt lat="47.299206" lon="13.043562">
 <ele>529.95</ele>
 <time>2010-08-26T11:16:38Z</time>
 </trkpt>
 <trkpt lat="47.299076" lon="13.043630">
 <ele>531.23</ele>
 <time>2010-08-26T11:16:47Z</time>
 </trkpt>
 <trkpt lat="47.299026" lon="13.043670">
 <ele>531.72</ele>
 <time>2010-08-26T11:16:50Z</time>
 </trkpt>
 <trkpt lat="47.298882" lon="13.043826">
 <ele>533.00</ele>
 <time>2010-08-26T11:17:00Z</time>
 </trkpt>
 <trkpt lat="47.298733" lon="13.043881">
 <ele>533.96</ele>
 <time>2010-08-26T11:17:08Z</time>
 </trkpt>
 <trkpt lat="47.298588" lon="13.043930">
 <ele>534.73</ele>
 <time>2010-08-26T11:17:15Z</time>
 </trkpt>
 <trkpt lat="47.298485" lon="13.043963">
 <ele>534.86</ele>
 <time>2010-08-26T11:17:21Z</time>
 </trkpt>
 <trkpt lat="47.298393" lon="13.044116">
 <ele>534.84</ele>
 <time>2010-08-26T11:17:27Z</time>
 </trkpt>
 <trkpt lat="47.298328" lon="13.044415">
 <ele>534.97</ele>
 <time>2010-08-26T11:17:36Z</time>
 </trkpt>
 <trkpt lat="47.298328" lon="13.044562">
 <ele>534.86</ele>
 <time>2010-08-26T11:17:41Z</time>
 </trkpt>
 <trkpt lat="47.298313" lon="13.044729">
 <ele>533.21</ele>
 <time>2010-08-26T11:17:46Z</time>
 </trkpt>
 <trkpt lat="47.298302" lon="13.044822">
 <ele>532.35</ele>
 <time>2010-08-26T11:17:49Z</time>
 </trkpt>
 <trkpt lat="47.298298" lon="13.044943">
 <ele>531.05</ele>
 <time>2010-08-26T11:17:53Z</time>
 </trkpt>
 <trkpt lat="47.298294" lon="13.044950">
 <ele>530.87</ele>
 <time>2010-08-26T11:17:56Z</time>
 </trkpt>
 <trkpt lat="47.298225" lon="13.045118">
 <ele>531.00</ele>
 <time>2010-08-26T11:18:15Z</time>
 </trkpt>
 <trkpt lat="47.298119" lon="13.045285">
 <ele>533.27</ele>
 <time>2010-08-26T11:18:23Z</time>
 </trkpt>
 <trkpt lat="47.297997" lon="13.045450">
 <ele>535.55</ele>
 <time>2010-08-26T11:18:31Z</time>
 </trkpt>
 <trkpt lat="47.297867" lon="13.045628">
 <ele>537.07</ele>
 <time>2010-08-26T11:18:39Z</time>
 </trkpt>
 <trkpt lat="47.297756" lon="13.045717">
 <ele>538.05</ele>
 <time>2010-08-26T11:18:44Z</time>
 </trkpt>
 <trkpt lat="47.297676" lon="13.045881">
 <ele>538.61</ele>
 <time>2010-08-26T11:18:50Z</time>
 </trkpt>
 <trkpt lat="47.297569" lon="13.045998">
 <ele>539.44</ele>
 <time>2010-08-26T11:18:56Z</time>
 </trkpt>
 <trkpt lat="47.297432" lon="13.046157">
 <ele>539.91</ele>
 <time>2010-08-26T11:19:04Z</time>
 </trkpt>
 <trkpt lat="47.297298" lon="13.046277">
 <ele>541.01</ele>
 <time>2010-08-26T11:19:11Z</time>
 </trkpt>
 <trkpt lat="47.297192" lon="13.046443">
 <ele>542.77</ele>
 <time>2010-08-26T11:19:19Z</time>
 </trkpt>
 <trkpt lat="47.297169" lon="13.046556">
 <ele>544.21</ele>
 <time>2010-08-26T11:19:25Z</time>
 </trkpt>
 <trkpt lat="47.297142" lon="13.046714">
 <ele>546.17</ele>
 <time>2010-08-26T11:19:33Z</time>
 </trkpt>
 <trkpt lat="47.297123" lon="13.046858">
 <ele>547.74</ele>
 <time>2010-08-26T11:19:40Z</time>
 </trkpt>
 <trkpt lat="47.297115" lon="13.046872">
 <ele>547.90</ele>
 <time>2010-08-26T11:19:41Z</time>
 </trkpt>
 <trkpt lat="47.297039" lon="13.046965">
 <ele>549.78</ele>
 <time>2010-08-26T11:19:48Z</time>
 </trkpt>
 <trkpt lat="47.296989" lon="13.047052">
 <ele>551.43</ele>
 <time>2010-08-26T11:19:54Z</time>
 </trkpt>
 <trkpt lat="47.296982" lon="13.047067">
 <ele>551.66</ele>
 <time>2010-08-26T11:19:55Z</time>
 </trkpt>
 <trkpt lat="47.297005" lon="13.047169">
 <ele>552.73</ele>
 <time>2010-08-26T11:20:00Z</time>
 </trkpt>
 <trkpt lat="47.297020" lon="13.047343">
 <ele>554.58</ele>
 <time>2010-08-26T11:20:07Z</time>
 </trkpt>
 <trkpt lat="47.296986" lon="13.047404">
 <ele>555.36</ele>
 <time>2010-08-26T11:20:11Z</time>
 </trkpt>
 <trkpt lat="47.296917" lon="13.047522">
 <ele>557.29</ele>
 <time>2010-08-26T11:20:18Z</time>
 </trkpt>
 <trkpt lat="47.296883" lon="13.047645">
 <ele>559.02</ele>
 <time>2010-08-26T11:20:25Z</time>
 </trkpt>
 <trkpt lat="47.296806" lon="13.047747">
 <ele>560.78</ele>
 <time>2010-08-26T11:20:33Z</time>
 </trkpt>
 <trkpt lat="47.296703" lon="13.047853">
 <ele>563.10</ele>
 <time>2010-08-26T11:20:42Z</time>
 </trkpt>
 <trkpt lat="47.296612" lon="13.047966">
 <ele>564.64</ele>
 <time>2010-08-26T11:20:51Z</time>
 </trkpt>
 <trkpt lat="47.296524" lon="13.048095">
 <ele>566.39</ele>
 <time>2010-08-26T11:21:00Z</time>
 </trkpt>
 <trkpt lat="47.296455" lon="13.048193">
 <ele>567.46</ele>
 <time>2010-08-26T11:21:06Z</time>
 </trkpt>
 <trkpt lat="47.296383" lon="13.048293">
 <ele>568.90</ele>
 <time>2010-08-26T11:21:13Z</time>
 </trkpt>
 <trkpt lat="47.296329" lon="13.048410">
 <ele>569.92</ele>
 <time>2010-08-26T11:21:20Z</time>
 </trkpt>
 <trkpt lat="47.296234" lon="13.048477">
 <ele>570.70</ele>
 <time>2010-08-26T11:21:30Z</time>
 </trkpt>
 <trkpt lat="47.296181" lon="13.048485">
 <ele>571.02</ele>
 <time>2010-08-26T11:21:37Z</time>
 </trkpt>
 <trkpt lat="47.296043" lon="13.048527">
 <ele>572.11</ele>
 <time>2010-08-26T11:21:46Z</time>
 </trkpt>
 <trkpt lat="47.295944" lon="13.048597">
 <ele>573.48</ele>
 <time>2010-08-26T11:21:53Z</time>
 </trkpt>
 <trkpt lat="47.295864" lon="13.048728">
 <ele>574.52</ele>
 <time>2010-08-26T11:22:01Z</time>
 </trkpt>
 <trkpt lat="47.295757" lon="13.048863">
 <ele>574.79</ele>
 <time>2010-08-26T11:22:10Z</time>
 </trkpt>
 <trkpt lat="47.295731" lon="13.048984">
 <ele>574.95</ele>
 <time>2010-08-26T11:22:16Z</time>
 </trkpt>
 <trkpt lat="47.295731" lon="13.049020">
 <ele>575.13</ele>
 <time>2010-08-26T11:22:18Z</time>
 </trkpt>
 <trkpt lat="47.295696" lon="13.049229">
 <ele>576.11</ele>
 <time>2010-08-26T11:22:26Z</time>
 </trkpt>
 <trkpt lat="47.295689" lon="13.049277">
 <ele>576.34</ele>
 <time>2010-08-26T11:22:28Z</time>
 </trkpt>
 <trkpt lat="47.295628" lon="13.049470">
 <ele>577.34</ele>
 <time>2010-08-26T11:22:37Z</time>
 </trkpt>
 <trkpt lat="47.295528" lon="13.049649">
 <ele>578.84</ele>
 <time>2010-08-26T11:22:46Z</time>
 </trkpt>
 <trkpt lat="47.295418" lon="13.049799">
 <ele>580.12</ele>
 <time>2010-08-26T11:22:55Z</time>
 </trkpt>
 <trkpt lat="47.295303" lon="13.049969">
 <ele>581.18</ele>
 <time>2010-08-26T11:23:04Z</time>
 </trkpt>
 <trkpt lat="47.295235" lon="13.050144">
 <ele>581.90</ele>
 <time>2010-08-26T11:23:12Z</time>
 </trkpt>
 <trkpt lat="47.295246" lon="13.050363">
 <ele>582.59</ele>
 <time>2010-08-26T11:23:20Z</time>
 </trkpt>
 <trkpt lat="47.295288" lon="13.050602">
 <ele>584.05</ele>
 <time>2010-08-26T11:23:29Z</time>
 </trkpt>
 <trkpt lat="47.295254" lon="13.050783">
 <ele>584.61</ele>
 <time>2010-08-26T11:23:36Z</time>
 </trkpt>
 <trkpt lat="47.295238" lon="13.051004">
 <ele>585.16</ele>
 <time>2010-08-26T11:23:43Z</time>
 </trkpt>
 <trkpt lat="47.295238" lon="13.051284">
 <ele>586.45</ele>
 <time>2010-08-26T11:23:53Z</time>
 </trkpt>
 <trkpt lat="47.295208" lon="13.051486">
 <ele>588.19</ele>
 <time>2010-08-26T11:24:01Z</time>
 </trkpt>
 <trkpt lat="47.295139" lon="13.051669">
 <ele>589.16</ele>
 <time>2010-08-26T11:24:09Z</time>
 </trkpt>
 <trkpt lat="47.295021" lon="13.051882">
 <ele>591.16</ele>
 <time>2010-08-26T11:24:20Z</time>
 </trkpt>
 <trkpt lat="47.294926" lon="13.052104">
 <ele>592.49</ele>
 <time>2010-08-26T11:24:30Z</time>
 </trkpt>
 <trkpt lat="47.294857" lon="13.052290">
 <ele>593.55</ele>
 <time>2010-08-26T11:24:38Z</time>
 </trkpt>
 <trkpt lat="47.294804" lon="13.052454">
 <ele>594.10</ele>
 <time>2010-08-26T11:24:45Z</time>
 </trkpt>
 <trkpt lat="47.294750" lon="13.052658">
 <ele>595.51</ele>
 <time>2010-08-26T11:24:53Z</time>
 </trkpt>
 <trkpt lat="47.294750" lon="13.052845">
 <ele>596.53</ele>
 <time>2010-08-26T11:25:00Z</time>
 </trkpt>
 <trkpt lat="47.294800" lon="13.053072">
 <ele>597.92</ele>
 <time>2010-08-26T11:25:09Z</time>
 </trkpt>
 <trkpt lat="47.294880" lon="13.053311">
 <ele>600.72</ele>
 <time>2010-08-26T11:25:19Z</time>
 </trkpt>
 <trkpt lat="47.294926" lon="13.053535">
 <ele>602.06</ele>
 <time>2010-08-26T11:25:28Z</time>
 </trkpt>
 <trkpt lat="47.294937" lon="13.053806">
 <ele>604.00</ele>
 <time>2010-08-26T11:25:38Z</time>
 </trkpt>
 <trkpt lat="47.294910" lon="13.054005">
 <ele>604.66</ele>
 <time>2010-08-26T11:25:46Z</time>
 </trkpt>
 <trkpt lat="47.294868" lon="13.054270">
 <ele>604.43</ele>
 <time>2010-08-26T11:25:55Z</time>
 </trkpt>
 <trkpt lat="47.294827" lon="13.054362">
 <ele>604.38</ele>
 <time>2010-08-26T11:26:01Z</time>
 </trkpt>
 <trkpt lat="47.294792" lon="13.054489">
 <ele>603.21</ele>
 <time>2010-08-26T11:26:07Z</time>
 </trkpt>
 <trkpt lat="47.294765" lon="13.054778">
 <ele>602.32</ele>
 <time>2010-08-26T11:26:14Z</time>
 </trkpt>
 <trkpt lat="47.294662" lon="13.055158">
 <ele>601.42</ele>
 <time>2010-08-26T11:26:21Z</time>
 </trkpt>
 <trkpt lat="47.294640" lon="13.055220">
 <ele>601.05</ele>
 <time>2010-08-26T11:26:22Z</time>
 </trkpt>
 <trkpt lat="47.294594" lon="13.055546">
 <ele>599.46</ele>
 <time>2010-08-26T11:26:26Z</time>
 </trkpt>
 <trkpt lat="47.294598" lon="13.055820">
 <ele>598.21</ele>
 <time>2010-08-26T11:26:29Z</time>
 </trkpt>
 <trkpt lat="47.294613" lon="13.056096">
 <ele>599.48</ele>
 <time>2010-08-26T11:26:33Z</time>
 </trkpt>
 <trkpt lat="47.294628" lon="13.056247">
 <ele>601.92</ele>
 <time>2010-08-26T11:26:38Z</time>
 </trkpt>
 <trkpt lat="47.294655" lon="13.056460">
 <ele>603.70</ele>
 <time>2010-08-26T11:26:46Z</time>
 </trkpt>
 <trkpt lat="47.294659" lon="13.056680">
 <ele>605.25</ele>
 <time>2010-08-26T11:26:54Z</time>
 </trkpt>
 <trkpt lat="47.294605" lon="13.056848">
 <ele>605.79</ele>
 <time>2010-08-26T11:27:01Z</time>
 </trkpt>
 <trkpt lat="47.294510" lon="13.057031">
 <ele>606.64</ele>
 <time>2010-08-26T11:27:09Z</time>
 </trkpt>
 <trkpt lat="47.294399" lon="13.057145">
 <ele>607.97</ele>
 <time>2010-08-26T11:27:17Z</time>
 </trkpt>
 <trkpt lat="47.294289" lon="13.057255">
 <ele>608.50</ele>
 <time>2010-08-26T11:27:25Z</time>
 </trkpt>
 <trkpt lat="47.294159" lon="13.057310">
 <ele>609.30</ele>
 <time>2010-08-26T11:27:31Z</time>
 </trkpt>
 <trkpt lat="47.294067" lon="13.057309">
 <ele>610.07</ele>
 <time>2010-08-26T11:27:37Z</time>
 </trkpt>
 <trkpt lat="47.293995" lon="13.057201">
 <ele>610.97</ele>
 <time>2010-08-26T11:27:43Z</time>
 </trkpt>
 <trkpt lat="47.293934" lon="13.057156">
 <ele>611.49</ele>
 <time>2010-08-26T11:27:47Z</time>
 </trkpt>
 <trkpt lat="47.293877" lon="13.057225">
 <ele>612.86</ele>
 <time>2010-08-26T11:27:52Z</time>
 </trkpt>
 <trkpt lat="47.293858" lon="13.057220">
 <ele>613.24</ele>
 <time>2010-08-26T11:27:53Z</time>
 </trkpt>
 <trkpt lat="47.293762" lon="13.057181">
 <ele>614.60</ele>
 <time>2010-08-26T11:27:59Z</time>
 </trkpt>
 <trkpt lat="47.293797" lon="13.057151">
 <ele>615.39</ele>
 <time>2010-08-26T11:28:04Z</time>
 </trkpt>
 <trkpt lat="47.293903" lon="13.057279">
 <ele>615.80</ele>
 <time>2010-08-26T11:28:12Z</time>
 </trkpt>
 <trkpt lat="47.294022" lon="13.057492">
 <ele>616.77</ele>
 <time>2010-08-26T11:28:22Z</time>
 </trkpt>
 <trkpt lat="47.294106" lon="13.057707">
 <ele>617.38</ele>
 <time>2010-08-26T11:28:31Z</time>
 </trkpt>
 <trkpt lat="47.294178" lon="13.057995">
 <ele>618.79</ele>
 <time>2010-08-26T11:28:42Z</time>
 </trkpt>
 <trkpt lat="47.294224" lon="13.058269">
 <ele>618.70</ele>
 <time>2010-08-26T11:28:50Z</time>
 </trkpt>
 <trkpt lat="47.294258" lon="13.058584">
 <ele>618.20</ele>
 <time>2010-08-26T11:28:56Z</time>
 </trkpt>
 <trkpt lat="47.294312" lon="13.059101">
 <ele>616.52</ele>
 <time>2010-08-26T11:29:03Z</time>
 </trkpt>
 <trkpt lat="47.294338" lon="13.059356">
 <ele>615.57</ele>
 <time>2010-08-26T11:29:06Z</time>
 </trkpt>
 <trkpt lat="47.294338" lon="13.059540">
 <ele>614.84</ele>
 <time>2010-08-26T11:29:08Z</time>
 </trkpt>
 <trkpt lat="47.294403" lon="13.060156">
 <ele>613.02</ele>
 <time>2010-08-26T11:29:14Z</time>
 </trkpt>
 <trkpt lat="47.294556" lon="13.060967">
 <ele>609.12</ele>
 <time>2010-08-26T11:29:21Z</time>
 </trkpt>
 <trkpt lat="47.294746" lon="13.061705">
 <ele>606.28</ele>
 <time>2010-08-26T11:29:27Z</time>
 </trkpt>
 <trkpt lat="47.294853" lon="13.062216">
 <ele>604.88</ele>
 <time>2010-08-26T11:29:31Z</time>
 </trkpt>
 <trkpt lat="47.294884" lon="13.062584">
 <ele>606.35</ele>
 <time>2010-08-26T11:29:35Z</time>
 </trkpt>
 <trkpt lat="47.294888" lon="13.062772">
 <ele>609.88</ele>
 <time>2010-08-26T11:29:39Z</time>
 </trkpt>
 <trkpt lat="47.294903" lon="13.063052">
 <ele>612.85</ele>
 <time>2010-08-26T11:29:48Z</time>
 </trkpt>
 <trkpt lat="47.294876" lon="13.063371">
 <ele>615.49</ele>
 <time>2010-08-26T11:29:59Z</time>
 </trkpt>
 <trkpt lat="47.294830" lon="13.063563">
 <ele>616.91</ele>
 <time>2010-08-26T11:30:06Z</time>
 </trkpt>
 <trkpt lat="47.294777" lon="13.063841">
 <ele>619.32</ele>
 <time>2010-08-26T11:30:16Z</time>
 </trkpt>
 <trkpt lat="47.294743" lon="13.064101">
 <ele>621.02</ele>
 <time>2010-08-26T11:30:25Z</time>
 </trkpt>
 <trkpt lat="47.294758" lon="13.064304">
 <ele>622.07</ele>
 <time>2010-08-26T11:30:32Z</time>
 </trkpt>
 <trkpt lat="47.294762" lon="13.064557">
 <ele>622.23</ele>
 <time>2010-08-26T11:30:39Z</time>
 </trkpt>
 <trkpt lat="47.294823" lon="13.064840">
 <ele>620.30</ele>
 <time>2010-08-26T11:30:43Z</time>
 </trkpt>
 <trkpt lat="47.294922" lon="13.065297">
 <ele>615.33</ele>
 <time>2010-08-26T11:30:47Z</time>
 </trkpt>
 <trkpt lat="47.294914" lon="13.065822">
 <ele>611.36</ele>
 <time>2010-08-26T11:30:51Z</time>
 </trkpt>
 <trkpt lat="47.294884" lon="13.066330">
 <ele>609.28</ele>
 <time>2010-08-26T11:30:55Z</time>
 </trkpt>
 <trkpt lat="47.294922" lon="13.066554">
 <ele>609.22</ele>
 <time>2010-08-26T11:30:57Z</time>
 </trkpt>
 <trkpt lat="47.295033" lon="13.067046">
 <ele>612.17</ele>
 <time>2010-08-26T11:31:03Z</time>
 </trkpt>
 <trkpt lat="47.295105" lon="13.067446">
 <ele>614.64</ele>
 <time>2010-08-26T11:31:10Z</time>
 </trkpt>
 <trkpt lat="47.295113" lon="13.067504">
 <ele>614.72</ele>
 <time>2010-08-26T11:31:11Z</time>
 </trkpt>
 <trkpt lat="47.295128" lon="13.068034">
 <ele>614.27</ele>
 <time>2010-08-26T11:31:19Z</time>
 </trkpt>
 <trkpt lat="47.295128" lon="13.068166">
 <ele>614.34</ele>
 <time>2010-08-26T11:31:21Z</time>
 </trkpt>
 <trkpt lat="47.295155" lon="13.068428">
 <ele>614.84</ele>
 <time>2010-08-26T11:31:25Z</time>
 </trkpt>
 <trkpt lat="47.295212" lon="13.068740">
 <ele>615.19</ele>
 <time>2010-08-26T11:31:30Z</time>
 </trkpt>
 <trkpt lat="47.295238" lon="13.069273">
 <ele>614.15</ele>
 <time>2010-08-26T11:31:37Z</time>
 </trkpt>
 <trkpt lat="47.295357" lon="13.069867">
 <ele>612.86</ele>
 <time>2010-08-26T11:31:44Z</time>
 </trkpt>
 <trkpt lat="47.295410" lon="13.070182">
 <ele>612.81</ele>
 <time>2010-08-26T11:31:48Z</time>
 </trkpt>
 <trkpt lat="47.295414" lon="13.070485">
 <ele>613.00</ele>
 <time>2010-08-26T11:31:52Z</time>
 </trkpt>
 <trkpt lat="47.295399" lon="13.070634">
 <ele>613.08</ele>
 <time>2010-08-26T11:31:54Z</time>
 </trkpt>
 <trkpt lat="47.295261" lon="13.071208">
 <ele>609.47</ele>
 <time>2010-08-26T11:32:00Z</time>
 </trkpt>
 <trkpt lat="47.295250" lon="13.071803">
 <ele>606.28</ele>
 <time>2010-08-26T11:32:05Z</time>
 </trkpt>
 <trkpt lat="47.295364" lon="13.072198">
 <ele>606.61</ele>
 <time>2010-08-26T11:32:09Z</time>
 </trkpt>
 <trkpt lat="47.295479" lon="13.072320">
 <ele>607.02</ele>
 <time>2010-08-26T11:32:11Z</time>
 </trkpt>
 <trkpt lat="47.295593" lon="13.072425">
 <ele>607.09</ele>
 <time>2010-08-26T11:32:13Z</time>
 </trkpt>
 <trkpt lat="47.295788" lon="13.072810">
 <ele>606.66</ele>
 <time>2010-08-26T11:32:18Z</time>
 </trkpt>
 <trkpt lat="47.295811" lon="13.072908">
 <ele>606.52</ele>
 <time>2010-08-26T11:32:19Z</time>
 </trkpt>
 <trkpt lat="47.295898" lon="13.073312">
 <ele>604.86</ele>
 <time>2010-08-26T11:32:23Z</time>
 </trkpt>
 <trkpt lat="47.296040" lon="13.073697">
 <ele>603.64</ele>
 <time>2010-08-26T11:32:27Z</time>
 </trkpt>
 <trkpt lat="47.296192" lon="13.073982">
 <ele>601.73</ele>
 <time>2010-08-26T11:32:30Z</time>
 </trkpt>
 <trkpt lat="47.296368" lon="13.074558">
 <ele>600.02</ele>
 <time>2010-08-26T11:32:35Z</time>
 </trkpt>
 <trkpt lat="47.296574" lon="13.075291">
 <ele>600.00</ele>
 <time>2010-08-26T11:32:42Z</time>
 </trkpt>
 <trkpt lat="47.296768" lon="13.075771">
 <ele>599.65</ele>
 <time>2010-08-26T11:32:47Z</time>
 </trkpt>
 <trkpt lat="47.296814" lon="13.075864">
 <ele>599.43</ele>
 <time>2010-08-26T11:32:48Z</time>
 </trkpt>
 <trkpt lat="47.296913" lon="13.076262">
 <ele>598.69</ele>
 <time>2010-08-26T11:32:52Z</time>
 </trkpt>
 <trkpt lat="47.296959" lon="13.076896">
 <ele>595.56</ele>
 <time>2010-08-26T11:32:57Z</time>
 </trkpt>
 <trkpt lat="47.296989" lon="13.077691">
 <ele>587.84</ele>
 <time>2010-08-26T11:33:02Z</time>
 </trkpt>
 <trkpt lat="47.297138" lon="13.078435">
 <ele>583.02</ele>
 <time>2010-08-26T11:33:07Z</time>
 </trkpt>
 <trkpt lat="47.297356" lon="13.079336">
 <ele>578.68</ele>
 <time>2010-08-26T11:33:13Z</time>
 </trkpt>
 <trkpt lat="47.297367" lon="13.080132">
 <ele>576.60</ele>
 <time>2010-08-26T11:33:19Z</time>
 </trkpt>
 <trkpt lat="47.297337" lon="13.080516">
 <ele>575.01</ele>
 <time>2010-08-26T11:33:22Z</time>
 </trkpt>
 <trkpt lat="47.297333" lon="13.080697">
 <ele>574.11</ele>
 <time>2010-08-26T11:33:24Z</time>
 </trkpt>
 <trkpt lat="47.297180" lon="13.080947">
 <ele>572.37</ele>
 <time>2010-08-26T11:33:28Z</time>
 </trkpt>
 <trkpt lat="47.297028" lon="13.081264">
 <ele>570.35</ele>
 <time>2010-08-26T11:33:32Z</time>
 </trkpt>
 <trkpt lat="47.297005" lon="13.081351">
 <ele>570.28</ele>
 <time>2010-08-26T11:33:33Z</time>
 </trkpt>
 <trkpt lat="47.296963" lon="13.081609">
 <ele>573.32</ele>
 <time>2010-08-26T11:33:38Z</time>
 </trkpt>
 <trkpt lat="47.296955" lon="13.081748">
 <ele>575.34</ele>
 <time>2010-08-26T11:33:43Z</time>
 </trkpt>
 <trkpt lat="47.296959" lon="13.081802">
 <ele>575.99</ele>
 <time>2010-08-26T11:33:45Z</time>
 </trkpt>
 <trkpt lat="47.296940" lon="13.082054">
 <ele>577.67</ele>
 <time>2010-08-26T11:33:54Z</time>
 </trkpt>
 <trkpt lat="47.296932" lon="13.082279">
 <ele>579.66</ele>
 <time>2010-08-26T11:34:02Z</time>
 </trkpt>
 <trkpt lat="47.296925" lon="13.082458">
 <ele>581.09</ele>
 <time>2010-08-26T11:34:08Z</time>
 </trkpt>
 <trkpt lat="47.296940" lon="13.082645">
 <ele>582.51</ele>
 <time>2010-08-26T11:34:15Z</time>
 </trkpt>
 <trkpt lat="47.296982" lon="13.082791">
 <ele>583.82</ele>
 <time>2010-08-26T11:34:21Z</time>
 </trkpt>
 <trkpt lat="47.297020" lon="13.082969">
 <ele>585.80</ele>
 <time>2010-08-26T11:34:28Z</time>
 </trkpt>
 <trkpt lat="47.297043" lon="13.083258">
 <ele>587.46</ele>
 <time>2010-08-26T11:34:39Z</time>
 </trkpt>
 <trkpt lat="47.297047" lon="13.083492">
 <ele>587.67</ele>
 <time>2010-08-26T11:34:46Z</time>
 </trkpt>
 <trkpt lat="47.297031" lon="13.083695">
 <ele>587.67</ele>
 <time>2010-08-26T11:34:52Z</time>
 </trkpt>
 <trkpt lat="47.297039" lon="13.084030">
 <ele>587.48</ele>
 <time>2010-08-26T11:35:00Z</time>
 </trkpt>
 <trkpt lat="47.297070" lon="13.084412">
 <ele>587.71</ele>
 <time>2010-08-26T11:35:08Z</time>
 </trkpt>
 <trkpt lat="47.297066" lon="13.084884">
 <ele>587.15</ele>
 <time>2010-08-26T11:35:17Z</time>
 </trkpt>
 <trkpt lat="47.297012" lon="13.085164">
 <ele>588.21</ele>
 <time>2010-08-26T11:35:23Z</time>
 </trkpt>
 <trkpt lat="47.296894" lon="13.085306">
 <ele>588.33</ele>
 <time>2010-08-26T11:35:27Z</time>
 </trkpt>
 <trkpt lat="47.296890" lon="13.085498">
 <ele>589.20</ele>
 <time>2010-08-26T11:35:31Z</time>
 </trkpt>
 <trkpt lat="47.296947" lon="13.085883">
 <ele>592.16</ele>
 <time>2010-08-26T11:35:41Z</time>
 </trkpt>
 <trkpt lat="47.296951" lon="13.086154">
 <ele>594.36</ele>
 <time>2010-08-26T11:35:49Z</time>
 </trkpt>
 <trkpt lat="47.296898" lon="13.086409">
 <ele>595.31</ele>
 <time>2010-08-26T11:35:57Z</time>
 </trkpt>
 <trkpt lat="47.296871" lon="13.086590">
 <ele>596.46</ele>
 <time>2010-08-26T11:36:03Z</time>
 </trkpt>
 <trkpt lat="47.296848" lon="13.086809">
 <ele>597.62</ele>
 <time>2010-08-26T11:36:10Z</time>
 </trkpt>
 <trkpt lat="47.296837" lon="13.086967">
 <ele>599.30</ele>
 <time>2010-08-26T11:36:16Z</time>
 </trkpt>
 <trkpt lat="47.296852" lon="13.087114">
 <ele>600.33</ele>
 <time>2010-08-26T11:36:21Z</time>
 </trkpt>
 <trkpt lat="47.296902" lon="13.087340">
 <ele>602.02</ele>
 <time>2010-08-26T11:36:29Z</time>
 </trkpt>
 <trkpt lat="47.296951" lon="13.087613">
 <ele>603.60</ele>
 <time>2010-08-26T11:36:38Z</time>
 </trkpt>
 <trkpt lat="47.297001" lon="13.087835">
 <ele>604.50</ele>
 <time>2010-08-26T11:36:45Z</time>
 </trkpt>
 <trkpt lat="47.297047" lon="13.088037">
 <ele>604.41</ele>
 <time>2010-08-26T11:36:50Z</time>
 </trkpt>
 <trkpt lat="47.297131" lon="13.088315">
 <ele>602.88</ele>
 <time>2010-08-26T11:36:54Z</time>
 </trkpt>
 <trkpt lat="47.297161" lon="13.088404">
 <ele>602.20</ele>
 <time>2010-08-26T11:36:55Z</time>
 </trkpt>
 <trkpt lat="47.297325" lon="13.088967">
 <ele>597.36</ele>
 <time>2010-08-26T11:37:00Z</time>
 </trkpt>
 <trkpt lat="47.297424" lon="13.089535">
 <ele>592.99</ele>
 <time>2010-08-26T11:37:04Z</time>
 </trkpt>
 <trkpt lat="47.297516" lon="13.089955">
 <ele>591.13</ele>
 <time>2010-08-26T11:37:07Z</time>
 </trkpt>
 <trkpt lat="47.297649" lon="13.090735">
 <ele>586.34</ele>
 <time>2010-08-26T11:37:12Z</time>
 </trkpt>
 <trkpt lat="47.297787" lon="13.091612">
 <ele>584.47</ele>
 <time>2010-08-26T11:37:18Z</time>
 </trkpt>
 <trkpt lat="47.297787" lon="13.092345">
 <ele>585.32</ele>
 <time>2010-08-26T11:37:24Z</time>
 </trkpt>
 <trkpt lat="47.297775" lon="13.092522">
 <ele>586.45</ele>
 <time>2010-08-26T11:37:26Z</time>
 </trkpt>
 <trkpt lat="47.297726" lon="13.092781">
 <ele>590.19</ele>
 <time>2010-08-26T11:37:31Z</time>
 </trkpt>
 <trkpt lat="47.297665" lon="13.093064">
 <ele>592.47</ele>
 <time>2010-08-26T11:37:39Z</time>
 </trkpt>
 <trkpt lat="47.297626" lon="13.093228">
 <ele>593.70</ele>
 <time>2010-08-26T11:37:44Z</time>
 </trkpt>
 <trkpt lat="47.297642" lon="13.093406">
 <ele>594.66</ele>
 <time>2010-08-26T11:37:49Z</time>
 </trkpt>
 <trkpt lat="47.297695" lon="13.093665">
 <ele>595.64</ele>
 <time>2010-08-26T11:37:56Z</time>
 </trkpt>
 <trkpt lat="47.297729" lon="13.093988">
 <ele>596.36</ele>
 <time>2010-08-26T11:38:04Z</time>
 </trkpt>
 <trkpt lat="47.297756" lon="13.094178">
 <ele>597.10</ele>
 <time>2010-08-26T11:38:09Z</time>
 </trkpt>
 <trkpt lat="47.297783" lon="13.094504">
 <ele>598.11</ele>
 <time>2010-08-26T11:38:18Z</time>
 </trkpt>
 <trkpt lat="47.297840" lon="13.094963">
 <ele>599.66</ele>
 <time>2010-08-26T11:38:30Z</time>
 </trkpt>
 <trkpt lat="47.297901" lon="13.095230">
 <ele>600.35</ele>
 <time>2010-08-26T11:38:37Z</time>
 </trkpt>
 <trkpt lat="47.298016" lon="13.095606">
 <ele>602.27</ele>
 <time>2010-08-26T11:38:48Z</time>
 </trkpt>
 <trkpt lat="47.298145" lon="13.095914">
 <ele>605.23</ele>
 <time>2010-08-26T11:38:58Z</time>
 </trkpt>
 <trkpt lat="47.298214" lon="13.096189">
 <ele>607.12</ele>
 <time>2010-08-26T11:39:06Z</time>
 </trkpt>
 <trkpt lat="47.298252" lon="13.096526">
 <ele>608.00</ele>
 <time>2010-08-26T11:39:15Z</time>
 </trkpt>
 <trkpt lat="47.298309" lon="13.096790">
 <ele>608.75</ele>
 <time>2010-08-26T11:39:22Z</time>
 </trkpt>
 <trkpt lat="47.298328" lon="13.097056">
 <ele>609.61</ele>
 <time>2010-08-26T11:39:29Z</time>
 </trkpt>
 <trkpt lat="47.298306" lon="13.097343">
 <ele>609.96</ele>
 <time>2010-08-26T11:39:36Z</time>
 </trkpt>
 <trkpt lat="47.298248" lon="13.097701">
 <ele>609.72</ele>
 <time>2010-08-26T11:39:43Z</time>
 </trkpt>
 <trkpt lat="47.298203" lon="13.098068">
 <ele>607.86</ele>
 <time>2010-08-26T11:39:48Z</time>
 </trkpt>
 <trkpt lat="47.298203" lon="13.098249">
 <ele>606.65</ele>
 <time>2010-08-26T11:39:50Z</time>
 </trkpt>
 <trkpt lat="47.298130" lon="13.098696">
 <ele>603.71</ele>
 <time>2010-08-26T11:39:55Z</time>
 </trkpt>
 <trkpt lat="47.298214" lon="13.098890">
 <ele>602.78</ele>
 <time>2010-08-26T11:39:58Z</time>
 </trkpt>
 <trkpt lat="47.298393" lon="13.099058">
 <ele>603.00</ele>
 <time>2010-08-26T11:40:02Z</time>
 </trkpt>
 <trkpt lat="47.298573" lon="13.099401">
 <ele>602.18</ele>
 <time>2010-08-26T11:40:07Z</time>
 </trkpt>
 <trkpt lat="47.298626" lon="13.099686">
 <ele>600.83</ele>
 <time>2010-08-26T11:40:10Z</time>
 </trkpt>
 <trkpt lat="47.298676" lon="13.100516">
 <ele>596.17</ele>
 <time>2010-08-26T11:40:17Z</time>
 </trkpt>
 <trkpt lat="47.298683" lon="13.100887">
 <ele>595.22</ele>
 <time>2010-08-26T11:40:20Z</time>
 </trkpt>
 <trkpt lat="47.298756" lon="13.101279">
 <ele>596.81</ele>
 <time>2010-08-26T11:40:24Z</time>
 </trkpt>
 <trkpt lat="47.298763" lon="13.101626">
 <ele>599.03</ele>
 <time>2010-08-26T11:40:29Z</time>
 </trkpt>
 <trkpt lat="47.298698" lon="13.102055">
 <ele>597.18</ele>
 <time>2010-08-26T11:40:34Z</time>
 </trkpt>
 <trkpt lat="47.298756" lon="13.102524">
 <ele>595.85</ele>
 <time>2010-08-26T11:40:39Z</time>
 </trkpt>
 <trkpt lat="47.298859" lon="13.103183">
 <ele>592.79</ele>
 <time>2010-08-26T11:40:45Z</time>
 </trkpt>
 <trkpt lat="47.298904" lon="13.103968">
 <ele>591.17</ele>
 <time>2010-08-26T11:40:52Z</time>
 </trkpt>
 <trkpt lat="47.298939" lon="13.104401">
 <ele>593.02</ele>
 <time>2010-08-26T11:40:57Z</time>
 </trkpt>
 <trkpt lat="47.298965" lon="13.104722">
 <ele>596.73</ele>
 <time>2010-08-26T11:41:03Z</time>
 </trkpt>
 <trkpt lat="47.298962" lon="13.105015">
 <ele>598.19</ele>
 <time>2010-08-26T11:41:09Z</time>
 </trkpt>
 <trkpt lat="47.299011" lon="13.105289">
 <ele>598.53</ele>
 <time>2010-08-26T11:41:14Z</time>
 </trkpt>
 <trkpt lat="47.299034" lon="13.105337">
 <ele>598.74</ele>
 <time>2010-08-26T11:41:15Z</time>
 </trkpt>
 <trkpt lat="47.299156" lon="13.105588">
 <ele>598.77</ele>
 <time>2010-08-26T11:41:20Z</time>
 </trkpt>
 <trkpt lat="47.299213" lon="13.105933">
 <ele>599.15</ele>
 <time>2010-08-26T11:41:26Z</time>
 </trkpt>
 <trkpt lat="47.299320" lon="13.106418">
 <ele>599.69</ele>
 <time>2010-08-26T11:41:34Z</time>
 </trkpt>
 <trkpt lat="47.299477" lon="13.106862">
 <ele>599.44</ele>
 <time>2010-08-26T11:41:41Z</time>
 </trkpt>
 <trkpt lat="47.299728" lon="13.107307">
 <ele>599.34</ele>
 <time>2010-08-26T11:41:49Z</time>
 </trkpt>
 <trkpt lat="47.299759" lon="13.107358">
 <ele>599.36</ele>
 <time>2010-08-26T11:41:50Z</time>
 </trkpt>
 <trkpt lat="47.299786" lon="13.107652">
 <ele>598.71</ele>
 <time>2010-08-26T11:41:54Z</time>
 </trkpt>
 <trkpt lat="47.299816" lon="13.107887">
 <ele>596.69</ele>
 <time>2010-08-26T11:41:57Z</time>
 </trkpt>
 <trkpt lat="47.299911" lon="13.107981">
 <ele>595.79</ele>
 <time>2010-08-26T11:41:59Z</time>
 </trkpt>
 <trkpt lat="47.300274" lon="13.108262">
 <ele>591.14</ele>
 <time>2010-08-26T11:42:05Z</time>
 </trkpt>
 <trkpt lat="47.300350" lon="13.108337">
 <ele>589.96</ele>
 <time>2010-08-26T11:42:07Z</time>
 </trkpt>
 <trkpt lat="47.300323" lon="13.108530">
 <ele>588.37</ele>
 <time>2010-08-26T11:42:11Z</time>
 </trkpt>
 <trkpt lat="47.300274" lon="13.108560">
 <ele>587.56</ele>
 <time>2010-08-26T11:42:12Z</time>
 </trkpt>
 <trkpt lat="47.300140" lon="13.108733">
 <ele>584.54</ele>
 <time>2010-08-26T11:42:16Z</time>
 </trkpt>
 <trkpt lat="47.300217" lon="13.108853">
 <ele>583.82</ele>
 <time>2010-08-26T11:42:18Z</time>
 </trkpt>
 <trkpt lat="47.300587" lon="13.109204">
 <ele>581.36</ele>
 <time>2010-08-26T11:42:24Z</time>
 </trkpt>
 <trkpt lat="47.300991" lon="13.109521">
 <ele>579.15</ele>
 <time>2010-08-26T11:42:30Z</time>
 </trkpt>
 <trkpt lat="47.301189" lon="13.109722">
 <ele>577.28</ele>
 <time>2010-08-26T11:42:33Z</time>
 </trkpt>
 <trkpt lat="47.301331" lon="13.109993">
 <ele>576.57</ele>
 <time>2010-08-26T11:42:37Z</time>
 </trkpt>
 <trkpt lat="47.301502" lon="13.110662">
 <ele>571.45</ele>
 <time>2010-08-26T11:42:43Z</time>
 </trkpt>
 <trkpt lat="47.301777" lon="13.111412">
 <ele>566.78</ele>
 <time>2010-08-26T11:42:49Z</time>
 </trkpt>
 <trkpt lat="47.301983" lon="13.112244">
 <ele>566.33</ele>
 <time>2010-08-26T11:42:56Z</time>
 </trkpt>
 <trkpt lat="47.302113" lon="13.112936">
 <ele>566.10</ele>
 <time>2010-08-26T11:43:02Z</time>
 </trkpt>
 <trkpt lat="47.302311" lon="13.113496">
 <ele>568.23</ele>
 <time>2010-08-26T11:43:09Z</time>
 </trkpt>
 <trkpt lat="47.302525" lon="13.114089">
 <ele>567.63</ele>
 <time>2010-08-26T11:43:16Z</time>
 </trkpt>
 <trkpt lat="47.302662" lon="13.114498">
 <ele>567.81</ele>
 <time>2010-08-26T11:43:21Z</time>
 </trkpt>
 <trkpt lat="47.302711" lon="13.114894">
 <ele>567.83</ele>
 <time>2010-08-26T11:43:26Z</time>
 </trkpt>
 <trkpt lat="47.302715" lon="13.114982">
 <ele>567.60</ele>
 <time>2010-08-26T11:43:27Z</time>
 </trkpt>
 <trkpt lat="47.302853" lon="13.115394">
 <ele>567.37</ele>
 <time>2010-08-26T11:43:32Z</time>
 </trkpt>
 <trkpt lat="47.302994" lon="13.115819">
 <ele>569.01</ele>
 <time>2010-08-26T11:43:38Z</time>
 </trkpt>
 <trkpt lat="47.303101" lon="13.116289">
 <ele>569.43</ele>
 <time>2010-08-26T11:43:45Z</time>
 </trkpt>
 <trkpt lat="47.303146" lon="13.116545">
 <ele>570.00</ele>
 <time>2010-08-26T11:43:49Z</time>
 </trkpt>
 <trkpt lat="47.303165" lon="13.116665">
 <ele>570.58</ele>
 <time>2010-08-26T11:43:51Z</time>
 </trkpt>
 <trkpt lat="47.303215" lon="13.116891">
 <ele>571.39</ele>
 <time>2010-08-26T11:43:55Z</time>
 </trkpt>
 <trkpt lat="47.303288" lon="13.117175">
 <ele>572.36</ele>
 <time>2010-08-26T11:44:01Z</time>
 </trkpt>
 <trkpt lat="47.303329" lon="13.117415">
 <ele>573.07</ele>
 <time>2010-08-26T11:44:06Z</time>
 </trkpt>
 <trkpt lat="47.303364" lon="13.117636">
 <ele>573.45</ele>
 <time>2010-08-26T11:44:10Z</time>
 </trkpt>
 <trkpt lat="47.303379" lon="13.117694">
 <ele>573.53</ele>
 <time>2010-08-26T11:44:11Z</time>
 </trkpt>
 <trkpt lat="47.303478" lon="13.118009">
 <ele>574.85</ele>
 <time>2010-08-26T11:44:17Z</time>
 </trkpt>
 <trkpt lat="47.303467" lon="13.118317">
 <ele>576.23</ele>
 <time>2010-08-26T11:44:23Z</time>
 </trkpt>
 <trkpt lat="47.303528" lon="13.118653">
 <ele>576.55</ele>
 <time>2010-08-26T11:44:30Z</time>
 </trkpt>
 <trkpt lat="47.303600" lon="13.119036">
 <ele>576.32</ele>
 <time>2010-08-26T11:44:37Z</time>
 </trkpt>
 <trkpt lat="47.303638" lon="13.119285">
 <ele>576.20</ele>
 <time>2010-08-26T11:44:41Z</time>
 </trkpt>
 <trkpt lat="47.303665" lon="13.119481">
 <ele>576.24</ele>
 <time>2010-08-26T11:44:44Z</time>
 </trkpt>
 <trkpt lat="47.303692" lon="13.119680">
 <ele>575.92</ele>
 <time>2010-08-26T11:44:47Z</time>
 </trkpt>
 <trkpt lat="47.303715" lon="13.120005">
 <ele>575.85</ele>
 <time>2010-08-26T11:44:52Z</time>
 </trkpt>
 <trkpt lat="47.303722" lon="13.120263">
 <ele>576.26</ele>
 <time>2010-08-26T11:44:56Z</time>
 </trkpt>
 <trkpt lat="47.303741" lon="13.120777">
 <ele>576.61</ele>
 <time>2010-08-26T11:45:04Z</time>
 </trkpt>
 <trkpt lat="47.303745" lon="13.120845">
 <ele>576.61</ele>
 <time>2010-08-26T11:45:05Z</time>
 </trkpt>
 <trkpt lat="47.303818" lon="13.121101">
 <ele>576.45</ele>
 <time>2010-08-26T11:45:09Z</time>
 </trkpt>
 <trkpt lat="47.303947" lon="13.121286">
 <ele>576.71</ele>
 <time>2010-08-26T11:45:13Z</time>
 </trkpt>
 <trkpt lat="47.304054" lon="13.121499">
 <ele>576.66</ele>
 <time>2010-08-26T11:45:17Z</time>
 </trkpt>
 <trkpt lat="47.304188" lon="13.121942">
 <ele>576.82</ele>
 <time>2010-08-26T11:45:24Z</time>
 </trkpt>
 <trkpt lat="47.304207" lon="13.122074">
 <ele>577.08</ele>
 <time>2010-08-26T11:45:26Z</time>
 </trkpt>
 <trkpt lat="47.304230" lon="13.122395">
 <ele>577.95</ele>
 <time>2010-08-26T11:45:32Z</time>
 </trkpt>
 <trkpt lat="47.304234" lon="13.122435">
 <ele>578.36</ele>
 <time>2010-08-26T11:45:33Z</time>
 </trkpt>
 <trkpt lat="47.304230" lon="13.122650">
 <ele>580.24</ele>
 <time>2010-08-26T11:45:39Z</time>
 </trkpt>
 <trkpt lat="47.304211" lon="13.122956">
 <ele>582.45</ele>
 <time>2010-08-26T11:45:48Z</time>
 </trkpt>
 <trkpt lat="47.304211" lon="13.123161">
 <ele>583.43</ele>
 <time>2010-08-26T11:45:54Z</time>
 </trkpt>
 <trkpt lat="47.304253" lon="13.123435">
 <ele>585.82</ele>
 <time>2010-08-26T11:46:02Z</time>
 </trkpt>
 <trkpt lat="47.304310" lon="13.123691">
 <ele>588.90</ele>
 <time>2010-08-26T11:46:10Z</time>
 </trkpt>
 <trkpt lat="47.304401" lon="13.123910">
 <ele>590.50</ele>
 <time>2010-08-26T11:46:18Z</time>
 </trkpt>
 <trkpt lat="47.304489" lon="13.124081">
 <ele>591.60</ele>
 <time>2010-08-26T11:46:25Z</time>
 </trkpt>
 <trkpt lat="47.304607" lon="13.124277">
 <ele>592.94</ele>
 <time>2010-08-26T11:46:34Z</time>
 </trkpt>
 <trkpt lat="47.304745" lon="13.124507">
 <ele>594.09</ele>
 <time>2010-08-26T11:46:44Z</time>
 </trkpt>
 <trkpt lat="47.304852" lon="13.124698">
 <ele>594.34</ele>
 <time>2010-08-26T11:46:52Z</time>
 </trkpt>
 <trkpt lat="47.304958" lon="13.124955">
 <ele>596.58</ele>
 <time>2010-08-26T11:47:02Z</time>
 </trkpt>
 <trkpt lat="47.305008" lon="13.125219">
 <ele>597.98</ele>
 <time>2010-08-26T11:47:11Z</time>
 </trkpt>
 <trkpt lat="47.305035" lon="13.125596">
 <ele>600.60</ele>
 <time>2010-08-26T11:47:23Z</time>
 </trkpt>
 <trkpt lat="47.305096" lon="13.125816">
 <ele>600.59</ele>
 <time>2010-08-26T11:47:29Z</time>
 </trkpt>
 <trkpt lat="47.305237" lon="13.126026">
 <ele>598.16</ele>
 <time>2010-08-26T11:47:33Z</time>
 </trkpt>
 <trkpt lat="47.305359" lon="13.126149">
 <ele>597.22</ele>
 <time>2010-08-26T11:47:35Z</time>
 </trkpt>
 <trkpt lat="47.305569" lon="13.126313">
 <ele>594.31</ele>
 <time>2010-08-26T11:47:38Z</time>
 </trkpt>
 <trkpt lat="47.305813" lon="13.126603">
 <ele>591.48</ele>
 <time>2010-08-26T11:47:42Z</time>
 </trkpt>
 <trkpt lat="47.305962" lon="13.126988">
 <ele>592.04</ele>
 <time>2010-08-26T11:47:47Z</time>
 </trkpt>
 <trkpt lat="47.305965" lon="13.127096">
 <ele>593.18</ele>
 <time>2010-08-26T11:47:49Z</time>
 </trkpt>
 <trkpt lat="47.305935" lon="13.127323">
 <ele>596.58</ele>
 <time>2010-08-26T11:47:58Z</time>
 </trkpt>
 <trkpt lat="47.305889" lon="13.127490">
 <ele>597.39</ele>
 <time>2010-08-26T11:48:05Z</time>
 </trkpt>
 <trkpt lat="47.305893" lon="13.127639">
 <ele>598.83</ele>
 <time>2010-08-26T11:48:11Z</time>
 </trkpt>
 <trkpt lat="47.305969" lon="13.127830">
 <ele>601.25</ele>
 <time>2010-08-26T11:48:20Z</time>
 </trkpt>
 <trkpt lat="47.306046" lon="13.128002">
 <ele>603.57</ele>
 <time>2010-08-26T11:48:28Z</time>
 </trkpt>
 <trkpt lat="47.306179" lon="13.128100">
 <ele>603.71</ele>
 <time>2010-08-26T11:48:34Z</time>
 </trkpt>
 <trkpt lat="47.306416" lon="13.128277">
 <ele>603.57</ele>
 <time>2010-08-26T11:48:42Z</time>
 </trkpt>
 <trkpt lat="47.306667" lon="13.128462">
 <ele>603.49</ele>
 <time>2010-08-26T11:48:50Z</time>
 </trkpt>
 <trkpt lat="47.306820" lon="13.128666">
 <ele>603.48</ele>
 <time>2010-08-26T11:48:56Z</time>
 </trkpt>
 <trkpt lat="47.306896" lon="13.128927">
 <ele>603.19</ele>
 <time>2010-08-26T11:49:01Z</time>
 </trkpt>
 <trkpt lat="47.306957" lon="13.129332">
 <ele>602.95</ele>
 <time>2010-08-26T11:49:08Z</time>
 </trkpt>
 <trkpt lat="47.307022" lon="13.129685">
 <ele>602.79</ele>
 <time>2010-08-26T11:49:14Z</time>
 </trkpt>
 <trkpt lat="47.307056" lon="13.129924">
 <ele>603.16</ele>
 <time>2010-08-26T11:49:18Z</time>
 </trkpt>
 <trkpt lat="47.307186" lon="13.130241">
 <ele>602.70</ele>
 <time>2010-08-26T11:49:24Z</time>
 </trkpt>
 <trkpt lat="47.307240" lon="13.130605">
 <ele>602.88</ele>
 <time>2010-08-26T11:49:30Z</time>
 </trkpt>
 <trkpt lat="47.307232" lon="13.130794">
 <ele>602.81</ele>
 <time>2010-08-26T11:49:33Z</time>
 </trkpt>
 <trkpt lat="47.307323" lon="13.131223">
 <ele>603.11</ele>
 <time>2010-08-26T11:49:40Z</time>
 </trkpt>
 <trkpt lat="47.307453" lon="13.131718">
 <ele>603.00</ele>
 <time>2010-08-26T11:49:48Z</time>
 </trkpt>
 <trkpt lat="47.307545" lon="13.132411">
 <ele>602.89</ele>
 <time>2010-08-26T11:49:58Z</time>
 </trkpt>
 <trkpt lat="47.307625" lon="13.133176">
 <ele>602.85</ele>
 <time>2010-08-26T11:50:09Z</time>
 </trkpt>
 <trkpt lat="47.307629" lon="13.133894">
 <ele>602.29</ele>
 <time>2010-08-26T11:50:19Z</time>
 </trkpt>
 <trkpt lat="47.307610" lon="13.134106">
 <ele>602.50</ele>
 <time>2010-08-26T11:50:22Z</time>
 </trkpt>
 <trkpt lat="47.307507" lon="13.134400">
 <ele>602.69</ele>
 <time>2010-08-26T11:50:27Z</time>
 </trkpt>
 <trkpt lat="47.307327" lon="13.134666">
 <ele>602.54</ele>
 <time>2010-08-26T11:50:33Z</time>
 </trkpt>
 <trkpt lat="47.307289" lon="13.134890">
 <ele>602.50</ele>
 <time>2010-08-26T11:50:37Z</time>
 </trkpt>
 <trkpt lat="47.307381" lon="13.135088">
 <ele>601.52</ele>
 <time>2010-08-26T11:50:40Z</time>
 </trkpt>
 <trkpt lat="47.307461" lon="13.135193">
 <ele>599.73</ele>
 <time>2010-08-26T11:50:42Z</time>
 </trkpt>
 <trkpt lat="47.307690" lon="13.135449">
 <ele>596.31</ele>
 <time>2010-08-26T11:50:47Z</time>
 </trkpt>
 <trkpt lat="47.308002" lon="13.135801">
 <ele>592.74</ele>
 <time>2010-08-26T11:50:52Z</time>
 </trkpt>
 <trkpt lat="47.308426" lon="13.136218">
 <ele>592.79</ele>
 <time>2010-08-26T11:50:59Z</time>
 </trkpt>
 <trkpt lat="47.308655" lon="13.136296">
 <ele>592.57</ele>
 <time>2010-08-26T11:51:03Z</time>
 </trkpt>
 <trkpt lat="47.308804" lon="13.136182">
 <ele>592.66</ele>
 <time>2010-08-26T11:51:06Z</time>
 </trkpt>
 <trkpt lat="47.308880" lon="13.135968">
 <ele>592.36</ele>
 <time>2010-08-26T11:51:09Z</time>
 </trkpt>
 <trkpt lat="47.308937" lon="13.135648">
 <ele>591.63</ele>
 <time>2010-08-26T11:51:13Z</time>
 </trkpt>
 <trkpt lat="47.309128" lon="13.135214">
 <ele>591.30</ele>
 <time>2010-08-26T11:51:19Z</time>
 </trkpt>
 <trkpt lat="47.309376" lon="13.134852">
 <ele>591.57</ele>
 <time>2010-08-26T11:51:25Z</time>
 </trkpt>
 <trkpt lat="47.309406" lon="13.134791">
 <ele>591.64</ele>
 <time>2010-08-26T11:51:26Z</time>
 </trkpt>
 <trkpt lat="47.309574" lon="13.134264">
 <ele>591.30</ele>
 <time>2010-08-26T11:51:34Z</time>
 </trkpt>
 <trkpt lat="47.309723" lon="13.133730">
 <ele>590.82</ele>
 <time>2010-08-26T11:51:42Z</time>
 </trkpt>
 <trkpt lat="47.309902" lon="13.133103">
 <ele>590.62</ele>
 <time>2010-08-26T11:51:51Z</time>
 </trkpt>
 <trkpt lat="47.309937" lon="13.132964">
 <ele>590.28</ele>
 <time>2010-08-26T11:51:53Z</time>
 </trkpt>
 <trkpt lat="47.310074" lon="13.132773">
 <ele>589.34</ele>
 <time>2010-08-26T11:51:57Z</time>
 </trkpt>
 <trkpt lat="47.310219" lon="13.132831">
 <ele>589.06</ele>
 <time>2010-08-26T11:52:00Z</time>
 </trkpt>
 <trkpt lat="47.310322" lon="13.133026">
 <ele>588.68</ele>
 <time>2010-08-26T11:52:03Z</time>
 </trkpt>
 <trkpt lat="47.310368" lon="13.133174">
 <ele>588.42</ele>
 <time>2010-08-26T11:52:05Z</time>
 </trkpt>
 <trkpt lat="47.310425" lon="13.133318">
 <ele>588.09</ele>
 <time>2010-08-26T11:52:07Z</time>
 </trkpt>
 <trkpt lat="47.310692" lon="13.133725">
 <ele>587.32</ele>
 <time>2010-08-26T11:52:14Z</time>
 </trkpt>
 <trkpt lat="47.310860" lon="13.133937">
 <ele>587.03</ele>
 <time>2010-08-26T11:52:18Z</time>
 </trkpt>
 <trkpt lat="47.310966" lon="13.134202">
 <ele>586.95</ele>
 <time>2010-08-26T11:52:22Z</time>
 </trkpt>
 <trkpt lat="47.311008" lon="13.134497">
 <ele>587.05</ele>
 <time>2010-08-26T11:52:26Z</time>
 </trkpt>
 <trkpt lat="47.311081" lon="13.135175">
 <ele>586.06</ele>
 <time>2010-08-26T11:52:35Z</time>
 </trkpt>
 <trkpt lat="47.311241" lon="13.135603">
 <ele>585.45</ele>
 <time>2010-08-26T11:52:42Z</time>
 </trkpt>
 <trkpt lat="47.311302" lon="13.135679">
 <ele>586.20</ele>
 <time>2010-08-26T11:52:46Z</time>
 </trkpt>
 <trkpt lat="47.311302" lon="13.135682">
 <ele>586.57</ele>
 <time>2010-08-26T11:52:48Z</time>
 </trkpt>
 <trkpt lat="47.311291" lon="13.135874">
 <ele>584.75</ele>
 <time>2010-08-26T11:54:10Z</time>
 </trkpt>
 <trkpt lat="47.311390" lon="13.136274">
 <ele>581.01</ele>
 <time>2010-08-26T11:54:15Z</time>
 </trkpt>
 <trkpt lat="47.311420" lon="13.136369">
 <ele>581.01</ele>
 <time>2010-08-26T11:54:16Z</time>
 </trkpt>
 <trkpt lat="47.311642" lon="13.136874">
 <ele>575.68</ele>
 <time>2010-08-26T11:54:22Z</time>
 </trkpt>
 <trkpt lat="47.311787" lon="13.137181">
 <ele>572.20</ele>
 <time>2010-08-26T11:54:26Z</time>
 </trkpt>
 <trkpt lat="47.311897" lon="13.137390">
 <ele>571.32</ele>
 <time>2010-08-26T11:54:30Z</time>
 </trkpt>
 <trkpt lat="47.311932" lon="13.137478">
 <ele>571.08</ele>
 <time>2010-08-26T11:54:32Z</time>
 </trkpt>
 <trkpt lat="47.312008" lon="13.137854">
 <ele>568.32</ele>
 <time>2010-08-26T11:54:37Z</time>
 </trkpt>
 <trkpt lat="47.312080" lon="13.138225">
 <ele>566.11</ele>
 <time>2010-08-26T11:54:41Z</time>
 </trkpt>
 <trkpt lat="47.312134" lon="13.138724">
 <ele>562.55</ele>
 <time>2010-08-26T11:54:46Z</time>
 </trkpt>
 <trkpt lat="47.312126" lon="13.139287">
 <ele>560.33</ele>
 <time>2010-08-26T11:54:52Z</time>
 </trkpt>
 <trkpt lat="47.312168" lon="13.139572">
 <ele>559.52</ele>
 <time>2010-08-26T11:54:55Z</time>
 </trkpt>
 <trkpt lat="47.312119" lon="13.140001">
 <ele>558.25</ele>
 <time>2010-08-26T11:54:59Z</time>
 </trkpt>
 <trkpt lat="47.312092" lon="13.140115">
 <ele>557.55</ele>
 <time>2010-08-26T11:55:00Z</time>
 </trkpt>
 <trkpt lat="47.312122" lon="13.140531">
 <ele>555.79</ele>
 <time>2010-08-26T11:55:04Z</time>
 </trkpt>
 <trkpt lat="47.312225" lon="13.140660">
 <ele>555.88</ele>
 <time>2010-08-26T11:55:06Z</time>
 </trkpt>
 <trkpt lat="47.312546" lon="13.141128">
 <ele>555.61</ele>
 <time>2010-08-26T11:55:13Z</time>
 </trkpt>
 <trkpt lat="47.312695" lon="13.141338">
 <ele>554.65</ele>
 <time>2010-08-26T11:55:16Z</time>
 </trkpt>
 <trkpt lat="47.312893" lon="13.141474">
 <ele>553.39</ele>
 <time>2010-08-26T11:55:19Z</time>
 </trkpt>
 <trkpt lat="47.313087" lon="13.141715">
 <ele>551.95</ele>
 <time>2010-08-26T11:55:23Z</time>
 </trkpt>
 <trkpt lat="47.313099" lon="13.141898">
 <ele>551.60</ele>
 <time>2010-08-26T11:55:25Z</time>
 </trkpt>
 <trkpt lat="47.313080" lon="13.142522">
 <ele>550.07</ele>
 <time>2010-08-26T11:55:31Z</time>
 </trkpt>
 <trkpt lat="47.313179" lon="13.142957">
 <ele>547.55</ele>
 <time>2010-08-26T11:55:35Z</time>
 </trkpt>
 <trkpt lat="47.313274" lon="13.143134">
 <ele>546.97</ele>
 <time>2010-08-26T11:55:37Z</time>
 </trkpt>
 <trkpt lat="47.313507" lon="13.143639">
 <ele>546.80</ele>
 <time>2010-08-26T11:55:43Z</time>
 </trkpt>
 <trkpt lat="47.313721" lon="13.144395">
 <ele>543.78</ele>
 <time>2010-08-26T11:55:51Z</time>
 </trkpt>
 <trkpt lat="47.313908" lon="13.145239">
 <ele>539.52</ele>
 <time>2010-08-26T11:55:59Z</time>
 </trkpt>
 <trkpt lat="47.314056" lon="13.145814">
 <ele>536.76</ele>
 <time>2010-08-26T11:56:05Z</time>
 </trkpt>
 <trkpt lat="47.314198" lon="13.146239">
 <ele>533.39</ele>
 <time>2010-08-26T11:56:10Z</time>
 </trkpt>
 <trkpt lat="47.314377" lon="13.146494">
 <ele>530.27</ele>
 <time>2010-08-26T11:56:14Z</time>
 </trkpt>
 <trkpt lat="47.314487" lon="13.146577">
 <ele>528.42</ele>
 <time>2010-08-26T11:56:16Z</time>
 </trkpt>
 <trkpt lat="47.314697" lon="13.146919">
 <ele>523.73</ele>
 <time>2010-08-26T11:56:21Z</time>
 </trkpt>
 <trkpt lat="47.314724" lon="13.147018">
 <ele>523.72</ele>
 <time>2010-08-26T11:56:22Z</time>
 </trkpt>
 <trkpt lat="47.314877" lon="13.147721">
 <ele>516.46</ele>
 <time>2010-08-26T11:56:29Z</time>
 </trkpt>
 <trkpt lat="47.315041" lon="13.147996">
 <ele>513.76</ele>
 <time>2010-08-26T11:56:33Z</time>
 </trkpt>
 <trkpt lat="47.315163" lon="13.148065">
 <ele>512.37</ele>
 <time>2010-08-26T11:56:35Z</time>
 </trkpt>
 <trkpt lat="47.315536" lon="13.148248">
 <ele>507.70</ele>
 <time>2010-08-26T11:56:40Z</time>
 </trkpt>
 <trkpt lat="47.315983" lon="13.148437">
 <ele>502.61</ele>
 <time>2010-08-26T11:56:46Z</time>
 </trkpt>
 <trkpt lat="47.316048" lon="13.148469">
 <ele>502.61</ele>
 <time>2010-08-26T11:56:47Z</time>
 </trkpt>
 <trkpt lat="47.316433" lon="13.148676">
 <ele>497.12</ele>
 <time>2010-08-26T11:56:53Z</time>
 </trkpt>
 <trkpt lat="47.316547" lon="13.148744">
 <ele>495.37</ele>
 <time>2010-08-26T11:56:55Z</time>
 </trkpt>
 <trkpt lat="47.316681" lon="13.148981">
 <ele>492.03</ele>
 <time>2010-08-26T11:56:59Z</time>
 </trkpt>
 <trkpt lat="47.316730" lon="13.149294">
 <ele>488.68</ele>
 <time>2010-08-26T11:57:03Z</time>
 </trkpt>
 <trkpt lat="47.316856" lon="13.149414">
 <ele>486.70</ele>
 <time>2010-08-26T11:57:06Z</time>
 </trkpt>
 <trkpt lat="47.317074" lon="13.149378">
 <ele>483.45</ele>
 <time>2010-08-26T11:57:10Z</time>
 </trkpt>
 <trkpt lat="47.317192" lon="13.149317">
 <ele>482.45</ele>
 <time>2010-08-26T11:57:12Z</time>
 </trkpt>
 <trkpt lat="47.317532" lon="13.149168">
 <ele>477.70</ele>
 <time>2010-08-26T11:57:18Z</time>
 </trkpt>
 <trkpt lat="47.317677" lon="13.149109">
 <ele>475.80</ele>
 <time>2010-08-26T11:57:21Z</time>
 </trkpt>
 <trkpt lat="47.317902" lon="13.149177">
 <ele>472.02</ele>
 <time>2010-08-26T11:57:26Z</time>
 </trkpt>
 <trkpt lat="47.317959" lon="13.149320">
 <ele>469.86</ele>
 <time>2010-08-26T11:57:28Z</time>
 </trkpt>
 <trkpt lat="47.318039" lon="13.149682">
 <ele>466.02</ele>
 <time>2010-08-26T11:57:32Z</time>
 </trkpt>
 <trkpt lat="47.318169" lon="13.149919">
 <ele>466.64</ele>
 <time>2010-08-26T11:57:36Z</time>
 </trkpt>
 <trkpt lat="47.318272" lon="13.149914">
 <ele>466.64</ele>
 <time>2010-08-26T11:57:38Z</time>
 </trkpt>
 <trkpt lat="47.318562" lon="13.149772">
 <ele>468.17</ele>
 <time>2010-08-26T11:57:45Z</time>
 </trkpt>
 <trkpt lat="47.318810" lon="13.149661">
 <ele>466.83</ele>
 <time>2010-08-26T11:57:50Z</time>
 </trkpt>
 <trkpt lat="47.319023" lon="13.149745">
 <ele>464.34</ele>
 <time>2010-08-26T11:57:54Z</time>
 </trkpt>
 <trkpt lat="47.319080" lon="13.149921">
 <ele>462.47</ele>
 <time>2010-08-26T11:57:56Z</time>
 </trkpt>
 <trkpt lat="47.319214" lon="13.150473">
 <ele>458.64</ele>
 <time>2010-08-26T11:58:01Z</time>
 </trkpt>
 <trkpt lat="47.319286" lon="13.150789">
 <ele>458.53</ele>
 <time>2010-08-26T11:58:04Z</time>
 </trkpt>
 <trkpt lat="47.319313" lon="13.151545">
 <ele>458.84</ele>
 <time>2010-08-26T11:58:12Z</time>
 </trkpt>
 <trkpt lat="47.319313" lon="13.151628">
 <ele>458.95</ele>
 <time>2010-08-26T11:58:13Z</time>
 </trkpt>
 <trkpt lat="47.319405" lon="13.151878">
 <ele>459.16</ele>
 <time>2010-08-26T11:58:17Z</time>
 </trkpt>
 <trkpt lat="47.319534" lon="13.151913">
 <ele>460.00</ele>
 <time>2010-08-26T11:58:20Z</time>
 </trkpt>
 <trkpt lat="47.319954" lon="13.151890">
 <ele>460.54</ele>
 <time>2010-08-26T11:58:30Z</time>
 </trkpt>
 <trkpt lat="47.320026" lon="13.152074">
 <ele>460.80</ele>
 <time>2010-08-26T11:58:34Z</time>
 </trkpt>
 <trkpt lat="47.320107" lon="13.152691">
 <ele>459.91</ele>
 <time>2010-08-26T11:58:43Z</time>
 </trkpt>
 <trkpt lat="47.320148" lon="13.153139">
 <ele>460.08</ele>
 <time>2010-08-26T11:58:49Z</time>
 </trkpt>
 <trkpt lat="47.320160" lon="13.153306">
 <ele>460.01</ele>
 <time>2010-08-26T11:58:52Z</time>
 </trkpt>
 <trkpt lat="47.320042" lon="13.153361">
 <ele>459.76</ele>
 <time>2010-08-26T11:58:56Z</time>
 </trkpt>
 <trkpt lat="47.319923" lon="13.153462">
 <ele>458.61</ele>
 <time>2010-08-26T11:58:59Z</time>
 </trkpt>
 <trkpt lat="47.319904" lon="13.153530">
 <ele>458.34</ele>
 <time>2010-08-26T11:59:00Z</time>
 </trkpt>
 <trkpt lat="47.319893" lon="13.153679">
 <ele>457.83</ele>
 <time>2010-08-26T11:59:02Z</time>
 </trkpt>
 <trkpt lat="47.319908" lon="13.154352">
 <ele>456.62</ele>
 <time>2010-08-26T11:59:10Z</time>
 </trkpt>
 <trkpt lat="47.319927" lon="13.155080">
 <ele>455.11</ele>
 <time>2010-08-26T11:59:18Z</time>
 </trkpt>
 <trkpt lat="47.319958" lon="13.155929">
 <ele>454.32</ele>
 <time>2010-08-26T11:59:27Z</time>
 </trkpt>
 <trkpt lat="47.319984" lon="13.156653">
 <ele>454.04</ele>
 <time>2010-08-26T11:59:35Z</time>
 </trkpt>
 <trkpt lat="47.319965" lon="13.157258">
 <ele>454.13</ele>
 <time>2010-08-26T11:59:42Z</time>
 </trkpt>
 <trkpt lat="47.319923" lon="13.157777">
 <ele>453.94</ele>
 <time>2010-08-26T11:59:48Z</time>
 </trkpt>
 <trkpt lat="47.319878" lon="13.158449">
 <ele>454.38</ele>
 <time>2010-08-26T11:59:56Z</time>
 </trkpt>
 <trkpt lat="47.319839" lon="13.159121">
 <ele>454.11</ele>
 <time>2010-08-26T12:00:04Z</time>
 </trkpt>
 <trkpt lat="47.319828" lon="13.159521">
 <ele>453.95</ele>
 <time>2010-08-26T12:00:09Z</time>
 </trkpt>
 <trkpt lat="47.319908" lon="13.160066">
 <ele>453.65</ele>
 <time>2010-08-26T12:00:16Z</time>
 </trkpt>
 <trkpt lat="47.320103" lon="13.160738">
 <ele>453.36</ele>
 <time>2010-08-26T12:00:25Z</time>
 </trkpt>
 <trkpt lat="47.320164" lon="13.160883">
 <ele>453.02</ele>
 <time>2010-08-26T12:00:27Z</time>
 </trkpt>
 <trkpt lat="47.320366" lon="13.161185">
 <ele>452.85</ele>
 <time>2010-08-26T12:00:32Z</time>
 </trkpt>
 <trkpt lat="47.320728" lon="13.161442">
 <ele>452.51</ele>
 <time>2010-08-26T12:00:39Z</time>
 </trkpt>
 <trkpt lat="47.320885" lon="13.161559">
 <ele>452.01</ele>
 <time>2010-08-26T12:00:42Z</time>
 </trkpt>
 <trkpt lat="47.321114" lon="13.161647">
 <ele>451.72</ele>
 <time>2010-08-26T12:00:46Z</time>
 </trkpt>
 <trkpt lat="47.321705" lon="13.161793">
 <ele>452.33</ele>
 <time>2010-08-26T12:00:57Z</time>
 </trkpt>
 <trkpt lat="47.321754" lon="13.161823">
 <ele>452.32</ele>
 <time>2010-08-26T12:00:58Z</time>
 </trkpt>
 <trkpt lat="47.321854" lon="13.161901">
 <ele>452.28</ele>
 <time>2010-08-26T12:01:00Z</time>
 </trkpt>
 <trkpt lat="47.322060" lon="13.161993">
 <ele>452.31</ele>
 <time>2010-08-26T12:01:04Z</time>
 </trkpt>
 <trkpt lat="47.322323" lon="13.162019">
 <ele>452.51</ele>
 <time>2010-08-26T12:01:09Z</time>
 </trkpt>
 <trkpt lat="47.322807" lon="13.162152">
 <ele>451.70</ele>
 <time>2010-08-26T12:01:18Z</time>
 </trkpt>
 <trkpt lat="47.323151" lon="13.162156">
 <ele>451.41</ele>
 <time>2010-08-26T12:01:24Z</time>
 </trkpt>
 <trkpt lat="47.323360" lon="13.162247">
 <ele>451.61</ele>
 <time>2010-08-26T12:01:28Z</time>
 </trkpt>
 <trkpt lat="47.323635" lon="13.162533">
 <ele>451.36</ele>
 <time>2010-08-26T12:01:34Z</time>
 </trkpt>
 <trkpt lat="47.323761" lon="13.162803">
 <ele>451.48</ele>
 <time>2010-08-26T12:01:38Z</time>
 </trkpt>
 <trkpt lat="47.323860" lon="13.163353">
 <ele>451.18</ele>
 <time>2010-08-26T12:01:45Z</time>
 </trkpt>
 <trkpt lat="47.323898" lon="13.163933">
 <ele>450.57</ele>
 <time>2010-08-26T12:01:52Z</time>
 </trkpt>
 <trkpt lat="47.323845" lon="13.164397">
 <ele>451.43</ele>
 <time>2010-08-26T12:01:58Z</time>
 </trkpt>
 <trkpt lat="47.323753" lon="13.164791">
 <ele>452.29</ele>
 <time>2010-08-26T12:02:04Z</time>
 </trkpt>
 <trkpt lat="47.323765" lon="13.165126">
 <ele>453.63</ele>
 <time>2010-08-26T12:02:10Z</time>
 </trkpt>
 <trkpt lat="47.323803" lon="13.165437">
 <ele>453.27</ele>
 <time>2010-08-26T12:02:15Z</time>
 </trkpt>
 <trkpt lat="47.323833" lon="13.165915">
 <ele>451.84</ele>
 <time>2010-08-26T12:02:22Z</time>
 </trkpt>
 <trkpt lat="47.323814" lon="13.166105">
 <ele>451.26</ele>
 <time>2010-08-26T12:02:26Z</time>
 </trkpt>
 <trkpt lat="47.323658" lon="13.166161">
 <ele>451.04</ele>
 <time>2010-08-26T12:02:30Z</time>
 </trkpt>
 <trkpt lat="47.323620" lon="13.166081">
 <ele>451.08</ele>
 <time>2010-08-26T12:02:32Z</time>
 </trkpt>
 <trkpt lat="47.323505" lon="13.165782">
 <ele>452.10</ele>
 <time>2010-08-26T12:02:39Z</time>
 </trkpt>
 <trkpt lat="47.323483" lon="13.165758">
 <ele>452.10</ele>
 <time>2010-08-26T12:02:40Z</time>
 </trkpt>
 <trkpt lat="47.323387" lon="13.165834">
 <ele>452.71</ele>
 <time>2010-08-26T12:02:44Z</time>
 </trkpt>
 <trkpt lat="47.323280" lon="13.166280">
 <ele>451.57</ele>
 <time>2010-08-26T12:02:51Z</time>
 </trkpt>
 <trkpt lat="47.323132" lon="13.166931">
 <ele>451.67</ele>
 <time>2010-08-26T12:03:00Z</time>
 </trkpt>
 <trkpt lat="47.322971" lon="13.167603">
 <ele>451.40</ele>
 <time>2010-08-26T12:03:09Z</time>
 </trkpt>
 <trkpt lat="47.322811" lon="13.168124">
 <ele>451.24</ele>
 <time>2010-08-26T12:03:16Z</time>
 </trkpt>
 <trkpt lat="47.322594" lon="13.168677">
 <ele>451.21</ele>
 <time>2010-08-26T12:03:24Z</time>
 </trkpt>
 <trkpt lat="47.322533" lon="13.168982">
 <ele>451.14</ele>
 <time>2010-08-26T12:03:28Z</time>
 </trkpt>
 <trkpt lat="47.322384" lon="13.169390">
 <ele>451.36</ele>
 <time>2010-08-26T12:03:34Z</time>
 </trkpt>
 <trkpt lat="47.322285" lon="13.169578">
 <ele>451.29</ele>
 <time>2010-08-26T12:03:37Z</time>
 </trkpt>
 <trkpt lat="47.322208" lon="13.169874">
 <ele>450.88</ele>
 <time>2010-08-26T12:03:41Z</time>
 </trkpt>
 <trkpt lat="47.322205" lon="13.170480">
 <ele>451.35</ele>
 <time>2010-08-26T12:03:49Z</time>
 </trkpt>
 <trkpt lat="47.322208" lon="13.171050">
 <ele>450.96</ele>
 <time>2010-08-26T12:03:56Z</time>
 </trkpt>
 <trkpt lat="47.322147" lon="13.171777">
 <ele>450.92</ele>
 <time>2010-08-26T12:04:05Z</time>
 </trkpt>
 <trkpt lat="47.322163" lon="13.172255">
 <ele>451.07</ele>
 <time>2010-08-26T12:04:11Z</time>
 </trkpt>
 <trkpt lat="47.322163" lon="13.172982">
 <ele>451.02</ele>
 <time>2010-08-26T12:04:20Z</time>
 </trkpt>
 <trkpt lat="47.322174" lon="13.173624">
 <ele>451.14</ele>
 <time>2010-08-26T12:04:28Z</time>
 </trkpt>
 <trkpt lat="47.322182" lon="13.173931">
 <ele>451.21</ele>
 <time>2010-08-26T12:04:32Z</time>
 </trkpt>
 <trkpt lat="47.322124" lon="13.174246">
 <ele>451.91</ele>
 <time>2010-08-26T12:04:37Z</time>
 </trkpt>
 <trkpt lat="47.322090" lon="13.174366">
 <ele>452.16</ele>
 <time>2010-08-26T12:04:39Z</time>
 </trkpt>
 <trkpt lat="47.322067" lon="13.174498">
 <ele>452.12</ele>
 <time>2010-08-26T12:04:41Z</time>
 </trkpt>
 <trkpt lat="47.322048" lon="13.174636">
 <ele>452.14</ele>
 <time>2010-08-26T12:04:43Z</time>
 </trkpt>
 <trkpt lat="47.322052" lon="13.174777">
 <ele>451.86</ele>
 <time>2010-08-26T12:04:45Z</time>
 </trkpt>
 <trkpt lat="47.321953" lon="13.175151">
 <ele>450.69</ele>
 <time>2010-08-26T12:04:50Z</time>
 </trkpt>
 <trkpt lat="47.321785" lon="13.175364">
 <ele>448.51</ele>
 <time>2010-08-26T12:04:54Z</time>
 </trkpt>
 <trkpt lat="47.321651" lon="13.175530">
 <ele>447.33</ele>
 <time>2010-08-26T12:04:57Z</time>
 </trkpt>
 <trkpt lat="47.321629" lon="13.175617">
 <ele>446.87</ele>
 <time>2010-08-26T12:04:58Z</time>
 </trkpt>
 <trkpt lat="47.321438" lon="13.176728">
 <ele>445.17</ele>
 <time>2010-08-26T12:05:10Z</time>
 </trkpt>
 <trkpt lat="47.321320" lon="13.177332">
 <ele>443.71</ele>
 <time>2010-08-26T12:05:16Z</time>
 </trkpt>
 <trkpt lat="47.321163" lon="13.177981">
 <ele>443.38</ele>
 <time>2010-08-26T12:05:23Z</time>
 </trkpt>
 <trkpt lat="47.321102" lon="13.178591">
 <ele>443.63</ele>
 <time>2010-08-26T12:05:30Z</time>
 </trkpt>
 <trkpt lat="47.321106" lon="13.178765">
 <ele>443.41</ele>
 <time>2010-08-26T12:05:32Z</time>
 </trkpt>
 <trkpt lat="47.321144" lon="13.179182">
 <ele>443.51</ele>
 <time>2010-08-26T12:05:37Z</time>
 </trkpt>
 <trkpt lat="47.321239" lon="13.179513">
 <ele>444.10</ele>
 <time>2010-08-26T12:05:42Z</time>
 </trkpt>
 <trkpt lat="47.321384" lon="13.179853">
 <ele>446.62</ele>
 <time>2010-08-26T12:05:49Z</time>
 </trkpt>
 <trkpt lat="47.321461" lon="13.180035">
 <ele>447.75</ele>
 <time>2010-08-26T12:05:53Z</time>
 </trkpt>
 <trkpt lat="47.321575" lon="13.180267">
 <ele>448.27</ele>
 <time>2010-08-26T12:05:58Z</time>
 </trkpt>
 <trkpt lat="47.321777" lon="13.180588">
 <ele>448.44</ele>
 <time>2010-08-26T12:06:05Z</time>
 </trkpt>
 <trkpt lat="47.321991" lon="13.180941">
 <ele>448.36</ele>
 <time>2010-08-26T12:06:12Z</time>
 </trkpt>
 <trkpt lat="47.322254" lon="13.181265">
 <ele>448.68</ele>
 <time>2010-08-26T12:06:20Z</time>
 </trkpt>
 <trkpt lat="47.322441" lon="13.181476">
 <ele>449.30</ele>
 <time>2010-08-26T12:06:26Z</time>
 </trkpt>
 <trkpt lat="47.322590" lon="13.181599">
 <ele>449.53</ele>
 <time>2010-08-26T12:06:30Z</time>
 </trkpt>
 <trkpt lat="47.323002" lon="13.181889">
 <ele>448.68</ele>
 <time>2010-08-26T12:06:39Z</time>
 </trkpt>
 <trkpt lat="47.323326" lon="13.182030">
 <ele>449.39</ele>
 <time>2010-08-26T12:06:46Z</time>
 </trkpt>
 <trkpt lat="47.323601" lon="13.182042">
 <ele>448.48</ele>
 <time>2010-08-26T12:06:51Z</time>
 </trkpt>
 <trkpt lat="47.323975" lon="13.182097">
 <ele>445.83</ele>
 <time>2010-08-26T12:06:56Z</time>
 </trkpt>
 <trkpt lat="47.324463" lon="13.182164">
 <ele>442.48</ele>
 <time>2010-08-26T12:07:02Z</time>
 </trkpt>
 <trkpt lat="47.324848" lon="13.182215">
 <ele>441.68</ele>
 <time>2010-08-26T12:07:07Z</time>
 </trkpt>
 <trkpt lat="47.325249" lon="13.182204">
 <ele>442.05</ele>
 <time>2010-08-26T12:07:13Z</time>
 </trkpt>
 <trkpt lat="47.325623" lon="13.182099">
 <ele>442.23</ele>
 <time>2010-08-26T12:07:19Z</time>
 </trkpt>
 <trkpt lat="47.325935" lon="13.182009">
 <ele>442.17</ele>
 <time>2010-08-26T12:07:24Z</time>
 </trkpt>
 <trkpt lat="47.326405" lon="13.181888">
 <ele>441.71</ele>
 <time>2010-08-26T12:07:31Z</time>
 </trkpt>
 <trkpt lat="47.326988" lon="13.181712">
 <ele>441.66</ele>
 <time>2010-08-26T12:07:40Z</time>
 </trkpt>
 <trkpt lat="47.327335" lon="13.181650">
 <ele>441.96</ele>
 <time>2010-08-26T12:07:46Z</time>
 </trkpt>
 <trkpt lat="47.327644" lon="13.181716">
 <ele>442.89</ele>
 <time>2010-08-26T12:07:52Z</time>
 </trkpt>
 <trkpt lat="47.327892" lon="13.181880">
 <ele>442.55</ele>
 <time>2010-08-26T12:07:57Z</time>
 </trkpt>
 <trkpt lat="47.328079" lon="13.182202">
 <ele>442.24</ele>
 <time>2010-08-26T12:08:02Z</time>
 </trkpt>
 <trkpt lat="47.328213" lon="13.182848">
 <ele>442.53</ele>
 <time>2010-08-26T12:08:10Z</time>
 </trkpt>
 <trkpt lat="47.328331" lon="13.183559">
 <ele>442.87</ele>
 <time>2010-08-26T12:08:19Z</time>
 </trkpt>
 <trkpt lat="47.328518" lon="13.184161">
 <ele>442.55</ele>
 <time>2010-08-26T12:08:27Z</time>
 </trkpt>
 <trkpt lat="47.328705" lon="13.184851">
 <ele>442.33</ele>
 <time>2010-08-26T12:08:36Z</time>
 </trkpt>
 <trkpt lat="47.328720" lon="13.184933">
 <ele>442.21</ele>
 <time>2010-08-26T12:08:37Z</time>
 </trkpt>
 <trkpt lat="47.328716" lon="13.185348">
 <ele>442.02</ele>
 <time>2010-08-26T12:08:42Z</time>
 </trkpt>
 <trkpt lat="47.328590" lon="13.185964">
 <ele>442.04</ele>
 <time>2010-08-26T12:08:50Z</time>
 </trkpt>
 <trkpt lat="47.328533" lon="13.186192">
 <ele>441.92</ele>
 <time>2010-08-26T12:08:53Z</time>
 </trkpt>
 <trkpt lat="47.328472" lon="13.186842">
 <ele>441.49</ele>
 <time>2010-08-26T12:09:01Z</time>
 </trkpt>
 <trkpt lat="47.328457" lon="13.187248">
 <ele>440.89</ele>
 <time>2010-08-26T12:09:06Z</time>
 </trkpt>
 <trkpt lat="47.328503" lon="13.187533">
 <ele>440.42</ele>
 <time>2010-08-26T12:09:10Z</time>
 </trkpt>
 <trkpt lat="47.328667" lon="13.187815">
 <ele>440.46</ele>
 <time>2010-08-26T12:09:15Z</time>
 </trkpt>
 <trkpt lat="47.328953" lon="13.188072">
 <ele>440.35</ele>
 <time>2010-08-26T12:09:21Z</time>
 </trkpt>
 <trkpt lat="47.329281" lon="13.188250">
 <ele>440.02</ele>
 <time>2010-08-26T12:09:27Z</time>
 </trkpt>
 <trkpt lat="47.329544" lon="13.188445">
 <ele>440.19</ele>
 <time>2010-08-26T12:09:32Z</time>
 </trkpt>
 <trkpt lat="47.329994" lon="13.188638">
 <ele>440.04</ele>
 <time>2010-08-26T12:09:39Z</time>
 </trkpt>
 <trkpt lat="47.330379" lon="13.188742">
 <ele>441.18</ele>
 <time>2010-08-26T12:09:46Z</time>
 </trkpt>
 <trkpt lat="47.330971" lon="13.188811">
 <ele>440.77</ele>
 <time>2010-08-26T12:09:57Z</time>
 </trkpt>
 <trkpt lat="47.331402" lon="13.188871">
 <ele>440.57</ele>
 <time>2010-08-26T12:10:05Z</time>
 </trkpt>
 <trkpt lat="47.331768" lon="13.188919">
 <ele>441.00</ele>
 <time>2010-08-26T12:10:12Z</time>
 </trkpt>
 <trkpt lat="47.332207" lon="13.188955">
 <ele>440.87</ele>
 <time>2010-08-26T12:10:20Z</time>
 </trkpt>
 <trkpt lat="47.332600" lon="13.189040">
 <ele>440.20</ele>
 <time>2010-08-26T12:10:27Z</time>
 </trkpt>
 <trkpt lat="47.332920" lon="13.189232">
 <ele>439.62</ele>
 <time>2010-08-26T12:10:33Z</time>
 </trkpt>
 <trkpt lat="47.333076" lon="13.189352">
 <ele>439.50</ele>
 <time>2010-08-26T12:10:36Z</time>
 </trkpt>
 <trkpt lat="47.333420" lon="13.189643">
 <ele>439.18</ele>
 <time>2010-08-26T12:10:43Z</time>
 </trkpt>
 <trkpt lat="47.333572" lon="13.189764">
 <ele>439.40</ele>
 <time>2010-08-26T12:10:46Z</time>
 </trkpt>
 <trkpt lat="47.333759" lon="13.189986">
 <ele>439.56</ele>
 <time>2010-08-26T12:10:50Z</time>
 </trkpt>
 <trkpt lat="47.333965" lon="13.190444">
 <ele>440.04</ele>
 <time>2010-08-26T12:10:57Z</time>
 </trkpt>
 <trkpt lat="47.334038" lon="13.190626">
 <ele>441.05</ele>
 <time>2010-08-26T12:11:01Z</time>
 </trkpt>
 <trkpt lat="47.333969" lon="13.190757">
 <ele>441.62</ele>
 <time>2010-08-26T12:11:05Z</time>
 </trkpt>
 <trkpt lat="47.333931" lon="13.190780">
 <ele>441.53</ele>
 <time>2010-08-26T12:11:06Z</time>
 </trkpt>
 <trkpt lat="47.333542" lon="13.191011">
 <ele>441.04</ele>
 <time>2010-08-26T12:11:16Z</time>
 </trkpt>
 <trkpt lat="47.333431" lon="13.191068">
 <ele>441.19</ele>
 <time>2010-08-26T12:11:19Z</time>
 </trkpt>
 <trkpt lat="47.333416" lon="13.191246">
 <ele>441.13</ele>
 <time>2010-08-26T12:11:23Z</time>
 </trkpt>
 <trkpt lat="47.333530" lon="13.191641">
 <ele>439.73</ele>
 <time>2010-08-26T12:11:29Z</time>
 </trkpt>
 <trkpt lat="47.333649" lon="13.192369">
 <ele>438.45</ele>
 <time>2010-08-26T12:11:38Z</time>
 </trkpt>
 <trkpt lat="47.333733" lon="13.193168">
 <ele>438.50</ele>
 <time>2010-08-26T12:11:48Z</time>
 </trkpt>
 <trkpt lat="47.333740" lon="13.193786">
 <ele>438.96</ele>
 <time>2010-08-26T12:11:56Z</time>
 </trkpt>
 <trkpt lat="47.333847" lon="13.194302">
 <ele>439.29</ele>
 <time>2010-08-26T12:12:03Z</time>
 </trkpt>
 <trkpt lat="47.334038" lon="13.194965">
 <ele>438.74</ele>
 <time>2010-08-26T12:12:12Z</time>
 </trkpt>
 <trkpt lat="47.334282" lon="13.195601">
 <ele>438.79</ele>
 <time>2010-08-26T12:12:21Z</time>
 </trkpt>
 <trkpt lat="47.334541" lon="13.196115">
 <ele>438.48</ele>
 <time>2010-08-26T12:12:29Z</time>
 </trkpt>
 <trkpt lat="47.334747" lon="13.196382">
 <ele>438.57</ele>
 <time>2010-08-26T12:12:34Z</time>
 </trkpt>
 <trkpt lat="47.335030" lon="13.196862">
 <ele>439.05</ele>
 <time>2010-08-26T12:12:42Z</time>
 </trkpt>
 <trkpt lat="47.335430" lon="13.197351">
 <ele>439.10</ele>
 <time>2010-08-26T12:12:51Z</time>
 </trkpt>
 <trkpt lat="47.335857" lon="13.197826">
 <ele>438.95</ele>
 <time>2010-08-26T12:13:00Z</time>
 </trkpt>
 <trkpt lat="47.336182" lon="13.198141">
 <ele>438.78</ele>
 <time>2010-08-26T12:13:07Z</time>
 </trkpt>
 <trkpt lat="47.336502" lon="13.198460">
 <ele>438.89</ele>
 <time>2010-08-26T12:13:14Z</time>
 </trkpt>
 <trkpt lat="47.336800" lon="13.198690">
 <ele>438.65</ele>
 <time>2010-08-26T12:13:20Z</time>
 </trkpt>
 <trkpt lat="47.337215" lon="13.198788">
 <ele>439.12</ele>
 <time>2010-08-26T12:13:28Z</time>
 </trkpt>
 <trkpt lat="47.337482" lon="13.198832">
 <ele>438.89</ele>
 <time>2010-08-26T12:13:33Z</time>
 </trkpt>
 <trkpt lat="47.337795" lon="13.198887">
 <ele>439.12</ele>
 <time>2010-08-26T12:13:39Z</time>
 </trkpt>
 <trkpt lat="47.337872" lon="13.198897">
 <ele>439.47</ele>
 <time>2010-08-26T12:13:41Z</time>
 </trkpt>
 <trkpt lat="47.337982" lon="13.198732">
 <ele>439.80</ele>
 <time>2010-08-26T12:13:45Z</time>
 </trkpt>
 <trkpt lat="47.338181" lon="13.198500">
 <ele>438.83</ele>
 <time>2010-08-26T12:13:50Z</time>
 </trkpt>
 <trkpt lat="47.338596" lon="13.198336">
 <ele>438.65</ele>
 <time>2010-08-26T12:13:59Z</time>
 </trkpt>
 <trkpt lat="47.338707" lon="13.198275">
 <ele>438.59</ele>
 <time>2010-08-26T12:14:01Z</time>
 </trkpt>
 <trkpt lat="47.338898" lon="13.198099">
 <ele>437.81</ele>
 <time>2010-08-26T12:14:05Z</time>
 </trkpt>
 <trkpt lat="47.339119" lon="13.197736">
 <ele>435.74</ele>
 <time>2010-08-26T12:14:10Z</time>
 </trkpt>
 <trkpt lat="47.339165" lon="13.197461">
 <ele>434.37</ele>
 <time>2010-08-26T12:14:13Z</time>
 </trkpt>
 <trkpt lat="47.339195" lon="13.197202">
 <ele>433.35</ele>
 <time>2010-08-26T12:14:17Z</time>
 </trkpt>
 <trkpt lat="47.339256" lon="13.197160">
 <ele>433.22</ele>
 <time>2010-08-26T12:14:19Z</time>
 </trkpt>
 <trkpt lat="47.339432" lon="13.197003">
 <ele>432.92</ele>
 <time>2010-08-26T12:14:24Z</time>
 </trkpt>
 <trkpt lat="47.339622" lon="13.196480">
 <ele>432.49</ele>
 <time>2010-08-26T12:14:32Z</time>
 </trkpt>
 <trkpt lat="47.339706" lon="13.195953">
 <ele>432.55</ele>
 <time>2010-08-26T12:14:39Z</time>
 </trkpt>
 <trkpt lat="47.339764" lon="13.195160">
 <ele>432.26</ele>
 <time>2010-08-26T12:14:49Z</time>
 </trkpt>
 <trkpt lat="47.339783" lon="13.194855">
 <ele>432.38</ele>
 <time>2010-08-26T12:14:53Z</time>
 </trkpt>
 <trkpt lat="47.339893" lon="13.194343">
 <ele>432.43</ele>
 <time>2010-08-26T12:15:00Z</time>
 </trkpt>
 <trkpt lat="47.340050" lon="13.194053">
 <ele>431.42</ele>
 <time>2010-08-26T12:15:05Z</time>
 </trkpt>
 <trkpt lat="47.340225" lon="13.194032">
 <ele>432.20</ele>
 <time>2010-08-26T12:15:09Z</time>
 </trkpt>
 <trkpt lat="47.340355" lon="13.193975">
 <ele>432.43</ele>
 <time>2010-08-26T12:15:12Z</time>
 </trkpt>
 <trkpt lat="47.340630" lon="13.193836">
 <ele>432.28</ele>
 <time>2010-08-26T12:15:18Z</time>
 </trkpt>
 <trkpt lat="47.340984" lon="13.193892">
 <ele>432.13</ele>
 <time>2010-08-26T12:15:25Z</time>
 </trkpt>
 <trkpt lat="47.341423" lon="13.194117">
 <ele>432.09</ele>
 <time>2010-08-26T12:15:34Z</time>
 </trkpt>
 <trkpt lat="47.341850" lon="13.194439">
 <ele>432.06</ele>
 <time>2010-08-26T12:15:43Z</time>
 </trkpt>
 <trkpt lat="47.342323" lon="13.194809">
 <ele>432.17</ele>
 <time>2010-08-26T12:15:53Z</time>
 </trkpt>
 <trkpt lat="47.342609" lon="13.195036">
 <ele>432.21</ele>
 <time>2010-08-26T12:15:59Z</time>
 </trkpt>
 <trkpt lat="47.343052" lon="13.195326">
 <ele>431.88</ele>
 <time>2010-08-26T12:16:08Z</time>
 </trkpt>
 <trkpt lat="47.343384" lon="13.195583">
 <ele>431.62</ele>
 <time>2010-08-26T12:16:15Z</time>
 </trkpt>
 <trkpt lat="47.343647" lon="13.195767">
 <ele>430.48</ele>
 <time>2010-08-26T12:16:20Z</time>
 </trkpt>
 <trkpt lat="47.344013" lon="13.195958">
 <ele>430.41</ele>
 <time>2010-08-26T12:16:27Z</time>
 </trkpt>
 <trkpt lat="47.344345" lon="13.196091">
 <ele>430.55</ele>
 <time>2010-08-26T12:16:33Z</time>
 </trkpt>
 <trkpt lat="47.344841" lon="13.196191">
 <ele>430.10</ele>
 <time>2010-08-26T12:16:42Z</time>
 </trkpt>
 <trkpt lat="47.344936" lon="13.196197">
 <ele>430.66</ele>
 <time>2010-08-26T12:16:44Z</time>
 </trkpt>
 <trkpt lat="47.345100" lon="13.196157">
 <ele>432.63</ele>
 <time>2010-08-26T12:16:49Z</time>
 </trkpt>
 <trkpt lat="47.345261" lon="13.196072">
 <ele>432.40</ele>
 <time>2010-08-26T12:16:54Z</time>
 </trkpt>
 <trkpt lat="47.345341" lon="13.195967">
 <ele>431.84</ele>
 <time>2010-08-26T12:16:57Z</time>
 </trkpt>
 <trkpt lat="47.345684" lon="13.195806">
 <ele>429.91</ele>
 <time>2010-08-26T12:17:05Z</time>
 </trkpt>
 <trkpt lat="47.346073" lon="13.195710">
 <ele>429.62</ele>
 <time>2010-08-26T12:17:13Z</time>
 </trkpt>
 <trkpt lat="47.346249" lon="13.195704">
 <ele>429.44</ele>
 <time>2010-08-26T12:17:17Z</time>
 </trkpt>
 <trkpt lat="47.346416" lon="13.195684">
 <ele>428.28</ele>
 <time>2010-08-26T12:17:21Z</time>
 </trkpt>
 <trkpt lat="47.346619" lon="13.195687">
 <ele>426.59</ele>
 <time>2010-08-26T12:17:24Z</time>
 </trkpt>
 <trkpt lat="47.346848" lon="13.195757">
 <ele>429.13</ele>
 <time>2010-08-26T12:17:30Z</time>
 </trkpt>
 <trkpt lat="47.347050" lon="13.195870">
 <ele>429.53</ele>
 <time>2010-08-26T12:17:36Z</time>
 </trkpt>
 <trkpt lat="47.347202" lon="13.196052">
 <ele>429.99</ele>
 <time>2010-08-26T12:17:41Z</time>
 </trkpt>
 <trkpt lat="47.347305" lon="13.196159">
 <ele>430.76</ele>
 <time>2010-08-26T12:17:45Z</time>
 </trkpt>
 <trkpt lat="47.347492" lon="13.196227">
 <ele>430.06</ele>
 <time>2010-08-26T12:17:50Z</time>
 </trkpt>
 <trkpt lat="47.347683" lon="13.196277">
 <ele>429.78</ele>
 <time>2010-08-26T12:17:54Z</time>
 </trkpt>
 <trkpt lat="47.347969" lon="13.196341">
 <ele>430.06</ele>
 <time>2010-08-26T12:18:00Z</time>
 </trkpt>
 <trkpt lat="47.348392" lon="13.196447">
 <ele>430.65</ele>
 <time>2010-08-26T12:18:09Z</time>
 </trkpt>
 <trkpt lat="47.348633" lon="13.196534">
 <ele>430.74</ele>
 <time>2010-08-26T12:18:15Z</time>
 </trkpt>
 <trkpt lat="47.348854" lon="13.196626">
 <ele>430.75</ele>
 <time>2010-08-26T12:18:20Z</time>
 </trkpt>
 <trkpt lat="47.349144" lon="13.196796">
 <ele>430.12</ele>
 <time>2010-08-26T12:18:26Z</time>
 </trkpt>
 <trkpt lat="47.349518" lon="13.197009">
 <ele>429.20</ele>
 <time>2010-08-26T12:18:33Z</time>
 </trkpt>
 <trkpt lat="47.349873" lon="13.197230">
 <ele>428.74</ele>
 <time>2010-08-26T12:18:40Z</time>
 </trkpt>
 <trkpt lat="47.350185" lon="13.197433">
 <ele>428.57</ele>
 <time>2010-08-26T12:18:46Z</time>
 </trkpt>
 <trkpt lat="47.350662" lon="13.197877">
 <ele>427.91</ele>
 <time>2010-08-26T12:18:56Z</time>
 </trkpt>
 <trkpt lat="47.350914" lon="13.198298">
 <ele>428.08</ele>
 <time>2010-08-26T12:19:03Z</time>
 </trkpt>
 <trkpt lat="47.351189" lon="13.198798">
 <ele>427.61</ele>
 <time>2010-08-26T12:19:11Z</time>
 </trkpt>
 <trkpt lat="47.351486" lon="13.199171">
 <ele>427.14</ele>
 <time>2010-08-26T12:19:18Z</time>
 </trkpt>
 <trkpt lat="47.351688" lon="13.199424">
 <ele>427.55</ele>
 <time>2010-08-26T12:19:23Z</time>
 </trkpt>
 <trkpt lat="47.351959" lon="13.199813">
 <ele>428.65</ele>
 <time>2010-08-26T12:19:31Z</time>
 </trkpt>
 <trkpt lat="47.352028" lon="13.199914">
 <ele>428.53</ele>
 <time>2010-08-26T12:19:33Z</time>
 </trkpt>
 <trkpt lat="47.352322" lon="13.200302">
 <ele>428.30</ele>
 <time>2010-08-26T12:19:41Z</time>
 </trkpt>
 <trkpt lat="47.352657" lon="13.200733">
 <ele>428.28</ele>
 <time>2010-08-26T12:19:50Z</time>
 </trkpt>
 <trkpt lat="47.353092" lon="13.201155">
 <ele>428.26</ele>
 <time>2010-08-26T12:20:00Z</time>
 </trkpt>
 <trkpt lat="47.353535" lon="13.201542">
 <ele>427.81</ele>
 <time>2010-08-26T12:20:10Z</time>
 </trkpt>
 <trkpt lat="47.353889" lon="13.201834">
 <ele>427.86</ele>
 <time>2010-08-26T12:20:19Z</time>
 </trkpt>
 <trkpt lat="47.354118" lon="13.202008">
 <ele>427.82</ele>
 <time>2010-08-26T12:20:25Z</time>
 </trkpt>
 <trkpt lat="47.354351" lon="13.202135">
 <ele>427.73</ele>
 <time>2010-08-26T12:20:30Z</time>
 </trkpt>
 <trkpt lat="47.354683" lon="13.202287">
 <ele>427.93</ele>
 <time>2010-08-26T12:20:36Z</time>
 </trkpt>
 <trkpt lat="47.355053" lon="13.202422">
 <ele>427.50</ele>
 <time>2010-08-26T12:20:43Z</time>
 </trkpt>
 <trkpt lat="47.355392" lon="13.202531">
 <ele>427.37</ele>
 <time>2010-08-26T12:20:50Z</time>
 </trkpt>
 <trkpt lat="47.355698" lon="13.202628">
 <ele>429.11</ele>
 <time>2010-08-26T12:20:58Z</time>
 </trkpt>
 <trkpt lat="47.355770" lon="13.202647">
 <ele>430.10</ele>
 <time>2010-08-26T12:21:02Z</time>
 </trkpt>
 <trkpt lat="47.355831" lon="13.202665">
 <ele>430.22</ele>
 <time>2010-08-26T12:21:05Z</time>
 </trkpt>
 <trkpt lat="47.355915" lon="13.202585">
 <ele>430.05</ele>
 <time>2010-08-26T12:21:09Z</time>
 </trkpt>
 <trkpt lat="47.356022" lon="13.202169">
 <ele>429.78</ele>
 <time>2010-08-26T12:21:17Z</time>
 </trkpt>
 <trkpt lat="47.356117" lon="13.201797">
 <ele>428.87</ele>
 <time>2010-08-26T12:21:23Z</time>
 </trkpt>
 <trkpt lat="47.356152" lon="13.201726">
 <ele>428.34</ele>
 <time>2010-08-26T12:21:25Z</time>
 </trkpt>
 <trkpt lat="47.356285" lon="13.201754">
 <ele>427.81</ele>
 <time>2010-08-26T12:21:29Z</time>
 </trkpt>
 <trkpt lat="47.356647" lon="13.201955">
 <ele>426.01</ele>
 <time>2010-08-26T12:21:37Z</time>
 </trkpt>
 <trkpt lat="47.357052" lon="13.202207">
 <ele>426.26</ele>
 <time>2010-08-26T12:21:46Z</time>
 </trkpt>
 <trkpt lat="47.357304" lon="13.202362">
 <ele>427.35</ele>
 <time>2010-08-26T12:21:53Z</time>
 </trkpt>
 <trkpt lat="47.357658" lon="13.202479">
 <ele>426.90</ele>
 <time>2010-08-26T12:22:01Z</time>
 </trkpt>
 <trkpt lat="47.357777" lon="13.202580">
 <ele>427.02</ele>
 <time>2010-08-26T12:22:05Z</time>
 </trkpt>
 <trkpt lat="47.357834" lon="13.202655">
 <ele>427.78</ele>
 <time>2010-08-26T12:22:09Z</time>
 </trkpt>
 <trkpt lat="47.357841" lon="13.202655">
 <ele>427.88</ele>
 <time>2010-08-26T12:22:10Z</time>
 </trkpt>
 <trkpt lat="47.357864" lon="13.202632">
 <ele>427.57</ele>
 <time>2010-08-26T12:22:15Z</time>
 </trkpt>
 <trkpt lat="47.357800" lon="13.202601">
 <ele>427.15</ele>
 <time>2010-08-26T12:22:20Z</time>
 </trkpt>
 <trkpt lat="47.357784" lon="13.202533">
 <ele>426.86</ele>
 <time>2010-08-26T12:22:23Z</time>
 </trkpt>
 <trkpt lat="47.357861" lon="13.202508">
 <ele>426.85</ele>
 <time>2010-08-26T12:22:26Z</time>
 </trkpt>
 <trkpt lat="47.358086" lon="13.202525">
 <ele>426.83</ele>
 <time>2010-08-26T12:22:32Z</time>
 </trkpt>
 <trkpt lat="47.358463" lon="13.202678">
 <ele>426.79</ele>
 <time>2010-08-26T12:22:41Z</time>
 </trkpt>
 <trkpt lat="47.358860" lon="13.202866">
 <ele>426.88</ele>
 <time>2010-08-26T12:22:50Z</time>
 </trkpt>
 <trkpt lat="47.359257" lon="13.203048">
 <ele>426.46</ele>
 <time>2010-08-26T12:22:58Z</time>
 </trkpt>
 <trkpt lat="47.359795" lon="13.203300">
 <ele>425.51</ele>
 <time>2010-08-26T12:23:08Z</time>
 </trkpt>
 <trkpt lat="47.360325" lon="13.203554">
 <ele>424.92</ele>
 <time>2010-08-26T12:23:18Z</time>
 </trkpt>
 <trkpt lat="47.360870" lon="13.203817">
 <ele>424.98</ele>
 <time>2010-08-26T12:23:28Z</time>
 </trkpt>
 <trkpt lat="47.361374" lon="13.204053">
 <ele>424.82</ele>
 <time>2010-08-26T12:23:37Z</time>
 </trkpt>
 <trkpt lat="47.361992" lon="13.204350">
 <ele>424.29</ele>
 <time>2010-08-26T12:23:48Z</time>
 </trkpt>
 <trkpt lat="47.362606" lon="13.204641">
 <ele>423.93</ele>
 <time>2010-08-26T12:23:59Z</time>
 </trkpt>
 <trkpt lat="47.363216" lon="13.204933">
 <ele>423.31</ele>
 <time>2010-08-26T12:24:10Z</time>
 </trkpt>
 <trkpt lat="47.363777" lon="13.205195">
 <ele>423.57</ele>
 <time>2010-08-26T12:24:20Z</time>
 </trkpt>
 <trkpt lat="47.364292" lon="13.205437">
 <ele>423.56</ele>
 <time>2010-08-26T12:24:29Z</time>
 </trkpt>
 <trkpt lat="47.364685" lon="13.205626">
 <ele>423.32</ele>
 <time>2010-08-26T12:24:36Z</time>
 </trkpt>
 <trkpt lat="47.364910" lon="13.205884">
 <ele>423.24</ele>
 <time>2010-08-26T12:24:41Z</time>
 </trkpt>
 <trkpt lat="47.365166" lon="13.206048">
 <ele>423.16</ele>
 <time>2010-08-26T12:24:46Z</time>
 </trkpt>
 <trkpt lat="47.365280" lon="13.206047">
 <ele>423.09</ele>
 <time>2010-08-26T12:24:48Z</time>
 </trkpt>
 <trkpt lat="47.365398" lon="13.206024">
 <ele>422.85</ele>
 <time>2010-08-26T12:24:50Z</time>
 </trkpt>
 <trkpt lat="47.365685" lon="13.206100">
 <ele>422.83</ele>
 <time>2010-08-26T12:24:55Z</time>
 </trkpt>
 <trkpt lat="47.366249" lon="13.206370">
 <ele>422.21</ele>
 <time>2010-08-26T12:25:05Z</time>
 </trkpt>
 <trkpt lat="47.366932" lon="13.206677">
 <ele>422.41</ele>
 <time>2010-08-26T12:25:17Z</time>
 </trkpt>
 <trkpt lat="47.367451" lon="13.206895">
 <ele>421.88</ele>
 <time>2010-08-26T12:25:26Z</time>
 </trkpt>
 <trkpt lat="47.367504" lon="13.206928">
 <ele>421.77</ele>
 <time>2010-08-26T12:25:27Z</time>
 </trkpt>
 <trkpt lat="47.367790" lon="13.206941">
 <ele>421.52</ele>
 <time>2010-08-26T12:25:32Z</time>
 </trkpt>
 <trkpt lat="47.368084" lon="13.206967">
 <ele>421.68</ele>
 <time>2010-08-26T12:25:37Z</time>
 </trkpt>
 <trkpt lat="47.368565" lon="13.207054">
 <ele>421.02</ele>
 <time>2010-08-26T12:25:45Z</time>
 </trkpt>
 <trkpt lat="47.369038" lon="13.207150">
 <ele>420.89</ele>
 <time>2010-08-26T12:25:53Z</time>
 </trkpt>
 <trkpt lat="47.369625" lon="13.207334">
 <ele>420.69</ele>
 <time>2010-08-26T12:26:03Z</time>
 </trkpt>
 <trkpt lat="47.369854" lon="13.207406">
 <ele>420.80</ele>
 <time>2010-08-26T12:26:07Z</time>
 </trkpt>
 <trkpt lat="47.370274" lon="13.207395">
 <ele>420.62</ele>
 <time>2010-08-26T12:26:14Z</time>
 </trkpt>
 <trkpt lat="47.370808" lon="13.207499">
 <ele>419.99</ele>
 <time>2010-08-26T12:26:23Z</time>
 </trkpt>
 <trkpt lat="47.371292" lon="13.207576">
 <ele>420.54</ele>
 <time>2010-08-26T12:26:31Z</time>
 </trkpt>
 <trkpt lat="47.371784" lon="13.207672">
 <ele>420.55</ele>
 <time>2010-08-26T12:26:39Z</time>
 </trkpt>
 <trkpt lat="47.372387" lon="13.207792">
 <ele>420.21</ele>
 <time>2010-08-26T12:26:49Z</time>
 </trkpt>
 <trkpt lat="47.373047" lon="13.207917">
 <ele>419.64</ele>
 <time>2010-08-26T12:27:00Z</time>
 </trkpt>
 <trkpt lat="47.373558" lon="13.208021">
 <ele>419.77</ele>
 <time>2010-08-26T12:27:09Z</time>
 </trkpt>
 <trkpt lat="47.373859" lon="13.208077">
 <ele>420.12</ele>
 <time>2010-08-26T12:27:15Z</time>
 </trkpt>
 <trkpt lat="47.374195" lon="13.208114">
 <ele>420.22</ele>
 <time>2010-08-26T12:27:22Z</time>
 </trkpt>
 <trkpt lat="47.374359" lon="13.208162">
 <ele>420.33</ele>
 <time>2010-08-26T12:27:27Z</time>
 </trkpt>
 <trkpt lat="47.374374" lon="13.208180">
 <ele>420.36</ele>
 <time>2010-08-26T12:27:28Z</time>
 </trkpt>
 <trkpt lat="47.374390" lon="13.208223">
 <ele>420.16</ele>
 <time>2010-08-26T12:27:32Z</time>
 </trkpt>
 <trkpt lat="47.374374" lon="13.208308">
 <ele>419.69</ele>
 <time>2010-08-26T12:27:38Z</time>
 </trkpt>
 <trkpt lat="47.374371" lon="13.208367">
 <ele>419.62</ele>
 <time>2010-08-26T12:27:40Z</time>
 </trkpt>
 <trkpt lat="47.374367" lon="13.208404">
 <ele>419.49</ele>
 <time>2010-08-26T12:27:41Z</time>
 </trkpt>
 <trkpt lat="47.374249" lon="13.208554">
 <ele>419.27</ele>
 <time>2010-08-26T12:27:47Z</time>
 </trkpt>
 <trkpt lat="47.374130" lon="13.208710">
 <ele>419.75</ele>
 <time>2010-08-26T12:27:53Z</time>
 </trkpt>
 <trkpt lat="47.374142" lon="13.208823">
 <ele>419.88</ele>
 <time>2010-08-26T12:27:57Z</time>
 </trkpt>
 <trkpt lat="47.374249" lon="13.208914">
 <ele>421.05</ele>
 <time>2010-08-26T12:28:02Z</time>
 </trkpt>
 <trkpt lat="47.374352" lon="13.208898">
 <ele>423.29</ele>
 <time>2010-08-26T12:28:07Z</time>
 </trkpt>
 <trkpt lat="47.374474" lon="13.208898">
 <ele>424.89</ele>
 <time>2010-08-26T12:28:13Z</time>
 </trkpt>
 <trkpt lat="47.374565" lon="13.208993">
 <ele>425.96</ele>
 <time>2010-08-26T12:28:18Z</time>
 </trkpt>
 <trkpt lat="47.374722" lon="13.209263">
 <ele>426.39</ele>
 <time>2010-08-26T12:28:27Z</time>
 </trkpt>
 <trkpt lat="47.374744" lon="13.209460">
 <ele>426.50</ele>
 <time>2010-08-26T12:28:32Z</time>
 </trkpt>
 <trkpt lat="47.374729" lon="13.209792">
 <ele>426.48</ele>
 <time>2010-08-26T12:28:39Z</time>
 </trkpt>
 <trkpt lat="47.374718" lon="13.210113">
 <ele>426.42</ele>
 <time>2010-08-26T12:28:46Z</time>
 </trkpt>
 <trkpt lat="47.374714" lon="13.210156">
 <ele>426.32</ele>
 <time>2010-08-26T12:28:47Z</time>
 </trkpt>
 <trkpt lat="47.374580" lon="13.210317">
 <ele>425.91</ele>
 <time>2010-08-26T12:28:53Z</time>
 </trkpt>
 <trkpt lat="47.374474" lon="13.210471">
 <ele>425.61</ele>
 <time>2010-08-26T12:28:57Z</time>
 </trkpt>
 <trkpt lat="47.374512" lon="13.210642">
 <ele>425.38</ele>
 <time>2010-08-26T12:29:00Z</time>
 </trkpt>
 <trkpt lat="47.374599" lon="13.210717">
 <ele>424.43</ele>
 <time>2010-08-26T12:29:02Z</time>
 </trkpt>
 <trkpt lat="47.374981" lon="13.210824">
 <ele>420.53</ele>
 <time>2010-08-26T12:29:08Z</time>
 </trkpt>
 <trkpt lat="47.375057" lon="13.210808">
 <ele>420.01</ele>
 <time>2010-08-26T12:29:09Z</time>
 </trkpt>
 <trkpt lat="47.375294" lon="13.210736">
 <ele>418.73</ele>
 <time>2010-08-26T12:29:12Z</time>
 </trkpt>
 <trkpt lat="47.375668" lon="13.210771">
 <ele>418.06</ele>
 <time>2010-08-26T12:29:17Z</time>
 </trkpt>
 <trkpt lat="47.375736" lon="13.210809">
 <ele>418.07</ele>
 <time>2010-08-26T12:29:18Z</time>
 </trkpt>
 <trkpt lat="47.375866" lon="13.210891">
 <ele>418.02</ele>
 <time>2010-08-26T12:29:20Z</time>
 </trkpt>
 <trkpt lat="47.376053" lon="13.211170">
 <ele>417.60</ele>
 <time>2010-08-26T12:29:24Z</time>
 </trkpt>
 <trkpt lat="47.376091" lon="13.211531">
 <ele>417.62</ele>
 <time>2010-08-26T12:29:28Z</time>
 </trkpt>
 <trkpt lat="47.376057" lon="13.211697">
 <ele>417.69</ele>
 <time>2010-08-26T12:29:30Z</time>
 </trkpt>
 <trkpt lat="47.375759" lon="13.212444">
 <ele>417.93</ele>
 <time>2010-08-26T12:29:40Z</time>
 </trkpt>
 <trkpt lat="47.375587" lon="13.212906">
 <ele>419.10</ele>
 <time>2010-08-26T12:29:47Z</time>
 </trkpt>
 <trkpt lat="47.375469" lon="13.213192">
 <ele>420.39</ele>
 <time>2010-08-26T12:29:53Z</time>
 </trkpt>
 <trkpt lat="47.375427" lon="13.213301">
 <ele>420.74</ele>
 <time>2010-08-26T12:29:58Z</time>
 </trkpt>
 <trkpt lat="47.375423" lon="13.213302">
 <ele>420.88</ele>
 <time>2010-08-26T12:29:59Z</time>
 </trkpt>
 <trkpt lat="47.375511" lon="13.213467">
 <ele>420.39</ele>
 <time>2010-08-26T12:30:08Z</time>
 </trkpt>
 <trkpt lat="47.375843" lon="13.213730">
 <ele>420.83</ele>
 <time>2010-08-26T12:30:17Z</time>
 </trkpt>
 <trkpt lat="47.376232" lon="13.214043">
 <ele>422.46</ele>
 <time>2010-08-26T12:30:27Z</time>
 </trkpt>
 <trkpt lat="47.376350" lon="13.214124">
 <ele>423.04</ele>
 <time>2010-08-26T12:30:30Z</time>
 </trkpt>
 <trkpt lat="47.376648" lon="13.214183">
 <ele>424.32</ele>
 <time>2010-08-26T12:30:37Z</time>
 </trkpt>
 <trkpt lat="47.377010" lon="13.214253">
 <ele>424.70</ele>
 <time>2010-08-26T12:30:45Z</time>
 </trkpt>
 <trkpt lat="47.377052" lon="13.214269">
 <ele>424.70</ele>
 <time>2010-08-26T12:30:46Z</time>
 </trkpt>
 <trkpt lat="47.377464" lon="13.214573">
 <ele>425.09</ele>
 <time>2010-08-26T12:30:56Z</time>
 </trkpt>
 <trkpt lat="47.377914" lon="13.214949">
 <ele>425.29</ele>
 <time>2010-08-26T12:31:06Z</time>
 </trkpt>
 <trkpt lat="47.378281" lon="13.215209">
 <ele>424.71</ele>
 <time>2010-08-26T12:31:13Z</time>
 </trkpt>
 <trkpt lat="47.378811" lon="13.215470">
 <ele>423.57</ele>
 <time>2010-08-26T12:31:22Z</time>
 </trkpt>
 <trkpt lat="47.379250" lon="13.215741">
 <ele>422.84</ele>
 <time>2010-08-26T12:31:29Z</time>
 </trkpt>
 <trkpt lat="47.379616" lon="13.216101">
 <ele>421.24</ele>
 <time>2010-08-26T12:31:35Z</time>
 </trkpt>
 <trkpt lat="47.380112" lon="13.216633">
 <ele>419.68</ele>
 <time>2010-08-26T12:31:43Z</time>
 </trkpt>
 <trkpt lat="47.380398" lon="13.216819">
 <ele>418.85</ele>
 <time>2010-08-26T12:31:47Z</time>
 </trkpt>
 <trkpt lat="47.380787" lon="13.216878">
 <ele>418.24</ele>
 <time>2010-08-26T12:31:52Z</time>
 </trkpt>
 <trkpt lat="47.381336" lon="13.216741">
 <ele>417.09</ele>
 <time>2010-08-26T12:31:59Z</time>
 </trkpt>
 <trkpt lat="47.381851" lon="13.216448">
 <ele>416.55</ele>
 <time>2010-08-26T12:32:06Z</time>
 </trkpt>
 <trkpt lat="47.382725" lon="13.215935">
 <ele>415.11</ele>
 <time>2010-08-26T12:32:18Z</time>
 </trkpt>
 <trkpt lat="47.383343" lon="13.215570">
 <ele>415.62</ele>
 <time>2010-08-26T12:32:27Z</time>
 </trkpt>
 <trkpt lat="47.383869" lon="13.215281">
 <ele>415.77</ele>
 <time>2010-08-26T12:32:35Z</time>
 </trkpt>
 <trkpt lat="47.384529" lon="13.215044">
 <ele>415.60</ele>
 <time>2010-08-26T12:32:45Z</time>
 </trkpt>
 <trkpt lat="47.385044" lon="13.214891">
 <ele>415.63</ele>
 <time>2010-08-26T12:32:53Z</time>
 </trkpt>
 <trkpt lat="47.385639" lon="13.214709">
 <ele>415.05</ele>
 <time>2010-08-26T12:33:02Z</time>
 </trkpt>
 <trkpt lat="47.386227" lon="13.214537">
 <ele>414.78</ele>
 <time>2010-08-26T12:33:11Z</time>
 </trkpt>
 <trkpt lat="47.386623" lon="13.214405">
 <ele>416.21</ele>
 <time>2010-08-26T12:33:18Z</time>
 </trkpt>
 <trkpt lat="47.386776" lon="13.214325">
 <ele>416.89</ele>
 <time>2010-08-26T12:33:21Z</time>
 </trkpt>
 <trkpt lat="47.387058" lon="13.214121">
 <ele>417.37</ele>
 <time>2010-08-26T12:33:27Z</time>
 </trkpt>
 <trkpt lat="47.387344" lon="13.213810">
 <ele>417.80</ele>
 <time>2010-08-26T12:33:34Z</time>
 </trkpt>
 <trkpt lat="47.387531" lon="13.213584">
 <ele>418.46</ele>
 <time>2010-08-26T12:33:40Z</time>
 </trkpt>
 <trkpt lat="47.387691" lon="13.213399">
 <ele>418.72</ele>
 <time>2010-08-26T12:33:46Z</time>
 </trkpt>
 <trkpt lat="47.387733" lon="13.213349">
 <ele>418.89</ele>
 <time>2010-08-26T12:33:49Z</time>
 </trkpt>
 <trkpt lat="47.387733" lon="13.213349">
 <ele>419.07</ele>
 <time>2010-08-26T12:33:50Z</time>
 </trkpt>
 <trkpt lat="47.387753" lon="13.213350">
 <ele>418.73</ele>
 <time>2010-08-26T12:33:59Z</time>
 </trkpt>
 <trkpt lat="47.387875" lon="13.213289">
 <ele>417.54</ele>
 <time>2010-08-26T12:35:12Z</time>
 </trkpt>
 <trkpt lat="47.388138" lon="13.213429">
 <ele>416.90</ele>
 <time>2010-08-26T12:35:18Z</time>
 </trkpt>
 <trkpt lat="47.388557" lon="13.213628">
 <ele>416.40</ele>
 <time>2010-08-26T12:35:26Z</time>
 </trkpt>
 <trkpt lat="47.389095" lon="13.213828">
 <ele>415.43</ele>
 <time>2010-08-26T12:35:35Z</time>
 </trkpt>
 <trkpt lat="47.389641" lon="13.214074">
 <ele>414.70</ele>
 <time>2010-08-26T12:35:44Z</time>
 </trkpt>
 <trkpt lat="47.390224" lon="13.214464">
 <ele>414.33</ele>
 <time>2010-08-26T12:35:54Z</time>
 </trkpt>
 <trkpt lat="47.390778" lon="13.214965">
 <ele>414.09</ele>
 <time>2010-08-26T12:36:04Z</time>
 </trkpt>
 <trkpt lat="47.391373" lon="13.215522">
 <ele>413.91</ele>
 <time>2010-08-26T12:36:15Z</time>
 </trkpt>
 <trkpt lat="47.391933" lon="13.215933">
 <ele>413.23</ele>
 <time>2010-08-26T12:36:25Z</time>
 </trkpt>
 <trkpt lat="47.392582" lon="13.216225">
 <ele>413.31</ele>
 <time>2010-08-26T12:36:36Z</time>
 </trkpt>
 <trkpt lat="47.393032" lon="13.216498">
 <ele>413.51</ele>
 <time>2010-08-26T12:36:44Z</time>
 </trkpt>
 <trkpt lat="47.393509" lon="13.216890">
 <ele>414.18</ele>
 <time>2010-08-26T12:36:53Z</time>
 </trkpt>
 <trkpt lat="47.393993" lon="13.217426">
 <ele>414.14</ele>
 <time>2010-08-26T12:37:03Z</time>
 </trkpt>
 <trkpt lat="47.394409" lon="13.218043">
 <ele>414.46</ele>
 <time>2010-08-26T12:37:13Z</time>
 </trkpt>
 <trkpt lat="47.394730" lon="13.218642">
 <ele>414.61</ele>
 <time>2010-08-26T12:37:22Z</time>
 </trkpt>
 <trkpt lat="47.394997" lon="13.219305">
 <ele>415.10</ele>
 <time>2010-08-26T12:37:32Z</time>
 </trkpt>
 <trkpt lat="47.395180" lon="13.219781">
 <ele>415.27</ele>
 <time>2010-08-26T12:37:40Z</time>
 </trkpt>
 <trkpt lat="47.395321" lon="13.220154">
 <ele>415.68</ele>
 <time>2010-08-26T12:37:48Z</time>
 </trkpt>
 <trkpt lat="47.395340" lon="13.220228">
 <ele>415.91</ele>
 <time>2010-08-26T12:37:51Z</time>
 </trkpt>
 <trkpt lat="47.395275" lon="13.220271">
 <ele>415.58</ele>
 <time>2010-08-26T12:37:57Z</time>
 </trkpt>
 <trkpt lat="47.395245" lon="13.220291">
 <ele>415.59</ele>
 <time>2010-08-26T12:38:02Z</time>
 </trkpt>
 <trkpt lat="47.395233" lon="13.220317">
 <ele>415.33</ele>
 <time>2010-08-26T12:38:07Z</time>
 </trkpt>
 <trkpt lat="47.395218" lon="13.220390">
 <ele>415.37</ele>
 <time>2010-08-26T12:38:15Z</time>
 </trkpt>
 <trkpt lat="47.395237" lon="13.220389">
 <ele>415.82</ele>
 <time>2010-08-26T12:39:37Z</time>
 </trkpt>
 <trkpt lat="47.395248" lon="13.220400">
 <ele>415.12</ele>
 <time>2010-08-26T12:39:39Z</time>
 </trkpt>
 <trkpt lat="47.395267" lon="13.220422">
 <ele>415.13</ele>
 <time>2010-08-26T12:41:50Z</time>
 </trkpt>
 <trkpt lat="47.395287" lon="13.220422">
 <ele>415.20</ele>
 <time>2010-08-26T12:41:53Z</time>
 </trkpt>
 <trkpt lat="47.395306" lon="13.220416">
 <ele>415.34</ele>
 <time>2010-08-26T12:41:56Z</time>
 </trkpt>
 <trkpt lat="47.395378" lon="13.220325">
 <ele>415.40</ele>
 <time>2010-08-26T12:42:03Z</time>
 </trkpt>
 <trkpt lat="47.395271" lon="13.220413">
 <ele>415.68</ele>
 <time>2010-08-26T12:45:46Z</time>
 </trkpt>
 <trkpt lat="47.395206" lon="13.220395">
 <ele>413.25</ele>
 <time>2010-08-26T13:07:26Z</time>
 </trkpt>
 <trkpt lat="47.395206" lon="13.220395">
 <ele>413.54</ele>
 <time>2010-08-26T13:07:27Z</time>
 </trkpt>
 <trkpt lat="47.395210" lon="13.220361">
 <ele>413.28</ele>
 <time>2010-08-26T13:08:13Z</time>
 </trkpt>
 <trkpt lat="47.395206" lon="13.220353">
 <ele>413.28</ele>
 <time>2010-08-26T13:08:14Z</time>
 </trkpt>
 <trkpt lat="47.395210" lon="13.220309">
 <ele>413.01</ele>
 <time>2010-08-26T13:08:21Z</time>
 </trkpt>
 <trkpt lat="47.395237" lon="13.220237">
 <ele>412.98</ele>
 <time>2010-08-26T13:08:28Z</time>
 </trkpt>
 <trkpt lat="47.395329" lon="13.220224">
 <ele>413.41</ele>
 <time>2010-08-26T13:08:34Z</time>
 </trkpt>
 <trkpt lat="47.395355" lon="13.220282">
 <ele>413.45</ele>
 <time>2010-08-26T13:08:36Z</time>
 </trkpt>
 <trkpt lat="47.395470" lon="13.220500">
 <ele>413.51</ele>
 <time>2010-08-26T13:08:43Z</time>
 </trkpt>
 <trkpt lat="47.395584" lon="13.220791">
 <ele>413.63</ele>
 <time>2010-08-26T13:08:48Z</time>
 </trkpt>
 <trkpt lat="47.395733" lon="13.221163">
 <ele>413.40</ele>
 <time>2010-08-26T13:08:54Z</time>
 </trkpt>
 <trkpt lat="47.395966" lon="13.221772">
 <ele>413.91</ele>
 <time>2010-08-26T13:09:03Z</time>
 </trkpt>
 <trkpt lat="47.396255" lon="13.222443">
 <ele>413.76</ele>
 <time>2010-08-26T13:09:13Z</time>
 </trkpt>
 <trkpt lat="47.396572" lon="13.223026">
 <ele>413.69</ele>
 <time>2010-08-26T13:09:22Z</time>
 </trkpt>
 <trkpt lat="47.396969" lon="13.223583">
 <ele>412.97</ele>
 <time>2010-08-26T13:09:31Z</time>
 </trkpt>
 <trkpt lat="47.397430" lon="13.224056">
 <ele>412.39</ele>
 <time>2010-08-26T13:09:40Z</time>
 </trkpt>
 <trkpt lat="47.398003" lon="13.224460">
 <ele>411.79</ele>
 <time>2010-08-26T13:09:50Z</time>
 </trkpt>
 <trkpt lat="47.398563" lon="13.224691">
 <ele>411.20</ele>
 <time>2010-08-26T13:09:59Z</time>
 </trkpt>
 <trkpt lat="47.399227" lon="13.224802">
 <ele>410.51</ele>
 <time>2010-08-26T13:10:09Z</time>
 </trkpt>
 <trkpt lat="47.399918" lon="13.224770">
 <ele>409.97</ele>
 <time>2010-08-26T13:10:19Z</time>
 </trkpt>
 <trkpt lat="47.400543" lon="13.224622">
 <ele>409.03</ele>
 <time>2010-08-26T13:10:28Z</time>
 </trkpt>
 <trkpt lat="47.401089" lon="13.224398">
 <ele>409.04</ele>
 <time>2010-08-26T13:10:36Z</time>
 </trkpt>
 <trkpt lat="47.401737" lon="13.224005">
 <ele>408.45</ele>
 <time>2010-08-26T13:10:46Z</time>
 </trkpt>
 <trkpt lat="47.402340" lon="13.223520">
 <ele>408.01</ele>
 <time>2010-08-26T13:10:56Z</time>
 </trkpt>
 <trkpt lat="47.403000" lon="13.222866">
 <ele>408.17</ele>
 <time>2010-08-26T13:11:08Z</time>
 </trkpt>
 <trkpt lat="47.403439" lon="13.222321">
 <ele>408.27</ele>
 <time>2010-08-26T13:11:17Z</time>
 </trkpt>
 <trkpt lat="47.403763" lon="13.221858">
 <ele>408.05</ele>
 <time>2010-08-26T13:11:24Z</time>
 </trkpt>
 <trkpt lat="47.404396" lon="13.220879">
 <ele>408.41</ele>
 <time>2010-08-26T13:11:38Z</time>
 </trkpt>
 <trkpt lat="47.404793" lon="13.220280">
 <ele>407.56</ele>
 <time>2010-08-26T13:11:47Z</time>
 </trkpt>
 <trkpt lat="47.405151" lon="13.219751">
 <ele>407.97</ele>
 <time>2010-08-26T13:11:55Z</time>
 </trkpt>
 <trkpt lat="47.405243" lon="13.219651">
 <ele>407.98</ele>
 <time>2010-08-26T13:11:57Z</time>
 </trkpt>
 <trkpt lat="47.405437" lon="13.219312">
 <ele>407.95</ele>
 <time>2010-08-26T13:12:02Z</time>
 </trkpt>
 <trkpt lat="47.405792" lon="13.218778">
 <ele>408.08</ele>
 <time>2010-08-26T13:12:10Z</time>
 </trkpt>
 <trkpt lat="47.406303" lon="13.218076">
 <ele>407.73</ele>
 <time>2010-08-26T13:12:21Z</time>
 </trkpt>
 <trkpt lat="47.406815" lon="13.217514">
 <ele>407.65</ele>
 <time>2010-08-26T13:12:31Z</time>
 </trkpt>
 <trkpt lat="47.407272" lon="13.217213">
 <ele>407.87</ele>
 <time>2010-08-26T13:12:39Z</time>
 </trkpt>
 <trkpt lat="47.407703" lon="13.217061">
 <ele>407.79</ele>
 <time>2010-08-26T13:12:46Z</time>
 </trkpt>
 <trkpt lat="47.408340" lon="13.216948">
 <ele>407.59</ele>
 <time>2010-08-26T13:12:56Z</time>
 </trkpt>
 <trkpt lat="47.408897" lon="13.216973">
 <ele>407.66</ele>
 <time>2010-08-26T13:13:05Z</time>
 </trkpt>
 <trkpt lat="47.409443" lon="13.217029">
 <ele>408.05</ele>
 <time>2010-08-26T13:13:14Z</time>
 </trkpt>
 <trkpt lat="47.409637" lon="13.217171">
 <ele>408.02</ele>
 <time>2010-08-26T13:13:18Z</time>
 </trkpt>
 <trkpt lat="47.409771" lon="13.217278">
 <ele>407.59</ele>
 <time>2010-08-26T13:13:21Z</time>
 </trkpt>
 <trkpt lat="47.409855" lon="13.217197">
 <ele>407.40</ele>
 <time>2010-08-26T13:13:23Z</time>
 </trkpt>
 <trkpt lat="47.410084" lon="13.216989">
 <ele>407.46</ele>
 <time>2010-08-26T13:13:28Z</time>
 </trkpt>
 <trkpt lat="47.410641" lon="13.216857">
 <ele>407.01</ele>
 <time>2010-08-26T13:13:37Z</time>
 </trkpt>
 <trkpt lat="47.411221" lon="13.216675">
 <ele>406.02</ele>
 <time>2010-08-26T13:13:46Z</time>
 </trkpt>
 <trkpt lat="47.411621" lon="13.216579">
 <ele>405.74</ele>
 <time>2010-08-26T13:13:52Z</time>
 </trkpt>
 <trkpt lat="47.412159" lon="13.216518">
 <ele>405.18</ele>
 <time>2010-08-26T13:14:00Z</time>
 </trkpt>
 <trkpt lat="47.412487" lon="13.216540">
 <ele>405.40</ele>
 <time>2010-08-26T13:14:05Z</time>
 </trkpt>
 <trkpt lat="47.413067" lon="13.216589">
 <ele>404.93</ele>
 <time>2010-08-26T13:14:14Z</time>
 </trkpt>
 <trkpt lat="47.413441" lon="13.216659">
 <ele>405.29</ele>
 <time>2010-08-26T13:14:20Z</time>
 </trkpt>
 <trkpt lat="47.413967" lon="13.216879">
 <ele>405.88</ele>
 <time>2010-08-26T13:14:29Z</time>
 </trkpt>
 <trkpt lat="47.414139" lon="13.216966">
 <ele>406.25</ele>
 <time>2010-08-26T13:14:32Z</time>
 </trkpt>
 <trkpt lat="47.414463" lon="13.217298">
 <ele>407.18</ele>
 <time>2010-08-26T13:14:39Z</time>
 </trkpt>
 <trkpt lat="47.414536" lon="13.217409">
 <ele>407.55</ele>
 <time>2010-08-26T13:14:41Z</time>
 </trkpt>
 <trkpt lat="47.414623" lon="13.217577">
 <ele>408.24</ele>
 <time>2010-08-26T13:14:44Z</time>
 </trkpt>
 <trkpt lat="47.414825" lon="13.217812">
 <ele>409.76</ele>
 <time>2010-08-26T13:14:50Z</time>
 </trkpt>
 <trkpt lat="47.415005" lon="13.217967">
 <ele>409.49</ele>
 <time>2010-08-26T13:14:55Z</time>
 </trkpt>
 <trkpt lat="47.415192" lon="13.218002">
 <ele>409.78</ele>
 <time>2010-08-26T13:14:59Z</time>
 </trkpt>
 <trkpt lat="47.415424" lon="13.218125">
 <ele>410.53</ele>
 <time>2010-08-26T13:15:05Z</time>
 </trkpt>
 <trkpt lat="47.415646" lon="13.218059">
 <ele>411.07</ele>
 <time>2010-08-26T13:15:10Z</time>
 </trkpt>
 <trkpt lat="47.415741" lon="13.217906">
 <ele>411.62</ele>
 <time>2010-08-26T13:15:13Z</time>
 </trkpt>
 <trkpt lat="47.415947" lon="13.217665">
 <ele>413.64</ele>
 <time>2010-08-26T13:15:20Z</time>
 </trkpt>
 <trkpt lat="47.416069" lon="13.217621">
 <ele>414.28</ele>
 <time>2010-08-26T13:15:25Z</time>
 </trkpt>
 <trkpt lat="47.416084" lon="13.217753">
 <ele>414.52</ele>
 <time>2010-08-26T13:15:30Z</time>
 </trkpt>
 <trkpt lat="47.416065" lon="13.217770">
 <ele>414.77</ele>
 <time>2010-08-26T13:15:32Z</time>
 </trkpt>
 </trkseg>
 </trk>
</gpx>
